<?xml version='1.0' encoding='UTF-8'?><gpx version="1.1" creator="JPX - https://github.com/jenetics/jpx" xmlns="http://www.topografix.com/GPX/1/1"><trk><trkseg><trkpt lat="44.42064151070253" lon="8.94669358317412"><ele>21.0</ele><time>2026-03-29T07:39:20.003Z</time></trkpt><trkpt lat="44.420570780822075" lon="8.946637477239626"><ele>21.0</ele><time>2026-03-29T07:39:23.002Z</time></trkpt><trkpt lat="44.4206507921236" lon="8.946821550674578"><ele>21.0</ele><time>2026-03-29T07:41:30.337Z</time></trkpt><trkpt lat="44.420562220485614" lon="8.946931912979531"><ele>21.0</ele><time>2026-03-29T07:46:20.149Z</time></trkpt><trkpt lat="44.420528831218405" lon="8.947130760444217"><ele>21.0</ele><time>2026-03-29T07:46:26.62Z</time></trkpt><trkpt lat="44.420299571980415" lon="8.947610892363775"><ele>21.0</ele><time>2026-03-29T07:46:27.994Z</time></trkpt><trkpt lat="44.42032086201447" lon="8.947346610956776"><ele>19.0</ele><time>2026-03-29T07:46:31.995Z</time></trkpt><trkpt lat="44.42029207017708" lon="8.947247788318384"><ele>17.0</ele><time>2026-03-29T07:46:32.995Z</time></trkpt><trkpt lat="44.42047215536673" lon="8.947020554923403"><ele>15.0</ele><time>2026-03-29T07:46:35.996Z</time></trkpt><trkpt lat="44.42062009595771" lon="8.946811510258307"><ele>15.0</ele><time>2026-03-29T07:46:36.996Z</time></trkpt><trkpt lat="44.420552320990964" lon="8.946841692454592"><ele>15.0</ele><time>2026-03-29T07:47:46Z</time></trkpt><trkpt lat="44.420475926356396" lon="8.94690209375836"><ele>15.0</ele><time>2026-03-29T07:47:53Z</time></trkpt><trkpt lat="44.42062890757313" lon="8.946879589904931"><ele>15.0</ele><time>2026-03-29T07:48:01Z</time></trkpt><trkpt lat="44.42069233899964" lon="8.946850493062046"><ele>15.0</ele><time>2026-03-29T07:48:04Z</time></trkpt><trkpt lat="44.42075460432658" lon="8.946828556377898"><ele>15.0</ele><time>2026-03-29T07:48:08Z</time></trkpt><trkpt lat="44.4208040692596" lon="8.94677370780614"><ele>14.8</ele><time>2026-03-29T07:48:23Z</time></trkpt><trkpt lat="44.42086718323514" lon="8.946760290072964"><ele>14.6</ele><time>2026-03-29T07:48:26Z</time></trkpt><trkpt lat="44.42096200812171" lon="8.946725915456726"><ele>14.399999999999999</ele><time>2026-03-29T07:48:29Z</time></trkpt><trkpt lat="44.42110390353857" lon="8.946739225975325"><ele>14.2</ele><time>2026-03-29T07:48:32.999Z</time></trkpt><trkpt lat="44.421181501179504" lon="8.946744344881745"><ele>14.0</ele><time>2026-03-29T07:48:34.999Z</time></trkpt><trkpt lat="44.42137454519579" lon="8.946767821762613"><ele>14.0</ele><time>2026-03-29T07:48:39.999Z</time></trkpt><trkpt lat="44.42145031647119" lon="8.946790638798403"><ele>13.999999999999998</ele><time>2026-03-29T07:48:41.999Z</time></trkpt><trkpt lat="44.421532729931805" lon="8.946798633986127"><ele>13.999999999999998</ele><time>2026-03-29T07:48:43.999Z</time></trkpt><trkpt lat="44.42161737665285" lon="8.946810862076058"><ele>14.0</ele><time>2026-03-29T07:48:45.999Z</time></trkpt><trkpt lat="44.42170239375245" lon="8.946827923386557"><ele>14.0</ele><time>2026-03-29T07:48:47.999Z</time></trkpt><trkpt lat="44.42183226689385" lon="8.946832005461305"><ele>14.000000000000002</ele><time>2026-03-29T07:48:50.999Z</time></trkpt><trkpt lat="44.421914642208485" lon="8.946836029118094"><ele>14.0</ele><time>2026-03-29T07:48:52.999Z</time></trkpt><trkpt lat="44.422002072321284" lon="8.946846492740239"><ele>14.0</ele><time>2026-03-29T07:48:54.999Z</time></trkpt><trkpt lat="44.42209103727269" lon="8.946871324679867"><ele>14.0</ele><time>2026-03-29T07:48:56.999Z</time></trkpt><trkpt lat="44.422175768749995" lon="8.946883441373927"><ele>14.000000000000002</ele><time>2026-03-29T07:48:58.999Z</time></trkpt><trkpt lat="44.42225577723792" lon="8.946902304540405"><ele>14.0</ele><time>2026-03-29T07:49:00.999Z</time></trkpt><trkpt lat="44.42233652878917" lon="8.94691464107385"><ele>14.166666666666668</ele><time>2026-03-29T07:49:02.999Z</time></trkpt><trkpt lat="44.422409664244825" lon="8.946940793737872"><ele>14.333333333333334</ele><time>2026-03-29T07:49:04.999Z</time></trkpt><trkpt lat="44.422466263545786" lon="8.946994502149598"><ele>14.5</ele><time>2026-03-29T07:49:07.999Z</time></trkpt><trkpt lat="44.42257213580551" lon="8.946989928702678"><ele>14.666666666666668</ele><time>2026-03-29T07:49:14Z</time></trkpt><trkpt lat="44.42266547600039" lon="8.947023578792612"><ele>14.833333333333334</ele><time>2026-03-29T07:49:16Z</time></trkpt><trkpt lat="44.42273702244012" lon="8.947024679916293"><ele>15.0</ele><time>2026-03-29T07:49:18Z</time></trkpt><trkpt lat="44.42280510706126" lon="8.947051579075756"><ele>15.5</ele><time>2026-03-29T07:49:20Z</time></trkpt><trkpt lat="44.422983228511995" lon="8.947082400977159"><ele>16.0</ele><time>2026-03-29T07:50:24Z</time></trkpt><trkpt lat="44.423059393311405" lon="8.947102134202787"><ele>16.5</ele><time>2026-03-29T07:50:26Z</time></trkpt><trkpt lat="44.42321064925934" lon="8.947102545483123"><ele>17.0</ele><time>2026-03-29T07:50:30Z</time></trkpt><trkpt lat="44.42332070051274" lon="8.94711809462403"><ele>17.0</ele><time>2026-03-29T07:50:34Z</time></trkpt><trkpt lat="44.42339890490366" lon="8.947136999023076"><ele>17.0</ele><time>2026-03-29T07:50:36Z</time></trkpt><trkpt lat="44.42347914356194" lon="8.947147687244728"><ele>17.0</ele><time>2026-03-29T07:50:38Z</time></trkpt><trkpt lat="44.423556317187014" lon="8.947168424491814"><ele>17.0</ele><time>2026-03-29T07:50:39.999Z</time></trkpt><trkpt lat="44.42363685141475" lon="8.947175204169444"><ele>17.0</ele><time>2026-03-29T07:50:41.999Z</time></trkpt><trkpt lat="44.4237092527103" lon="8.947189229998376"><ele>17.0</ele><time>2026-03-29T07:50:43.999Z</time></trkpt><trkpt lat="44.42382870989142" lon="8.947200220764868"><ele>17.57142857142857</ele><time>2026-03-29T07:50:46.999Z</time></trkpt><trkpt lat="44.42391209634511" lon="8.947216120388855"><ele>18.142857142857142</ele><time>2026-03-29T07:50:49Z</time></trkpt><trkpt lat="44.42397975339469" lon="8.947219300472444"><ele>18.714285714285715</ele><time>2026-03-29T07:50:51Z</time></trkpt><trkpt lat="44.42404740902084" lon="8.947244450968107"><ele>19.285714285714285</ele><time>2026-03-29T07:50:54Z</time></trkpt><trkpt lat="44.42410952851839" lon="8.947263569454417"><ele>19.857142857142858</ele><time>2026-03-29T07:50:57Z</time></trkpt><trkpt lat="44.42414527887871" lon="8.947341812932857"><ele>20.428571428571427</ele><time>2026-03-29T07:51:00Z</time></trkpt><trkpt lat="44.42423223066716" lon="8.947372780903105"><ele>21.0</ele><time>2026-03-29T07:51:03Z</time></trkpt><trkpt lat="44.42426699412231" lon="8.947448479381315"><ele>21.0</ele><time>2026-03-29T07:51:05Z</time></trkpt><trkpt lat="44.42426386961841" lon="8.947541086735443"><ele>21.0</ele><time>2026-03-29T07:51:07Z</time></trkpt><trkpt lat="44.424339237975985" lon="8.947610421625734"><ele>21.0</ele><time>2026-03-29T07:51:10Z</time></trkpt><trkpt lat="44.424407017734566" lon="8.947626961122994"><ele>21.0</ele><time>2026-03-29T07:51:12Z</time></trkpt><trkpt lat="44.424474299907914" lon="8.94765649899782"><ele>21.0</ele><time>2026-03-29T07:51:14Z</time></trkpt><trkpt lat="44.42454855489269" lon="8.947655467088312"><ele>21.0</ele><time>2026-03-29T07:51:16Z</time></trkpt><trkpt lat="44.42461852411463" lon="8.94765544255553"><ele>21.0</ele><time>2026-03-29T07:51:18Z</time></trkpt><trkpt lat="44.42469389777696" lon="8.947666050763146"><ele>21.428571428571427</ele><time>2026-03-29T07:51:20Z</time></trkpt><trkpt lat="44.424767713149976" lon="8.947674172607371"><ele>21.857142857142858</ele><time>2026-03-29T07:51:22Z</time></trkpt><trkpt lat="44.42484529262976" lon="8.947689967450454"><ele>22.285714285714285</ele><time>2026-03-29T07:51:24Z</time></trkpt><trkpt lat="44.42492026932019" lon="8.947706706222164"><ele>22.714285714285715</ele><time>2026-03-29T07:51:26Z</time></trkpt><trkpt lat="44.42499221753755" lon="8.947724784667676"><ele>23.142857142857142</ele><time>2026-03-29T07:51:28Z</time></trkpt><trkpt lat="44.42506213290495" lon="8.94772602619715"><ele>23.57142857142857</ele><time>2026-03-29T07:51:30Z</time></trkpt><trkpt lat="44.42513421240613" lon="8.947737470076921"><ele>24.0</ele><time>2026-03-29T07:51:32Z</time></trkpt><trkpt lat="44.42520548309976" lon="8.947751755834927"><ele>23.999999999999996</ele><time>2026-03-29T07:51:34Z</time></trkpt><trkpt lat="44.42527292943417" lon="8.94777177181418"><ele>24.0</ele><time>2026-03-29T07:51:36Z</time></trkpt><trkpt lat="44.42532566738516" lon="8.947828504278133"><ele>24.0</ele><time>2026-03-29T07:51:38Z</time></trkpt><trkpt lat="44.42535830268684" lon="8.94790838485376"><ele>24.0</ele><time>2026-03-29T07:51:40Z</time></trkpt><trkpt lat="44.425385286581374" lon="8.947989370541933"><ele>24.0</ele><time>2026-03-29T07:51:42Z</time></trkpt><trkpt lat="44.4253947347325" lon="8.948094242147194"><ele>23.999999999999996</ele><time>2026-03-29T07:51:45Z</time></trkpt><trkpt lat="44.425384007830765" lon="8.948220913202817"><ele>24.0</ele><time>2026-03-29T07:51:48Z</time></trkpt><trkpt lat="44.42536107456163" lon="8.948307113691001"><ele>24.833333333333332</ele><time>2026-03-29T07:51:50Z</time></trkpt><trkpt lat="44.42530801374428" lon="8.948394677783746"><ele>25.666666666666664</ele><time>2026-03-29T07:51:53Z</time></trkpt><trkpt lat="44.42527592406105" lon="8.948475904801244"><ele>26.5</ele><time>2026-03-29T07:51:57Z</time></trkpt><trkpt lat="44.42526892719176" lon="8.948576985573155"><ele>27.333333333333332</ele><time>2026-03-29T07:52:41Z</time></trkpt><trkpt lat="44.42532707459607" lon="8.94863601163895"><ele>28.166666666666664</ele><time>2026-03-29T07:52:44Z</time></trkpt><trkpt lat="44.425340819639025" lon="8.948747552098071"><ele>29.0</ele><time>2026-03-29T07:52:47Z</time></trkpt><trkpt lat="44.42532714497624" lon="8.948868470752236"><ele>28.999999999999996</ele><time>2026-03-29T07:52:50Z</time></trkpt><trkpt lat="44.42534617529628" lon="8.948976015405433"><ele>29.0</ele><time>2026-03-29T07:52:52Z</time></trkpt><trkpt lat="44.42536749560941" lon="8.94908813823525"><ele>29.0</ele><time>2026-03-29T07:52:54Z</time></trkpt><trkpt lat="44.42535589753578" lon="8.949208925322603"><ele>29.0</ele><time>2026-03-29T07:52:57Z</time></trkpt><trkpt lat="44.42537226355312" lon="8.949302476049226"><ele>28.999999999999996</ele><time>2026-03-29T07:53:00Z</time></trkpt><trkpt lat="44.42543884709217" lon="8.949333916477515"><ele>29.0</ele><time>2026-03-29T07:53:02Z</time></trkpt><trkpt lat="44.4255165029163" lon="8.949368158549044"><ele>30.4</ele><time>2026-03-29T07:53:04Z</time></trkpt><trkpt lat="44.42564274379744" lon="8.949371285312807"><ele>31.799999999999997</ele><time>2026-03-29T07:53:07Z</time></trkpt><trkpt lat="44.42571513820413" lon="8.949389549789935"><ele>33.2</ele><time>2026-03-29T07:53:09Z</time></trkpt><trkpt lat="44.42577896477397" lon="8.949418255700687"><ele>34.6</ele><time>2026-03-29T07:53:11Z</time></trkpt><trkpt lat="44.425899692194236" lon="8.94942895464528"><ele>36.0</ele><time>2026-03-29T07:53:14Z</time></trkpt><trkpt lat="44.42597848273406" lon="8.949449451947592"><ele>36.00000000000001</ele><time>2026-03-29T07:53:16Z</time></trkpt><trkpt lat="44.426056568067395" lon="8.949462244757934"><ele>36.0</ele><time>2026-03-29T07:53:18Z</time></trkpt><trkpt lat="44.426132186883564" lon="8.949485741641961"><ele>36.0</ele><time>2026-03-29T07:53:20Z</time></trkpt><trkpt lat="44.426211004855546" lon="8.949496145983447"><ele>36.0</ele><time>2026-03-29T07:53:22Z</time></trkpt><trkpt lat="44.42628037729532" lon="8.949504652718664"><ele>36.0</ele><time>2026-03-29T07:53:24Z</time></trkpt><trkpt lat="44.42635091980928" lon="8.949516717826043"><ele>36.00000000000001</ele><time>2026-03-29T07:53:26Z</time></trkpt><trkpt lat="44.42641933542582" lon="8.94953172247993"><ele>36.0</ele><time>2026-03-29T07:53:28Z</time></trkpt><trkpt lat="44.426488250171786" lon="8.949542822097312"><ele>35.333333333333336</ele><time>2026-03-29T07:53:30Z</time></trkpt><trkpt lat="44.4265626945892" lon="8.949563038804072"><ele>34.666666666666664</ele><time>2026-03-29T07:53:32Z</time></trkpt><trkpt lat="44.42663140984639" lon="8.949594633960036"><ele>34.0</ele><time>2026-03-29T07:53:34Z</time></trkpt><trkpt lat="44.42672307645299" lon="8.949645751829822"><ele>33.33333333333333</ele><time>2026-03-29T07:53:37Z</time></trkpt><trkpt lat="44.42676362592635" lon="8.94972425846163"><ele>32.666666666666664</ele><time>2026-03-29T07:53:39Z</time></trkpt><trkpt lat="44.426807416044426" lon="8.949800700109087"><ele>32.0</ele><time>2026-03-29T07:53:41Z</time></trkpt><trkpt lat="44.42685204553366" lon="8.949887090774425"><ele>32.0</ele><time>2026-03-29T07:53:43Z</time></trkpt><trkpt lat="44.426899314355616" lon="8.949972183315086"><ele>31.999999999999996</ele><time>2026-03-29T07:53:45Z</time></trkpt><trkpt lat="44.42693879032273" lon="8.950056440822435"><ele>32.0</ele><time>2026-03-29T07:53:47Z</time></trkpt><trkpt lat="44.4269845638084" lon="8.950130062198232"><ele>32.0</ele><time>2026-03-29T07:53:49Z</time></trkpt><trkpt lat="44.4270233350032" lon="8.95021424360831"><ele>31.999999999999996</ele><time>2026-03-29T07:53:51Z</time></trkpt><trkpt lat="44.42704963472957" lon="8.950303753650886"><ele>32.0</ele><time>2026-03-29T07:53:53Z</time></trkpt><trkpt lat="44.42708254266799" lon="8.950380115098284"><ele>32.0</ele><time>2026-03-29T07:53:55Z</time></trkpt><trkpt lat="44.427119531227135" lon="8.950474234988139"><ele>31.333333333333332</ele><time>2026-03-29T07:53:57Z</time></trkpt><trkpt lat="44.42714835680521" lon="8.950576182163655"><ele>30.666666666666664</ele><time>2026-03-29T07:53:59Z</time></trkpt><trkpt lat="44.42716084083303" lon="8.950684413826709"><ele>30.0</ele><time>2026-03-29T07:54:01Z</time></trkpt><trkpt lat="44.42718992702541" lon="8.950785246019509"><ele>29.333333333333336</ele><time>2026-03-29T07:54:03Z</time></trkpt><trkpt lat="44.42720859223626" lon="8.950885114191564"><ele>28.666666666666668</ele><time>2026-03-29T07:54:05Z</time></trkpt><trkpt lat="44.427236293079005" lon="8.950980226285166"><ele>28.0</ele><time>2026-03-29T07:54:07Z</time></trkpt><trkpt lat="44.42726486513836" lon="8.951077853359186"><ele>28.000000000000004</ele><time>2026-03-29T07:54:09Z</time></trkpt><trkpt lat="44.427288581085044" lon="8.951187177645595"><ele>28.0</ele><time>2026-03-29T07:54:11Z</time></trkpt><trkpt lat="44.42731796401223" lon="8.951294321765525"><ele>28.0</ele><time>2026-03-29T07:54:13Z</time></trkpt><trkpt lat="44.42734349364774" lon="8.951411152049655"><ele>28.0</ele><time>2026-03-29T07:54:15Z</time></trkpt><trkpt lat="44.42737156106755" lon="8.951516629828685"><ele>28.000000000000004</ele><time>2026-03-29T07:54:17Z</time></trkpt><trkpt lat="44.4274020145408" lon="8.95162500033966"><ele>28.0</ele><time>2026-03-29T07:54:19Z</time></trkpt><trkpt lat="44.42742370286164" lon="8.951734391432737"><ele>30.166666666666668</ele><time>2026-03-29T07:54:21Z</time></trkpt><trkpt lat="44.42744467506604" lon="8.951839144602092"><ele>32.333333333333336</ele><time>2026-03-29T07:54:23Z</time></trkpt><trkpt lat="44.42747444674895" lon="8.95193813679777"><ele>34.5</ele><time>2026-03-29T07:54:25Z</time></trkpt><trkpt lat="44.427504518233604" lon="8.952038554048093"><ele>36.666666666666664</ele><time>2026-03-29T07:54:27Z</time></trkpt><trkpt lat="44.42752765128308" lon="8.952137026270622"><ele>38.83333333333333</ele><time>2026-03-29T07:54:29Z</time></trkpt><trkpt lat="44.42754902520408" lon="8.952241018741304"><ele>41.0</ele><time>2026-03-29T07:54:31Z</time></trkpt><trkpt lat="44.427565811548355" lon="8.95234313091453"><ele>41.0</ele><time>2026-03-29T07:54:33Z</time></trkpt><trkpt lat="44.42758916204621" lon="8.952445256999246"><ele>41.0</ele><time>2026-03-29T07:54:35Z</time></trkpt><trkpt lat="44.42761327807215" lon="8.952550260621404"><ele>41.0</ele><time>2026-03-29T07:54:37Z</time></trkpt><trkpt lat="44.427632013049035" lon="8.952658020960758"><ele>41.0</ele><time>2026-03-29T07:54:39Z</time></trkpt><trkpt lat="44.427653125715814" lon="8.952762025437709"><ele>41.0</ele><time>2026-03-29T07:54:41Z</time></trkpt><trkpt lat="44.42767102568849" lon="8.952862339039015"><ele>41.0</ele><time>2026-03-29T07:54:43Z</time></trkpt><trkpt lat="44.427698820288846" lon="8.952962200145137"><ele>43.166666666666664</ele><time>2026-03-29T07:54:45Z</time></trkpt><trkpt lat="44.42772352959103" lon="8.953061126651988"><ele>45.33333333333333</ele><time>2026-03-29T07:54:47Z</time></trkpt><trkpt lat="44.42773954968836" lon="8.95316696123311"><ele>47.5</ele><time>2026-03-29T07:54:49Z</time></trkpt><trkpt lat="44.42776424954636" lon="8.953272917765032"><ele>49.666666666666664</ele><time>2026-03-29T07:54:51Z</time></trkpt><trkpt lat="44.42778677435086" lon="8.953378014985178"><ele>51.833333333333336</ele><time>2026-03-29T07:54:53Z</time></trkpt><trkpt lat="44.42781088628676" lon="8.953491012121333"><ele>54.0</ele><time>2026-03-29T07:54:55Z</time></trkpt><trkpt lat="44.427832040851925" lon="8.953605008510571"><ele>56.0</ele><time>2026-03-29T07:54:57Z</time></trkpt><trkpt lat="44.42785290401288" lon="8.953721595049874"><ele>58.0</ele><time>2026-03-29T07:54:59Z</time></trkpt><trkpt lat="44.42787283459294" lon="8.953832908328739"><ele>60.0</ele><time>2026-03-29T07:55:01Z</time></trkpt><trkpt lat="44.427899612842616" lon="8.953939884422269"><ele>62.0</ele><time>2026-03-29T07:55:03Z</time></trkpt><trkpt lat="44.42794282595925" lon="8.954051628944072"><ele>64.0</ele><time>2026-03-29T07:55:05Z</time></trkpt><trkpt lat="44.42797002799301" lon="8.954159312064181"><ele>66.0</ele><time>2026-03-29T07:55:07Z</time></trkpt><trkpt lat="44.42800436955365" lon="8.954266876972754"><ele>60.166666666666664</ele><time>2026-03-29T07:55:09Z</time></trkpt><trkpt lat="44.42804838888581" lon="8.954375009936452"><ele>54.333333333333336</ele><time>2026-03-29T07:55:11Z</time></trkpt><trkpt lat="44.428074980542" lon="8.954479468861788"><ele>48.5</ele><time>2026-03-29T07:55:13Z</time></trkpt><trkpt lat="44.42811040080991" lon="8.95458572199792"><ele>42.66666666666667</ele><time>2026-03-29T07:55:15Z</time></trkpt><trkpt lat="44.428141575766986" lon="8.954687836015415"><ele>36.833333333333336</ele><time>2026-03-29T07:55:17Z</time></trkpt><trkpt lat="44.4281743240449" lon="8.954790464268685"><ele>31.0</ele><time>2026-03-29T07:55:19Z</time></trkpt><trkpt lat="44.4282055957277" lon="8.95488666590565"><ele>31.000000000000004</ele><time>2026-03-29T07:55:21Z</time></trkpt><trkpt lat="44.42824232322716" lon="8.954984711206327"><ele>31.0</ele><time>2026-03-29T07:55:23Z</time></trkpt><trkpt lat="44.42828866528951" lon="8.955079733335637"><ele>31.0</ele><time>2026-03-29T07:55:25Z</time></trkpt><trkpt lat="44.4283288289999" lon="8.955180142784702"><ele>31.0</ele><time>2026-03-29T07:55:27Z</time></trkpt><trkpt lat="44.428372815556784" lon="8.955279922166968"><ele>31.000000000000004</ele><time>2026-03-29T07:55:29Z</time></trkpt><trkpt lat="44.428407824146824" lon="8.955375673592176"><ele>31.0</ele><time>2026-03-29T07:55:31Z</time></trkpt><trkpt lat="44.42845185193856" lon="8.95550573035811"><ele>32.0</ele><time>2026-03-29T07:55:34Z</time></trkpt><trkpt lat="44.42850889028944" lon="8.95560119257997"><ele>33.0</ele><time>2026-03-29T07:55:36Z</time></trkpt><trkpt lat="44.428552754309365" lon="8.95568470248068"><ele>34.0</ele><time>2026-03-29T07:55:38Z</time></trkpt><trkpt lat="44.42859684288742" lon="8.955774625492385"><ele>35.0</ele><time>2026-03-29T07:55:40Z</time></trkpt><trkpt lat="44.428640850191954" lon="8.955859846673645"><ele>36.0</ele><time>2026-03-29T07:55:42Z</time></trkpt><trkpt lat="44.42868525915828" lon="8.9559464936469"><ele>37.0</ele><time>2026-03-29T07:55:44Z</time></trkpt><trkpt lat="44.42873039853874" lon="8.956035448462814"><ele>38.5</ele><time>2026-03-29T07:55:46Z</time></trkpt><trkpt lat="44.42877763582205" lon="8.956121277678845"><ele>40.0</ele><time>2026-03-29T07:55:48Z</time></trkpt><trkpt lat="44.428822562184614" lon="8.956205879070936"><ele>41.5</ele><time>2026-03-29T07:55:50Z</time></trkpt><trkpt lat="44.428865963693355" lon="8.956295178306156"><ele>43.0</ele><time>2026-03-29T07:55:52Z</time></trkpt><trkpt lat="44.428918293447914" lon="8.9563757364227"><ele>44.5</ele><time>2026-03-29T07:55:54Z</time></trkpt><trkpt lat="44.428968091127786" lon="8.95645846341601"><ele>46.0</ele><time>2026-03-29T07:55:56Z</time></trkpt><trkpt lat="44.429021570338975" lon="8.956542621615883"><ele>43.66666666666667</ele><time>2026-03-29T07:55:58Z</time></trkpt><trkpt lat="44.42907570480554" lon="8.956636157731358"><ele>41.333333333333336</ele><time>2026-03-29T07:56:00Z</time></trkpt><trkpt lat="44.42913436315085" lon="8.956736388358188"><ele>39.0</ele><time>2026-03-29T07:56:02Z</time></trkpt><trkpt lat="44.429195917794814" lon="8.956818403255593"><ele>36.666666666666664</ele><time>2026-03-29T07:56:04Z</time></trkpt><trkpt lat="44.42925681334886" lon="8.956902008615607"><ele>34.33333333333333</ele><time>2026-03-29T07:56:06Z</time></trkpt><trkpt lat="44.429311816316904" lon="8.956991986319672"><ele>32.0</ele><time>2026-03-29T07:56:08Z</time></trkpt><trkpt lat="44.42936921882571" lon="8.957070986630901"><ele>31.999999999999996</ele><time>2026-03-29T07:56:10Z</time></trkpt><trkpt lat="44.42942518292548" lon="8.957145204204508"><ele>32.0</ele><time>2026-03-29T07:56:12Z</time></trkpt><trkpt lat="44.429486756579315" lon="8.957220100873256"><ele>32.0</ele><time>2026-03-29T07:56:14Z</time></trkpt><trkpt lat="44.42954421869635" lon="8.957299128898526"><ele>32.0</ele><time>2026-03-29T07:56:16Z</time></trkpt><trkpt lat="44.429601756528015" lon="8.957389497237404"><ele>31.999999999999996</ele><time>2026-03-29T07:56:18Z</time></trkpt><trkpt lat="44.42964894582738" lon="8.957452475608923"><ele>32.0</ele><time>2026-03-29T07:56:20Z</time></trkpt><trkpt lat="44.42971288167545" lon="8.957538220836502"><ele>31.333333333333332</ele><time>2026-03-29T07:56:23Z</time></trkpt><trkpt lat="44.42976697035032" lon="8.957603722833271"><ele>30.666666666666664</ele><time>2026-03-29T07:56:25Z</time></trkpt><trkpt lat="44.429830376069475" lon="8.957676002035587"><ele>30.0</ele><time>2026-03-29T07:56:27Z</time></trkpt><trkpt lat="44.429893418048046" lon="8.957761254067384"><ele>29.333333333333336</ele><time>2026-03-29T07:56:29Z</time></trkpt><trkpt lat="44.42995377850177" lon="8.95783357403149"><ele>28.666666666666668</ele><time>2026-03-29T07:56:31Z</time></trkpt><trkpt lat="44.430014221418084" lon="8.957895342142697"><ele>28.0</ele><time>2026-03-29T07:56:33Z</time></trkpt><trkpt lat="44.43007406402026" lon="8.95795233697572"><ele>28.000000000000004</ele><time>2026-03-29T07:56:35Z</time></trkpt><trkpt lat="44.43013772314058" lon="8.958026131961478"><ele>28.0</ele><time>2026-03-29T07:56:37Z</time></trkpt><trkpt lat="44.43019328967669" lon="8.958092897226363"><ele>28.0</ele><time>2026-03-29T07:56:39Z</time></trkpt><trkpt lat="44.43025533817634" lon="8.958166920254737"><ele>28.0</ele><time>2026-03-29T07:56:42.001Z</time></trkpt><trkpt lat="44.43032080734159" lon="8.958251583361418"><ele>28.000000000000004</ele><time>2026-03-29T07:56:45.001Z</time></trkpt><trkpt lat="44.43039044789189" lon="8.958343726752828"><ele>28.0</ele><time>2026-03-29T07:56:48.001Z</time></trkpt><trkpt lat="44.43044309866976" lon="8.95840130078809"><ele>28.666666666666668</ele><time>2026-03-29T07:56:50.001Z</time></trkpt><trkpt lat="44.43048672605505" lon="8.958466170500222"><ele>29.333333333333336</ele><time>2026-03-29T07:56:52.001Z</time></trkpt><trkpt lat="44.430540850495454" lon="8.958532971147958"><ele>30.0</ele><time>2026-03-29T07:56:53.001Z</time></trkpt><trkpt lat="44.43062939474621" lon="8.9586103811794"><ele>30.666666666666664</ele><time>2026-03-29T07:56:55.001Z</time></trkpt><trkpt lat="44.43070438102075" lon="8.958687967004403"><ele>31.333333333333332</ele><time>2026-03-29T07:56:57Z</time></trkpt><trkpt lat="44.430780049572434" lon="8.958773740325729"><ele>32.0</ele><time>2026-03-29T07:56:59Z</time></trkpt><trkpt lat="44.43085155838572" lon="8.958849110857567"><ele>31.999999999999996</ele><time>2026-03-29T07:57:01Z</time></trkpt><trkpt lat="44.43092149176645" lon="8.95891333826726"><ele>32.0</ele><time>2026-03-29T07:57:03Z</time></trkpt><trkpt lat="44.43098977334486" lon="8.9589947595"><ele>32.0</ele><time>2026-03-29T07:57:05Z</time></trkpt><trkpt lat="44.431056304453044" lon="8.959078200031717"><ele>32.0</ele><time>2026-03-29T07:57:07Z</time></trkpt><trkpt lat="44.431127160423756" lon="8.959152136433909"><ele>31.999999999999996</ele><time>2026-03-29T07:57:09Z</time></trkpt><trkpt lat="44.431189732986525" lon="8.959221273051059"><ele>32.0</ele><time>2026-03-29T07:57:11Z</time></trkpt><trkpt lat="44.431258409982654" lon="8.959291230846295"><ele>31.833333333333332</ele><time>2026-03-29T07:57:13Z</time></trkpt><trkpt lat="44.43131903515925" lon="8.959366559423133"><ele>31.666666666666664</ele><time>2026-03-29T07:57:15Z</time></trkpt><trkpt lat="44.431385622801145" lon="8.959436127069328"><ele>31.5</ele><time>2026-03-29T07:57:17Z</time></trkpt><trkpt lat="44.4314483258162" lon="8.959512812841023"><ele>31.333333333333336</ele><time>2026-03-29T07:57:19Z</time></trkpt><trkpt lat="44.43151149977119" lon="8.959586171856536"><ele>31.166666666666668</ele><time>2026-03-29T07:57:21Z</time></trkpt><trkpt lat="44.43157778647633" lon="8.959654766331369"><ele>31.0</ele><time>2026-03-29T07:57:23Z</time></trkpt><trkpt lat="44.431637602732074" lon="8.959722192373603"><ele>31.0</ele><time>2026-03-29T07:57:25Z</time></trkpt><trkpt lat="44.43169219753177" lon="8.959789932515616"><ele>31.000000000000004</ele><time>2026-03-29T07:57:27Z</time></trkpt><trkpt lat="44.43174060770094" lon="8.959853194574857"><ele>31.0</ele><time>2026-03-29T07:57:29Z</time></trkpt><trkpt lat="44.43179264796384" lon="8.959911666514861"><ele>31.0</ele><time>2026-03-29T07:57:31Z</time></trkpt><trkpt lat="44.4318500780512" lon="8.95997041904875"><ele>31.000000000000004</ele><time>2026-03-29T07:57:33Z</time></trkpt><trkpt lat="44.43190726983957" lon="8.96004121266681"><ele>31.0</ele><time>2026-03-29T07:57:35Z</time></trkpt><trkpt lat="44.431970323653154" lon="8.960107924224465"><ele>31.0</ele><time>2026-03-29T07:57:37Z</time></trkpt><trkpt lat="44.432029486046375" lon="8.960179698151428"><ele>31.333333333333336</ele><time>2026-03-29T07:57:39Z</time></trkpt><trkpt lat="44.4320893127344" lon="8.960260831227785"><ele>31.666666666666668</ele><time>2026-03-29T07:57:41Z</time></trkpt><trkpt lat="44.43215461556867" lon="8.960324239407916"><ele>32.0</ele><time>2026-03-29T07:57:43Z</time></trkpt><trkpt lat="44.43221669287821" lon="8.960394574258283"><ele>32.333333333333336</ele><time>2026-03-29T07:57:45Z</time></trkpt><trkpt lat="44.4322807353066" lon="8.960461665917673"><ele>32.666666666666664</ele><time>2026-03-29T07:57:47Z</time></trkpt><trkpt lat="44.43234393986824" lon="8.960521183847707"><ele>33.0</ele><time>2026-03-29T07:57:49Z</time></trkpt><trkpt lat="44.43239891851829" lon="8.960590469029968"><ele>33.0</ele><time>2026-03-29T07:57:51Z</time></trkpt><trkpt lat="44.43245946584776" lon="8.960660614256376"><ele>33.0</ele><time>2026-03-29T07:57:53Z</time></trkpt><trkpt lat="44.43251328881854" lon="8.960736702842025"><ele>33.0</ele><time>2026-03-29T07:57:55Z</time></trkpt><trkpt lat="44.432575693644786" lon="8.960795294309785"><ele>33.0</ele><time>2026-03-29T07:57:57Z</time></trkpt><trkpt lat="44.43263199595215" lon="8.960863042670905"><ele>33.0</ele><time>2026-03-29T07:57:59Z</time></trkpt><trkpt lat="44.43269128682734" lon="8.96092807679209"><ele>33.0</ele><time>2026-03-29T07:58:01Z</time></trkpt><trkpt lat="44.43274936554235" lon="8.960991468059628"><ele>32.666666666666664</ele><time>2026-03-29T07:58:03Z</time></trkpt><trkpt lat="44.432805549592004" lon="8.961066406570053"><ele>32.333333333333336</ele><time>2026-03-29T07:58:05Z</time></trkpt><trkpt lat="44.43286160824869" lon="8.96113478011823"><ele>32.0</ele><time>2026-03-29T07:58:07Z</time></trkpt><trkpt lat="44.43292505274716" lon="8.961198183420487"><ele>31.666666666666668</ele><time>2026-03-29T07:58:09Z</time></trkpt><trkpt lat="44.43298448680971" lon="8.961262039105662"><ele>31.333333333333336</ele><time>2026-03-29T07:58:11Z</time></trkpt><trkpt lat="44.4330456355244" lon="8.961320342753744"><ele>31.0</ele><time>2026-03-29T07:58:13Z</time></trkpt><trkpt lat="44.43310297325877" lon="8.961384107541534"><ele>31.000000000000004</ele><time>2026-03-29T07:58:15Z</time></trkpt><trkpt lat="44.433162308886196" lon="8.961442379255068"><ele>31.0</ele><time>2026-03-29T07:58:17Z</time></trkpt><trkpt lat="44.43322008578489" lon="8.96150638396481"><ele>31.0</ele><time>2026-03-29T07:58:19Z</time></trkpt><trkpt lat="44.43327620660253" lon="8.961576409166263"><ele>31.0</ele><time>2026-03-29T07:58:21Z</time></trkpt><trkpt lat="44.43333310659478" lon="8.961646532136387"><ele>31.000000000000004</ele><time>2026-03-29T07:58:23Z</time></trkpt><trkpt lat="44.43339930752961" lon="8.961704990332274"><ele>31.0</ele><time>2026-03-29T07:58:25Z</time></trkpt><trkpt lat="44.43346720900905" lon="8.96176659613836"><ele>31.000000000000004</ele><time>2026-03-29T07:58:27Z</time></trkpt><trkpt lat="44.43353903023834" lon="8.96181853189928"><ele>31.0</ele><time>2026-03-29T07:58:29Z</time></trkpt><trkpt lat="44.43361461703274" lon="8.961862135716409"><ele>31.0</ele><time>2026-03-29T07:58:31Z</time></trkpt><trkpt lat="44.43368339960136" lon="8.961910317457587"><ele>31.0</ele><time>2026-03-29T07:58:33Z</time></trkpt><trkpt lat="44.43375028303548" lon="8.96196455505316"><ele>31.000000000000004</ele><time>2026-03-29T07:58:35Z</time></trkpt><trkpt lat="44.43381730954425" lon="8.962023131921873"><ele>31.0</ele><time>2026-03-29T07:58:37Z</time></trkpt><trkpt lat="44.43388376871196" lon="8.962071331680674"><ele>31.000000000000004</ele><time>2026-03-29T07:58:39Z</time></trkpt><trkpt lat="44.43395203115888" lon="8.96212432830612"><ele>31.0</ele><time>2026-03-29T07:58:41Z</time></trkpt><trkpt lat="44.43401737866204" lon="8.962172316324994"><ele>31.0</ele><time>2026-03-29T07:58:43Z</time></trkpt><trkpt lat="44.434084214037796" lon="8.962221188310705"><ele>31.0</ele><time>2026-03-29T07:58:45Z</time></trkpt><trkpt lat="44.43415261130166" lon="8.96226673147683"><ele>31.000000000000004</ele><time>2026-03-29T07:58:47Z</time></trkpt><trkpt lat="44.434220868039674" lon="8.962318938839834"><ele>31.0</ele><time>2026-03-29T07:58:49.001Z</time></trkpt><trkpt lat="44.4342898757198" lon="8.962364055715264"><ele>31.000000000000004</ele><time>2026-03-29T07:58:51.001Z</time></trkpt><trkpt lat="44.43436222046659" lon="8.962409365101403"><ele>31.0</ele><time>2026-03-29T07:58:53.001Z</time></trkpt><trkpt lat="44.43443177550816" lon="8.962454918747913"><ele>31.0</ele><time>2026-03-29T07:58:55.001Z</time></trkpt><trkpt lat="44.43450072926887" lon="8.962496349061327"><ele>31.0</ele><time>2026-03-29T07:58:57.001Z</time></trkpt><trkpt lat="44.43457327465315" lon="8.962542630071445"><ele>31.000000000000004</ele><time>2026-03-29T07:58:59.001Z</time></trkpt><trkpt lat="44.434642931079075" lon="8.962597911315038"><ele>31.0</ele><time>2026-03-29T07:59:01.001Z</time></trkpt><trkpt lat="44.434717577203706" lon="8.962632410236647"><ele>32.16666666666667</ele><time>2026-03-29T07:59:03Z</time></trkpt><trkpt lat="44.43479519947965" lon="8.962677029808923"><ele>33.333333333333336</ele><time>2026-03-29T07:59:05Z</time></trkpt><trkpt lat="44.434870133119354" lon="8.96271872276699"><ele>34.5</ele><time>2026-03-29T07:59:07Z</time></trkpt><trkpt lat="44.434945161866565" lon="8.962759152847374"><ele>35.666666666666664</ele><time>2026-03-29T07:59:09Z</time></trkpt><trkpt lat="44.4350215669269" lon="8.962793079438622"><ele>36.83333333333333</ele><time>2026-03-29T07:59:11Z</time></trkpt><trkpt lat="44.43509404052717" lon="8.962831163849545"><ele>38.0</ele><time>2026-03-29T07:59:13Z</time></trkpt><trkpt lat="44.435168474940696" lon="8.962863389671897"><ele>38.0</ele><time>2026-03-29T07:59:15Z</time></trkpt><trkpt lat="44.435240125137646" lon="8.96290326455829"><ele>38.0</ele><time>2026-03-29T07:59:17Z</time></trkpt><trkpt lat="44.43531538209851" lon="8.962946546760744"><ele>38.0</ele><time>2026-03-29T07:59:19Z</time></trkpt><trkpt lat="44.43538873637868" lon="8.962956685337053"><ele>38.0</ele><time>2026-03-29T07:59:21Z</time></trkpt><trkpt lat="44.43545739964422" lon="8.962985725123215"><ele>38.0</ele><time>2026-03-29T07:59:23Z</time></trkpt><trkpt lat="44.435528844333795" lon="8.963015613538433"><ele>38.0</ele><time>2026-03-29T07:59:25Z</time></trkpt><trkpt lat="44.43558509002809" lon="8.963078688208176"><ele>37.666666666666664</ele><time>2026-03-29T07:59:27Z</time></trkpt><trkpt lat="44.435614581896104" lon="8.963178768426195"><ele>37.33333333333333</ele><time>2026-03-29T07:59:29Z</time></trkpt><trkpt lat="44.435643179762344" lon="8.963280630012505"><ele>37.0</ele><time>2026-03-29T07:59:31Z</time></trkpt><trkpt lat="44.43569833771485" lon="8.963347660711785"><ele>36.666666666666664</ele><time>2026-03-29T07:59:33Z</time></trkpt><trkpt lat="44.43577497478028" lon="8.963364974416862"><ele>36.333333333333336</ele><time>2026-03-29T07:59:35Z</time></trkpt><trkpt lat="44.43584827204185" lon="8.963334295242339"><ele>36.0</ele><time>2026-03-29T07:59:37Z</time></trkpt><trkpt lat="44.43590986733482" lon="8.963271768323107"><ele>35.833333333333336</ele><time>2026-03-29T07:59:39Z</time></trkpt><trkpt lat="44.4359803297244" lon="8.963235199760973"><ele>35.666666666666664</ele><time>2026-03-29T07:59:41Z</time></trkpt><trkpt lat="44.4360595025311" lon="8.96323798984024"><ele>35.5</ele><time>2026-03-29T07:59:43Z</time></trkpt><trkpt lat="44.43613371007595" lon="8.963232509100905"><ele>35.33333333333333</ele><time>2026-03-29T07:59:45Z</time></trkpt><trkpt lat="44.43621096525369" lon="8.963233141623324"><ele>35.166666666666664</ele><time>2026-03-29T07:59:47Z</time></trkpt><trkpt lat="44.436287475645976" lon="8.963231464403638"><ele>35.0</ele><time>2026-03-29T07:59:49Z</time></trkpt><trkpt lat="44.43636359290938" lon="8.963237622006888"><ele>35.0</ele><time>2026-03-29T07:59:51Z</time></trkpt><trkpt lat="44.436439090157535" lon="8.963247417232083"><ele>35.0</ele><time>2026-03-29T07:59:53Z</time></trkpt><trkpt lat="44.43650434686481" lon="8.963262572490828"><ele>35.0</ele><time>2026-03-29T07:59:55Z</time></trkpt><trkpt lat="44.4365714288085" lon="8.96328305407176"><ele>35.0</ele><time>2026-03-29T07:59:57Z</time></trkpt><trkpt lat="44.4366405996156" lon="8.963295381704155"><ele>35.0</ele><time>2026-03-29T07:59:59Z</time></trkpt><trkpt lat="44.436710275801964" lon="8.963306503122645"><ele>35.0</ele><time>2026-03-29T08:00:01Z</time></trkpt><trkpt lat="44.4367814506113" lon="8.96331539607886"><ele>35.0</ele><time>2026-03-29T08:00:03Z</time></trkpt><trkpt lat="44.43685344504778" lon="8.963327180748799"><ele>35.0</ele><time>2026-03-29T08:00:05Z</time></trkpt><trkpt lat="44.43692406712919" lon="8.963339551722163"><ele>35.0</ele><time>2026-03-29T08:00:07Z</time></trkpt><trkpt lat="44.43699734279796" lon="8.963347224617998"><ele>35.0</ele><time>2026-03-29T08:00:09Z</time></trkpt><trkpt lat="44.43707285951409" lon="8.963355851447623"><ele>35.0</ele><time>2026-03-29T08:00:11Z</time></trkpt><trkpt lat="44.43714447576728" lon="8.963370899847705"><ele>35.0</ele><time>2026-03-29T08:00:13Z</time></trkpt><trkpt lat="44.43721835448726" lon="8.963387478540113"><ele>35.0</ele><time>2026-03-29T08:00:15Z</time></trkpt><trkpt lat="44.43728884729449" lon="8.963404069630483"><ele>35.0</ele><time>2026-03-29T08:00:17Z</time></trkpt><trkpt lat="44.4373608987411" lon="8.963427424978565"><ele>35.42857142857143</ele><time>2026-03-29T08:00:19Z</time></trkpt><trkpt lat="44.43743424566593" lon="8.963439799438914"><ele>35.85714285714286</ele><time>2026-03-29T08:00:21Z</time></trkpt><trkpt lat="44.437504277575364" lon="8.963444997371033"><ele>36.285714285714285</ele><time>2026-03-29T08:00:23Z</time></trkpt><trkpt lat="44.43757668664309" lon="8.963452260113177"><ele>36.714285714285715</ele><time>2026-03-29T08:00:25Z</time></trkpt><trkpt lat="44.437641019352235" lon="8.963457450093902"><ele>37.142857142857146</ele><time>2026-03-29T08:00:27Z</time></trkpt><trkpt lat="44.4377082299099" lon="8.963480022058187"><ele>37.57142857142857</ele><time>2026-03-29T08:00:29Z</time></trkpt><trkpt lat="44.437774126608645" lon="8.963500449913747"><ele>38.0</ele><time>2026-03-29T08:00:31Z</time></trkpt><trkpt lat="44.437840689270395" lon="8.963519339562804"><ele>38.0</ele><time>2026-03-29T08:00:33Z</time></trkpt><trkpt lat="44.4379095228223" lon="8.963531790431505"><ele>38.0</ele><time>2026-03-29T08:00:35Z</time></trkpt><trkpt lat="44.43798017075099" lon="8.96354843141103"><ele>38.0</ele><time>2026-03-29T08:00:37Z</time></trkpt><trkpt lat="44.43805132183202" lon="8.963572276124419"><ele>38.0</ele><time>2026-03-29T08:00:39Z</time></trkpt><trkpt lat="44.438124127390076" lon="8.96358555634537"><ele>38.0</ele><time>2026-03-29T08:00:41Z</time></trkpt><trkpt lat="44.43819325407953" lon="8.963604189697316"><ele>38.0</ele><time>2026-03-29T08:00:43Z</time></trkpt><trkpt lat="44.43830243075896" lon="8.963619573374523"><ele>38.0</ele><time>2026-03-29T08:00:46Z</time></trkpt><trkpt lat="44.43840206949098" lon="8.963635050379596"><ele>38.0</ele><time>2026-03-29T08:00:49Z</time></trkpt><trkpt lat="44.43849465724367" lon="8.963680656253324"><ele>38.0</ele><time>2026-03-29T08:00:52.001Z</time></trkpt><trkpt lat="44.43856309954302" lon="8.963710163980853"><ele>38.0</ele><time>2026-03-29T08:00:54.001Z</time></trkpt><trkpt lat="44.438716302722796" lon="8.963713513125509"><ele>38.0</ele><time>2026-03-29T08:00:58.001Z</time></trkpt><trkpt lat="44.438778172534725" lon="8.963732773207598"><ele>37.857142857142854</ele><time>2026-03-29T08:01:00.001Z</time></trkpt><trkpt lat="44.438848687882" lon="8.963746769331133"><ele>37.714285714285715</ele><time>2026-03-29T08:01:03.001Z</time></trkpt><trkpt lat="44.438910641187505" lon="8.963776509047126"><ele>37.57142857142857</ele><time>2026-03-29T08:01:05.001Z</time></trkpt><trkpt lat="44.43898699625394" lon="8.963779874782896"><ele>37.42857142857143</ele><time>2026-03-29T08:01:07.001Z</time></trkpt><trkpt lat="44.43906073471019" lon="8.963796210610612"><ele>37.285714285714285</ele><time>2026-03-29T08:01:09Z</time></trkpt><trkpt lat="44.439134529481954" lon="8.963825506798743"><ele>37.142857142857146</ele><time>2026-03-29T08:01:11Z</time></trkpt><trkpt lat="44.43920753855792" lon="8.963852867041382"><ele>37.0</ele><time>2026-03-29T08:01:13Z</time></trkpt><trkpt lat="44.43927810976956" lon="8.963879044039327"><ele>37.0</ele><time>2026-03-29T08:01:15Z</time></trkpt><trkpt lat="44.43934821603721" lon="8.963901987732525"><ele>37.0</ele><time>2026-03-29T08:01:17Z</time></trkpt><trkpt lat="44.439419663240514" lon="8.963928741080162"><ele>37.0</ele><time>2026-03-29T08:01:19Z</time></trkpt><trkpt lat="44.43950759761829" lon="8.9639620926632"><ele>37.0</ele><time>2026-03-29T08:01:22Z</time></trkpt><trkpt lat="44.43957367431012" lon="8.96399511187721"><ele>37.0</ele><time>2026-03-29T08:01:25Z</time></trkpt><trkpt lat="44.43964271454731" lon="8.964018131077516"><ele>37.0</ele><time>2026-03-29T08:01:28Z</time></trkpt><trkpt lat="44.439704527232834" lon="8.964045085843734"><ele>37.0</ele><time>2026-03-29T08:01:30Z</time></trkpt><trkpt lat="44.43976979172981" lon="8.964068286719744"><ele>37.142857142857146</ele><time>2026-03-29T08:01:32Z</time></trkpt><trkpt lat="44.439839051165265" lon="8.964093123920243"><ele>37.285714285714285</ele><time>2026-03-29T08:01:34Z</time></trkpt><trkpt lat="44.43990962175621" lon="8.96412006127023"><ele>37.42857142857143</ele><time>2026-03-29T08:01:36Z</time></trkpt><trkpt lat="44.43997859314485" lon="8.96415615970879"><ele>37.57142857142857</ele><time>2026-03-29T08:01:38Z</time></trkpt><trkpt lat="44.44004872669997" lon="8.964180689762271"><ele>37.714285714285715</ele><time>2026-03-29T08:01:40Z</time></trkpt><trkpt lat="44.4401164785437" lon="8.964214787986524"><ele>37.857142857142854</ele><time>2026-03-29T08:01:42Z</time></trkpt><trkpt lat="44.440191817218206" lon="8.964234420978865"><ele>38.0</ele><time>2026-03-29T08:01:44Z</time></trkpt><trkpt lat="44.44026221268287" lon="8.964263777576514"><ele>38.285714285714285</ele><time>2026-03-29T08:01:46Z</time></trkpt><trkpt lat="44.440334189980064" lon="8.964297004254432"><ele>38.57142857142858</ele><time>2026-03-29T08:01:48Z</time></trkpt><trkpt lat="44.44040638975817" lon="8.964328731307305"><ele>38.85714285714286</ele><time>2026-03-29T08:01:50Z</time></trkpt><trkpt lat="44.44047572628437" lon="8.964366620737739"><ele>39.14285714285714</ele><time>2026-03-29T08:01:52Z</time></trkpt><trkpt lat="44.44054416857732" lon="8.964401040543489"><ele>39.42857142857143</ele><time>2026-03-29T08:01:54Z</time></trkpt><trkpt lat="44.440612854836196" lon="8.964437944692452"><ele>39.714285714285715</ele><time>2026-03-29T08:01:56Z</time></trkpt><trkpt lat="44.44067563129035" lon="8.964470896791765"><ele>40.0</ele><time>2026-03-29T08:01:58Z</time></trkpt><trkpt lat="44.44073963123579" lon="8.964503093729222"><ele>40.14285714285714</ele><time>2026-03-29T08:02:00Z</time></trkpt><trkpt lat="44.440800810580235" lon="8.964536272911912"><ele>40.285714285714285</ele><time>2026-03-29T08:02:02Z</time></trkpt><trkpt lat="44.44086297991327" lon="8.964575508023248"><ele>40.42857142857143</ele><time>2026-03-29T08:02:04Z</time></trkpt><trkpt lat="44.440921649714184" lon="8.964613982493677"><ele>40.57142857142857</ele><time>2026-03-29T08:02:06Z</time></trkpt><trkpt lat="44.44098350500263" lon="8.964659474708123"><ele>40.714285714285715</ele><time>2026-03-29T08:02:08Z</time></trkpt><trkpt lat="44.44105139687901" lon="8.96469491076377"><ele>40.857142857142854</ele><time>2026-03-29T08:02:10Z</time></trkpt><trkpt lat="44.44111788764569" lon="8.96473462615199"><ele>41.0</ele><time>2026-03-29T08:02:12Z</time></trkpt><trkpt lat="44.44118813000619" lon="8.964778319178174"><ele>41.0</ele><time>2026-03-29T08:02:14Z</time></trkpt><trkpt lat="44.4412581528121" lon="8.96481621947607"><ele>41.0</ele><time>2026-03-29T08:02:16Z</time></trkpt><trkpt lat="44.44133043901835" lon="8.964858721581837"><ele>41.0</ele><time>2026-03-29T08:02:18Z</time></trkpt><trkpt lat="44.44138464363635" lon="8.964921665709527"><ele>41.0</ele><time>2026-03-29T08:02:20Z</time></trkpt><trkpt lat="44.441427967966646" lon="8.964852739049771"><ele>41.0</ele><time>2026-03-29T08:03:38Z</time></trkpt><trkpt lat="44.441441090976376" lon="8.964733583101305"><ele>41.0</ele><time>2026-03-29T08:03:41Z</time></trkpt><trkpt lat="44.44148172785989" lon="8.964625573403625"><ele>40.5</ele><time>2026-03-29T08:03:44Z</time></trkpt><trkpt lat="44.44150427919292" lon="8.964524249652786"><ele>40.0</ele><time>2026-03-29T08:03:47Z</time></trkpt><trkpt lat="44.4415422757063" lon="8.964403249524"><ele>39.5</ele><time>2026-03-29T08:03:50Z</time></trkpt><trkpt lat="44.44157749688296" lon="8.96428173425154"><ele>39.0</ele><time>2026-03-29T08:03:53Z</time></trkpt><trkpt lat="44.441608176753945" lon="8.964201116920576"><ele>38.5</ele><time>2026-03-29T08:03:55Z</time></trkpt><trkpt lat="44.44164509804134" lon="8.964083124611557"><ele>38.0</ele><time>2026-03-29T08:03:58Z</time></trkpt><trkpt lat="44.441679296914145" lon="8.963981127567298"><ele>38.0</ele><time>2026-03-29T08:04:01Z</time></trkpt><trkpt lat="44.441712780057955" lon="8.963865549121715"><ele>38.0</ele><time>2026-03-29T08:04:04Z</time></trkpt><trkpt lat="44.44171324132487" lon="8.963767468909019"><ele>38.0</ele><time>2026-03-29T08:04:07Z</time></trkpt><trkpt lat="44.44179626830492" lon="8.963723556951921"><ele>38.0</ele><time>2026-03-29T08:04:10Z</time></trkpt><trkpt lat="44.441867829577824" lon="8.963756112247392"><ele>38.0</ele><time>2026-03-29T08:04:12Z</time></trkpt><trkpt lat="44.441931786113045" lon="8.963786331719712"><ele>38.0</ele><time>2026-03-29T08:04:14Z</time></trkpt><trkpt lat="44.44200087347961" lon="8.963818504351522"><ele>38.0</ele><time>2026-03-29T08:04:16Z</time></trkpt><trkpt lat="44.44206794795737" lon="8.963856833444092"><ele>38.0</ele><time>2026-03-29T08:04:18Z</time></trkpt><trkpt lat="44.44213707322205" lon="8.963896384796628"><ele>38.0</ele><time>2026-03-29T08:04:20Z</time></trkpt><trkpt lat="44.44220775884717" lon="8.963944687457879"><ele>38.0</ele><time>2026-03-29T08:04:22Z</time></trkpt><trkpt lat="44.44227594419369" lon="8.963984831305613"><ele>38.0</ele><time>2026-03-29T08:04:24Z</time></trkpt><trkpt lat="44.44235336776274" lon="8.964029296950825"><ele>38.0</ele><time>2026-03-29T08:04:26Z</time></trkpt><trkpt lat="44.44241581283348" lon="8.964078027203605"><ele>37.666666666666664</ele><time>2026-03-29T08:04:28Z</time></trkpt><trkpt lat="44.44248251092359" lon="8.964129791508116"><ele>37.33333333333333</ele><time>2026-03-29T08:04:30Z</time></trkpt><trkpt lat="44.442545571403436" lon="8.964179345558968"><ele>37.0</ele><time>2026-03-29T08:04:32Z</time></trkpt><trkpt lat="44.44260932065528" lon="8.964232280095054"><ele>36.666666666666664</ele><time>2026-03-29T08:04:34Z</time></trkpt><trkpt lat="44.442675169142426" lon="8.964283128108258"><ele>36.333333333333336</ele><time>2026-03-29T08:04:36.001Z</time></trkpt><trkpt lat="44.44273773530885" lon="8.964340982269507"><ele>36.0</ele><time>2026-03-29T08:04:38.001Z</time></trkpt><trkpt lat="44.442802188997895" lon="8.964402019312553"><ele>36.0</ele><time>2026-03-29T08:04:40.001Z</time></trkpt><trkpt lat="44.442866608370856" lon="8.964462706221784"><ele>36.0</ele><time>2026-03-29T08:04:42.001Z</time></trkpt><trkpt lat="44.44293176044212" lon="8.964521844833023"><ele>36.0</ele><time>2026-03-29T08:04:44.001Z</time></trkpt><trkpt lat="44.44299167824184" lon="8.964583720154332"><ele>36.0</ele><time>2026-03-29T08:04:46.001Z</time></trkpt><trkpt lat="44.44305645447453" lon="8.96464694019231"><ele>36.0</ele><time>2026-03-29T08:04:48.001Z</time></trkpt><trkpt lat="44.443118542238906" lon="8.964713429530317"><ele>36.0</ele><time>2026-03-29T08:04:50.001Z</time></trkpt><trkpt lat="44.443177569205346" lon="8.964780185735227"><ele>36.666666666666664</ele><time>2026-03-29T08:04:52.001Z</time></trkpt><trkpt lat="44.443237511345906" lon="8.964840870417593"><ele>37.333333333333336</ele><time>2026-03-29T08:04:54.001Z</time></trkpt><trkpt lat="44.44330855615202" lon="8.964910145283781"><ele>38.0</ele><time>2026-03-29T08:04:56.001Z</time></trkpt><trkpt lat="44.44337113040414" lon="8.964981943567873"><ele>38.66666666666667</ele><time>2026-03-29T08:04:58.001Z</time></trkpt><trkpt lat="44.44343458528436" lon="8.965051547804938"><ele>39.333333333333336</ele><time>2026-03-29T08:05:00.001Z</time></trkpt><trkpt lat="44.44349955949919" lon="8.965117313986447"><ele>40.0</ele><time>2026-03-29T08:05:02.001Z</time></trkpt><trkpt lat="44.443567525721434" lon="8.96518117510034"><ele>40.0</ele><time>2026-03-29T08:05:04.001Z</time></trkpt><trkpt lat="44.443634301761456" lon="8.965242898474095"><ele>40.0</ele><time>2026-03-29T08:05:06.001Z</time></trkpt><trkpt lat="44.44370058941914" lon="8.965307798957081"><ele>40.0</ele><time>2026-03-29T08:05:08.001Z</time></trkpt><trkpt lat="44.44375567328581" lon="8.96537245993343"><ele>40.0</ele><time>2026-03-29T08:05:10.001Z</time></trkpt><trkpt lat="44.443824879888105" lon="8.965435699657458"><ele>40.0</ele><time>2026-03-29T08:05:12.001Z</time></trkpt><trkpt lat="44.44388809488825" lon="8.965496646686624"><ele>40.0</ele><time>2026-03-29T08:05:14.001Z</time></trkpt><trkpt lat="44.44395683885593" lon="8.96555900390204"><ele>39.833333333333336</ele><time>2026-03-29T08:05:16.001Z</time></trkpt><trkpt lat="44.444013943190264" lon="8.965623176814923"><ele>39.66666666666667</ele><time>2026-03-29T08:05:18.001Z</time></trkpt><trkpt lat="44.44407743284513" lon="8.965690050811453"><ele>39.5</ele><time>2026-03-29T08:05:20.001Z</time></trkpt><trkpt lat="44.444140636361425" lon="8.965752118801872"><ele>39.333333333333336</ele><time>2026-03-29T08:05:22Z</time></trkpt><trkpt lat="44.44419439965818" lon="8.96581151887408"><ele>39.166666666666664</ele><time>2026-03-29T08:05:24Z</time></trkpt><trkpt lat="44.4442632045637" lon="8.965881226640851"><ele>39.0</ele><time>2026-03-29T08:05:26Z</time></trkpt><trkpt lat="44.444316564044584" lon="8.965951656169404"><ele>39.0</ele><time>2026-03-29T08:05:28Z</time></trkpt><trkpt lat="44.44437499953546" lon="8.96601051523106"><ele>39.0</ele><time>2026-03-29T08:05:30Z</time></trkpt><trkpt lat="44.44443696009301" lon="8.966071983156736"><ele>39.0</ele><time>2026-03-29T08:05:32Z</time></trkpt><trkpt lat="44.44449314517348" lon="8.966133618907516"><ele>39.0</ele><time>2026-03-29T08:05:34Z</time></trkpt><trkpt lat="44.44455392214256" lon="8.966197824177156"><ele>39.0</ele><time>2026-03-29T08:05:36Z</time></trkpt><trkpt lat="44.4446121417069" lon="8.966264331109222"><ele>39.0</ele><time>2026-03-29T08:05:38Z</time></trkpt><trkpt lat="44.44467116182885" lon="8.966328191994895"><ele>39.0</ele><time>2026-03-29T08:05:40Z</time></trkpt><trkpt lat="44.44470736714348" lon="8.966410774323887"><ele>39.333333333333336</ele><time>2026-03-29T08:05:42Z</time></trkpt><trkpt lat="44.44477988262076" lon="8.966472090433824"><ele>39.666666666666664</ele><time>2026-03-29T08:05:44Z</time></trkpt><trkpt lat="44.44483939101697" lon="8.966541007565729"><ele>40.0</ele><time>2026-03-29T08:05:46Z</time></trkpt><trkpt lat="44.44488282273451" lon="8.966611179753155"><ele>40.33333333333333</ele><time>2026-03-29T08:05:48Z</time></trkpt><trkpt lat="44.444937166499415" lon="8.966682525281763"><ele>40.666666666666664</ele><time>2026-03-29T08:05:50Z</time></trkpt><trkpt lat="44.44499808558966" lon="8.966754192495342"><ele>41.0</ele><time>2026-03-29T08:05:52Z</time></trkpt><trkpt lat="44.445056929280625" lon="8.966825215809386"><ele>40.99999999999999</ele><time>2026-03-29T08:05:54Z</time></trkpt><trkpt lat="44.44511659064559" lon="8.966893476883076"><ele>41.0</ele><time>2026-03-29T08:05:56Z</time></trkpt><trkpt lat="44.44516513577338" lon="8.966956066618991"><ele>41.0</ele><time>2026-03-29T08:05:58Z</time></trkpt><trkpt lat="44.445215625182186" lon="8.967027161799134"><ele>41.0</ele><time>2026-03-29T08:06:00Z</time></trkpt><trkpt lat="44.44526761464141" lon="8.967097439440114"><ele>41.0</ele><time>2026-03-29T08:06:02Z</time></trkpt><trkpt lat="44.44533227835976" lon="8.967172871082148"><ele>40.99999999999999</ele><time>2026-03-29T08:06:04Z</time></trkpt><trkpt lat="44.445381515982255" lon="8.9672436551217"><ele>41.0</ele><time>2026-03-29T08:06:06Z</time></trkpt><trkpt lat="44.44543490332973" lon="8.967311253149553"><ele>41.42857142857142</ele><time>2026-03-29T08:06:08Z</time></trkpt><trkpt lat="44.445496583980784" lon="8.967376930138908"><ele>41.857142857142854</ele><time>2026-03-29T08:06:10Z</time></trkpt><trkpt lat="44.4455446742054" lon="8.967436163997897"><ele>42.285714285714285</ele><time>2026-03-29T08:06:12Z</time></trkpt><trkpt lat="44.4456015666993" lon="8.967495018795905"><ele>42.71428571428571</ele><time>2026-03-29T08:06:14Z</time></trkpt><trkpt lat="44.44567081075465" lon="8.96756781072422"><ele>43.14285714285714</ele><time>2026-03-29T08:06:17Z</time></trkpt><trkpt lat="44.44572398642898" lon="8.967620918251125"><ele>43.57142857142857</ele><time>2026-03-29T08:06:19Z</time></trkpt><trkpt lat="44.4457666983032" lon="8.96768919542963"><ele>44.0</ele><time>2026-03-29T08:06:21Z</time></trkpt><trkpt lat="44.44581561460684" lon="8.96775339486733"><ele>44.0</ele><time>2026-03-29T08:06:23Z</time></trkpt><trkpt lat="44.44587448225464" lon="8.96784701817836"><ele>44.0</ele><time>2026-03-29T08:06:26Z</time></trkpt><trkpt lat="44.445916039908845" lon="8.967916193471236"><ele>44.0</ele><time>2026-03-29T08:06:29Z</time></trkpt><trkpt lat="44.44598398087528" lon="8.967972929197384"><ele>44.0</ele><time>2026-03-29T08:06:32Z</time></trkpt><trkpt lat="44.44602316801952" lon="8.968066418293686"><ele>44.0</ele><time>2026-03-29T08:09:32.999Z</time></trkpt><trkpt lat="44.44607984679553" lon="8.968113705301409"><ele>44.0</ele><time>2026-03-29T08:09:35.999Z</time></trkpt><trkpt lat="44.44613616568303" lon="8.968172329103043"><ele>44.0</ele><time>2026-03-29T08:09:38.999Z</time></trkpt><trkpt lat="44.44620126283857" lon="8.968230142743435"><ele>44.0</ele><time>2026-03-29T08:09:41.999Z</time></trkpt><trkpt lat="44.44625402567866" lon="8.968286189996522"><ele>44.0</ele><time>2026-03-29T08:09:43.999Z</time></trkpt><trkpt lat="44.446302426645325" lon="8.968355904072402"><ele>44.0</ele><time>2026-03-29T08:09:45.999Z</time></trkpt><trkpt lat="44.446344677908854" lon="8.968425905807168"><ele>44.0</ele><time>2026-03-29T08:09:47.999Z</time></trkpt><trkpt lat="44.44639645861714" lon="8.968504796250862"><ele>44.0</ele><time>2026-03-29T08:09:49.999Z</time></trkpt><trkpt lat="44.446442700231316" lon="8.968570555743197"><ele>44.0</ele><time>2026-03-29T08:09:51.999Z</time></trkpt><trkpt lat="44.44648888427737" lon="8.968634572793597"><ele>44.0</ele><time>2026-03-29T08:09:53.999Z</time></trkpt><trkpt lat="44.44654294512246" lon="8.968697520332162"><ele>43.83333333333333</ele><time>2026-03-29T08:09:56Z</time></trkpt><trkpt lat="44.446598697008675" lon="8.968767547638752"><ele>43.666666666666664</ele><time>2026-03-29T08:09:58Z</time></trkpt><trkpt lat="44.44666177336814" lon="8.968832866780717"><ele>43.5</ele><time>2026-03-29T08:10:00Z</time></trkpt><trkpt lat="44.446714334180804" lon="8.968912595837281"><ele>43.333333333333336</ele><time>2026-03-29T08:10:02Z</time></trkpt><trkpt lat="44.44677167126355" lon="8.968994167107407"><ele>43.16666666666667</ele><time>2026-03-29T08:10:04Z</time></trkpt><trkpt lat="44.44682991699957" lon="8.969074236434667"><ele>43.0</ele><time>2026-03-29T08:10:06Z</time></trkpt><trkpt lat="44.44688900249973" lon="8.969152972145952"><ele>43.0</ele><time>2026-03-29T08:10:08Z</time></trkpt><trkpt lat="44.44695472931051" lon="8.969226595075195"><ele>43.0</ele><time>2026-03-29T08:10:10Z</time></trkpt><trkpt lat="44.447007164209595" lon="8.969301399817931"><ele>43.0</ele><time>2026-03-29T08:10:12Z</time></trkpt><trkpt lat="44.44706475385716" lon="8.969377567468227"><ele>43.0</ele><time>2026-03-29T08:10:14Z</time></trkpt><trkpt lat="44.44712702345802" lon="8.969460740130486"><ele>43.0</ele><time>2026-03-29T08:10:16Z</time></trkpt><trkpt lat="44.44718061411378" lon="8.969537526174458"><ele>43.0</ele><time>2026-03-29T08:10:18Z</time></trkpt><trkpt lat="44.447237471039735" lon="8.969610558962351"><ele>43.833333333333336</ele><time>2026-03-29T08:10:20Z</time></trkpt><trkpt lat="44.44729601358175" lon="8.969689247147048"><ele>44.66666666666667</ele><time>2026-03-29T08:10:22Z</time></trkpt><trkpt lat="44.44736204090144" lon="8.96974104490419"><ele>45.5</ele><time>2026-03-29T08:10:24Z</time></trkpt><trkpt lat="44.447427826439956" lon="8.9698217703744"><ele>46.333333333333336</ele><time>2026-03-29T08:10:26Z</time></trkpt><trkpt lat="44.44749272711599" lon="8.969883540859623"><ele>47.166666666666664</ele><time>2026-03-29T08:10:28Z</time></trkpt><trkpt lat="44.44754747965943" lon="8.969951480402433"><ele>48.0</ele><time>2026-03-29T08:10:30Z</time></trkpt><trkpt lat="44.44760653616035" lon="8.970010011220548"><ele>47.333333333333336</ele><time>2026-03-29T08:10:32Z</time></trkpt><trkpt lat="44.44765776752155" lon="8.970085461108955"><ele>46.666666666666664</ele><time>2026-03-29T08:10:34Z</time></trkpt><trkpt lat="44.44772402293187" lon="8.970155437150583"><ele>46.0</ele><time>2026-03-29T08:10:36Z</time></trkpt><trkpt lat="44.44778653475717" lon="8.970232342164932"><ele>45.33333333333333</ele><time>2026-03-29T08:10:38Z</time></trkpt><trkpt lat="44.447850234560235" lon="8.970306014006608"><ele>44.666666666666664</ele><time>2026-03-29T08:10:40Z</time></trkpt><trkpt lat="44.44790486374748" lon="8.970386399983072"><ele>44.0</ele><time>2026-03-29T08:10:42Z</time></trkpt><trkpt lat="44.44795244648611" lon="8.970462814985819"><ele>44.0</ele><time>2026-03-29T08:10:44Z</time></trkpt><trkpt lat="44.448002697230834" lon="8.970538536927368"><ele>44.0</ele><time>2026-03-29T08:10:46Z</time></trkpt><trkpt lat="44.44804678825764" lon="8.970604927294955"><ele>44.0</ele><time>2026-03-29T08:10:48Z</time></trkpt><trkpt lat="44.44810634775685" lon="8.970685413843976"><ele>44.0</ele><time>2026-03-29T08:10:51Z</time></trkpt><trkpt lat="44.44816179080082" lon="8.970766451817228"><ele>44.0</ele><time>2026-03-29T08:10:54Z</time></trkpt><trkpt lat="44.44822079628244" lon="8.970853518982354"><ele>44.0</ele><time>2026-03-29T08:10:56Z</time></trkpt><trkpt lat="44.448274754702304" lon="8.970939980724031"><ele>44.0</ele><time>2026-03-29T08:10:58.001Z</time></trkpt><trkpt lat="44.448318322856075" lon="8.971032960999977"><ele>44.0</ele><time>2026-03-29T08:11:00.001Z</time></trkpt><trkpt lat="44.448365753204975" lon="8.971123527820735"><ele>44.0</ele><time>2026-03-29T08:11:02.001Z</time></trkpt><trkpt lat="44.44842550942898" lon="8.971200592867023"><ele>44.0</ele><time>2026-03-29T08:11:04.001Z</time></trkpt><trkpt lat="44.44848577179367" lon="8.971275155700107"><ele>44.0</ele><time>2026-03-29T08:11:06.001Z</time></trkpt><trkpt lat="44.448549296133294" lon="8.97134702164385"><ele>44.0</ele><time>2026-03-29T08:11:08.001Z</time></trkpt><trkpt lat="44.44861052640957" lon="8.97141845846949"><ele>44.0</ele><time>2026-03-29T08:11:10.001Z</time></trkpt><trkpt lat="44.44866357027902" lon="8.971502411809103"><ele>44.0</ele><time>2026-03-29T08:11:12.001Z</time></trkpt><trkpt lat="44.44871935015767" lon="8.971568886009502"><ele>44.0</ele><time>2026-03-29T08:11:14.001Z</time></trkpt><trkpt lat="44.44878154831926" lon="8.971615205573093"><ele>44.0</ele><time>2026-03-29T08:11:16.001Z</time></trkpt><trkpt lat="44.44884382925596" lon="8.971671616231498"><ele>44.0</ele><time>2026-03-29T08:11:18.001Z</time></trkpt><trkpt lat="44.44890260553759" lon="8.9717281684054"><ele>44.0</ele><time>2026-03-29T08:11:20.001Z</time></trkpt><trkpt lat="44.4489567787746" lon="8.971788307908843"><ele>44.0</ele><time>2026-03-29T08:11:22.001Z</time></trkpt><trkpt lat="44.44901514490124" lon="8.971851069128286"><ele>44.33333333333333</ele><time>2026-03-29T08:11:24.001Z</time></trkpt><trkpt lat="44.449083001218995" lon="8.97192132131312"><ele>44.666666666666664</ele><time>2026-03-29T08:11:26.001Z</time></trkpt><trkpt lat="44.449140627640695" lon="8.972000309293051"><ele>45.0</ele><time>2026-03-29T08:11:28.001Z</time></trkpt><trkpt lat="44.44920109571466" lon="8.97207343892524"><ele>45.333333333333336</ele><time>2026-03-29T08:11:30.001Z</time></trkpt><trkpt lat="44.449277484329734" lon="8.972159628619234"><ele>45.66666666666667</ele><time>2026-03-29T08:11:33.001Z</time></trkpt><trkpt lat="44.4493399988104" lon="8.972223421822997"><ele>46.0</ele><time>2026-03-29T08:11:35.001Z</time></trkpt><trkpt lat="44.44939893491563" lon="8.972290954844944"><ele>46.0</ele><time>2026-03-29T08:11:37.001Z</time></trkpt><trkpt lat="44.44946543340393" lon="8.97236478463895"><ele>46.0</ele><time>2026-03-29T08:11:38.999Z</time></trkpt><trkpt lat="44.44952436950466" lon="8.97243733458545"><ele>46.0</ele><time>2026-03-29T08:11:40.999Z</time></trkpt><trkpt lat="44.4495810786701" lon="8.972518003865709"><ele>46.0</ele><time>2026-03-29T08:11:42.999Z</time></trkpt><trkpt lat="44.449648354052236" lon="8.972581677446549"><ele>46.0</ele><time>2026-03-29T08:11:44.999Z</time></trkpt><trkpt lat="44.44968860838422" lon="8.972677683636181"><ele>46.0</ele><time>2026-03-29T08:11:46.999Z</time></trkpt><trkpt lat="44.44972578000724" lon="8.972769409479467"><ele>46.333333333333336</ele><time>2026-03-29T08:11:48.999Z</time></trkpt><trkpt lat="44.449773126626724" lon="8.972851932359477"><ele>46.66666666666667</ele><time>2026-03-29T08:11:50.999Z</time></trkpt><trkpt lat="44.449831362123234" lon="8.972929754396928"><ele>47.0</ele><time>2026-03-29T08:11:52.999Z</time></trkpt><trkpt lat="44.44988703394661" lon="8.973009240909546"><ele>47.333333333333336</ele><time>2026-03-29T08:11:54.999Z</time></trkpt><trkpt lat="44.449945250548296" lon="8.973082407931704"><ele>47.666666666666664</ele><time>2026-03-29T08:11:57Z</time></trkpt><trkpt lat="44.4500059086603" lon="8.973157772963438"><ele>48.0</ele><time>2026-03-29T08:11:59Z</time></trkpt><trkpt lat="44.45006871600687" lon="8.973232120727488"><ele>48.0</ele><time>2026-03-29T08:12:01Z</time></trkpt><trkpt lat="44.45013026006771" lon="8.97329948233102"><ele>48.0</ele><time>2026-03-29T08:12:03Z</time></trkpt><trkpt lat="44.45019030220187" lon="8.973370800157296"><ele>48.0</ele><time>2026-03-29T08:12:05Z</time></trkpt><trkpt lat="44.45025062151292" lon="8.97343799841536"><ele>48.0</ele><time>2026-03-29T08:12:07Z</time></trkpt><trkpt lat="44.45030611228989" lon="8.973504287950027"><ele>48.0</ele><time>2026-03-29T08:12:09Z</time></trkpt><trkpt lat="44.450364360561785" lon="8.97357977186474"><ele>48.0</ele><time>2026-03-29T08:12:11Z</time></trkpt><trkpt lat="44.45042850809517" lon="8.973646644367278"><ele>48.333333333333336</ele><time>2026-03-29T08:12:13Z</time></trkpt><trkpt lat="44.45049138153756" lon="8.973721141471694"><ele>48.66666666666667</ele><time>2026-03-29T08:12:15Z</time></trkpt><trkpt lat="44.450551655554165" lon="8.973795876566177"><ele>49.0</ele><time>2026-03-29T08:12:17Z</time></trkpt><trkpt lat="44.4506093402946" lon="8.973877058382488"><ele>49.333333333333336</ele><time>2026-03-29T08:12:19Z</time></trkpt><trkpt lat="44.45067022292866" lon="8.97394809982135"><ele>49.66666666666667</ele><time>2026-03-29T08:12:21Z</time></trkpt><trkpt lat="44.4507376789267" lon="8.974015100757802"><ele>50.0</ele><time>2026-03-29T08:12:23Z</time></trkpt><trkpt lat="44.45080122398714" lon="8.97408343209706"><ele>50.00000000000001</ele><time>2026-03-29T08:12:25Z</time></trkpt><trkpt lat="44.45085920498716" lon="8.974156527973523"><ele>50.0</ele><time>2026-03-29T08:12:27Z</time></trkpt><trkpt lat="44.45092986002257" lon="8.974224819890404"><ele>50.0</ele><time>2026-03-29T08:12:29Z</time></trkpt><trkpt lat="44.45099607830916" lon="8.97429283896568"><ele>50.0</ele><time>2026-03-29T08:12:31Z</time></trkpt><trkpt lat="44.45105712266359" lon="8.974358993521955"><ele>50.00000000000001</ele><time>2026-03-29T08:12:33Z</time></trkpt><trkpt lat="44.451110880845256" lon="8.974442907076487"><ele>50.0</ele><time>2026-03-29T08:12:35Z</time></trkpt><trkpt lat="44.45117373559755" lon="8.974512018427362"><ele>49.50000000000001</ele><time>2026-03-29T08:12:37Z</time></trkpt><trkpt lat="44.45124039561203" lon="8.974574966812531"><ele>49.0</ele><time>2026-03-29T08:12:39Z</time></trkpt><trkpt lat="44.45129939403033" lon="8.974657339360963"><ele>48.5</ele><time>2026-03-29T08:12:41Z</time></trkpt><trkpt lat="44.45136921015468" lon="8.974728911509793"><ele>48.0</ele><time>2026-03-29T08:12:43Z</time></trkpt><trkpt lat="44.45142487005853" lon="8.974806491314828"><ele>47.5</ele><time>2026-03-29T08:12:45Z</time></trkpt><trkpt lat="44.451485229544566" lon="8.97488343388546"><ele>47.0</ele><time>2026-03-29T08:12:47Z</time></trkpt><trkpt lat="44.45154400290096" lon="8.974954165617003"><ele>47.83333333333333</ele><time>2026-03-29T08:12:49Z</time></trkpt><trkpt lat="44.4516106041108" lon="8.975014884821492"><ele>48.666666666666664</ele><time>2026-03-29T08:12:51.001Z</time></trkpt><trkpt lat="44.451671053233156" lon="8.975086059746198"><ele>49.5</ele><time>2026-03-29T08:12:53.001Z</time></trkpt><trkpt lat="44.451730838810946" lon="8.975152549294252"><ele>50.33333333333333</ele><time>2026-03-29T08:12:55.001Z</time></trkpt><trkpt lat="44.45177710145054" lon="8.975239799865918"><ele>51.166666666666664</ele><time>2026-03-29T08:12:57.001Z</time></trkpt><trkpt lat="44.45179849309696" lon="8.975338686103381"><ele>52.0</ele><time>2026-03-29T08:12:59.001Z</time></trkpt><trkpt lat="44.451818884620636" lon="8.975440851148575"><ele>51.99999999999999</ele><time>2026-03-29T08:13:01.001Z</time></trkpt><trkpt lat="44.45184828513393" lon="8.97554604449473"><ele>52.0</ele><time>2026-03-29T08:13:03.001Z</time></trkpt><trkpt lat="44.451880032142306" lon="8.97565045370458"><ele>52.0</ele><time>2026-03-29T08:13:05.001Z</time></trkpt><trkpt lat="44.45190311602583" lon="8.975758814672286"><ele>52.0</ele><time>2026-03-29T08:13:07.001Z</time></trkpt><trkpt lat="44.45194131495369" lon="8.97586390511366"><ele>51.99999999999999</ele><time>2026-03-29T08:13:09.001Z</time></trkpt><trkpt lat="44.451995786413086" lon="8.975963896439593"><ele>52.0</ele><time>2026-03-29T08:13:11.001Z</time></trkpt><trkpt lat="44.452046474091475" lon="8.976061152879184"><ele>52.49999999999999</ele><time>2026-03-29T08:13:13.001Z</time></trkpt><trkpt lat="44.452092501145486" lon="8.976159875696753"><ele>53.0</ele><time>2026-03-29T08:13:15.001Z</time></trkpt><trkpt lat="44.4521450230486" lon="8.976252680491791"><ele>53.5</ele><time>2026-03-29T08:13:17.001Z</time></trkpt><trkpt lat="44.452192260028234" lon="8.976346161354163"><ele>54.0</ele><time>2026-03-29T08:13:19.001Z</time></trkpt><trkpt lat="44.452240864017305" lon="8.976440034426073"><ele>54.49999999999999</ele><time>2026-03-29T08:13:21.001Z</time></trkpt><trkpt lat="44.45229196940134" lon="8.976537837170515"><ele>55.0</ele><time>2026-03-29T08:13:23.001Z</time></trkpt><trkpt lat="44.45234400168681" lon="8.976631352659343"><ele>55.33333333333333</ele><time>2026-03-29T08:13:25.001Z</time></trkpt><trkpt lat="44.452392010376016" lon="8.97672829664784"><ele>55.666666666666664</ele><time>2026-03-29T08:13:27.001Z</time></trkpt><trkpt lat="44.45243726757763" lon="8.976822409959158"><ele>56.0</ele><time>2026-03-29T08:13:29.001Z</time></trkpt><trkpt lat="44.45248589610546" lon="8.97692242433891"><ele>56.33333333333333</ele><time>2026-03-29T08:13:31.001Z</time></trkpt><trkpt lat="44.45253325272763" lon="8.977026887195375"><ele>56.666666666666664</ele><time>2026-03-29T08:13:33.001Z</time></trkpt><trkpt lat="44.45257614112544" lon="8.977133144166345"><ele>57.0</ele><time>2026-03-29T08:13:35.001Z</time></trkpt><trkpt lat="44.452623798947265" lon="8.977242469520114"><ele>57.0</ele><time>2026-03-29T08:13:37.001Z</time></trkpt><trkpt lat="44.452670290186795" lon="8.977358945671702"><ele>57.0</ele><time>2026-03-29T08:13:39.001Z</time></trkpt><trkpt lat="44.45271202121443" lon="8.977477133570009"><ele>57.0</ele><time>2026-03-29T08:13:41.001Z</time></trkpt><trkpt lat="44.45276122597808" lon="8.9775889933964"><ele>57.0</ele><time>2026-03-29T08:13:43.001Z</time></trkpt><trkpt lat="44.45280271310603" lon="8.97770986581488"><ele>57.0</ele><time>2026-03-29T08:13:44.999Z</time></trkpt><trkpt lat="44.45284966004026" lon="8.97781210086097"><ele>57.6</ele><time>2026-03-29T08:13:46.999Z</time></trkpt><trkpt lat="44.452898186675974" lon="8.977923719364949"><ele>58.2</ele><time>2026-03-29T08:13:48.999Z</time></trkpt><trkpt lat="44.452945790545314" lon="8.97804216607886"><ele>58.8</ele><time>2026-03-29T08:13:50.999Z</time></trkpt><trkpt lat="44.45298490201035" lon="8.978160390360955"><ele>59.4</ele><time>2026-03-29T08:13:52.999Z</time></trkpt><trkpt lat="44.4530244540195" lon="8.978275560248155"><ele>60.0</ele><time>2026-03-29T08:13:54.999Z</time></trkpt><trkpt lat="44.4530612023551" lon="8.978387028443683"><ele>60.0</ele><time>2026-03-29T08:13:56.999Z</time></trkpt><trkpt lat="44.45309862638576" lon="8.978498759220809"><ele>60.0</ele><time>2026-03-29T08:13:59Z</time></trkpt><trkpt lat="44.4531223933378" lon="8.978600808417688"><ele>60.0</ele><time>2026-03-29T08:14:01Z</time></trkpt><trkpt lat="44.45314789607529" lon="8.97869203256091"><ele>60.0</ele><time>2026-03-29T08:14:03Z</time></trkpt><trkpt lat="44.453172561146495" lon="8.978780542629156"><ele>60.0</ele><time>2026-03-29T08:14:05Z</time></trkpt><trkpt lat="44.45319991023915" lon="8.97887088033806"><ele>60.0</ele><time>2026-03-29T08:14:07Z</time></trkpt><trkpt lat="44.45322570953112" lon="8.9789534271304"><ele>60.0</ele><time>2026-03-29T08:14:09Z</time></trkpt><trkpt lat="44.45325231970985" lon="8.979064572383452"><ele>60.0</ele><time>2026-03-29T08:14:13Z</time></trkpt><trkpt lat="44.453278288048544" lon="8.979171131812157"><ele>60.0</ele><time>2026-03-29T08:14:16Z</time></trkpt><trkpt lat="44.453317185326746" lon="8.979288633265492"><ele>60.0</ele><time>2026-03-29T08:14:19Z</time></trkpt><trkpt lat="44.453349645268815" lon="8.979390333382991"><ele>60.0</ele><time>2026-03-29T08:14:22Z</time></trkpt><trkpt lat="44.45338457662733" lon="8.979508870033296"><ele>60.0</ele><time>2026-03-29T08:14:25Z</time></trkpt><trkpt lat="44.45342713069828" lon="8.979626778675998"><ele>60.0</ele><time>2026-03-29T08:14:28Z</time></trkpt><trkpt lat="44.453458684224" lon="8.979706681028116"><ele>59.285714285714285</ele><time>2026-03-29T08:14:30Z</time></trkpt><trkpt lat="44.45347466538455" lon="8.979802805019249"><ele>58.57142857142857</ele><time>2026-03-29T08:14:32Z</time></trkpt><trkpt lat="44.453478377114344" lon="8.979898069611226"><ele>57.857142857142854</ele><time>2026-03-29T08:14:34Z</time></trkpt><trkpt lat="44.45349388013695" lon="8.979999545796359"><ele>57.14285714285714</ele><time>2026-03-29T08:14:36Z</time></trkpt><trkpt lat="44.45350002123648" lon="8.980100658992802"><ele>56.42857142857143</ele><time>2026-03-29T08:14:38Z</time></trkpt><trkpt lat="44.45351259442962" lon="8.980191363316823"><ele>55.71428571428571</ele><time>2026-03-29T08:14:41Z</time></trkpt><trkpt lat="44.453538658366206" lon="8.98027530043474"><ele>55.0</ele><time>2026-03-29T08:14:47.001Z</time></trkpt><trkpt lat="44.45356024315726" lon="8.980367663533928"><ele>54.666666666666664</ele><time>2026-03-29T08:14:52.001Z</time></trkpt><trkpt lat="44.45365340811649" lon="8.980380342514737"><ele>54.33333333333333</ele><time>2026-03-29T08:14:54.001Z</time></trkpt><trkpt lat="44.45371652538927" lon="8.98033062323093"><ele>54.0</ele><time>2026-03-29T08:14:56.001Z</time></trkpt><trkpt lat="44.453797124306305" lon="8.98027928639869"><ele>53.66666666666667</ele><time>2026-03-29T08:14:59.001Z</time></trkpt><trkpt lat="44.45385403665484" lon="8.980206373924847"><ele>53.333333333333336</ele><time>2026-03-29T08:15:03.001Z</time></trkpt><trkpt lat="44.453903296113126" lon="8.980141599853178"><ele>53.0</ele><time>2026-03-29T08:15:06.001Z</time></trkpt><trkpt lat="44.45396971755102" lon="8.980111417230441"><ele>54.16666666666667</ele><time>2026-03-29T08:15:09.001Z</time></trkpt><trkpt lat="44.4540366148433" lon="8.980079715417693"><ele>55.333333333333336</ele><time>2026-03-29T08:15:14.001Z</time></trkpt><trkpt lat="44.45410585207504" lon="8.980105610028394"><ele>56.5</ele><time>2026-03-29T08:15:18.001Z</time></trkpt><trkpt lat="44.454134903821476" lon="8.980201542203304"><ele>57.66666666666667</ele><time>2026-03-29T08:15:21.001Z</time></trkpt><trkpt lat="44.45416587380715" lon="8.98031061075125"><ele>58.833333333333336</ele><time>2026-03-29T08:15:24.001Z</time></trkpt><trkpt lat="44.45421338310219" lon="8.980419387659888"><ele>60.0</ele><time>2026-03-29T08:15:27.001Z</time></trkpt><trkpt lat="44.45424410178058" lon="8.980512908321279"><ele>60.0</ele><time>2026-03-29T08:15:29.001Z</time></trkpt><trkpt lat="44.45426724643525" lon="8.980598086437265"><ele>60.0</ele><time>2026-03-29T08:15:31.001Z</time></trkpt><trkpt lat="44.45429005934552" lon="8.98068718912158"><ele>60.0</ele><time>2026-03-29T08:15:33.001Z</time></trkpt><trkpt lat="44.454311297826514" lon="8.980789518710308"><ele>60.0</ele><time>2026-03-29T08:15:35.001Z</time></trkpt><trkpt lat="44.454329211175754" lon="8.98088199794354"><ele>60.0</ele><time>2026-03-29T08:15:37.001Z</time></trkpt><trkpt lat="44.454335396461154" lon="8.980982599242099"><ele>60.0</ele><time>2026-03-29T08:15:39.001Z</time></trkpt><trkpt lat="44.45433844226825" lon="8.98108137299874"><ele>60.0</ele><time>2026-03-29T08:15:41.001Z</time></trkpt><trkpt lat="44.454345165103724" lon="8.981173576558104"><ele>59.57142857142857</ele><time>2026-03-29T08:15:43.001Z</time></trkpt><trkpt lat="44.45435515589706" lon="8.981266146249009"><ele>59.14285714285714</ele><time>2026-03-29T08:15:45.002Z</time></trkpt><trkpt lat="44.45436712870555" lon="8.981365294531159"><ele>58.71428571428571</ele><time>2026-03-29T08:15:47.002Z</time></trkpt><trkpt lat="44.45437750556716" lon="8.98146412637496"><ele>58.285714285714285</ele><time>2026-03-29T08:15:49.002Z</time></trkpt><trkpt lat="44.45438625179575" lon="8.981568437750571"><ele>57.85714285714285</ele><time>2026-03-29T08:15:50.999Z</time></trkpt><trkpt lat="44.45439663922638" lon="8.98167352979103"><ele>57.42857142857142</ele><time>2026-03-29T08:15:52.999Z</time></trkpt><trkpt lat="44.45440529527084" lon="8.981784920107467"><ele>57.0</ele><time>2026-03-29T08:15:54.999Z</time></trkpt><trkpt lat="44.45441778632904" lon="8.981895261419927"><ele>57.0</ele><time>2026-03-29T08:15:56.999Z</time></trkpt><trkpt lat="44.454436851650215" lon="8.982015592735568"><ele>57.0</ele><time>2026-03-29T08:15:58.999Z</time></trkpt><trkpt lat="44.454450370347544" lon="8.982136636451663"><ele>57.0</ele><time>2026-03-29T08:16:00.999Z</time></trkpt><trkpt lat="44.454462869846644" lon="8.982263715275352"><ele>57.0</ele><time>2026-03-29T08:16:02.999Z</time></trkpt><trkpt lat="44.45447815833287" lon="8.982391226212439"><ele>57.0</ele><time>2026-03-29T08:16:05Z</time></trkpt><trkpt lat="44.45448787862045" lon="8.982514177364225"><ele>57.0</ele><time>2026-03-29T08:16:07Z</time></trkpt><trkpt lat="44.454506706976275" lon="8.98264187336799"><ele>57.0</ele><time>2026-03-29T08:16:09Z</time></trkpt><trkpt lat="44.4545228284604" lon="8.982757611740713"><ele>57.0</ele><time>2026-03-29T08:16:11Z</time></trkpt><trkpt lat="44.45453910453859" lon="8.982862172297045"><ele>57.0</ele><time>2026-03-29T08:16:13Z</time></trkpt><trkpt lat="44.454542002416254" lon="8.982976390657296"><ele>57.0</ele><time>2026-03-29T08:16:15Z</time></trkpt><trkpt lat="44.45455931648719" lon="8.98309801491379"><ele>57.0</ele><time>2026-03-29T08:16:17Z</time></trkpt><trkpt lat="44.45456235283726" lon="8.983215962966497"><ele>57.0</ele><time>2026-03-29T08:16:19Z</time></trkpt><trkpt lat="44.45457646112499" lon="8.983334988803058"><ele>56.8</ele><time>2026-03-29T08:16:21Z</time></trkpt><trkpt lat="44.45459311614278" lon="8.983460356947978"><ele>56.6</ele><time>2026-03-29T08:16:23Z</time></trkpt><trkpt lat="44.45459973275378" lon="8.983594452731307"><ele>56.39999999999999</ele><time>2026-03-29T08:16:25Z</time></trkpt><trkpt lat="44.45460822229094" lon="8.983726308200309"><ele>56.199999999999996</ele><time>2026-03-29T08:16:27Z</time></trkpt><trkpt lat="44.454617887421485" lon="8.983848849863831"><ele>56.0</ele><time>2026-03-29T08:16:29Z</time></trkpt><trkpt lat="44.45463384627615" lon="8.98397383051031"><ele>57.16666666666667</ele><time>2026-03-29T08:16:31Z</time></trkpt><trkpt lat="44.45464587636328" lon="8.984092676497243"><ele>58.333333333333336</ele><time>2026-03-29T08:16:33Z</time></trkpt><trkpt lat="44.45465582375582" lon="8.984209288256388"><ele>59.5</ele><time>2026-03-29T08:16:35Z</time></trkpt><trkpt lat="44.454668433782146" lon="8.98432663151674"><ele>60.66666666666667</ele><time>2026-03-29T08:16:37Z</time></trkpt><trkpt lat="44.45468317511473" lon="8.984443865954931"><ele>61.833333333333336</ele><time>2026-03-29T08:16:39Z</time></trkpt><trkpt lat="44.454699940057004" lon="8.98456464530967"><ele>63.0</ele><time>2026-03-29T08:16:41Z</time></trkpt><trkpt lat="44.45471386264709" lon="8.984677307460053"><ele>63.0</ele><time>2026-03-29T08:16:43Z</time></trkpt><trkpt lat="44.454727058071946" lon="8.984789865818717"><ele>63.0</ele><time>2026-03-29T08:16:45Z</time></trkpt><trkpt lat="44.454732748887075" lon="8.98490039090272"><ele>63.0</ele><time>2026-03-29T08:16:47.001Z</time></trkpt><trkpt lat="44.45473173091266" lon="8.98501504324668"><ele>63.0</ele><time>2026-03-29T08:16:49.001Z</time></trkpt><trkpt lat="44.454724740851915" lon="8.98513191001997"><ele>63.0</ele><time>2026-03-29T08:16:51.001Z</time></trkpt><trkpt lat="44.45471275972013" lon="8.98524876720847"><ele>63.0</ele><time>2026-03-29T08:16:53.001Z</time></trkpt><trkpt lat="44.454696157362356" lon="8.985364194595284"><ele>63.166666666666664</ele><time>2026-03-29T08:16:55.001Z</time></trkpt><trkpt lat="44.454681296778006" lon="8.985473922132144"><ele>63.33333333333333</ele><time>2026-03-29T08:16:57.001Z</time></trkpt><trkpt lat="44.45464932159155" lon="8.985577538731704"><ele>63.5</ele><time>2026-03-29T08:16:59.001Z</time></trkpt><trkpt lat="44.454638256015116" lon="8.985688335457239"><ele>63.666666666666664</ele><time>2026-03-29T08:17:01.001Z</time></trkpt><trkpt lat="44.45461182322007" lon="8.98579911803251"><ele>63.83333333333333</ele><time>2026-03-29T08:17:03.001Z</time></trkpt><trkpt lat="44.454581606377616" lon="8.98590799205968"><ele>64.0</ele><time>2026-03-29T08:17:05.001Z</time></trkpt><trkpt lat="44.454555829601766" lon="8.986020063732987"><ele>63.666666666666664</ele><time>2026-03-29T08:17:07.001Z</time></trkpt><trkpt lat="44.454533370471964" lon="8.986133989493108"><ele>63.33333333333333</ele><time>2026-03-29T08:17:09.001Z</time></trkpt><trkpt lat="44.45451077740558" lon="8.986247677363927"><ele>63.0</ele><time>2026-03-29T08:17:11.001Z</time></trkpt><trkpt lat="44.454480170663196" lon="8.986357148408484"><ele>62.66666666666667</ele><time>2026-03-29T08:17:13.001Z</time></trkpt><trkpt lat="44.45445398451856" lon="8.986470726707447"><ele>62.333333333333336</ele><time>2026-03-29T08:17:15.001Z</time></trkpt><trkpt lat="44.45443098324202" lon="8.986586706753785"><ele>62.0</ele><time>2026-03-29T08:17:17.001Z</time></trkpt><trkpt lat="44.454407853844835" lon="8.986710846756806"><ele>62.00000000000001</ele><time>2026-03-29T08:17:19.001Z</time></trkpt><trkpt lat="44.45437857102872" lon="8.986822286902251"><ele>62.0</ele><time>2026-03-29T08:17:21.001Z</time></trkpt><trkpt lat="44.45435064536265" lon="8.986935780643092"><ele>62.0</ele><time>2026-03-29T08:17:23.001Z</time></trkpt><trkpt lat="44.45432355909916" lon="8.98704387609121"><ele>62.0</ele><time>2026-03-29T08:17:25.001Z</time></trkpt><trkpt lat="44.4543074158582" lon="8.987162979661068"><ele>62.00000000000001</ele><time>2026-03-29T08:17:27.001Z</time></trkpt><trkpt lat="44.45428511312204" lon="8.987274352144007"><ele>62.0</ele><time>2026-03-29T08:17:29.001Z</time></trkpt><trkpt lat="44.4542526689568" lon="8.987388452760404"><ele>62.00000000000001</ele><time>2026-03-29T08:17:31.001Z</time></trkpt><trkpt lat="44.4542232323807" lon="8.987502631757597"><ele>62.0</ele><time>2026-03-29T08:17:33.001Z</time></trkpt><trkpt lat="44.45418954631479" lon="8.987609816234507"><ele>62.0</ele><time>2026-03-29T08:17:35.001Z</time></trkpt><trkpt lat="44.45416593375386" lon="8.987719368410128"><ele>62.0</ele><time>2026-03-29T08:17:37.001Z</time></trkpt><trkpt lat="44.45413660807244" lon="8.98782912198646"><ele>62.00000000000001</ele><time>2026-03-29T08:17:39.001Z</time></trkpt><trkpt lat="44.45411246944357" lon="8.987936540397204"><ele>62.0</ele><time>2026-03-29T08:17:41.001Z</time></trkpt><trkpt lat="44.454077580481226" lon="8.988044237127285"><ele>63.833333333333336</ele><time>2026-03-29T08:17:43.002Z</time></trkpt><trkpt lat="44.454049497178126" lon="8.98815275221287"><ele>65.66666666666667</ele><time>2026-03-29T08:17:45.002Z</time></trkpt><trkpt lat="44.45402519567358" lon="8.988262993370585"><ele>67.5</ele><time>2026-03-29T08:17:47.002Z</time></trkpt><trkpt lat="44.453988603569876" lon="8.98837042958062"><ele>69.33333333333333</ele><time>2026-03-29T08:17:49.002Z</time></trkpt><trkpt lat="44.45395371950379" lon="8.98848153811733"><ele>71.16666666666666</ele><time>2026-03-29T08:17:51.002Z</time></trkpt><trkpt lat="44.45391176224775" lon="8.988595193816332"><ele>73.0</ele><time>2026-03-29T08:17:53.002Z</time></trkpt><trkpt lat="44.45388173249646" lon="8.988719966891523"><ele>73.8</ele><time>2026-03-29T08:17:55.002Z</time></trkpt><trkpt lat="44.45384093237603" lon="8.988840199408664"><ele>74.6</ele><time>2026-03-29T08:17:56.999Z</time></trkpt><trkpt lat="44.45380045159169" lon="8.98896875700387"><ele>75.4</ele><time>2026-03-29T08:17:58.999Z</time></trkpt><trkpt lat="44.45375815754298" lon="8.989097104439212"><ele>76.2</ele><time>2026-03-29T08:18:00.999Z</time></trkpt><trkpt lat="44.453718469378124" lon="8.98922850616627"><ele>77.0</ele><time>2026-03-29T08:18:02.999Z</time></trkpt><trkpt lat="44.45368265447488" lon="8.989355730147144"><ele>73.2</ele><time>2026-03-29T08:18:04.999Z</time></trkpt><trkpt lat="44.45364437877732" lon="8.989475321758183"><ele>69.4</ele><time>2026-03-29T08:18:06.999Z</time></trkpt><trkpt lat="44.45360752096283" lon="8.989599104528393"><ele>65.6</ele><time>2026-03-29T08:18:08.999Z</time></trkpt><trkpt lat="44.45357240665177" lon="8.989718751352676"><ele>61.8</ele><time>2026-03-29T08:18:10.999Z</time></trkpt><trkpt lat="44.45353583403948" lon="8.989838898183587"><ele>58.0</ele><time>2026-03-29T08:18:12.999Z</time></trkpt><trkpt lat="44.45349963706317" lon="8.989958326890465"><ele>59.2</ele><time>2026-03-29T08:18:14.999Z</time></trkpt><trkpt lat="44.45346160863088" lon="8.990077211975624"><ele>60.4</ele><time>2026-03-29T08:18:16.999Z</time></trkpt><trkpt lat="44.453417895223104" lon="8.990192504433242"><ele>61.60000000000001</ele><time>2026-03-29T08:18:18.999Z</time></trkpt><trkpt lat="44.4533805912257" lon="8.990306594220767"><ele>62.800000000000004</ele><time>2026-03-29T08:18:20.999Z</time></trkpt><trkpt lat="44.4533375730895" lon="8.990420795739952"><ele>64.0</ele><time>2026-03-29T08:18:23Z</time></trkpt><trkpt lat="44.4532930630388" lon="8.990535109025062"><ele>63.99999999999999</ele><time>2026-03-29T08:18:25Z</time></trkpt><trkpt lat="44.45324034523979" lon="8.990645295681379"><ele>64.0</ele><time>2026-03-29T08:18:27Z</time></trkpt><trkpt lat="44.45319456389084" lon="8.990750609262964"><ele>64.0</ele><time>2026-03-29T08:18:29Z</time></trkpt><trkpt lat="44.45314476857403" lon="8.990849171349641"><ele>64.0</ele><time>2026-03-29T08:18:31Z</time></trkpt><trkpt lat="44.453092957443914" lon="8.99094531963334"><ele>63.99999999999999</ele><time>2026-03-29T08:18:33Z</time></trkpt><trkpt lat="44.45304071221032" lon="8.991044851309486"><ele>64.0</ele><time>2026-03-29T08:18:35Z</time></trkpt><trkpt lat="44.45298521837455" lon="8.991135669266008"><ele>63.99999999999999</ele><time>2026-03-29T08:18:37Z</time></trkpt><trkpt lat="44.45293359351889" lon="8.991228495467148"><ele>64.0</ele><time>2026-03-29T08:18:39Z</time></trkpt><trkpt lat="44.452875586268505" lon="8.991318147495418"><ele>64.0</ele><time>2026-03-29T08:18:41Z</time></trkpt><trkpt lat="44.452811253201226" lon="8.991405924076272"><ele>64.0</ele><time>2026-03-29T08:18:43Z</time></trkpt><trkpt lat="44.452750029173345" lon="8.991497058526122"><ele>63.99999999999999</ele><time>2026-03-29T08:18:45Z</time></trkpt><trkpt lat="44.4526856033374" lon="8.991579809502376"><ele>64.0</ele><time>2026-03-29T08:18:47Z</time></trkpt><trkpt lat="44.45262379025664" lon="8.991657814003661"><ele>65.83333333333333</ele><time>2026-03-29T08:18:49Z</time></trkpt><trkpt lat="44.45256201151171" lon="8.991736767073528"><ele>67.66666666666666</ele><time>2026-03-29T08:18:51Z</time></trkpt><trkpt lat="44.45249925223718" lon="8.991815857776558"><ele>69.5</ele><time>2026-03-29T08:18:53Z</time></trkpt><trkpt lat="44.45243740304716" lon="8.991891124466783"><ele>71.33333333333333</ele><time>2026-03-29T08:18:55Z</time></trkpt><trkpt lat="44.45238164637084" lon="8.9919718406103"><ele>73.16666666666667</ele><time>2026-03-29T08:18:57Z</time></trkpt><trkpt lat="44.452319267780986" lon="8.992052595509106"><ele>75.0</ele><time>2026-03-29T08:18:59Z</time></trkpt><trkpt lat="44.45225848374929" lon="8.992129958921343"><ele>75.0</ele><time>2026-03-29T08:19:01Z</time></trkpt><trkpt lat="44.452190099393164" lon="8.992199580333793"><ele>75.0</ele><time>2026-03-29T08:19:03.001Z</time></trkpt><trkpt lat="44.45211831936316" lon="8.992265342705071"><ele>75.0</ele><time>2026-03-29T08:19:05.001Z</time></trkpt><trkpt lat="44.452042347452384" lon="8.992332443598356"><ele>75.0</ele><time>2026-03-29T08:19:07.001Z</time></trkpt><trkpt lat="44.45196207155793" lon="8.992393339445517"><ele>75.0</ele><time>2026-03-29T08:19:09.001Z</time></trkpt><trkpt lat="44.45188050080227" lon="8.992442277509268"><ele>75.0</ele><time>2026-03-29T08:19:11.001Z</time></trkpt><trkpt lat="44.451796445132835" lon="8.99247646839605"><ele>76.4</ele><time>2026-03-29T08:19:13.001Z</time></trkpt><trkpt lat="44.451710511710196" lon="8.992496729953421"><ele>77.8</ele><time>2026-03-29T08:19:15.001Z</time></trkpt><trkpt lat="44.451616661477246" lon="8.992509378478134"><ele>79.19999999999999</ele><time>2026-03-29T08:19:17.001Z</time></trkpt><trkpt lat="44.4515200200174" lon="8.992519251602934"><ele>80.6</ele><time>2026-03-29T08:19:19.001Z</time></trkpt><trkpt lat="44.45141719062866" lon="8.992508201347482"><ele>82.0</ele><time>2026-03-29T08:19:21.001Z</time></trkpt><trkpt lat="44.45132192161139" lon="8.992468736521868"><ele>78.8</ele><time>2026-03-29T08:19:23.001Z</time></trkpt><trkpt lat="44.451224432963365" lon="8.992450078648966"><ele>75.6</ele><time>2026-03-29T08:19:25.001Z</time></trkpt><trkpt lat="44.45112296924328" lon="8.992429827550497"><ele>72.39999999999999</ele><time>2026-03-29T08:19:27.001Z</time></trkpt><trkpt lat="44.451029636951475" lon="8.992406868623235"><ele>69.19999999999999</ele><time>2026-03-29T08:19:29.001Z</time></trkpt><trkpt lat="44.45093731491106" lon="8.992379360849254"><ele>66.0</ele><time>2026-03-29T08:19:31.001Z</time></trkpt><trkpt lat="44.45085289415172" lon="8.992373266585776"><ele>66.0</ele><time>2026-03-29T08:19:33.001Z</time></trkpt><trkpt lat="44.45076755735788" lon="8.992380695720067"><ele>66.0</ele><time>2026-03-29T08:19:35.001Z</time></trkpt><trkpt lat="44.450687338764695" lon="8.9923948295551"><ele>66.0</ele><time>2026-03-29T08:19:37.001Z</time></trkpt><trkpt lat="44.450604403504265" lon="8.992426955094572"><ele>66.0</ele><time>2026-03-29T08:19:39.001Z</time></trkpt><trkpt lat="44.450526049635485" lon="8.99246050358199"><ele>66.0</ele><time>2026-03-29T08:19:41.001Z</time></trkpt><trkpt lat="44.45044911546024" lon="8.992505551385108"><ele>66.0</ele><time>2026-03-29T08:19:43.001Z</time></trkpt><trkpt lat="44.450374359415775" lon="8.992579103502445"><ele>66.5</ele><time>2026-03-29T08:19:45.001Z</time></trkpt><trkpt lat="44.450310116717404" lon="8.992656541567412"><ele>67.0</ele><time>2026-03-29T08:19:47.001Z</time></trkpt><trkpt lat="44.450252731628346" lon="8.992753948940605"><ele>67.5</ele><time>2026-03-29T08:19:49.002Z</time></trkpt><trkpt lat="44.4501999941335" lon="8.992847852456698"><ele>68.0</ele><time>2026-03-29T08:19:51.002Z</time></trkpt><trkpt lat="44.45014564688737" lon="8.992943308160116"><ele>68.5</ele><time>2026-03-29T08:19:53.002Z</time></trkpt><trkpt lat="44.4500951491072" lon="8.993043099282168"><ele>69.0</ele><time>2026-03-29T08:19:55.002Z</time></trkpt><trkpt lat="44.45004310207933" lon="8.993142085699969"><ele>69.0</ele><time>2026-03-29T08:19:57.002Z</time></trkpt><trkpt lat="44.44998542721376" lon="8.99323968494583"><ele>69.0</ele><time>2026-03-29T08:19:59.002Z</time></trkpt><trkpt lat="44.44993806969855" lon="8.99334788665928"><ele>69.0</ele><time>2026-03-29T08:20:01.002Z</time></trkpt><trkpt lat="44.44989003419564" lon="8.993451738918464"><ele>69.0</ele><time>2026-03-29T08:20:02.999Z</time></trkpt><trkpt lat="44.44983835129734" lon="8.993551646734282"><ele>69.0</ele><time>2026-03-29T08:20:04.999Z</time></trkpt><trkpt lat="44.449787047467524" lon="8.99365509642653"><ele>69.0</ele><time>2026-03-29T08:20:06.999Z</time></trkpt><trkpt lat="44.449735332189256" lon="8.993763316525364"><ele>68.83333333333333</ele><time>2026-03-29T08:20:08.999Z</time></trkpt><trkpt lat="44.449690249066386" lon="8.99387460116166"><ele>68.66666666666667</ele><time>2026-03-29T08:20:10.999Z</time></trkpt><trkpt lat="44.44963818191466" lon="8.993982793717906"><ele>68.5</ele><time>2026-03-29T08:20:12.999Z</time></trkpt><trkpt lat="44.44960075958978" lon="8.994095431892115"><ele>68.33333333333334</ele><time>2026-03-29T08:20:14.999Z</time></trkpt><trkpt lat="44.44956465795557" lon="8.994204601223457"><ele>68.16666666666667</ele><time>2026-03-29T08:20:16.999Z</time></trkpt><trkpt lat="44.44952948414041" lon="8.99431632505049"><ele>68.0</ele><time>2026-03-29T08:20:18.999Z</time></trkpt><trkpt lat="44.44950301326084" lon="8.994440503581563"><ele>68.4</ele><time>2026-03-29T08:20:20.999Z</time></trkpt><trkpt lat="44.4494655553053" lon="8.994555052895242"><ele>68.8</ele><time>2026-03-29T08:20:22.999Z</time></trkpt><trkpt lat="44.44943398409221" lon="8.994676504908172"><ele>69.2</ele><time>2026-03-29T08:20:24.999Z</time></trkpt><trkpt lat="44.449405617784144" lon="8.994794849903968"><ele>69.6</ele><time>2026-03-29T08:20:26.999Z</time></trkpt><trkpt lat="44.449380446044984" lon="8.994915327229796"><ele>70.0</ele><time>2026-03-29T08:20:29Z</time></trkpt><trkpt lat="44.44935332670502" lon="8.995037031651608"><ele>70.6</ele><time>2026-03-29T08:20:31Z</time></trkpt><trkpt lat="44.44932470361898" lon="8.995157350805759"><ele>71.2</ele><time>2026-03-29T08:20:33Z</time></trkpt><trkpt lat="44.4492987480746" lon="8.995281449226999"><ele>71.8</ele><time>2026-03-29T08:20:35Z</time></trkpt><trkpt lat="44.44926723447804" lon="8.995403345241339"><ele>72.4</ele><time>2026-03-29T08:20:37Z</time></trkpt><trkpt lat="44.4492353408192" lon="8.995523872730434"><ele>73.0</ele><time>2026-03-29T08:20:39Z</time></trkpt><trkpt lat="44.44920750286657" lon="8.995639639026503"><ele>73.0</ele><time>2026-03-29T08:20:41Z</time></trkpt><trkpt lat="44.449179979312895" lon="8.995755488769982"><ele>73.0</ele><time>2026-03-29T08:20:43Z</time></trkpt><trkpt lat="44.44915103605744" lon="8.99587578462497"><ele>73.0</ele><time>2026-03-29T08:20:45Z</time></trkpt><trkpt lat="44.44912000772355" lon="8.995993855370665"><ele>73.0</ele><time>2026-03-29T08:20:47Z</time></trkpt><trkpt lat="44.44909100339754" lon="8.99611138845239"><ele>73.0</ele><time>2026-03-29T08:20:49Z</time></trkpt><trkpt lat="44.44906134219905" lon="8.996230791654986"><ele>73.0</ele><time>2026-03-29T08:20:51Z</time></trkpt><trkpt lat="44.449027920671135" lon="8.996347437903271"><ele>73.5</ele><time>2026-03-29T08:20:53Z</time></trkpt><trkpt lat="44.44899813617968" lon="8.996466929945322"><ele>74.0</ele><time>2026-03-29T08:20:55Z</time></trkpt><trkpt lat="44.44897132760242" lon="8.99658589620573"><ele>74.5</ele><time>2026-03-29T08:20:57Z</time></trkpt><trkpt lat="44.44894813602168" lon="8.996709110990773"><ele>75.0</ele><time>2026-03-29T08:20:59Z</time></trkpt><trkpt lat="44.44892081717145" lon="8.996828401871229"><ele>75.5</ele><time>2026-03-29T08:21:01.001Z</time></trkpt><trkpt lat="44.44889343390029" lon="8.996946552404415"><ele>76.0</ele><time>2026-03-29T08:21:03.001Z</time></trkpt><trkpt lat="44.44886054767542" lon="8.997059820516705"><ele>76.16666666666666</ele><time>2026-03-29T08:21:05.001Z</time></trkpt><trkpt lat="44.448814778718145" lon="8.997161682116609"><ele>76.33333333333333</ele><time>2026-03-29T08:21:07.001Z</time></trkpt><trkpt lat="44.448786332018884" lon="8.99727236475596"><ele>76.5</ele><time>2026-03-29T08:21:09.001Z</time></trkpt><trkpt lat="44.44877031472432" lon="8.997387217949674"><ele>76.66666666666667</ele><time>2026-03-29T08:21:11.001Z</time></trkpt><trkpt lat="44.448728781962416" lon="8.99749744698169"><ele>76.83333333333334</ele><time>2026-03-29T08:21:13.001Z</time></trkpt><trkpt lat="44.448691910091945" lon="8.997609556942399"><ele>77.0</ele><time>2026-03-29T08:21:15.001Z</time></trkpt><trkpt lat="44.44866388429629" lon="8.997725114559938"><ele>76.0</ele><time>2026-03-29T08:21:17.001Z</time></trkpt><trkpt lat="44.44863541030259" lon="8.997838878432772"><ele>75.0</ele><time>2026-03-29T08:21:19.001Z</time></trkpt><trkpt lat="44.448605228084375" lon="8.997954094970675"><ele>74.0</ele><time>2026-03-29T08:21:21.001Z</time></trkpt><trkpt lat="44.448569033157185" lon="8.998070213371019"><ele>73.0</ele><time>2026-03-29T08:21:23.001Z</time></trkpt><trkpt lat="44.448536159754596" lon="8.998186108574405"><ele>72.0</ele><time>2026-03-29T08:21:25.001Z</time></trkpt><trkpt lat="44.4485057033459" lon="8.998304537399227"><ele>71.0</ele><time>2026-03-29T08:21:27.001Z</time></trkpt><trkpt lat="44.44847466688829" lon="8.99841922958018"><ele>71.0</ele><time>2026-03-29T08:21:29.001Z</time></trkpt><trkpt lat="44.448441448655" lon="8.998535524467629"><ele>71.0</ele><time>2026-03-29T08:21:31.001Z</time></trkpt><trkpt lat="44.44840357094179" lon="8.998647581985276"><ele>71.0</ele><time>2026-03-29T08:21:33.001Z</time></trkpt><trkpt lat="44.44837134386597" lon="8.998762530730058"><ele>71.0</ele><time>2026-03-29T08:21:35.001Z</time></trkpt><trkpt lat="44.448344900798034" lon="8.998884006826824"><ele>71.0</ele><time>2026-03-29T08:21:37.001Z</time></trkpt><trkpt lat="44.44831511134318" lon="8.998993090767051"><ele>71.0</ele><time>2026-03-29T08:21:39.001Z</time></trkpt><trkpt lat="44.44827825761829" lon="8.99911028514255"><ele>71.66666666666667</ele><time>2026-03-29T08:21:41.002Z</time></trkpt><trkpt lat="44.448250667568416" lon="8.999226439446977"><ele>72.33333333333334</ele><time>2026-03-29T08:21:43.002Z</time></trkpt><trkpt lat="44.44821743238092" lon="8.999348712476353"><ele>73.0</ele><time>2026-03-29T08:21:45.002Z</time></trkpt><trkpt lat="44.44818904141447" lon="8.999465693059708"><ele>73.66666666666667</ele><time>2026-03-29T08:21:47.002Z</time></trkpt><trkpt lat="44.44816057595356" lon="8.99958121443273"><ele>74.33333333333333</ele><time>2026-03-29T08:21:49.002Z</time></trkpt><trkpt lat="44.448137077993984" lon="8.999694846888927"><ele>75.0</ele><time>2026-03-29T08:21:51.002Z</time></trkpt><trkpt lat="44.4481072476747" lon="8.99980689379399"><ele>74.99999999999999</ele><time>2026-03-29T08:21:53.002Z</time></trkpt><trkpt lat="44.44808047142356" lon="8.999908037517107"><ele>75.0</ele><time>2026-03-29T08:21:55.002Z</time></trkpt><trkpt lat="44.44805315983618" lon="8.999996682439173"><ele>75.0</ele><time>2026-03-29T08:21:57.002Z</time></trkpt><trkpt lat="44.44802441145654" lon="9.000081647651744"><ele>75.0</ele><time>2026-03-29T08:21:59.002Z</time></trkpt><trkpt lat="44.44801111216798" lon="9.00017922624778"><ele>75.0</ele><time>2026-03-29T08:22:01.002Z</time></trkpt><trkpt lat="44.44798747984592" lon="9.000279359805104"><ele>74.99999999999999</ele><time>2026-03-29T08:22:03.002Z</time></trkpt><trkpt lat="44.44796130349611" lon="9.00038287972021"><ele>75.0</ele><time>2026-03-29T08:22:05.002Z</time></trkpt><trkpt lat="44.447933889256284" lon="9.00049106261868"><ele>74.83333333333333</ele><time>2026-03-29T08:22:07.002Z</time></trkpt><trkpt lat="44.44791208856253" lon="9.000611297860301"><ele>74.66666666666667</ele><time>2026-03-29T08:22:08.999Z</time></trkpt><trkpt lat="44.447895692283474" lon="9.000726058271553"><ele>74.5</ele><time>2026-03-29T08:22:10.999Z</time></trkpt><trkpt lat="44.44786582560944" lon="9.00083336527798"><ele>74.33333333333334</ele><time>2026-03-29T08:22:12.999Z</time></trkpt><trkpt lat="44.44783773037311" lon="9.000930053424371"><ele>74.16666666666667</ele><time>2026-03-29T08:22:14.999Z</time></trkpt><trkpt lat="44.447810464943046" lon="9.00101763757562"><ele>74.0</ele><time>2026-03-29T08:22:16.999Z</time></trkpt><trkpt lat="44.4477643938084" lon="9.001106168775317"><ele>73.33333333333334</ele><time>2026-03-29T08:22:18.999Z</time></trkpt><trkpt lat="44.44772957271493" lon="9.00121161474614"><ele>72.66666666666667</ele><time>2026-03-29T08:22:20.999Z</time></trkpt><trkpt lat="44.447702263839126" lon="9.001314891996103"><ele>72.0</ele><time>2026-03-29T08:22:22.999Z</time></trkpt><trkpt lat="44.44767974145967" lon="9.00142968120369"><ele>71.33333333333333</ele><time>2026-03-29T08:22:24.999Z</time></trkpt><trkpt lat="44.44766140145116" lon="9.001548010595318"><ele>70.66666666666666</ele><time>2026-03-29T08:22:26.999Z</time></trkpt><trkpt lat="44.44764802934574" lon="9.001667451000051"><ele>70.0</ele><time>2026-03-29T08:22:28.999Z</time></trkpt><trkpt lat="44.44763343911449" lon="9.00178208412787"><ele>70.0</ele><time>2026-03-29T08:22:30.999Z</time></trkpt><trkpt lat="44.44761345181245" lon="9.001896276192713"><ele>70.0</ele><time>2026-03-29T08:22:33Z</time></trkpt><trkpt lat="44.44759851524327" lon="9.002011038731135"><ele>70.0</ele><time>2026-03-29T08:22:35Z</time></trkpt><trkpt lat="44.44758169629214" lon="9.00213162516736"><ele>70.0</ele><time>2026-03-29T08:22:37Z</time></trkpt><trkpt lat="44.447569220785226" lon="9.00224846107072"><ele>70.0</ele><time>2026-03-29T08:22:39Z</time></trkpt><trkpt lat="44.44755592223993" lon="9.002366068141663"><ele>70.0</ele><time>2026-03-29T08:22:41Z</time></trkpt><trkpt lat="44.44754297060414" lon="9.002486349471807"><ele>70.16666666666666</ele><time>2026-03-29T08:22:43Z</time></trkpt><trkpt lat="44.44753211083424" lon="9.002601533594033"><ele>70.33333333333333</ele><time>2026-03-29T08:22:45Z</time></trkpt><trkpt lat="44.44752180170634" lon="9.002717281505172"><ele>70.5</ele><time>2026-03-29T08:22:47Z</time></trkpt><trkpt lat="44.4475152920257" lon="9.002839681680813"><ele>70.66666666666667</ele><time>2026-03-29T08:22:49Z</time></trkpt><trkpt lat="44.447507547540376" lon="9.002960123501806"><ele>70.83333333333334</ele><time>2026-03-29T08:22:51Z</time></trkpt><trkpt lat="44.44751422901195" lon="9.003084947918447"><ele>71.0</ele><time>2026-03-29T08:22:53Z</time></trkpt><trkpt lat="44.44753082938183" lon="9.003199134298157"><ele>71.0</ele><time>2026-03-29T08:22:55Z</time></trkpt><trkpt lat="44.447534172095494" lon="9.003314682503513"><ele>71.0</ele><time>2026-03-29T08:22:57Z</time></trkpt><trkpt lat="44.44752910583339" lon="9.00342754341498"><ele>71.0</ele><time>2026-03-29T08:22:59.001Z</time></trkpt><trkpt lat="44.44754130806225" lon="9.003547265101357"><ele>71.0</ele><time>2026-03-29T08:23:01.001Z</time></trkpt><trkpt lat="44.4475402784204" lon="9.003659367625795"><ele>71.0</ele><time>2026-03-29T08:23:03.001Z</time></trkpt><trkpt lat="44.447531091513675" lon="9.003777431150606"><ele>71.0</ele><time>2026-03-29T08:23:05.001Z</time></trkpt><trkpt lat="44.44753238584997" lon="9.003886751769635"><ele>71.33333333333334</ele><time>2026-03-29T08:23:07.001Z</time></trkpt><trkpt lat="44.44754018603582" lon="9.003998635761798"><ele>71.66666666666667</ele><time>2026-03-29T08:23:09.001Z</time></trkpt><trkpt lat="44.44755272985994" lon="9.004110441512209"><ele>72.0</ele><time>2026-03-29T08:23:11.001Z</time></trkpt><trkpt lat="44.44755751659999" lon="9.004227887888932"><ele>72.33333333333333</ele><time>2026-03-29T08:23:13.001Z</time></trkpt><trkpt lat="44.44757711063521" lon="9.004340064024843"><ele>72.66666666666666</ele><time>2026-03-29T08:23:15.001Z</time></trkpt><trkpt lat="44.44759781309741" lon="9.004452345097654"><ele>73.0</ele><time>2026-03-29T08:23:17.001Z</time></trkpt><trkpt lat="44.44761671236007" lon="9.004561039986294"><ele>73.16666666666666</ele><time>2026-03-29T08:23:19.001Z</time></trkpt><trkpt lat="44.447643441589236" lon="9.004676895548885"><ele>73.33333333333333</ele><time>2026-03-29T08:23:21.001Z</time></trkpt><trkpt lat="44.44766552263867" lon="9.00478284877214"><ele>73.5</ele><time>2026-03-29T08:23:23.001Z</time></trkpt><trkpt lat="44.447681570717776" lon="9.004890625669342"><ele>73.66666666666667</ele><time>2026-03-29T08:23:25.001Z</time></trkpt><trkpt lat="44.44769938793773" lon="9.005010050171073"><ele>73.83333333333334</ele><time>2026-03-29T08:23:27.001Z</time></trkpt><trkpt lat="44.44771283623054" lon="9.005114238059742"><ele>74.0</ele><time>2026-03-29T08:23:29.001Z</time></trkpt><trkpt lat="44.447731384848765" lon="9.005214498329195"><ele>74.16666666666667</ele><time>2026-03-29T08:23:31.001Z</time></trkpt><trkpt lat="44.447762539882376" lon="9.005324902690056"><ele>74.33333333333334</ele><time>2026-03-29T08:23:33.002Z</time></trkpt><trkpt lat="44.44778684705935" lon="9.005435685233733"><ele>74.5</ele><time>2026-03-29T08:23:35.002Z</time></trkpt><trkpt lat="44.44781393282662" lon="9.005539593464922"><ele>74.66666666666667</ele><time>2026-03-29T08:23:37.002Z</time></trkpt><trkpt lat="44.44784297925389" lon="9.005642760166873"><ele>74.83333333333333</ele><time>2026-03-29T08:23:39.002Z</time></trkpt><trkpt lat="44.447867661681414" lon="9.005742119857139"><ele>75.0</ele><time>2026-03-29T08:23:41.002Z</time></trkpt><trkpt lat="44.447899064972326" lon="9.005834826932276"><ele>75.0</ele><time>2026-03-29T08:23:43.002Z</time></trkpt><trkpt lat="44.44792360923536" lon="9.005939250827451"><ele>75.0</ele><time>2026-03-29T08:23:45.002Z</time></trkpt><trkpt lat="44.44794347433597" lon="9.006050088701716"><ele>75.0</ele><time>2026-03-29T08:23:47.002Z</time></trkpt><trkpt lat="44.44796091690541" lon="9.006151918425264"><ele>75.0</ele><time>2026-03-29T08:23:49.002Z</time></trkpt><trkpt lat="44.44799297624894" lon="9.006252697143239"><ele>75.0</ele><time>2026-03-29T08:23:51.002Z</time></trkpt><trkpt lat="44.44802048539782" lon="9.006360961257135"><ele>75.0</ele><time>2026-03-29T08:23:53.002Z</time></trkpt><trkpt lat="44.44804330114406" lon="9.006459029563304"><ele>75.0</ele><time>2026-03-29T08:23:55.002Z</time></trkpt><trkpt lat="44.44801064882504" lon="9.006552746341566"><ele>75.0</ele><time>2026-03-29T08:23:57.002Z</time></trkpt><trkpt lat="44.447938682312284" lon="9.006618924722765"><ele>75.0</ele><time>2026-03-29T08:23:59.002Z</time></trkpt><trkpt lat="44.44787353638905" lon="9.006697910753921"><ele>75.0</ele><time>2026-03-29T08:24:01.002Z</time></trkpt><trkpt lat="44.44785273973181" lon="9.006821347462626"><ele>75.0</ele><time>2026-03-29T08:24:03.002Z</time></trkpt><trkpt lat="44.447888053223686" lon="9.006924362479635"><ele>75.0</ele><time>2026-03-29T08:24:05.002Z</time></trkpt><trkpt lat="44.44791801945292" lon="9.007025727403363"><ele>75.33333333333333</ele><time>2026-03-29T08:24:07.002Z</time></trkpt><trkpt lat="44.447953283450865" lon="9.007130527042806"><ele>75.66666666666667</ele><time>2026-03-29T08:24:09.003Z</time></trkpt><trkpt lat="44.44798589196052" lon="9.007229346652101"><ele>76.0</ele><time>2026-03-29T08:24:11.003Z</time></trkpt><trkpt lat="44.44801762385222" lon="9.007342044940314"><ele>76.33333333333334</ele><time>2026-03-29T08:24:13.003Z</time></trkpt><trkpt lat="44.44805630792644" lon="9.007444047261847"><ele>76.66666666666667</ele><time>2026-03-29T08:24:14.999Z</time></trkpt><trkpt lat="44.44810363950799" lon="9.00753490685096"><ele>77.0</ele><time>2026-03-29T08:24:16.999Z</time></trkpt><trkpt lat="44.44814755366077" lon="9.007615066647206"><ele>77.5</ele><time>2026-03-29T08:24:18.999Z</time></trkpt><trkpt lat="44.448203080996386" lon="9.007690779599145"><ele>78.0</ele><time>2026-03-29T08:24:20.999Z</time></trkpt><trkpt lat="44.44825712502919" lon="9.007771085070736"><ele>78.5</ele><time>2026-03-29T08:24:22.999Z</time></trkpt><trkpt lat="44.44830027163832" lon="9.007868269364623"><ele>79.0</ele><time>2026-03-29T08:24:24.999Z</time></trkpt><trkpt lat="44.44833074756674" lon="9.007971338479987"><ele>79.5</ele><time>2026-03-29T08:24:26.999Z</time></trkpt><trkpt lat="44.44834550969897" lon="9.00807855649509"><ele>80.0</ele><time>2026-03-29T08:24:28.999Z</time></trkpt><trkpt lat="44.44836109051881" lon="9.008188834720416"><ele>80.0</ele><time>2026-03-29T08:24:30.999Z</time></trkpt><trkpt lat="44.44837163211519" lon="9.008298885713197"><ele>80.0</ele><time>2026-03-29T08:24:32.999Z</time></trkpt><trkpt lat="44.44839241622358" lon="9.008400331817615"><ele>80.0</ele><time>2026-03-29T08:24:34.999Z</time></trkpt><trkpt lat="44.44841734202734" lon="9.008504201049144"><ele>80.0</ele><time>2026-03-29T08:24:36.999Z</time></trkpt><trkpt lat="44.44844494551536" lon="9.008610680841766"><ele>80.0</ele><time>2026-03-29T08:24:39Z</time></trkpt><trkpt lat="44.44847613011234" lon="9.008722281261011"><ele>80.0</ele><time>2026-03-29T08:24:41Z</time></trkpt><trkpt lat="44.448503445030205" lon="9.008823583224773"><ele>79.83333333333334</ele><time>2026-03-29T08:24:43Z</time></trkpt><trkpt lat="44.44852623683665" lon="9.008928807369939"><ele>79.66666666666667</ele><time>2026-03-29T08:24:45Z</time></trkpt><trkpt lat="44.44855795475316" lon="9.009039053078606"><ele>79.5</ele><time>2026-03-29T08:24:47Z</time></trkpt><trkpt lat="44.448580814756994" lon="9.009150417005966"><ele>79.33333333333333</ele><time>2026-03-29T08:24:49Z</time></trkpt><trkpt lat="44.44860572749073" lon="9.009260156638845"><ele>79.16666666666666</ele><time>2026-03-29T08:24:51Z</time></trkpt><trkpt lat="44.44863404829335" lon="9.009365265764064"><ele>79.0</ele><time>2026-03-29T08:24:53Z</time></trkpt><trkpt lat="44.448654503622734" lon="9.009459714528132"><ele>79.0</ele><time>2026-03-29T08:24:55Z</time></trkpt><trkpt lat="44.4486823343858" lon="9.009574777849885"><ele>79.0</ele><time>2026-03-29T08:24:57Z</time></trkpt><trkpt lat="44.44870080078162" lon="9.009682922407862"><ele>79.0</ele><time>2026-03-29T08:24:59Z</time></trkpt><trkpt lat="44.448723298203234" lon="9.00979469739226"><ele>79.0</ele><time>2026-03-29T08:25:01Z</time></trkpt><trkpt lat="44.44874396678522" lon="9.00989923302717"><ele>79.0</ele><time>2026-03-29T08:25:03Z</time></trkpt><trkpt lat="44.448767449449605" lon="9.01001685581678"><ele>79.0</ele><time>2026-03-29T08:25:05.001Z</time></trkpt><trkpt lat="44.44878862567281" lon="9.01013093833531"><ele>81.33333333333333</ele><time>2026-03-29T08:25:07.001Z</time></trkpt><trkpt lat="44.44881738978427" lon="9.010245271462816"><ele>83.66666666666666</ele><time>2026-03-29T08:25:09.001Z</time></trkpt><trkpt lat="44.448842899425365" lon="9.010363272325808"><ele>86.0</ele><time>2026-03-29T08:25:11.001Z</time></trkpt><trkpt lat="44.448866817460356" lon="9.01047332805282"><ele>88.33333333333333</ele><time>2026-03-29T08:25:13.001Z</time></trkpt><trkpt lat="44.4488941406064" lon="9.010588667619128"><ele>90.66666666666667</ele><time>2026-03-29T08:25:15.001Z</time></trkpt><trkpt lat="44.448914893677625" lon="9.010699959308926"><ele>93.0</ele><time>2026-03-29T08:25:17.001Z</time></trkpt><trkpt lat="44.4489360994059" lon="9.010814542425308"><ele>91.33333333333333</ele><time>2026-03-29T08:25:19.001Z</time></trkpt><trkpt lat="44.44896416887329" lon="9.010933685634747"><ele>89.66666666666667</ele><time>2026-03-29T08:25:21.001Z</time></trkpt><trkpt lat="44.44898681940871" lon="9.011046292832546"><ele>88.0</ele><time>2026-03-29T08:25:23.001Z</time></trkpt><trkpt lat="44.44900865370819" lon="9.011163355004127"><ele>86.33333333333334</ele><time>2026-03-29T08:25:25.001Z</time></trkpt><trkpt lat="44.44903597780796" lon="9.011285633856872"><ele>84.66666666666667</ele><time>2026-03-29T08:25:27.001Z</time></trkpt><trkpt lat="44.449060053724125" lon="9.011401245191283"><ele>83.0</ele><time>2026-03-29T08:25:29.001Z</time></trkpt><trkpt lat="44.449090878092996" lon="9.011523291238255"><ele>83.0</ele><time>2026-03-29T08:25:31.001Z</time></trkpt><trkpt lat="44.44912320967817" lon="9.01163832424128"><ele>83.0</ele><time>2026-03-29T08:25:33.001Z</time></trkpt><trkpt lat="44.449153918022965" lon="9.01174976673411"><ele>83.0</ele><time>2026-03-29T08:25:35.002Z</time></trkpt><trkpt lat="44.44917523123246" lon="9.011870649793282"><ele>83.0</ele><time>2026-03-29T08:25:37.002Z</time></trkpt><trkpt lat="44.449197455583864" lon="9.01198733039316"><ele>83.0</ele><time>2026-03-29T08:25:39.002Z</time></trkpt><trkpt lat="44.4492248058425" lon="9.012102075977637"><ele>83.0</ele><time>2026-03-29T08:25:41.002Z</time></trkpt><trkpt lat="44.44924529073131" lon="9.012215005578614"><ele>83.33333333333334</ele><time>2026-03-29T08:25:43.002Z</time></trkpt><trkpt lat="44.44926538906037" lon="9.012330355093928"><ele>83.66666666666667</ele><time>2026-03-29T08:25:45.002Z</time></trkpt><trkpt lat="44.44928903119558" lon="9.012453292563551"><ele>84.0</ele><time>2026-03-29T08:25:47.002Z</time></trkpt><trkpt lat="44.44931021483235" lon="9.01257461629556"><ele>84.33333333333333</ele><time>2026-03-29T08:25:49.002Z</time></trkpt><trkpt lat="44.44933788451146" lon="9.012693780393835"><ele>84.66666666666666</ele><time>2026-03-29T08:25:51.002Z</time></trkpt><trkpt lat="44.449365441540245" lon="9.012813461647593"><ele>85.0</ele><time>2026-03-29T08:25:53.002Z</time></trkpt><trkpt lat="44.449389472488306" lon="9.012930064141143"><ele>84.5</ele><time>2026-03-29T08:25:55.002Z</time></trkpt><trkpt lat="44.44942340409871" lon="9.01305171186594"><ele>84.0</ele><time>2026-03-29T08:25:57.002Z</time></trkpt><trkpt lat="44.44944629707836" lon="9.013176148760879"><ele>83.5</ele><time>2026-03-29T08:25:59.002Z</time></trkpt><trkpt lat="44.449469216312785" lon="9.01330076883756"><ele>83.0</ele><time>2026-03-29T08:26:01.002Z</time></trkpt><trkpt lat="44.449495791774886" lon="9.013415407748859"><ele>82.5</ele><time>2026-03-29T08:26:03.002Z</time></trkpt><trkpt lat="44.44951775962285" lon="9.013532750308757"><ele>82.0</ele><time>2026-03-29T08:26:05.002Z</time></trkpt><trkpt lat="44.4495474068878" lon="9.013645596522796"><ele>82.0</ele><time>2026-03-29T08:26:07.002Z</time></trkpt><trkpt lat="44.44957495751794" lon="9.01376737076508"><ele>82.0</ele><time>2026-03-29T08:26:09.003Z</time></trkpt><trkpt lat="44.44960498633524" lon="9.013881077864678"><ele>82.0</ele><time>2026-03-29T08:26:11.003Z</time></trkpt><trkpt lat="44.449627208903024" lon="9.01399739275736"><ele>82.0</ele><time>2026-03-29T08:26:13.003Z</time></trkpt><trkpt lat="44.44965244726616" lon="9.0141145990988"><ele>82.0</ele><time>2026-03-29T08:26:15.003Z</time></trkpt><trkpt lat="44.44966404537184" lon="9.014242820483044"><ele>82.0</ele><time>2026-03-29T08:26:17.003Z</time></trkpt><trkpt lat="44.44969175020288" lon="9.014375456407981"><ele>83.33333333333333</ele><time>2026-03-29T08:26:19.003Z</time></trkpt><trkpt lat="44.449714137302195" lon="9.014499632671642"><ele>84.66666666666666</ele><time>2026-03-29T08:26:20.999Z</time></trkpt><trkpt lat="44.44973115357487" lon="9.014623328537812"><ele>86.0</ele><time>2026-03-29T08:26:22.999Z</time></trkpt><trkpt lat="44.44975461526153" lon="9.014739809908829"><ele>87.33333333333333</ele><time>2026-03-29T08:26:24.999Z</time></trkpt><trkpt lat="44.44976817733844" lon="9.014858709202374"><ele>88.66666666666667</ele><time>2026-03-29T08:26:26.999Z</time></trkpt><trkpt lat="44.44978726255704" lon="9.014972938928139"><ele>90.0</ele><time>2026-03-29T08:26:28.999Z</time></trkpt><trkpt lat="44.449796325001046" lon="9.015084456588802"><ele>90.0</ele><time>2026-03-29T08:26:30.999Z</time></trkpt><trkpt lat="44.44980551364748" lon="9.01519003073613"><ele>90.0</ele><time>2026-03-29T08:26:32.999Z</time></trkpt><trkpt lat="44.44981203064364" lon="9.015295659179932"><ele>90.0</ele><time>2026-03-29T08:26:34.999Z</time></trkpt><trkpt lat="44.449822262446524" lon="9.015415172553908"><ele>90.0</ele><time>2026-03-29T08:26:37Z</time></trkpt><trkpt lat="44.449824908727386" lon="9.015530329854048"><ele>90.0</ele><time>2026-03-29T08:26:39Z</time></trkpt><trkpt lat="44.44982337434031" lon="9.015640149700967"><ele>90.0</ele><time>2026-03-29T08:26:41Z</time></trkpt><trkpt lat="44.44982890052733" lon="9.015755988128811"><ele>89.83333333333333</ele><time>2026-03-29T08:26:43Z</time></trkpt><trkpt lat="44.44983272884297" lon="9.015876359467953"><ele>89.66666666666667</ele><time>2026-03-29T08:26:45Z</time></trkpt><trkpt lat="44.44983652915014" lon="9.015997297981833"><ele>89.5</ele><time>2026-03-29T08:26:47Z</time></trkpt><trkpt lat="44.449837202011445" lon="9.016115747926527"><ele>89.33333333333334</ele><time>2026-03-29T08:26:49Z</time></trkpt><trkpt lat="44.44983666906631" lon="9.016231788268756"><ele>89.16666666666667</ele><time>2026-03-29T08:26:51Z</time></trkpt><trkpt lat="44.449835543899226" lon="9.016343036900404"><ele>89.0</ele><time>2026-03-29T08:26:53Z</time></trkpt><trkpt lat="44.44982355328182" lon="9.016445316262173"><ele>89.0</ele><time>2026-03-29T08:26:55Z</time></trkpt><trkpt lat="44.4498188094088" lon="9.016557981187033"><ele>89.0</ele><time>2026-03-29T08:26:57.001Z</time></trkpt><trkpt lat="44.44980247394348" lon="9.016671281933757"><ele>89.0</ele><time>2026-03-29T08:26:59.001Z</time></trkpt><trkpt lat="44.44980512046145" lon="9.016772488940392"><ele>89.0</ele><time>2026-03-29T08:27:01.001Z</time></trkpt><trkpt lat="44.449803104902784" lon="9.016870775865891"><ele>89.0</ele><time>2026-03-29T08:27:03.001Z</time></trkpt><trkpt lat="44.449789244316804" lon="9.016998815494416"><ele>89.0</ele><time>2026-03-29T08:27:06.001Z</time></trkpt><trkpt lat="44.449779795652894" lon="9.017096495668772"><ele>89.16666666666667</ele><time>2026-03-29T08:27:08.001Z</time></trkpt><trkpt lat="44.44977382763073" lon="9.017195531016638"><ele>89.33333333333334</ele><time>2026-03-29T08:27:10.001Z</time></trkpt><trkpt lat="44.449766429887845" lon="9.01729477554619"><ele>89.5</ele><time>2026-03-29T08:27:12.001Z</time></trkpt><trkpt lat="44.44974746972549" lon="9.017401315909815"><ele>89.66666666666667</ele><time>2026-03-29T08:27:14.001Z</time></trkpt><trkpt lat="44.44974976292921" lon="9.017516144475973"><ele>89.83333333333333</ele><time>2026-03-29T08:27:16.001Z</time></trkpt><trkpt lat="44.449743449382254" lon="9.017629451050015"><ele>90.0</ele><time>2026-03-29T08:27:18.001Z</time></trkpt><trkpt lat="44.449744288006116" lon="9.017743080685655"><ele>90.16666666666667</ele><time>2026-03-29T08:27:20.001Z</time></trkpt><trkpt lat="44.44973210122518" lon="9.017851492263183"><ele>90.33333333333333</ele><time>2026-03-29T08:27:22.001Z</time></trkpt><trkpt lat="44.44972151631224" lon="9.017967344385466"><ele>90.5</ele><time>2026-03-29T08:27:24.001Z</time></trkpt><trkpt lat="44.44971286778299" lon="9.018075818219266"><ele>90.66666666666666</ele><time>2026-03-29T08:27:26.002Z</time></trkpt><trkpt lat="44.44970536543892" lon="9.018190345033458"><ele>90.83333333333333</ele><time>2026-03-29T08:27:28.002Z</time></trkpt><trkpt lat="44.44969711450503" lon="9.018297986389541"><ele>91.0</ele><time>2026-03-29T08:27:30.002Z</time></trkpt><trkpt lat="44.44968421778343" lon="9.01840219048179"><ele>91.16666666666666</ele><time>2026-03-29T08:27:32.002Z</time></trkpt><trkpt lat="44.449658465916585" lon="9.018512713787603"><ele>91.33333333333333</ele><time>2026-03-29T08:27:34.002Z</time></trkpt><trkpt lat="44.44965034234832" lon="9.01862399174219"><ele>91.5</ele><time>2026-03-29T08:27:36.002Z</time></trkpt><trkpt lat="44.44964610819895" lon="9.018735464400208"><ele>91.66666666666667</ele><time>2026-03-29T08:27:38.002Z</time></trkpt><trkpt lat="44.4496458644836" lon="9.018838487186288"><ele>91.83333333333334</ele><time>2026-03-29T08:27:40.002Z</time></trkpt><trkpt lat="44.44963435012871" lon="9.0189348314962"><ele>92.0</ele><time>2026-03-29T08:27:42.002Z</time></trkpt><trkpt lat="44.449625117736204" lon="9.019036771282543"><ele>91.33333333333334</ele><time>2026-03-29T08:27:44.002Z</time></trkpt><trkpt lat="44.44960722873406" lon="9.019136149928958"><ele>90.66666666666667</ele><time>2026-03-29T08:27:46.002Z</time></trkpt><trkpt lat="44.44960327584115" lon="9.019237370135052"><ele>90.0</ele><time>2026-03-29T08:27:48.002Z</time></trkpt><trkpt lat="44.44960013147731" lon="9.019343927566965"><ele>89.33333333333333</ele><time>2026-03-29T08:27:50.002Z</time></trkpt><trkpt lat="44.44958912433289" lon="9.01945619457376"><ele>88.66666666666666</ele><time>2026-03-29T08:27:52.002Z</time></trkpt><trkpt lat="44.449587733067716" lon="9.019561720344331"><ele>88.0</ele><time>2026-03-29T08:27:54.002Z</time></trkpt><trkpt lat="44.44958476886688" lon="9.019661970552177"><ele>88.0</ele><time>2026-03-29T08:27:56.002Z</time></trkpt><trkpt lat="44.44958097966132" lon="9.019761775611805"><ele>88.0</ele><time>2026-03-29T08:27:58.002Z</time></trkpt><trkpt lat="44.449581436157466" lon="9.019857013519625"><ele>88.0</ele><time>2026-03-29T08:28:00.003Z</time></trkpt><trkpt lat="44.44957235302332" lon="9.019954394850137"><ele>88.0</ele><time>2026-03-29T08:28:02.003Z</time></trkpt><trkpt lat="44.44954935340721" lon="9.020061329550252"><ele>88.0</ele><time>2026-03-29T08:28:04.003Z</time></trkpt><trkpt lat="44.44954320606721" lon="9.020172749985058"><ele>88.0</ele><time>2026-03-29T08:28:06.003Z</time></trkpt><trkpt lat="44.4495290268739" lon="9.020260382121249"><ele>88.0</ele><time>2026-03-29T08:28:08.003Z</time></trkpt><trkpt lat="44.4495209809542" lon="9.02036481734909"><ele>88.16666666666666</ele><time>2026-03-29T08:28:10.003Z</time></trkpt><trkpt lat="44.44951031890236" lon="9.020464627382385"><ele>88.33333333333333</ele><time>2026-03-29T08:28:12.003Z</time></trkpt><trkpt lat="44.44949772916058" lon="9.020578511831935"><ele>88.5</ele><time>2026-03-29T08:28:14.003Z</time></trkpt><trkpt lat="44.449488936657055" lon="9.020687142002247"><ele>88.66666666666667</ele><time>2026-03-29T08:28:16.003Z</time></trkpt><trkpt lat="44.44947403481466" lon="9.02079792208921"><ele>88.83333333333334</ele><time>2026-03-29T08:28:18.003Z</time></trkpt><trkpt lat="44.4494676829821" lon="9.020901272661987"><ele>89.0</ele><time>2026-03-29T08:28:20.003Z</time></trkpt><trkpt lat="44.44945598354072" lon="9.021003547301323"><ele>89.0</ele><time>2026-03-29T08:28:22.003Z</time></trkpt><trkpt lat="44.449439028491625" lon="9.02110969335174"><ele>89.0</ele><time>2026-03-29T08:28:24.003Z</time></trkpt><trkpt lat="44.44943666787308" lon="9.021208085966055"><ele>89.0</ele><time>2026-03-29T08:28:26.003Z</time></trkpt><trkpt lat="44.449435753539206" lon="9.021323821939939"><ele>89.0</ele><time>2026-03-29T08:28:27.999Z</time></trkpt><trkpt lat="44.44942199975477" lon="9.021439745834556"><ele>89.0</ele><time>2026-03-29T08:28:29.999Z</time></trkpt><trkpt lat="44.44941201725981" lon="9.021534717216394"><ele>89.0</ele><time>2026-03-29T08:28:31.999Z</time></trkpt><trkpt lat="44.44940567145995" lon="9.021642036566941"><ele>89.14285714285714</ele><time>2026-03-29T08:28:33.999Z</time></trkpt><trkpt lat="44.44940593497448" lon="9.021748078644082"><ele>89.28571428571428</ele><time>2026-03-29T08:28:36Z</time></trkpt><trkpt lat="44.44939160060625" lon="9.021846476175936"><ele>89.42857142857142</ele><time>2026-03-29T08:28:38Z</time></trkpt><trkpt lat="44.449391406293735" lon="9.021945145344416"><ele>89.57142857142857</ele><time>2026-03-29T08:28:40Z</time></trkpt><trkpt lat="44.449382896639996" lon="9.022051154352825"><ele>89.71428571428572</ele><time>2026-03-29T08:28:42Z</time></trkpt><trkpt lat="44.449372029902335" lon="9.02215519804413"><ele>89.85714285714285</ele><time>2026-03-29T08:28:44Z</time></trkpt><trkpt lat="44.44935780484014" lon="9.022259878088574"><ele>90.0</ele><time>2026-03-29T08:28:46Z</time></trkpt><trkpt lat="44.449348524425986" lon="9.022366847817022"><ele>90.0</ele><time>2026-03-29T08:28:48Z</time></trkpt><trkpt lat="44.44933751304835" lon="9.022470278998938"><ele>90.0</ele><time>2026-03-29T08:28:50Z</time></trkpt><trkpt lat="44.4493295301662" lon="9.022573381255327"><ele>90.0</ele><time>2026-03-29T08:28:52Z</time></trkpt><trkpt lat="44.44932002846948" lon="9.022675741143596"><ele>90.0</ele><time>2026-03-29T08:28:54Z</time></trkpt><trkpt lat="44.44931357433149" lon="9.022777132680027"><ele>90.0</ele><time>2026-03-29T08:28:56Z</time></trkpt><trkpt lat="44.4493036571907" lon="9.022876349951837"><ele>90.0</ele><time>2026-03-29T08:28:58Z</time></trkpt><trkpt lat="44.449294166909574" lon="9.022969525183813"><ele>90.0</ele><time>2026-03-29T08:29:00Z</time></trkpt><trkpt lat="44.44928898394865" lon="9.02307287576914"><ele>90.83333333333333</ele><time>2026-03-29T08:29:02.001Z</time></trkpt><trkpt lat="44.449277919915026" lon="9.02317732164905"><ele>91.66666666666667</ele><time>2026-03-29T08:29:04.001Z</time></trkpt><trkpt lat="44.4492698570683" lon="9.02328394856075"><ele>92.5</ele><time>2026-03-29T08:29:06.001Z</time></trkpt><trkpt lat="44.44926054945085" lon="9.023393963415796"><ele>93.33333333333334</ele><time>2026-03-29T08:29:08.001Z</time></trkpt><trkpt lat="44.44925367886891" lon="9.023505868618406"><ele>94.16666666666667</ele><time>2026-03-29T08:29:10.001Z</time></trkpt><trkpt lat="44.449249451590475" lon="9.02361492695776"><ele>95.0</ele><time>2026-03-29T08:29:12.001Z</time></trkpt><trkpt lat="44.44924154330531" lon="9.023720968786739"><ele>95.85714285714286</ele><time>2026-03-29T08:29:14.001Z</time></trkpt><trkpt lat="44.449232631273745" lon="9.023825706575227"><ele>96.71428571428572</ele><time>2026-03-29T08:29:16.001Z</time></trkpt><trkpt lat="44.44922108061147" lon="9.023930186668311"><ele>97.57142857142857</ele><time>2026-03-29T08:29:18.001Z</time></trkpt><trkpt lat="44.44921925922442" lon="9.02403198610166"><ele>98.42857142857143</ele><time>2026-03-29T08:29:20.001Z</time></trkpt><trkpt lat="44.44922497063133" lon="9.024126246611468"><ele>99.28571428571428</ele><time>2026-03-29T08:29:22.001Z</time></trkpt><trkpt lat="44.44924868600054" lon="9.02421510104139"><ele>100.14285714285714</ele><time>2026-03-29T08:29:24.001Z</time></trkpt><trkpt lat="44.44927973399277" lon="9.024299930734848"><ele>101.0</ele><time>2026-03-29T08:29:26.001Z</time></trkpt><trkpt lat="44.44932124555994" lon="9.024389210857652"><ele>101.0</ele><time>2026-03-29T08:29:28.001Z</time></trkpt><trkpt lat="44.44936683891074" lon="9.024456641320654"><ele>101.0</ele><time>2026-03-29T08:29:30.001Z</time></trkpt><trkpt lat="44.44943080514687" lon="9.024510032233303"><ele>101.0</ele><time>2026-03-29T08:29:32.001Z</time></trkpt><trkpt lat="44.44949373044548" lon="9.024563404231253"><ele>101.0</ele><time>2026-03-29T08:29:34.002Z</time></trkpt><trkpt lat="44.44956216510439" lon="9.024610144862171"><ele>101.0</ele><time>2026-03-29T08:29:36.002Z</time></trkpt><trkpt lat="44.44962286269833" lon="9.02466339153609"><ele>101.0</ele><time>2026-03-29T08:29:38.002Z</time></trkpt><trkpt lat="44.44968887077474" lon="9.02468928803179"><ele>101.0</ele><time>2026-03-29T08:29:40.002Z</time></trkpt><trkpt lat="44.449748857849414" lon="9.024722233541356"><ele>101.0</ele><time>2026-03-29T08:29:42.002Z</time></trkpt><trkpt lat="44.449814014064074" lon="9.024773798574412"><ele>101.0</ele><time>2026-03-29T08:29:44.002Z</time></trkpt><trkpt lat="44.449877161712514" lon="9.024831970228004"><ele>101.0</ele><time>2026-03-29T08:29:46.002Z</time></trkpt><trkpt lat="44.449935841342594" lon="9.024889248806822"><ele>101.0</ele><time>2026-03-29T08:29:48.002Z</time></trkpt><trkpt lat="44.44999201702467" lon="9.024953071976888"><ele>101.0</ele><time>2026-03-29T08:29:50.002Z</time></trkpt><trkpt lat="44.45004697973176" lon="9.025021419501961"><ele>101.0</ele><time>2026-03-29T08:29:52.002Z</time></trkpt><trkpt lat="44.45009517380399" lon="9.025091613132295"><ele>101.0</ele><time>2026-03-29T08:29:54.002Z</time></trkpt><trkpt lat="44.45013798936599" lon="9.02516403015451"><ele>101.57142857142857</ele><time>2026-03-29T08:29:56.002Z</time></trkpt><trkpt lat="44.45017614181136" lon="9.02523986643868"><ele>102.14285714285714</ele><time>2026-03-29T08:29:58.002Z</time></trkpt><trkpt lat="44.45020837997249" lon="9.025324658912522"><ele>102.71428571428572</ele><time>2026-03-29T08:30:00.002Z</time></trkpt><trkpt lat="44.45023175391708" lon="9.025418024036842"><ele>103.28571428571428</ele><time>2026-03-29T08:30:02.002Z</time></trkpt><trkpt lat="44.45024893432195" lon="9.02552175800452"><ele>103.85714285714286</ele><time>2026-03-29T08:30:04.002Z</time></trkpt><trkpt lat="44.45023335926779" lon="9.025617543178774"><ele>104.42857142857143</ele><time>2026-03-29T08:30:06.003Z</time></trkpt><trkpt lat="44.45020077570625" lon="9.025707279492424"><ele>105.0</ele><time>2026-03-29T08:30:08.003Z</time></trkpt><trkpt lat="44.45015468284537" lon="9.025790156742502"><ele>106.75</ele><time>2026-03-29T08:30:11.003Z</time></trkpt><trkpt lat="44.450113735823095" lon="9.025870830864273"><ele>108.5</ele><time>2026-03-29T08:30:13.003Z</time></trkpt><trkpt lat="44.44987012431447" lon="9.025909347713654"><ele>110.25</ele><time>2026-03-29T08:30:14.003Z</time></trkpt><trkpt lat="44.44980252622042" lon="9.025975586531104"><ele>112.0</ele><time>2026-03-29T08:30:16.003Z</time></trkpt><trkpt lat="44.44974165830647" lon="9.02604732282747"><ele>112.0</ele><time>2026-03-29T08:30:18.003Z</time></trkpt><trkpt lat="44.44966595356992" lon="9.026093429664972"><ele>112.0</ele><time>2026-03-29T08:30:20.003Z</time></trkpt><trkpt lat="44.44960302766329" lon="9.026156205847915"><ele>112.0</ele><time>2026-03-29T08:30:22.003Z</time></trkpt><trkpt lat="44.449542347306725" lon="9.02622494601138"><ele>112.0</ele><time>2026-03-29T08:30:24.003Z</time></trkpt><trkpt lat="44.449484173000705" lon="9.02628101535152"><ele>112.0</ele><time>2026-03-29T08:30:26.003Z</time></trkpt><trkpt lat="44.449434008538226" lon="9.026347810510261"><ele>112.0</ele><time>2026-03-29T08:30:28.003Z</time></trkpt><trkpt lat="44.44938933446506" lon="9.026418594816276"><ele>112.0</ele><time>2026-03-29T08:30:30.003Z</time></trkpt><trkpt lat="44.44935479805064" lon="9.026496565950236"><ele>116.83333333333334</ele><time>2026-03-29T08:30:32.003Z</time></trkpt><trkpt lat="44.44947382272008" lon="9.026636456324708"><ele>121.66666666666667</ele><time>2026-03-29T08:30:32.999Z</time></trkpt><trkpt lat="44.44945537439451" lon="9.026722592129596"><ele>126.5</ele><time>2026-03-29T08:30:34.999Z</time></trkpt><trkpt lat="44.44948998729157" lon="9.02682081301327"><ele>131.33333333333334</ele><time>2026-03-29T08:30:37.999Z</time></trkpt><trkpt lat="44.449540551162535" lon="9.02687387297196"><ele>136.16666666666666</ele><time>2026-03-29T08:30:43Z</time></trkpt><trkpt lat="44.44955548302994" lon="9.026970243887511"><ele>141.0</ele><time>2026-03-29T08:36:22.002Z</time></trkpt><trkpt lat="44.449559904732396" lon="9.02706734101169"><ele>141.0</ele><time>2026-03-29T08:36:25.002Z</time></trkpt><trkpt lat="44.44959645876991" lon="9.027159979479148"><ele>141.0</ele><time>2026-03-29T08:36:27.002Z</time></trkpt><trkpt lat="44.44965220856333" lon="9.02723168532439"><ele>141.0</ele><time>2026-03-29T08:36:29.002Z</time></trkpt><trkpt lat="44.44972131286991" lon="9.027314083988532"><ele>141.0</ele><time>2026-03-29T08:36:31.002Z</time></trkpt><trkpt lat="44.44979223783012" lon="9.027384462234705"><ele>141.0</ele><time>2026-03-29T08:36:33.002Z</time></trkpt><trkpt lat="44.44986317682783" lon="9.027457745421321"><ele>141.0</ele><time>2026-03-29T08:36:35.002Z</time></trkpt><trkpt lat="44.44993143719885" lon="9.027521944135355"><ele>137.0</ele><time>2026-03-29T08:36:37.002Z</time></trkpt><trkpt lat="44.449998781029464" lon="9.027584094273514"><ele>133.0</ele><time>2026-03-29T08:36:39.002Z</time></trkpt><trkpt lat="44.4500668888477" lon="9.027641278882621"><ele>129.0</ele><time>2026-03-29T08:36:41.002Z</time></trkpt><trkpt lat="44.45014611959831" lon="9.027701683503887"><ele>125.0</ele><time>2026-03-29T08:36:43.002Z</time></trkpt><trkpt lat="44.450245013694655" lon="9.027709155725569"><ele>121.0</ele><time>2026-03-29T08:36:45.003Z</time></trkpt><trkpt lat="44.45030568275158" lon="9.027798704879055"><ele>117.0</ele><time>2026-03-29T08:36:47.003Z</time></trkpt><trkpt lat="44.45039013975741" lon="9.027875642531093"><ele>119.6</ele><time>2026-03-29T08:36:49.003Z</time></trkpt><trkpt lat="44.450470137006974" lon="9.027926801568738"><ele>122.19999999999999</ele><time>2026-03-29T08:36:51Z</time></trkpt><trkpt lat="44.45055347936517" lon="9.028013789833544"><ele>124.8</ele><time>2026-03-29T08:36:53Z</time></trkpt><trkpt lat="44.450638980482324" lon="9.028102490894833"><ele>127.4</ele><time>2026-03-29T08:36:55Z</time></trkpt><trkpt lat="44.450719706330375" lon="9.028204379771937"><ele>130.0</ele><time>2026-03-29T08:36:57Z</time></trkpt><trkpt lat="44.450794373469016" lon="9.02830931686389"><ele>127.2</ele><time>2026-03-29T08:36:59Z</time></trkpt><trkpt lat="44.450854214689926" lon="9.028439891121245"><ele>124.4</ele><time>2026-03-29T08:37:01Z</time></trkpt><trkpt lat="44.450886696511034" lon="9.028596861676004"><ele>121.6</ele><time>2026-03-29T08:37:03Z</time></trkpt><trkpt lat="44.45088150459121" lon="9.0287415732091"><ele>118.8</ele><time>2026-03-29T08:37:05Z</time></trkpt><trkpt lat="44.45083649370989" lon="9.028868636638679"><ele>116.0</ele><time>2026-03-29T08:37:07Z</time></trkpt><trkpt lat="44.45078926544855" lon="9.02898100756417"><ele>116.0</ele><time>2026-03-29T08:37:09Z</time></trkpt><trkpt lat="44.450741899771884" lon="9.029086621369984"><ele>116.0</ele><time>2026-03-29T08:37:11Z</time></trkpt><trkpt lat="44.45068957235833" lon="9.0291854104549"><ele>116.0</ele><time>2026-03-29T08:37:13Z</time></trkpt><trkpt lat="44.450633671806585" lon="9.029287794924857"><ele>116.0</ele><time>2026-03-29T08:37:15Z</time></trkpt><trkpt lat="44.4505686692185" lon="9.029380900355314"><ele>116.0</ele><time>2026-03-29T08:37:17Z</time></trkpt><trkpt lat="44.45050672850416" lon="9.029474995962698"><ele>121.19999999999999</ele><time>2026-03-29T08:37:19Z</time></trkpt><trkpt lat="44.45044047104183" lon="9.02957413797135"><ele>126.39999999999999</ele><time>2026-03-29T08:37:21.001Z</time></trkpt><trkpt lat="44.450374580062665" lon="9.029664849509226"><ele>131.6</ele><time>2026-03-29T08:37:23.001Z</time></trkpt><trkpt lat="44.45031942891371" lon="9.029765373936964"><ele>136.79999999999998</ele><time>2026-03-29T08:37:25.001Z</time></trkpt><trkpt lat="44.45027445715109" lon="9.029876848289184"><ele>142.0</ele><time>2026-03-29T08:37:27.001Z</time></trkpt><trkpt lat="44.450239658949954" lon="9.029990155177995"><ele>142.0</ele><time>2026-03-29T08:37:29.001Z</time></trkpt><trkpt lat="44.45021758345074" lon="9.030107870026605"><ele>142.0</ele><time>2026-03-29T08:37:31.001Z</time></trkpt><trkpt lat="44.45019477914548" lon="9.03022721981956"><ele>142.0</ele><time>2026-03-29T08:37:33.001Z</time></trkpt><trkpt lat="44.45017710178189" lon="9.030346335593872"><ele>142.0</ele><time>2026-03-29T08:37:35.001Z</time></trkpt><trkpt lat="44.45017575820475" lon="9.030462619235502"><ele>142.0</ele><time>2026-03-29T08:37:37.001Z</time></trkpt><trkpt lat="44.4501760230867" lon="9.030577726658326"><ele>142.0</ele><time>2026-03-29T08:37:39.001Z</time></trkpt><trkpt lat="44.45019126441473" lon="9.030697389522324"><ele>142.0</ele><time>2026-03-29T08:37:41.001Z</time></trkpt><trkpt lat="44.45021800769349" lon="9.030799377402678"><ele>142.0</ele><time>2026-03-29T08:37:43.001Z</time></trkpt><trkpt lat="44.4502418240691" lon="9.030889449307914"><ele>142.0</ele><time>2026-03-29T08:37:45.001Z</time></trkpt><trkpt lat="44.45027656002152" lon="9.030969085057027"><ele>142.0</ele><time>2026-03-29T08:37:47.001Z</time></trkpt><trkpt lat="44.45031953154083" lon="9.031042021619978"><ele>142.0</ele><time>2026-03-29T08:37:49.001Z</time></trkpt><trkpt lat="44.45034785056934" lon="9.031131036993667"><ele>142.0</ele><time>2026-03-29T08:37:51.001Z</time></trkpt><trkpt lat="44.45038832284173" lon="9.031203824322192"><ele>142.0</ele><time>2026-03-29T08:37:52.001Z</time></trkpt><trkpt lat="44.45046576389858" lon="9.031257613724085"><ele>139.57142857142856</ele><time>2026-03-29T08:37:56.001Z</time></trkpt><trkpt lat="44.45051015902175" lon="9.031320744927894"><ele>137.14285714285714</ele><time>2026-03-29T08:37:58.001Z</time></trkpt><trkpt lat="44.45056811070161" lon="9.031357625755275"><ele>134.71428571428572</ele><time>2026-03-29T08:38:00.001Z</time></trkpt><trkpt lat="44.45062738075182" lon="9.031389135941016"><ele>132.28571428571428</ele><time>2026-03-29T08:38:02.001Z</time></trkpt><trkpt lat="44.450681684846224" lon="9.031437365169138"><ele>129.85714285714286</ele><time>2026-03-29T08:38:04.001Z</time></trkpt><trkpt lat="44.45074292397684" lon="9.031486426922205"><ele>127.42857142857142</ele><time>2026-03-29T08:38:06.001Z</time></trkpt><trkpt lat="44.45082773182501" lon="9.031541860841116"><ele>125.0</ele><time>2026-03-29T08:38:09.002Z</time></trkpt><trkpt lat="44.45089813778073" lon="9.031606725325345"><ele>124.66666666666666</ele><time>2026-03-29T08:38:12.002Z</time></trkpt><trkpt lat="44.450950635518595" lon="9.031657941204344"><ele>124.33333333333333</ele><time>2026-03-29T08:38:14.002Z</time></trkpt><trkpt lat="44.45102755715409" lon="9.031724932503437"><ele>124.0</ele><time>2026-03-29T08:38:17.002Z</time></trkpt><trkpt lat="44.451091921905174" lon="9.031791184749673"><ele>123.66666666666666</ele><time>2026-03-29T08:38:20.002Z</time></trkpt><trkpt lat="44.45115100859593" lon="9.031860488250201"><ele>123.33333333333333</ele><time>2026-03-29T08:38:23.002Z</time></trkpt><trkpt lat="44.45120591115891" lon="9.031941589273828"><ele>123.0</ele><time>2026-03-29T08:38:26.002Z</time></trkpt><trkpt lat="44.451264956334455" lon="9.032031564058732"><ele>123.0</ele><time>2026-03-29T08:38:29.002Z</time></trkpt><trkpt lat="44.45132371523711" lon="9.032128919871072"><ele>123.0</ele><time>2026-03-29T08:38:32.002Z</time></trkpt><trkpt lat="44.451369932264235" lon="9.032222565871825"><ele>123.0</ele><time>2026-03-29T08:38:35.002Z</time></trkpt><trkpt lat="44.451398061956176" lon="9.032344591252794"><ele>123.0</ele><time>2026-03-29T08:38:38.002Z</time></trkpt><trkpt lat="44.45141094705348" lon="9.032472018119766"><ele>123.0</ele><time>2026-03-29T08:38:41.002Z</time></trkpt><trkpt lat="44.45139784257627" lon="9.032598642622611"><ele>123.0</ele><time>2026-03-29T08:38:44.002Z</time></trkpt><trkpt lat="44.4513625987909" lon="9.032673798983149"><ele>123.66666666666667</ele><time>2026-03-29T08:38:46.002Z</time></trkpt><trkpt lat="44.45130343327103" lon="9.032770922898752"><ele>124.33333333333334</ele><time>2026-03-29T08:38:49.002Z</time></trkpt><trkpt lat="44.451241864264816" lon="9.032824195011457"><ele>125.0</ele><time>2026-03-29T08:38:51.002Z</time></trkpt><trkpt lat="44.451185036166855" lon="9.032864290145064"><ele>125.66666666666667</ele><time>2026-03-29T08:38:53.003Z</time></trkpt><trkpt lat="44.45112370685382" lon="9.03290511899301"><ele>126.33333333333334</ele><time>2026-03-29T08:38:55.003Z</time></trkpt><trkpt lat="44.45103636198084" lon="9.032942860554092"><ele>127.0</ele><time>2026-03-29T08:38:58Z</time></trkpt><trkpt lat="44.45094690395595" lon="9.032962423530037"><ele>127.00000000000001</ele><time>2026-03-29T08:39:01Z</time></trkpt><trkpt lat="44.4508627630822" lon="9.032997367283695"><ele>127.0</ele><time>2026-03-29T08:39:04Z</time></trkpt><trkpt lat="44.45078395456242" lon="9.033029619727479"><ele>127.0</ele><time>2026-03-29T08:39:07Z</time></trkpt><trkpt lat="44.45071294637916" lon="9.033063181007957"><ele>127.0</ele><time>2026-03-29T08:39:10Z</time></trkpt><trkpt lat="44.45064401670704" lon="9.033092002511838"><ele>127.00000000000001</ele><time>2026-03-29T08:39:13Z</time></trkpt><trkpt lat="44.45057117717486" lon="9.033121173470843"><ele>127.0</ele><time>2026-03-29T08:39:17Z</time></trkpt><trkpt lat="44.45051268229288" lon="9.033158717446168"><ele>127.00000000000001</ele><time>2026-03-29T08:39:40.001Z</time></trkpt><trkpt lat="44.45056295569631" lon="9.033231119066064"><ele>127.0</ele><time>2026-03-29T08:39:44.001Z</time></trkpt><trkpt lat="44.45059043739022" lon="9.033358122283348"><ele>127.0</ele><time>2026-03-29T08:39:47.001Z</time></trkpt><trkpt lat="44.45059979738233" lon="9.033451197678074"><ele>127.0</ele><time>2026-03-29T08:39:50.001Z</time></trkpt><trkpt lat="44.450601428234805" lon="9.033549557236743"><ele>127.00000000000001</ele><time>2026-03-29T08:42:21.002Z</time></trkpt><trkpt lat="44.450619103522236" lon="9.033649053484671"><ele>127.0</ele><time>2026-03-29T08:42:25.002Z</time></trkpt><trkpt lat="44.45064063897851" lon="9.03376319968126"><ele>126.71428571428572</ele><time>2026-03-29T08:42:29.002Z</time></trkpt><trkpt lat="44.45065051385133" lon="9.033864018529925"><ele>126.42857142857142</ele><time>2026-03-29T08:42:32.002Z</time></trkpt><trkpt lat="44.45060462882538" lon="9.033925515749225"><ele>126.14285714285714</ele><time>2026-03-29T08:42:35.002Z</time></trkpt><trkpt lat="44.45054879062059" lon="9.033978673082027"><ele>125.85714285714286</ele><time>2026-03-29T08:42:38.002Z</time></trkpt><trkpt lat="44.45048548893721" lon="9.034024376836262"><ele>125.57142857142858</ele><time>2026-03-29T08:42:41.002Z</time></trkpt><trkpt lat="44.45042124726439" lon="9.034072191858563"><ele>125.28571428571428</ele><time>2026-03-29T08:42:44.002Z</time></trkpt><trkpt lat="44.45034981443893" lon="9.034114146259345"><ele>125.0</ele><time>2026-03-29T08:42:47.002Z</time></trkpt><trkpt lat="44.45028657907297" lon="9.034170508080242"><ele>125.0</ele><time>2026-03-29T08:42:50.002Z</time></trkpt><trkpt lat="44.45023570233975" lon="9.03424255025025"><ele>125.0</ele><time>2026-03-29T08:42:53.002Z</time></trkpt><trkpt lat="44.450178347623435" lon="9.034296135624135"><ele>125.0</ele><time>2026-03-29T08:42:56.002Z</time></trkpt><trkpt lat="44.45013404506234" lon="9.034370451075006"><ele>125.0</ele><time>2026-03-29T08:42:59.002Z</time></trkpt><trkpt lat="44.450093353198305" lon="9.034438952045846"><ele>125.0</ele><time>2026-03-29T08:43:02.003Z</time></trkpt><trkpt lat="44.450060468313076" lon="9.034516405311049"><ele>125.0</ele><time>2026-03-29T08:43:05.003Z</time></trkpt><trkpt lat="44.450015986387676" lon="9.034607918444877"><ele>125.0</ele><time>2026-03-29T08:43:09Z</time></trkpt><trkpt lat="44.44997596135423" lon="9.034680296087659"><ele>125.0</ele><time>2026-03-29T08:43:12Z</time></trkpt><trkpt lat="44.44994057131126" lon="9.03475515351038"><ele>125.0</ele><time>2026-03-29T08:43:15Z</time></trkpt><trkpt lat="44.44991485330592" lon="9.034865544904289"><ele>125.0</ele><time>2026-03-29T08:43:19Z</time></trkpt><trkpt lat="44.449906438525645" lon="9.03496766205344"><ele>125.0</ele><time>2026-03-29T08:43:23Z</time></trkpt><trkpt lat="44.449909206453725" lon="9.035079427771063"><ele>125.0</ele><time>2026-03-29T08:43:27Z</time></trkpt><trkpt lat="44.44992030776324" lon="9.035191758439264"><ele>125.0</ele><time>2026-03-29T08:43:31Z</time></trkpt><trkpt lat="44.449938939470094" lon="9.035276466260028"><ele>125.0</ele><time>2026-03-29T08:43:34Z</time></trkpt><trkpt lat="44.449943691391994" lon="9.03538734680178"><ele>126.66666666666666</ele><time>2026-03-29T08:43:38Z</time></trkpt><trkpt lat="44.44993680015992" lon="9.035498238955382"><ele>128.33333333333331</ele><time>2026-03-29T08:43:42Z</time></trkpt><trkpt lat="44.449923747139295" lon="9.035596707123114"><ele>130.0</ele><time>2026-03-29T08:43:46.001Z</time></trkpt><trkpt lat="44.449907126036614" lon="9.035699334408667"><ele>131.66666666666666</ele><time>2026-03-29T08:43:50.001Z</time></trkpt><trkpt lat="44.44989018695779" lon="9.035808324916442"><ele>133.33333333333334</ele><time>2026-03-29T08:43:54.001Z</time></trkpt><trkpt lat="44.449877578121956" lon="9.035921843636823"><ele>135.0</ele><time>2026-03-29T08:43:58.001Z</time></trkpt><trkpt lat="44.44985461912964" lon="9.03602971686617"><ele>136.33333333333334</ele><time>2026-03-29T08:44:02.001Z</time></trkpt><trkpt lat="44.44986649080042" lon="9.036141182239989"><ele>137.66666666666666</ele><time>2026-03-29T08:44:06.001Z</time></trkpt><trkpt lat="44.449924732531144" lon="9.036197731264393"><ele>139.0</ele><time>2026-03-29T08:44:10.001Z</time></trkpt><trkpt lat="44.4499966219382" lon="9.036166680164854"><ele>140.33333333333331</ele><time>2026-03-29T08:44:14.001Z</time></trkpt><trkpt lat="44.45002942930189" lon="9.036078036361834"><ele>141.66666666666666</ele><time>2026-03-29T08:44:17.001Z</time></trkpt><trkpt lat="44.45002840485767" lon="9.035970057129607"><ele>143.0</ele><time>2026-03-29T08:44:20.001Z</time></trkpt><trkpt lat="44.45001055409348" lon="9.035860736275684"><ele>141.85714285714283</ele><time>2026-03-29T08:44:23.001Z</time></trkpt><trkpt lat="44.45001241058092" lon="9.035748629918386"><ele>140.71428571428572</ele><time>2026-03-29T08:44:26.002Z</time></trkpt><trkpt lat="44.450030926246804" lon="9.035652662278803"><ele>139.57142857142856</ele><time>2026-03-29T08:44:29.002Z</time></trkpt><trkpt lat="44.4500430751204" lon="9.03556257873881"><ele>138.42857142857142</ele><time>2026-03-29T08:44:32.002Z</time></trkpt><trkpt lat="44.450051256201654" lon="9.035469683305593"><ele>137.28571428571428</ele><time>2026-03-29T08:44:35.002Z</time></trkpt><trkpt lat="44.450069669460106" lon="9.035381698752483"><ele>136.14285714285714</ele><time>2026-03-29T08:44:38.002Z</time></trkpt><trkpt lat="44.45006541158524" lon="9.035291549319204"><ele>135.0</ele><time>2026-03-29T08:44:41.002Z</time></trkpt><trkpt lat="44.450069973132514" lon="9.035184365817303"><ele>135.0</ele><time>2026-03-29T08:44:45.002Z</time></trkpt><trkpt lat="44.45006979381206" lon="9.035070341711327"><ele>135.0</ele><time>2026-03-29T08:44:49.002Z</time></trkpt><trkpt lat="44.45008314935609" lon="9.034964591530791"><ele>135.0</ele><time>2026-03-29T08:44:53.002Z</time></trkpt><trkpt lat="44.45010436808973" lon="9.034869865387087"><ele>135.0</ele><time>2026-03-29T08:44:57.002Z</time></trkpt><trkpt lat="44.450131712286414" lon="9.034775580135088"><ele>135.0</ele><time>2026-03-29T08:45:01.002Z</time></trkpt><trkpt lat="44.450176073459936" lon="9.034686181643922"><ele>135.0</ele><time>2026-03-29T08:45:05.002Z</time></trkpt><trkpt lat="44.45022296017936" lon="9.034598102279164"><ele>134.42857142857142</ele><time>2026-03-29T08:45:09.003Z</time></trkpt><trkpt lat="44.450270493225304" lon="9.034532325185388"><ele>133.85714285714283</ele><time>2026-03-29T08:45:12.003Z</time></trkpt><trkpt lat="44.45028470279944" lon="9.034439218264282"><ele>133.28571428571428</ele><time>2026-03-29T08:45:14.999Z</time></trkpt><trkpt lat="44.45035072730866" lon="9.034369881714122"><ele>132.71428571428572</ele><time>2026-03-29T08:45:18.999Z</time></trkpt><trkpt lat="44.450417105587654" lon="9.034313161720199"><ele>132.14285714285717</ele><time>2026-03-29T08:45:23.999Z</time></trkpt><trkpt lat="44.45047616379183" lon="9.034257858330712"><ele>131.57142857142858</ele><time>2026-03-29T08:46:51.002Z</time></trkpt><trkpt lat="44.450547265019225" lon="9.034253780129392"><ele>131.0</ele><time>2026-03-29T08:46:55.002Z</time></trkpt><trkpt lat="44.450633784161425" lon="9.034248789834844"><ele>131.0</ele><time>2026-03-29T08:46:58.002Z</time></trkpt><trkpt lat="44.45069877637452" lon="9.034283974107467"><ele>131.0</ele><time>2026-03-29T08:47:00.002Z</time></trkpt><trkpt lat="44.45075898019906" lon="9.034345216246662"><ele>131.0</ele><time>2026-03-29T08:47:02.002Z</time></trkpt><trkpt lat="44.45081787132452" lon="9.034433376818285"><ele>131.0</ele><time>2026-03-29T08:47:05.002Z</time></trkpt><trkpt lat="44.45083968459537" lon="9.034530672149696"><ele>131.0</ele><time>2026-03-29T08:47:08.002Z</time></trkpt><trkpt lat="44.45083628397155" lon="9.034430601466378"><ele>131.0</ele><time>2026-03-29T08:47:18.002Z</time></trkpt><trkpt lat="44.45087295059146" lon="9.034347062222027"><ele>131.0</ele><time>2026-03-29T08:47:20.999Z</time></trkpt><trkpt lat="44.45096713057727" lon="9.034337723714087"><ele>131.0</ele><time>2026-03-29T08:47:22.999Z</time></trkpt><trkpt lat="44.451042437682005" lon="9.034317925629637"><ele>131.0</ele><time>2026-03-29T08:47:24.999Z</time></trkpt><trkpt lat="44.45110878591737" lon="9.034289039272537"><ele>131.0</ele><time>2026-03-29T08:47:26.999Z</time></trkpt><trkpt lat="44.45119320911034" lon="9.034253943205242"><ele>131.0</ele><time>2026-03-29T08:47:29.999Z</time></trkpt><trkpt lat="44.45125521176054" lon="9.034227448539129"><ele>131.0</ele><time>2026-03-29T08:47:31.999Z</time></trkpt><trkpt lat="44.45132491037727" lon="9.034199187974673"><ele>131.0</ele><time>2026-03-29T08:47:33.999Z</time></trkpt><trkpt lat="44.451409016606185" lon="9.034162493758204"><ele>129.57142857142858</ele><time>2026-03-29T08:47:37Z</time></trkpt><trkpt lat="44.45148226334566" lon="9.034131012170379"><ele>128.14285714285717</ele><time>2026-03-29T08:47:40Z</time></trkpt><trkpt lat="44.45155028112802" lon="9.034115607657453"><ele>126.71428571428572</ele><time>2026-03-29T08:47:43Z</time></trkpt><trkpt lat="44.45162440038187" lon="9.034074643582665"><ele>125.28571428571428</ele><time>2026-03-29T08:47:46Z</time></trkpt><trkpt lat="44.45171099897304" lon="9.034042622566815"><ele>123.85714285714285</ele><time>2026-03-29T08:47:49Z</time></trkpt><trkpt lat="44.451773711554424" lon="9.034016515848226"><ele>122.42857142857142</ele><time>2026-03-29T08:47:52Z</time></trkpt><trkpt lat="44.45184069940621" lon="9.033993051473113"><ele>121.0</ele><time>2026-03-29T08:47:55Z</time></trkpt><trkpt lat="44.45186793355211" lon="9.033884843695388"><ele>121.0</ele><time>2026-03-29T08:47:59Z</time></trkpt><trkpt lat="44.45189813867809" lon="9.033773646604718"><ele>120.99999999999999</ele><time>2026-03-29T08:48:02Z</time></trkpt><trkpt lat="44.45194118951293" lon="9.033677521160394"><ele>121.0</ele><time>2026-03-29T08:48:05Z</time></trkpt><trkpt lat="44.45197390805967" lon="9.0335762481123"><ele>121.0</ele><time>2026-03-29T08:48:08.001Z</time></trkpt><trkpt lat="44.45201138786279" lon="9.033504410072458"><ele>120.99999999999999</ele><time>2026-03-29T08:48:10.001Z</time></trkpt><trkpt lat="44.452051162608804" lon="9.033422255897943"><ele>121.0</ele><time>2026-03-29T08:48:13.001Z</time></trkpt><trkpt lat="44.452098385800596" lon="9.033361462044388"><ele>121.0</ele><time>2026-03-29T08:48:15.001Z</time></trkpt><trkpt lat="44.45214540051286" lon="9.03330114852436"><ele>128.33333333333334</ele><time>2026-03-29T08:48:17.001Z</time></trkpt><trkpt lat="44.45218917268234" lon="9.03320145748834"><ele>135.66666666666669</ele><time>2026-03-29T08:48:20.001Z</time></trkpt><trkpt lat="44.45223523960497" lon="9.033094938758312"><ele>143.0</ele><time>2026-03-29T08:48:23.001Z</time></trkpt><trkpt lat="44.452277449932254" lon="9.033006979161406"><ele>150.33333333333334</ele><time>2026-03-29T08:48:26.001Z</time></trkpt><trkpt lat="44.45230531663991" lon="9.032916148403256"><ele>157.66666666666666</ele><time>2026-03-29T08:48:29.001Z</time></trkpt><trkpt lat="44.452311159859676" lon="9.032818848436438"><ele>165.0</ele><time>2026-03-29T08:48:32.001Z</time></trkpt><trkpt lat="44.452329375130596" lon="9.032731129875945"><ele>165.00000000000003</ele><time>2026-03-29T08:48:35.001Z</time></trkpt><trkpt lat="44.452339300999164" lon="9.032618809013815"><ele>165.0</ele><time>2026-03-29T08:48:38.001Z</time></trkpt><trkpt lat="44.452350988407204" lon="9.032510160107073"><ele>165.0</ele><time>2026-03-29T08:48:41.001Z</time></trkpt><trkpt lat="44.45237941467838" lon="9.03242256241491"><ele>165.0</ele><time>2026-03-29T08:48:44.002Z</time></trkpt><trkpt lat="44.45240500365528" lon="9.032337024132149"><ele>165.0</ele><time>2026-03-29T08:48:47.002Z</time></trkpt><trkpt lat="44.45237600893394" lon="9.032253606962561"><ele>165.00000000000003</ele><time>2026-03-29T08:48:51.002Z</time></trkpt><trkpt lat="44.45231322000649" lon="9.032188703317166"><ele>165.0</ele><time>2026-03-29T08:48:54.002Z</time></trkpt><trkpt lat="44.452258746840336" lon="9.03211515609055"><ele>165.5</ele><time>2026-03-29T08:48:57.002Z</time></trkpt><trkpt lat="44.45224005199079" lon="9.032026819298927"><ele>166.0</ele><time>2026-03-29T08:49:00.002Z</time></trkpt><trkpt lat="44.4521876438297" lon="9.031954903108014"><ele>166.5</ele><time>2026-03-29T08:49:03.002Z</time></trkpt><trkpt lat="44.45213964601317" lon="9.031856521113244"><ele>167.0</ele><time>2026-03-29T08:49:06.002Z</time></trkpt><trkpt lat="44.45210105762547" lon="9.031753909159859"><ele>167.5</ele><time>2026-03-29T08:49:09.002Z</time></trkpt><trkpt lat="44.45206759871423" lon="9.031644492316982"><ele>168.0</ele><time>2026-03-29T08:49:12.002Z</time></trkpt><trkpt lat="44.45201086975317" lon="9.031553646794427"><ele>165.33333333333334</ele><time>2026-03-29T08:49:15.002Z</time></trkpt><trkpt lat="44.45199214356135" lon="9.03146935594087"><ele>162.66666666666666</ele><time>2026-03-29T08:49:18.002Z</time></trkpt><trkpt lat="44.45192950417966" lon="9.031388561819835"><ele>160.0</ele><time>2026-03-29T08:49:21.003Z</time></trkpt><trkpt lat="44.45185929836991" lon="9.031324044326507"><ele>157.33333333333331</ele><time>2026-03-29T08:49:24.003Z</time></trkpt><trkpt lat="44.45180958332578" lon="9.031259157280383"><ele>154.66666666666666</ele><time>2026-03-29T08:49:26.999Z</time></trkpt><trkpt lat="44.45174133476299" lon="9.031193772244526"><ele>152.0</ele><time>2026-03-29T08:49:29.999Z</time></trkpt><trkpt lat="44.45167626121881" lon="9.031112865748918"><ele>152.0</ele><time>2026-03-29T08:49:32.999Z</time></trkpt><trkpt lat="44.45160462473922" lon="9.03104027131163"><ele>152.0</ele><time>2026-03-29T08:49:35.999Z</time></trkpt><trkpt lat="44.451533639645206" lon="9.030977465510317"><ele>152.0</ele><time>2026-03-29T08:49:38.999Z</time></trkpt><trkpt lat="44.45146591157664" lon="9.030914474526956"><ele>152.0</ele><time>2026-03-29T08:49:41.999Z</time></trkpt><trkpt lat="44.45138979023047" lon="9.030856169804899"><ele>152.0</ele><time>2026-03-29T08:49:45Z</time></trkpt><trkpt lat="44.45130420768158" lon="9.030832023141544"><ele>152.0</ele><time>2026-03-29T08:49:48Z</time></trkpt><trkpt lat="44.45123598020917" lon="9.030799551176564"><ele>147.14285714285714</ele><time>2026-03-29T08:49:51Z</time></trkpt><trkpt lat="44.451163093398584" lon="9.03077184413894"><ele>142.2857142857143</ele><time>2026-03-29T08:49:54Z</time></trkpt><trkpt lat="44.45109062118496" lon="9.030739347265827"><ele>137.42857142857144</ele><time>2026-03-29T08:49:57Z</time></trkpt><trkpt lat="44.45104543268987" lon="9.030659016044156"><ele>132.57142857142856</ele><time>2026-03-29T08:50:00Z</time></trkpt><trkpt lat="44.45104045528129" lon="9.030569299696783"><ele>127.71428571428572</ele><time>2026-03-29T08:50:02Z</time></trkpt><trkpt lat="44.45106480626342" lon="9.030479529332045"><ele>122.85714285714286</ele><time>2026-03-29T08:50:04Z</time></trkpt><trkpt lat="44.4511049027297" lon="9.030393140110402"><ele>118.0</ele><time>2026-03-29T08:50:07Z</time></trkpt><trkpt lat="44.45115666756064" lon="9.030287924693065"><ele>118.00000000000001</ele><time>2026-03-29T08:50:10Z</time></trkpt><trkpt lat="44.45120431898848" lon="9.030185376686855"><ele>118.0</ele><time>2026-03-29T08:50:13.001Z</time></trkpt><trkpt lat="44.45124946673847" lon="9.030100240130379"><ele>118.0</ele><time>2026-03-29T08:50:16.001Z</time></trkpt><trkpt lat="44.451308487557704" lon="9.030019212181266"><ele>118.0</ele><time>2026-03-29T08:50:19.001Z</time></trkpt><trkpt lat="44.45137616579476" lon="9.0299511654123"><ele>118.00000000000001</ele><time>2026-03-29T08:50:22.001Z</time></trkpt><trkpt lat="44.45143654847851" lon="9.029921419100335"><ele>118.0</ele><time>2026-03-29T08:50:24.001Z</time></trkpt><trkpt lat="44.451486925169164" lon="9.029841121684894"><ele>122.00000000000001</ele><time>2026-03-29T08:50:27.001Z</time></trkpt><trkpt lat="44.45152503866059" lon="9.029750642581853"><ele>126.0</ele><time>2026-03-29T08:50:30.001Z</time></trkpt><trkpt lat="44.451580385145306" lon="9.02967536528656"><ele>130.0</ele><time>2026-03-29T08:50:33.001Z</time></trkpt><trkpt lat="44.45161066533438" lon="9.029596073067156"><ele>134.0</ele><time>2026-03-29T08:50:35.001Z</time></trkpt><trkpt lat="44.451649084282714" lon="9.029492845495293"><ele>138.0</ele><time>2026-03-29T08:50:38.001Z</time></trkpt><trkpt lat="44.4516911332947" lon="9.029408453767966"><ele>142.0</ele><time>2026-03-29T08:50:41.001Z</time></trkpt><trkpt lat="44.45173533008751" lon="9.029298444292866"><ele>142.0</ele><time>2026-03-29T08:50:44.002Z</time></trkpt><trkpt lat="44.451732255644075" lon="9.029208544700262"><ele>142.0</ele><time>2026-03-29T08:50:47.002Z</time></trkpt><trkpt lat="44.45171331287021" lon="9.029097824978251"><ele>142.0</ele><time>2026-03-29T08:50:50.002Z</time></trkpt><trkpt lat="44.45170264246013" lon="9.029008618870092"><ele>142.0</ele><time>2026-03-29T08:50:52.002Z</time></trkpt><trkpt lat="44.45171104417182" lon="9.028919441106716"><ele>142.0</ele><time>2026-03-29T08:50:54.002Z</time></trkpt><trkpt lat="44.45174498109516" lon="9.028799726365232"><ele>142.0</ele><time>2026-03-29T08:50:57.002Z</time></trkpt><trkpt lat="44.45172146759919" lon="9.028704001611267"><ele>142.0</ele><time>2026-03-29T08:51:00.002Z</time></trkpt><trkpt lat="44.4517385649953" lon="9.0286183811015"><ele>143.16666666666669</ele><time>2026-03-29T08:51:02.002Z</time></trkpt><trkpt lat="44.451759611012065" lon="9.028492468761074"><ele>144.33333333333334</ele><time>2026-03-29T08:51:13.002Z</time></trkpt><trkpt lat="44.451794408359994" lon="9.028381182940672"><ele>145.5</ele><time>2026-03-29T08:51:19.003Z</time></trkpt><trkpt lat="44.451799003015395" lon="9.02827986278063"><ele>146.66666666666666</ele><time>2026-03-29T08:51:24.003Z</time></trkpt><trkpt lat="44.451798759052195" lon="9.028186269241816"><ele>147.83333333333331</ele><time>2026-03-29T08:51:28.003Z</time></trkpt><trkpt lat="44.451746872613896" lon="9.028125160914014"><ele>149.0</ele><time>2026-03-29T08:51:31.003Z</time></trkpt><trkpt lat="44.45166332867466" lon="9.028116855126768"><ele>152.83333333333331</ele><time>2026-03-29T08:51:35.999Z</time></trkpt><trkpt lat="44.451606821885214" lon="9.028073036388882"><ele>156.66666666666666</ele><time>2026-03-29T08:51:38.999Z</time></trkpt><trkpt lat="44.45154124212803" lon="9.027973372966747"><ele>160.5</ele><time>2026-03-29T08:51:42.999Z</time></trkpt><trkpt lat="44.45150646494371" lon="9.027878176749802"><ele>164.33333333333334</ele><time>2026-03-29T08:51:45.999Z</time></trkpt><trkpt lat="44.45145354520441" lon="9.02781852850812"><ele>168.16666666666669</ele><time>2026-03-29T08:51:49Z</time></trkpt><trkpt lat="44.45139319947441" lon="9.027744972013291"><ele>172.0</ele><time>2026-03-29T08:51:52Z</time></trkpt><trkpt lat="44.45133383860607" lon="9.027647396730574"><ele>165.66666666666669</ele><time>2026-03-29T08:51:56Z</time></trkpt><trkpt lat="44.45127097398903" lon="9.027569950837254"><ele>159.33333333333334</ele><time>2026-03-29T08:51:59Z</time></trkpt><trkpt lat="44.451203575740415" lon="9.027494647762804"><ele>153.0</ele><time>2026-03-29T08:52:02Z</time></trkpt><trkpt lat="44.451124095571146" lon="9.0274490463242"><ele>146.66666666666666</ele><time>2026-03-29T08:52:05Z</time></trkpt><trkpt lat="44.45104561657" lon="9.027425587023085"><ele>140.33333333333331</ele><time>2026-03-29T08:52:08Z</time></trkpt><trkpt lat="44.450963725054706" lon="9.027376113111995"><ele>134.0</ele><time>2026-03-29T08:52:11Z</time></trkpt><trkpt lat="44.450905528752564" lon="9.027320885540238"><ele>134.0</ele><time>2026-03-29T08:52:14Z</time></trkpt><trkpt lat="44.450835796359684" lon="9.02728131469112"><ele>134.0</ele><time>2026-03-29T08:52:18.001Z</time></trkpt><trkpt lat="44.4507637779164" lon="9.027232354853416"><ele>134.0</ele><time>2026-03-29T08:52:22.001Z</time></trkpt><trkpt lat="44.45070268889108" lon="9.02720414230462"><ele>134.0</ele><time>2026-03-29T08:52:27.001Z</time></trkpt><trkpt lat="44.45068283289752" lon="9.027076692727745"><ele>134.0</ele><time>2026-03-29T08:53:16.002Z</time></trkpt><trkpt lat="44.45069151294593" lon="9.02695202310105"><ele>134.0</ele><time>2026-03-29T08:53:21.003Z</time></trkpt><trkpt lat="44.45072150385044" lon="9.026860212712533"><ele>134.0</ele><time>2026-03-29T08:53:26.003Z</time></trkpt><trkpt lat="44.450774512705195" lon="9.026809380933384"><ele>134.0</ele><time>2026-03-29T08:53:28.003Z</time></trkpt><trkpt lat="44.45085047148964" lon="9.026777029410818"><ele>134.0</ele><time>2026-03-29T08:53:31.003Z</time></trkpt><trkpt lat="44.450911768614034" lon="9.026734014194162"><ele>134.0</ele><time>2026-03-29T08:53:34.003Z</time></trkpt><trkpt lat="44.4509584632765" lon="9.02663657110767"><ele>134.0</ele><time>2026-03-29T08:53:37.003Z</time></trkpt><trkpt lat="44.4510091625789" lon="9.026556736691129"><ele>134.0</ele><time>2026-03-29T08:53:41Z</time></trkpt><trkpt lat="44.451061980529374" lon="9.026479684647649"><ele>134.0</ele><time>2026-03-29T08:53:44Z</time></trkpt><trkpt lat="44.451106844195024" lon="9.026391445827157"><ele>132.0</ele><time>2026-03-29T08:53:47Z</time></trkpt><trkpt lat="44.45116103913586" lon="9.026339102335958"><ele>130.0</ele><time>2026-03-29T08:53:50Z</time></trkpt><trkpt lat="44.45119138939583" lon="9.02624374793686"><ele>128.0</ele><time>2026-03-29T08:53:58Z</time></trkpt><trkpt lat="44.45122292870106" lon="9.026156241185047"><ele>126.0</ele><time>2026-03-29T08:54:02Z</time></trkpt><trkpt lat="44.451261442636735" lon="9.026057876610183"><ele>124.0</ele><time>2026-03-29T08:54:06Z</time></trkpt><trkpt lat="44.45128040521464" lon="9.025968003753581"><ele>122.0</ele><time>2026-03-29T08:54:10Z</time></trkpt><trkpt lat="44.45128296045541" lon="9.025879136800675"><ele>120.0</ele><time>2026-03-29T08:54:14.001Z</time></trkpt><trkpt lat="44.451291300926485" lon="9.0257866321947"><ele>119.28571428571429</ele><time>2026-03-29T08:54:17.001Z</time></trkpt><trkpt lat="44.45131277071277" lon="9.025697889748203"><ele>118.57142857142856</ele><time>2026-03-29T08:54:20.001Z</time></trkpt><trkpt lat="44.45133879140925" lon="9.02560610136178"><ele>117.85714285714285</ele><time>2026-03-29T08:54:23.001Z</time></trkpt><trkpt lat="44.451355687092004" lon="9.025512129111034"><ele>117.14285714285714</ele><time>2026-03-29T08:54:25.001Z</time></trkpt><trkpt lat="44.45135678024961" lon="9.02540329194997"><ele>116.42857142857142</ele><time>2026-03-29T08:54:28.001Z</time></trkpt><trkpt lat="44.45133910175427" lon="9.025315156536967"><ele>115.7142857142857</ele><time>2026-03-29T08:54:30.001Z</time></trkpt><trkpt lat="44.45131739694055" lon="9.025230919196721"><ele>114.99999999999999</ele><time>2026-03-29T08:54:32.001Z</time></trkpt><trkpt lat="44.45128107128539" lon="9.025133567146062"><ele>115.00000000000001</ele><time>2026-03-29T08:54:35.001Z</time></trkpt><trkpt lat="44.45125300882249" lon="9.025044183376767"><ele>115.0</ele><time>2026-03-29T08:54:38.001Z</time></trkpt><trkpt lat="44.45122612951539" lon="9.024929198752213"><ele>115.0</ele><time>2026-03-29T08:54:40.001Z</time></trkpt><trkpt lat="44.45118567790923" lon="9.02483000798636"><ele>115.0</ele><time>2026-03-29T08:54:42.001Z</time></trkpt><trkpt lat="44.45111880650853" lon="9.024750338282992"><ele>115.00000000000001</ele><time>2026-03-29T08:54:44.002Z</time></trkpt><trkpt lat="44.45108880902694" lon="9.024669915745289"><ele>115.0</ele><time>2026-03-29T08:54:55.002Z</time></trkpt><trkpt lat="44.451090294477154" lon="9.024581352407486"><ele>116.16666666666667</ele><time>2026-03-29T08:55:02.002Z</time></trkpt><trkpt lat="44.451075419402216" lon="9.024492454023193"><ele>117.33333333333334</ele><time>2026-03-29T08:55:11.002Z</time></trkpt><trkpt lat="44.45108128020148" lon="9.024384338873004"><ele>118.5</ele><time>2026-03-29T08:55:36.003Z</time></trkpt><trkpt lat="44.4511352251178" lon="9.024290491817975"><ele>119.66666666666666</ele><time>2026-03-29T09:00:03Z</time></trkpt><trkpt lat="44.4511766829945" lon="9.024208172079945"><ele>120.83333333333333</ele><time>2026-03-29T09:00:07Z</time></trkpt><trkpt lat="44.4512291877051" lon="9.024138865202714"><ele>122.0</ele><time>2026-03-29T09:00:10Z</time></trkpt><trkpt lat="44.45128527793085" lon="9.024063234031495"><ele>121.99999999999999</ele><time>2026-03-29T09:00:13Z</time></trkpt><trkpt lat="44.45134167514609" lon="9.02401081438459"><ele>122.0</ele><time>2026-03-29T09:00:15Z</time></trkpt><trkpt lat="44.45129528014855" lon="9.023914625247468"><ele>122.0</ele><time>2026-03-29T09:00:20Z</time></trkpt><trkpt lat="44.451253019573684" lon="9.023824352469056"><ele>122.0</ele><time>2026-03-29T09:00:23Z</time></trkpt><trkpt lat="44.451258845039554" lon="9.023732032068175"><ele>121.99999999999999</ele><time>2026-03-29T09:00:26.001Z</time></trkpt><trkpt lat="44.45126406864224" lon="9.023617050059828"><ele>122.0</ele><time>2026-03-29T09:00:28.001Z</time></trkpt><trkpt lat="44.45129848956715" lon="9.023505506938397"><ele>121.99999999999999</ele><time>2026-03-29T09:00:32.001Z</time></trkpt><trkpt lat="44.45130096585465" lon="9.023397567916748"><ele>122.0</ele><time>2026-03-29T09:00:35.001Z</time></trkpt><trkpt lat="44.45123858908022" lon="9.023294389194076"><ele>122.0</ele><time>2026-03-29T09:00:38.001Z</time></trkpt><trkpt lat="44.45119689112056" lon="9.023224139088974"><ele>122.0</ele><time>2026-03-29T09:00:41.001Z</time></trkpt><trkpt lat="44.4512235489803" lon="9.023133160014654"><ele>121.99999999999999</ele><time>2026-03-29T09:00:45.001Z</time></trkpt><trkpt lat="44.451279530284296" lon="9.023068277471477"><ele>122.0</ele><time>2026-03-29T09:00:50.001Z</time></trkpt><trkpt lat="44.45132261271248" lon="9.022994589247253"><ele>122.28571428571428</ele><time>2026-03-29T09:00:54.001Z</time></trkpt><trkpt lat="44.45138291929833" lon="9.022913002772654"><ele>122.57142857142857</ele><time>2026-03-29T09:00:58.001Z</time></trkpt><trkpt lat="44.45145389535532" lon="9.022891940663195"><ele>122.85714285714286</ele><time>2026-03-29T09:01:02.002Z</time></trkpt><trkpt lat="44.45152027331474" lon="9.022926545317072"><ele>123.14285714285714</ele><time>2026-03-29T09:01:05.002Z</time></trkpt><trkpt lat="44.45157995334218" lon="9.022970471158686"><ele>123.42857142857144</ele><time>2026-03-29T09:01:08.002Z</time></trkpt><trkpt lat="44.45165130184112" lon="9.023000846437782"><ele>123.71428571428572</ele><time>2026-03-29T09:01:12.002Z</time></trkpt><trkpt lat="44.451716331264144" lon="9.023041103931998"><ele>124.0</ele><time>2026-03-29T09:01:16.002Z</time></trkpt><trkpt lat="44.451782548936166" lon="9.023085867925523"><ele>124.0</ele><time>2026-03-29T09:01:20.002Z</time></trkpt><trkpt lat="44.45183350252737" lon="9.023019294998772"><ele>124.00000000000001</ele><time>2026-03-29T09:01:24.002Z</time></trkpt><trkpt lat="44.45189269350228" lon="9.022958183482963"><ele>124.0</ele><time>2026-03-29T09:01:28.002Z</time></trkpt><trkpt lat="44.451954864025346" lon="9.022899450738368"><ele>124.0</ele><time>2026-03-29T09:01:33.002Z</time></trkpt><trkpt lat="44.452017163981864" lon="9.022862482472501"><ele>124.00000000000001</ele><time>2026-03-29T09:01:38.003Z</time></trkpt><trkpt lat="44.45208548890841" lon="9.022888346587575"><ele>124.0</ele><time>2026-03-29T09:01:43.003Z</time></trkpt><trkpt lat="44.45214909419316" lon="9.0228859358629"><ele>124.0</ele><time>2026-03-29T09:01:47.003Z</time></trkpt><trkpt lat="44.45221173328234" lon="9.02291614112184"><ele>127.16666666666667</ele><time>2026-03-29T09:01:52.003Z</time></trkpt><trkpt lat="44.4522610957986" lon="9.022823033516797"><ele>130.33333333333334</ele><time>2026-03-29T09:01:56.003Z</time></trkpt><trkpt lat="44.45230496185627" lon="9.0227320636018"><ele>133.5</ele><time>2026-03-29T09:02:00.003Z</time></trkpt><trkpt lat="44.45234046484964" lon="9.022655764147396"><ele>136.66666666666666</ele><time>2026-03-29T09:02:03Z</time></trkpt><trkpt lat="44.45237712025791" lon="9.022561451059442"><ele>139.83333333333331</ele><time>2026-03-29T09:02:06Z</time></trkpt><trkpt lat="44.45241546461604" lon="9.022462919671598"><ele>143.0</ele><time>2026-03-29T09:02:09Z</time></trkpt><trkpt lat="44.4524240467777" lon="9.02234322247282"><ele>144.5</ele><time>2026-03-29T09:02:13Z</time></trkpt><trkpt lat="44.45243000105625" lon="9.02223375044864"><ele>146.0</ele><time>2026-03-29T09:02:16Z</time></trkpt><trkpt lat="44.45242619746268" lon="9.022116338031434"><ele>147.5</ele><time>2026-03-29T09:02:19Z</time></trkpt><trkpt lat="44.452403776181875" lon="9.021998641302757"><ele>149.0</ele><time>2026-03-29T09:02:22Z</time></trkpt><trkpt lat="44.452371855231235" lon="9.021909995315463"><ele>150.5</ele><time>2026-03-29T09:02:25Z</time></trkpt><trkpt lat="44.452345662177336" lon="9.021808493555723"><ele>152.0</ele><time>2026-03-29T09:02:29.001Z</time></trkpt><trkpt lat="44.45232677326168" lon="9.021720610244605"><ele>154.28571428571428</ele><time>2026-03-29T09:02:32.001Z</time></trkpt><trkpt lat="44.4523023836261" lon="9.021632745810074"><ele>156.57142857142858</ele><time>2026-03-29T09:02:35.001Z</time></trkpt><trkpt lat="44.4522833222295" lon="9.021547515385452"><ele>158.85714285714286</ele><time>2026-03-29T09:02:38.001Z</time></trkpt><trkpt lat="44.45224144992527" lon="9.021462576017157"><ele>161.14285714285714</ele><time>2026-03-29T09:02:42.001Z</time></trkpt><trkpt lat="44.45220255966495" lon="9.02137002173983"><ele>163.42857142857144</ele><time>2026-03-29T09:02:46.001Z</time></trkpt><trkpt lat="44.45216378863906" lon="9.021280887595912"><ele>165.71428571428572</ele><time>2026-03-29T09:02:50.001Z</time></trkpt><trkpt lat="44.45212075851386" lon="9.021195846456337"><ele>168.0</ele><time>2026-03-29T09:02:54.001Z</time></trkpt><trkpt lat="44.45207789098163" lon="9.0211044733462"><ele>162.42857142857142</ele><time>2026-03-29T09:02:58.001Z</time></trkpt><trkpt lat="44.45204897217233" lon="9.021011514497486"><ele>156.85714285714286</ele><time>2026-03-29T09:03:02.001Z</time></trkpt><trkpt lat="44.4520293064138" lon="9.02091791760482"><ele>151.28571428571428</ele><time>2026-03-29T09:03:06.002Z</time></trkpt><trkpt lat="44.45202474268502" lon="9.02082010662091"><ele>145.71428571428572</ele><time>2026-03-29T09:03:10.002Z</time></trkpt><trkpt lat="44.45202794433881" lon="9.020724002952322"><ele>140.14285714285714</ele><time>2026-03-29T09:03:14.002Z</time></trkpt><trkpt lat="44.4520312175103" lon="9.020620412049029"><ele>134.57142857142856</ele><time>2026-03-29T09:03:18.002Z</time></trkpt><trkpt lat="44.45203360903917" lon="9.020513132479243"><ele>129.0</ele><time>2026-03-29T09:03:22.002Z</time></trkpt><trkpt lat="44.45203008709074" lon="9.02040035412153"><ele>129.0</ele><time>2026-03-29T09:03:26.002Z</time></trkpt><trkpt lat="44.45203806133831" lon="9.020294479362656"><ele>129.0</ele><time>2026-03-29T09:03:30.002Z</time></trkpt><trkpt lat="44.45203386399046" lon="9.020187599042673"><ele>129.0</ele><time>2026-03-29T09:03:34.002Z</time></trkpt><trkpt lat="44.452033879176184" lon="9.020099158009433"><ele>129.0</ele><time>2026-03-29T09:03:37.002Z</time></trkpt><trkpt lat="44.452037816250694" lon="9.019983449618714"><ele>129.0</ele><time>2026-03-29T09:03:41.003Z</time></trkpt><trkpt lat="44.45203904794208" lon="9.019878437759715"><ele>129.0</ele><time>2026-03-29T09:03:45.003Z</time></trkpt><trkpt lat="44.45205590062001" lon="9.019768775617822"><ele>128.42857142857142</ele><time>2026-03-29T09:03:49.003Z</time></trkpt><trkpt lat="44.452076557560154" lon="9.0196692943506"><ele>127.85714285714286</ele><time>2026-03-29T09:03:53.003Z</time></trkpt><trkpt lat="44.45211983593696" lon="9.019573446834153"><ele>127.28571428571428</ele><time>2026-03-29T09:03:57.003Z</time></trkpt><trkpt lat="44.45215169297334" lon="9.019473780058972"><ele>126.71428571428571</ele><time>2026-03-29T09:04:01.003Z</time></trkpt><trkpt lat="44.45217772359906" lon="9.019386988877764"><ele>126.14285714285714</ele><time>2026-03-29T09:04:05.003Z</time></trkpt><trkpt lat="44.45221124545509" lon="9.019307272179427"><ele>125.57142857142857</ele><time>2026-03-29T09:04:09Z</time></trkpt><trkpt lat="44.45223919012893" lon="9.019221442067318"><ele>125.0</ele><time>2026-03-29T09:04:12Z</time></trkpt><trkpt lat="44.45227975655868" lon="9.019125169421903"><ele>128.42857142857142</ele><time>2026-03-29T09:04:15Z</time></trkpt><trkpt lat="44.4523108886124" lon="9.019022338609847"><ele>131.85714285714286</ele><time>2026-03-29T09:04:18Z</time></trkpt><trkpt lat="44.45233638537969" lon="9.018928079398352"><ele>135.28571428571428</ele><time>2026-03-29T09:04:21Z</time></trkpt><trkpt lat="44.452356265315935" lon="9.018843456836484"><ele>138.71428571428572</ele><time>2026-03-29T09:04:24Z</time></trkpt><trkpt lat="44.452391239451075" lon="9.018753652577855"><ele>142.14285714285714</ele><time>2026-03-29T09:04:27Z</time></trkpt><trkpt lat="44.45242168479179" lon="9.01865286029432"><ele>145.57142857142856</ele><time>2026-03-29T09:04:31Z</time></trkpt><trkpt lat="44.45243528003396" lon="9.018559540539648"><ele>149.0</ele><time>2026-03-29T09:04:50.001Z</time></trkpt><trkpt lat="44.45241602336842" lon="9.018461242230753"><ele>149.0</ele><time>2026-03-29T09:04:53.001Z</time></trkpt><trkpt lat="44.45238532688955" lon="9.018373722280161"><ele>149.0</ele><time>2026-03-29T09:04:55.001Z</time></trkpt><trkpt lat="44.452358638474614" lon="9.018264169529381"><ele>149.0</ele><time>2026-03-29T09:04:57.001Z</time></trkpt><trkpt lat="44.45234266673312" lon="9.01814183908546"><ele>149.0</ele><time>2026-03-29T09:04:59.001Z</time></trkpt><trkpt lat="44.4523334533148" lon="9.01803662798855"><ele>149.0</ele><time>2026-03-29T09:05:01.001Z</time></trkpt><trkpt lat="44.45231980224487" lon="9.017917939753751"><ele>149.0</ele><time>2026-03-29T09:05:03.001Z</time></trkpt><trkpt lat="44.452320128960004" lon="9.01780660577251"><ele>149.33333333333331</ele><time>2026-03-29T09:05:05.001Z</time></trkpt><trkpt lat="44.45231894798363" lon="9.01768441475816"><ele>149.66666666666666</ele><time>2026-03-29T09:05:07.001Z</time></trkpt><trkpt lat="44.4523154971666" lon="9.017564326109516"><ele>150.0</ele><time>2026-03-29T09:05:09.001Z</time></trkpt><trkpt lat="44.452316527308014" lon="9.0174439548185"><ele>150.33333333333334</ele><time>2026-03-29T09:05:11.001Z</time></trkpt><trkpt lat="44.45231078969258" lon="9.017318215335647"><ele>150.66666666666669</ele><time>2026-03-29T09:05:13.002Z</time></trkpt><trkpt lat="44.45229189092893" lon="9.017196822409037"><ele>151.0</ele><time>2026-03-29T09:05:15.002Z</time></trkpt><trkpt lat="44.4522557719372" lon="9.017084859445594"><ele>151.33333333333334</ele><time>2026-03-29T09:05:17.002Z</time></trkpt><trkpt lat="44.452201233607305" lon="9.01699177213752"><ele>151.66666666666669</ele><time>2026-03-29T09:05:19.002Z</time></trkpt><trkpt lat="44.45214671596222" lon="9.016895724335932"><ele>152.0</ele><time>2026-03-29T09:05:21.002Z</time></trkpt><trkpt lat="44.452090884254524" lon="9.016812446421353"><ele>152.33333333333334</ele><time>2026-03-29T09:05:23.002Z</time></trkpt><trkpt lat="44.45203910532905" lon="9.016730395781655"><ele>152.66666666666666</ele><time>2026-03-29T09:05:25.002Z</time></trkpt><trkpt lat="44.45198987862435" lon="9.016659669834226"><ele>153.0</ele><time>2026-03-29T09:05:27.002Z</time></trkpt><trkpt lat="44.45193503637744" lon="9.016575271177587"><ele>150.0</ele><time>2026-03-29T09:05:29.002Z</time></trkpt><trkpt lat="44.451878927871284" lon="9.01649419352969"><ele>147.0</ele><time>2026-03-29T09:05:31.002Z</time></trkpt><trkpt lat="44.45183916590394" lon="9.016393867693909"><ele>144.0</ele><time>2026-03-29T09:05:33.002Z</time></trkpt><trkpt lat="44.45182739406518" lon="9.01629246557304"><ele>141.0</ele><time>2026-03-29T09:05:35.002Z</time></trkpt><trkpt lat="44.45184154669498" lon="9.016182955132575"><ele>138.0</ele><time>2026-03-29T09:05:37.002Z</time></trkpt><trkpt lat="44.451905643083386" lon="9.016106730048131"><ele>135.0</ele><time>2026-03-29T09:05:39.002Z</time></trkpt><trkpt lat="44.45195544468089" lon="9.016031186962415"><ele>135.0</ele><time>2026-03-29T09:05:41.002Z</time></trkpt><trkpt lat="44.45199720398088" lon="9.015932732105702"><ele>135.0</ele><time>2026-03-29T09:05:43.002Z</time></trkpt><trkpt lat="44.45202654665805" lon="9.015836129005223"><ele>135.0</ele><time>2026-03-29T09:05:45.002Z</time></trkpt><trkpt lat="44.45205475721837" lon="9.015722155734768"><ele>135.0</ele><time>2026-03-29T09:05:48.003Z</time></trkpt><trkpt lat="44.45207498011336" lon="9.0156184459893"><ele>135.0</ele><time>2026-03-29T09:05:51.003Z</time></trkpt><trkpt lat="44.45206466578044" lon="9.015527398573166"><ele>135.0</ele><time>2026-03-29T09:05:53.003Z</time></trkpt><trkpt lat="44.45203992307199" lon="9.015444302380692"><ele>135.5</ele><time>2026-03-29T09:05:55.003Z</time></trkpt><trkpt lat="44.45201459901266" lon="9.015321125211614"><ele>136.0</ele><time>2026-03-29T09:05:58.003Z</time></trkpt><trkpt lat="44.451982194972295" lon="9.01519591698959"><ele>136.5</ele><time>2026-03-29T09:06:01.003Z</time></trkpt><trkpt lat="44.45193704113441" lon="9.015122136941901"><ele>137.0</ele><time>2026-03-29T09:06:03.003Z</time></trkpt><trkpt lat="44.45188611020197" lon="9.015065008790202"><ele>137.5</ele><time>2026-03-29T09:06:05.003Z</time></trkpt><trkpt lat="44.4518144055611" lon="9.015005559593753"><ele>138.0</ele><time>2026-03-29T09:06:08.003Z</time></trkpt><trkpt lat="44.45176243690247" lon="9.014954649366185"><ele>139.66666666666666</ele><time>2026-03-29T09:06:10.003Z</time></trkpt><trkpt lat="44.45169471497721" lon="9.014875324534517"><ele>141.33333333333334</ele><time>2026-03-29T09:06:13.003Z</time></trkpt><trkpt lat="44.45166151547515" lon="9.01475937941149"><ele>143.0</ele><time>2026-03-29T09:06:15Z</time></trkpt><trkpt lat="44.45163409818985" lon="9.01463807098268"><ele>144.66666666666669</ele><time>2026-03-29T09:06:17Z</time></trkpt><trkpt lat="44.45160267588742" lon="9.014521283081205"><ele>146.33333333333334</ele><time>2026-03-29T09:06:19Z</time></trkpt><trkpt lat="44.45154412290297" lon="9.014432246751635"><ele>148.0</ele><time>2026-03-29T09:06:21Z</time></trkpt><trkpt lat="44.45149981722321" lon="9.014345267233573"><ele>148.0</ele><time>2026-03-29T09:06:23Z</time></trkpt><trkpt lat="44.45149438235739" lon="9.014254525015208"><ele>148.0</ele><time>2026-03-29T09:06:25Z</time></trkpt><trkpt lat="44.451490140499565" lon="9.014147971133859"><ele>148.0</ele><time>2026-03-29T09:06:27Z</time></trkpt><trkpt lat="44.45148037437686" lon="9.01405320571167"><ele>148.0</ele><time>2026-03-29T09:06:29Z</time></trkpt><trkpt lat="44.45146817700087" lon="9.013960910995504"><ele>148.0</ele><time>2026-03-29T09:06:31Z</time></trkpt><trkpt lat="44.451475825979855" lon="9.013865969900065"><ele>148.0</ele><time>2026-03-29T09:06:34Z</time></trkpt><trkpt lat="44.451474038946614" lon="9.01375047474759"><ele>148.0</ele><time>2026-03-29T09:06:37Z</time></trkpt><trkpt lat="44.451469581841316" lon="9.013630701237886"><ele>148.0</ele><time>2026-03-29T09:06:40Z</time></trkpt><trkpt lat="44.4514442778952" lon="9.013517416188837"><ele>148.0</ele><time>2026-03-29T09:06:43Z</time></trkpt><trkpt lat="44.45142608646825" lon="9.013399287323614"><ele>148.0</ele><time>2026-03-29T09:06:46.001Z</time></trkpt><trkpt lat="44.45140899488207" lon="9.013280485004021"><ele>148.0</ele><time>2026-03-29T09:06:49.001Z</time></trkpt><trkpt lat="44.45139614619921" lon="9.013153486618968"><ele>148.0</ele><time>2026-03-29T09:06:52.001Z</time></trkpt><trkpt lat="44.451432556948866" lon="9.013075283096208"><ele>148.0</ele><time>2026-03-29T09:06:54.001Z</time></trkpt><trkpt lat="44.45147358967658" lon="9.01300598975332"><ele>146.85714285714286</ele><time>2026-03-29T09:06:56.001Z</time></trkpt><trkpt lat="44.45150601982232" lon="9.012923784845695"><ele>145.71428571428572</ele><time>2026-03-29T09:06:58.001Z</time></trkpt><trkpt lat="44.45154214477524" lon="9.012845420402856"><ele>144.57142857142856</ele><time>2026-03-29T09:07:00.001Z</time></trkpt><trkpt lat="44.45158430102525" lon="9.012773357454327"><ele>143.42857142857144</ele><time>2026-03-29T09:07:02.001Z</time></trkpt><trkpt lat="44.451627982700764" lon="9.012707988354165"><ele>142.28571428571428</ele><time>2026-03-29T09:07:04.001Z</time></trkpt><trkpt lat="44.451697229507516" lon="9.012648689414318"><ele>141.14285714285714</ele><time>2026-03-29T09:07:07.001Z</time></trkpt><trkpt lat="44.45173243504087" lon="9.012564753240332"><ele>140.0</ele><time>2026-03-29T09:07:10.001Z</time></trkpt><trkpt lat="44.451770478364544" lon="9.012461707608614"><ele>138.5</ele><time>2026-03-29T09:07:13.001Z</time></trkpt><trkpt lat="44.451794387101494" lon="9.012348241253557"><ele>137.0</ele><time>2026-03-29T09:07:16.001Z</time></trkpt><trkpt lat="44.45182503996099" lon="9.012243790412706"><ele>135.5</ele><time>2026-03-29T09:07:19.001Z</time></trkpt><trkpt lat="44.45185994522002" lon="9.01213593373657"><ele>134.0</ele><time>2026-03-29T09:07:22.002Z</time></trkpt><trkpt lat="44.4518976449973" lon="9.012028648398793"><ele>132.5</ele><time>2026-03-29T09:07:25.002Z</time></trkpt><trkpt lat="44.45192222770379" lon="9.011945570476655"><ele>131.0</ele><time>2026-03-29T09:07:27.002Z</time></trkpt><trkpt lat="44.45195258900224" lon="9.011864218090926"><ele>131.0</ele><time>2026-03-29T09:07:29.002Z</time></trkpt><trkpt lat="44.45197843939261" lon="9.011778950018225"><ele>131.0</ele><time>2026-03-29T09:07:31.002Z</time></trkpt><trkpt lat="44.45201156722212" lon="9.011689270812676"><ele>131.0</ele><time>2026-03-29T09:07:33.002Z</time></trkpt><trkpt lat="44.452058377382194" lon="9.0115951358272"><ele>131.0</ele><time>2026-03-29T09:07:35.002Z</time></trkpt><trkpt lat="44.45211532969957" lon="9.011511719948933"><ele>131.0</ele><time>2026-03-29T09:07:37.002Z</time></trkpt><trkpt lat="44.45217196969043" lon="9.01142765222255"><ele>131.0</ele><time>2026-03-29T09:07:39.002Z</time></trkpt><trkpt lat="44.4522241508801" lon="9.011351646976763"><ele>131.85714285714286</ele><time>2026-03-29T09:07:41.002Z</time></trkpt><trkpt lat="44.452299572305684" lon="9.011321788403729"><ele>132.71428571428572</ele><time>2026-03-29T09:07:44.002Z</time></trkpt><trkpt lat="44.45235420569934" lon="9.011268125363701"><ele>133.57142857142858</ele><time>2026-03-29T09:07:47.002Z</time></trkpt><trkpt lat="44.45241913149147" lon="9.01120370709601"><ele>134.42857142857144</ele><time>2026-03-29T09:07:50.002Z</time></trkpt><trkpt lat="44.45247402457849" lon="9.011146200969092"><ele>135.28571428571428</ele><time>2026-03-29T09:07:53.002Z</time></trkpt><trkpt lat="44.45252379660124" lon="9.01105634640068"><ele>136.14285714285717</ele><time>2026-03-29T09:07:57.002Z</time></trkpt><trkpt lat="44.45254628016793" lon="9.010962749731227"><ele>137.0</ele><time>2026-03-29T09:08:00.003Z</time></trkpt><trkpt lat="44.452542530355" lon="9.010855046382552"><ele>135.0</ele><time>2026-03-29T09:08:03.003Z</time></trkpt><trkpt lat="44.45259922446311" lon="9.010753113789812"><ele>133.0</ele><time>2026-03-29T09:08:06.003Z</time></trkpt><trkpt lat="44.45265025841367" lon="9.010665043822591"><ele>131.0</ele><time>2026-03-29T09:08:09.003Z</time></trkpt><trkpt lat="44.45271303731778" lon="9.01059342351342"><ele>129.0</ele><time>2026-03-29T09:08:12.003Z</time></trkpt><trkpt lat="44.45276826426685" lon="9.010493385426686"><ele>126.99999999999999</ele><time>2026-03-29T09:08:15.003Z</time></trkpt><trkpt lat="44.45282990539692" lon="9.01040638882136"><ele>125.0</ele><time>2026-03-29T09:08:18.003Z</time></trkpt><trkpt lat="44.452891635656385" lon="9.010322684828447"><ele>124.99999999999999</ele><time>2026-03-29T09:08:20.999Z</time></trkpt><trkpt lat="44.45295564533076" lon="9.010240030889479"><ele>125.0</ele><time>2026-03-29T09:08:23.999Z</time></trkpt><trkpt lat="44.45302199858591" lon="9.010204219754428"><ele>125.0</ele><time>2026-03-29T09:08:26.999Z</time></trkpt><trkpt lat="44.45310013112775" lon="9.010269997706764"><ele>125.0</ele><time>2026-03-29T09:08:29.999Z</time></trkpt><trkpt lat="44.45316742314213" lon="9.010340780837632"><ele>124.99999999999999</ele><time>2026-03-29T09:08:32.999Z</time></trkpt><trkpt lat="44.45324861252529" lon="9.010390047782968"><ele>125.0</ele><time>2026-03-29T09:08:36Z</time></trkpt><trkpt lat="44.45333284509304" lon="9.01039300154358"><ele>125.33333333333333</ele><time>2026-03-29T09:08:39Z</time></trkpt><trkpt lat="44.45340955810972" lon="9.010381567027377"><ele>125.66666666666666</ele><time>2026-03-29T09:08:42Z</time></trkpt><trkpt lat="44.453490676905005" lon="9.010417881808642"><ele>126.0</ele><time>2026-03-29T09:08:45Z</time></trkpt><trkpt lat="44.45357785105303" lon="9.010451350133643"><ele>126.33333333333334</ele><time>2026-03-29T09:08:48Z</time></trkpt><trkpt lat="44.45366148227186" lon="9.010494804557716"><ele>126.66666666666667</ele><time>2026-03-29T09:08:51Z</time></trkpt><trkpt lat="44.453729668520275" lon="9.010572055925692"><ele>127.0</ele><time>2026-03-29T09:08:54Z</time></trkpt><trkpt lat="44.453750171603645" lon="9.010702419527208"><ele>127.00000000000001</ele><time>2026-03-29T09:08:57Z</time></trkpt><trkpt lat="44.45377989149411" lon="9.010802913711736"><ele>127.0</ele><time>2026-03-29T09:09:00Z</time></trkpt><trkpt lat="44.453832416836704" lon="9.010885546076238"><ele>127.0</ele><time>2026-03-29T09:09:03.001Z</time></trkpt><trkpt lat="44.45388204528967" lon="9.010975599297502"><ele>127.0</ele><time>2026-03-29T09:09:06.001Z</time></trkpt><trkpt lat="44.45391643899034" lon="9.011061457248577"><ele>127.00000000000001</ele><time>2026-03-29T09:09:09.001Z</time></trkpt><trkpt lat="44.4539799052456" lon="9.01112280390456"><ele>127.0</ele><time>2026-03-29T09:09:12.001Z</time></trkpt><trkpt lat="44.45405824044399" lon="9.011163740664507"><ele>128.0</ele><time>2026-03-29T09:09:15.001Z</time></trkpt><trkpt lat="44.45413446334179" lon="9.01121435846318"><ele>129.0</ele><time>2026-03-29T09:09:18.001Z</time></trkpt><trkpt lat="44.454215534091276" lon="9.011248703418019"><ele>130.0</ele><time>2026-03-29T09:09:22.001Z</time></trkpt><trkpt lat="44.45427995715235" lon="9.01126295462966"><ele>131.0</ele><time>2026-03-29T09:09:25.001Z</time></trkpt><trkpt lat="44.45435490057873" lon="9.011273500252136"><ele>132.0</ele><time>2026-03-29T09:09:27.001Z</time></trkpt><trkpt lat="44.454436789159146" lon="9.011283848225558"><ele>133.0</ele><time>2026-03-29T09:09:30.001Z</time></trkpt><trkpt lat="44.45451643976492" lon="9.011290998426082"><ele>133.0</ele><time>2026-03-29T09:09:33.002Z</time></trkpt><trkpt lat="44.4546008596762" lon="9.011302302243742"><ele>133.0</ele><time>2026-03-29T09:09:36.002Z</time></trkpt><trkpt lat="44.454673027671156" lon="9.011279559120375"><ele>133.0</ele><time>2026-03-29T09:09:39.002Z</time></trkpt><trkpt lat="44.45475282293322" lon="9.011181185473445"><ele>133.0</ele><time>2026-03-29T09:09:42.002Z</time></trkpt><trkpt lat="44.454800488305736" lon="9.011120707891493"><ele>133.0</ele><time>2026-03-29T09:09:44.002Z</time></trkpt><trkpt lat="44.4548526092088" lon="9.011054560694236"><ele>133.0</ele><time>2026-03-29T09:09:47.002Z</time></trkpt><trkpt lat="44.454909096435244" lon="9.010962756814363"><ele>133.33333333333334</ele><time>2026-03-29T09:09:50.002Z</time></trkpt><trkpt lat="44.454966151620376" lon="9.01090237125848"><ele>133.66666666666669</ele><time>2026-03-29T09:09:53.002Z</time></trkpt><trkpt lat="44.45504237429398" lon="9.010863055645629"><ele>134.0</ele><time>2026-03-29T09:09:56.002Z</time></trkpt><trkpt lat="44.455134156638685" lon="9.010845308340633"><ele>134.33333333333334</ele><time>2026-03-29T09:09:59.002Z</time></trkpt><trkpt lat="44.455225408617224" lon="9.01082553760908"><ele>134.66666666666666</ele><time>2026-03-29T09:10:02.002Z</time></trkpt><trkpt lat="44.45530214640557" lon="9.01079053299602"><ele>135.0</ele><time>2026-03-29T09:10:07.003Z</time></trkpt><trkpt lat="44.455334491530614" lon="9.010711690207529"><ele>134.0</ele><time>2026-03-29T09:10:09.003Z</time></trkpt><trkpt lat="44.45537816330134" lon="9.010621894999645"><ele>133.0</ele><time>2026-03-29T09:10:12.003Z</time></trkpt><trkpt lat="44.45542675068261" lon="9.010537916714394"><ele>132.0</ele><time>2026-03-29T09:10:16.003Z</time></trkpt><trkpt lat="44.455467907001434" lon="9.010462366200308"><ele>131.0</ele><time>2026-03-29T09:10:19.003Z</time></trkpt><trkpt lat="44.45551673505397" lon="9.010373059461859"><ele>130.0</ele><time>2026-03-29T09:10:23.003Z</time></trkpt><trkpt lat="44.45557124636095" lon="9.010274239679687"><ele>129.0</ele><time>2026-03-29T09:10:26.003Z</time></trkpt><trkpt lat="44.45562041162223" lon="9.010194205704694"><ele>129.0</ele><time>2026-03-29T09:10:28.999Z</time></trkpt><trkpt lat="44.45567529425277" lon="9.010101156499081"><ele>129.0</ele><time>2026-03-29T09:10:31.999Z</time></trkpt><trkpt lat="44.45571768590542" lon="9.010025191269964"><ele>129.0</ele><time>2026-03-29T09:10:34.999Z</time></trkpt><trkpt lat="44.45575767011525" lon="9.009930492961255"><ele>129.0</ele><time>2026-03-29T09:10:37.999Z</time></trkpt><trkpt lat="44.45577247063837" lon="9.009840911368881"><ele>129.0</ele><time>2026-03-29T09:10:40.999Z</time></trkpt><trkpt lat="44.455758826599485" lon="9.009731638347112"><ele>129.0</ele><time>2026-03-29T09:10:43.999Z</time></trkpt><trkpt lat="44.45574527593745" lon="9.00962792853701"><ele>130.57142857142856</ele><time>2026-03-29T09:10:46.999Z</time></trkpt><trkpt lat="44.45572268854448" lon="9.009520895777161"><ele>132.14285714285714</ele><time>2026-03-29T09:10:49.999Z</time></trkpt><trkpt lat="44.45570078384447" lon="9.00942257265686"><ele>133.71428571428572</ele><time>2026-03-29T09:10:53Z</time></trkpt><trkpt lat="44.45572432713181" lon="9.009339100500373"><ele>135.28571428571428</ele><time>2026-03-29T09:11:04Z</time></trkpt><trkpt lat="44.45575295915055" lon="9.009255315309122"><ele>136.85714285714286</ele><time>2026-03-29T09:14:02.002Z</time></trkpt><trkpt lat="44.45576421462262" lon="9.009159284439358"><ele>138.42857142857142</ele><time>2026-03-29T09:14:06.002Z</time></trkpt><trkpt lat="44.455775446780926" lon="9.009072414093113"><ele>140.0</ele><time>2026-03-29T09:14:09.003Z</time></trkpt><trkpt lat="44.45578229815758" lon="9.008965523381969"><ele>141.57142857142858</ele><time>2026-03-29T09:14:13.003Z</time></trkpt><trkpt lat="44.45575824231221" lon="9.008860193012662"><ele>143.14285714285714</ele><time>2026-03-29T09:14:16.003Z</time></trkpt><trkpt lat="44.45571677554203" lon="9.008787338031546"><ele>144.71428571428572</ele><time>2026-03-29T09:14:19.003Z</time></trkpt><trkpt lat="44.455700159502314" lon="9.00869981545973"><ele>146.28571428571428</ele><time>2026-03-29T09:14:22.003Z</time></trkpt><trkpt lat="44.455692113417435" lon="9.00857929763365"><ele>147.85714285714286</ele><time>2026-03-29T09:14:38.999Z</time></trkpt><trkpt lat="44.455674730647694" lon="9.00848737124403"><ele>149.42857142857144</ele><time>2026-03-29T09:14:41.999Z</time></trkpt><trkpt lat="44.45564024727364" lon="9.008386468297685"><ele>151.0</ele><time>2026-03-29T09:14:45.999Z</time></trkpt><trkpt lat="44.455626754955446" lon="9.008262982624798"><ele>152.66666666666669</ele><time>2026-03-29T09:14:48.999Z</time></trkpt><trkpt lat="44.45560022627072" lon="9.008158031469229"><ele>154.33333333333334</ele><time>2026-03-29T09:14:51.999Z</time></trkpt><trkpt lat="44.4555712752534" lon="9.008070290359809"><ele>156.0</ele><time>2026-03-29T09:14:56Z</time></trkpt><trkpt lat="44.45554958134409" lon="9.007985184333096"><ele>157.66666666666666</ele><time>2026-03-29T09:14:59Z</time></trkpt><trkpt lat="44.455523705434814" lon="9.007887845087394"><ele>159.33333333333331</ele><time>2026-03-29T09:15:02Z</time></trkpt><trkpt lat="44.45550458199054" lon="9.007775796757027"><ele>161.0</ele><time>2026-03-29T09:15:05Z</time></trkpt><trkpt lat="44.455495278170915" lon="9.007656376842037"><ele>161.0</ele><time>2026-03-29T09:15:08Z</time></trkpt><trkpt lat="44.45550409053655" lon="9.007547930804396"><ele>161.0</ele><time>2026-03-29T09:15:11Z</time></trkpt><trkpt lat="44.45553762314625" lon="9.007448459214801"><ele>161.0</ele><time>2026-03-29T09:15:14.001Z</time></trkpt><trkpt lat="44.455576799742" lon="9.00735163197366"><ele>161.0</ele><time>2026-03-29T09:15:17.001Z</time></trkpt><trkpt lat="44.45561975259621" lon="9.007269057873737"><ele>161.0</ele><time>2026-03-29T09:15:20.001Z</time></trkpt><trkpt lat="44.45565844645687" lon="9.007194105968589"><ele>161.0</ele><time>2026-03-29T09:15:23.001Z</time></trkpt><trkpt lat="44.45569715350432" lon="9.007103818323454"><ele>162.5</ele><time>2026-03-29T09:15:27.001Z</time></trkpt><trkpt lat="44.455643908351405" lon="9.007025432572279"><ele>164.0</ele><time>2026-03-29T09:15:31.001Z</time></trkpt><trkpt lat="44.45556344259433" lon="9.006968708615865"><ele>165.5</ele><time>2026-03-29T09:15:34.001Z</time></trkpt><trkpt lat="44.455474113637855" lon="9.006941346852791"><ele>167.0</ele><time>2026-03-29T09:15:37.001Z</time></trkpt><trkpt lat="44.45538389744023" lon="9.006950232404828"><ele>168.5</ele><time>2026-03-29T09:15:40.001Z</time></trkpt><trkpt lat="44.45531708210011" lon="9.00696618322784"><ele>170.0</ele><time>2026-03-29T09:15:42.001Z</time></trkpt><trkpt lat="44.455249215336686" lon="9.006969452623494"><ele>166.57142857142858</ele><time>2026-03-29T09:15:44.002Z</time></trkpt><trkpt lat="44.45518351695201" lon="9.006964308738835"><ele>163.14285714285714</ele><time>2026-03-29T09:15:47.002Z</time></trkpt><trkpt lat="44.4551164014024" lon="9.006959902994295"><ele>159.71428571428572</ele><time>2026-03-29T09:15:50.002Z</time></trkpt><trkpt lat="44.455035779306534" lon="9.006935996820967"><ele>156.28571428571428</ele><time>2026-03-29T09:15:53.002Z</time></trkpt><trkpt lat="44.454961572396776" lon="9.006892016671733"><ele>152.85714285714286</ele><time>2026-03-29T09:15:56.002Z</time></trkpt><trkpt lat="44.45490452087477" lon="9.006826636950146"><ele>149.42857142857142</ele><time>2026-03-29T09:15:59.002Z</time></trkpt><trkpt lat="44.45484305310091" lon="9.006801754118117"><ele>146.0</ele><time>2026-03-29T09:16:03.002Z</time></trkpt><trkpt lat="44.45477672582804" lon="9.006866346400635"><ele>146.0</ele><time>2026-03-29T09:16:06.002Z</time></trkpt><trkpt lat="44.454701267892716" lon="9.006927565117374"><ele>146.0</ele><time>2026-03-29T09:16:09.002Z</time></trkpt><trkpt lat="44.454635247605815" lon="9.006986668546192"><ele>146.0</ele><time>2026-03-29T09:16:12.002Z</time></trkpt><trkpt lat="44.45455993755572" lon="9.006975031778097"><ele>146.0</ele><time>2026-03-29T09:16:15.003Z</time></trkpt><trkpt lat="44.45449016133959" lon="9.006926693467365"><ele>146.0</ele><time>2026-03-29T09:16:18.003Z</time></trkpt><trkpt lat="44.454413129159164" lon="9.006882324519124"><ele>146.0</ele><time>2026-03-29T09:16:21.003Z</time></trkpt><trkpt lat="44.45433470252893" lon="9.00684141452507"><ele>145.14285714285714</ele><time>2026-03-29T09:16:24.003Z</time></trkpt><trkpt lat="44.454257901276655" lon="9.00679012772273"><ele>144.28571428571428</ele><time>2026-03-29T09:16:27.003Z</time></trkpt><trkpt lat="44.4541956125186" lon="9.006753897301001"><ele>143.42857142857144</ele><time>2026-03-29T09:16:29.003Z</time></trkpt><trkpt lat="44.45413506990885" lon="9.006725053946147"><ele>142.57142857142856</ele><time>2026-03-29T09:16:31.003Z</time></trkpt><trkpt lat="44.45405851611646" lon="9.006705610355834"><ele>141.71428571428572</ele><time>2026-03-29T09:16:34.003Z</time></trkpt><trkpt lat="44.454026516518724" lon="9.006792086960784"><ele>140.85714285714286</ele><time>2026-03-29T09:16:36.003Z</time></trkpt><trkpt lat="44.453996347105196" lon="9.006879353221507"><ele>140.0</ele><time>2026-03-29T09:16:38.003Z</time></trkpt><trkpt lat="44.45391686779905" lon="9.006936941856864"><ele>140.0</ele><time>2026-03-29T09:16:41.003Z</time></trkpt><trkpt lat="44.45384957635895" lon="9.006934985625422"><ele>140.0</ele><time>2026-03-29T09:16:44.003Z</time></trkpt><trkpt lat="44.453752830014565" lon="9.006927385763465"><ele>140.0</ele><time>2026-03-29T09:16:46.999Z</time></trkpt><trkpt lat="44.4536665921783" lon="9.00694254014361"><ele>140.0</ele><time>2026-03-29T09:16:49.999Z</time></trkpt><trkpt lat="44.45359175807508" lon="9.00695998045368"><ele>140.0</ele><time>2026-03-29T09:16:52.999Z</time></trkpt><trkpt lat="44.45351018090863" lon="9.00697882112937"><ele>140.0</ele><time>2026-03-29T09:16:55.999Z</time></trkpt><trkpt lat="44.45343327310704" lon="9.007003672755829"><ele>140.0</ele><time>2026-03-29T09:16:58.999Z</time></trkpt><trkpt lat="44.45335544891321" lon="9.006977120448209"><ele>140.0</ele><time>2026-03-29T09:17:01.999Z</time></trkpt><trkpt lat="44.45328398984925" lon="9.006916822803628"><ele>140.0</ele><time>2026-03-29T09:17:05Z</time></trkpt><trkpt lat="44.45321952870883" lon="9.006833062470855"><ele>140.0</ele><time>2026-03-29T09:17:08Z</time></trkpt><trkpt lat="44.45316498657215" lon="9.006726960487066"><ele>140.0</ele><time>2026-03-29T09:17:11Z</time></trkpt><trkpt lat="44.45312174916455" lon="9.006617314929013"><ele>140.0</ele><time>2026-03-29T09:17:14Z</time></trkpt><trkpt lat="44.453121131638575" lon="9.006487941263524"><ele>138.66666666666666</ele><time>2026-03-29T09:17:17Z</time></trkpt><trkpt lat="44.45309918697588" lon="9.006360076207313"><ele>137.33333333333331</ele><time>2026-03-29T09:17:20Z</time></trkpt><trkpt lat="44.453037370241475" lon="9.006273319944839"><ele>136.0</ele><time>2026-03-29T09:17:23.001Z</time></trkpt><trkpt lat="44.452981579084266" lon="9.006177878165953"><ele>134.66666666666666</ele><time>2026-03-29T09:17:26.001Z</time></trkpt><trkpt lat="44.45294560009461" lon="9.00610089845379"><ele>133.33333333333334</ele><time>2026-03-29T09:17:28.001Z</time></trkpt><trkpt lat="44.45290469094166" lon="9.005989635472385"><ele>132.0</ele><time>2026-03-29T09:17:31.001Z</time></trkpt><trkpt lat="44.452884724961315" lon="9.005860908823655"><ele>133.0</ele><time>2026-03-29T09:17:34.001Z</time></trkpt><trkpt lat="44.452863930224424" lon="9.005771698053989"><ele>134.0</ele><time>2026-03-29T09:17:37.001Z</time></trkpt><trkpt lat="44.45285910876802" lon="9.005661526962836"><ele>135.0</ele><time>2026-03-29T09:17:42.001Z</time></trkpt><trkpt lat="44.45287671337352" lon="9.005570505781568"><ele>136.0</ele><time>2026-03-29T09:17:46.001Z</time></trkpt><trkpt lat="44.45286833035557" lon="9.0054727980263"><ele>137.0</ele><time>2026-03-29T09:17:51.002Z</time></trkpt><trkpt lat="44.45282415383851" lon="9.005399409456624"><ele>138.0</ele><time>2026-03-29T09:17:56.002Z</time></trkpt><trkpt lat="44.45275586708214" lon="9.005382223968036"><ele>139.0</ele><time>2026-03-29T09:17:59.002Z</time></trkpt><trkpt lat="44.4526386277189" lon="9.005324466132372"><ele>139.0</ele><time>2026-03-29T09:18:01.002Z</time></trkpt><trkpt lat="44.45258048365558" lon="9.005243905682152"><ele>139.0</ele><time>2026-03-29T09:18:03.002Z</time></trkpt><trkpt lat="44.45256039323585" lon="9.00513511262866"><ele>139.0</ele><time>2026-03-29T09:18:05.002Z</time></trkpt><trkpt lat="44.45250415815171" lon="9.004991774428168"><ele>139.0</ele><time>2026-03-29T09:18:07.002Z</time></trkpt><trkpt lat="44.45247670631236" lon="9.004908882537853"><ele>139.0</ele><time>2026-03-29T09:18:08.002Z</time></trkpt><trkpt lat="44.452432097318365" lon="9.00480892627618"><ele>139.0</ele><time>2026-03-29T09:18:10.002Z</time></trkpt><trkpt lat="44.452406504057514" lon="9.004686482255103"><ele>139.5</ele><time>2026-03-29T09:18:13.002Z</time></trkpt><trkpt lat="44.45237430298667" lon="9.004592286068313"><ele>140.0</ele><time>2026-03-29T09:18:15.002Z</time></trkpt><trkpt lat="44.452336083202994" lon="9.004509147373748"><ele>140.5</ele><time>2026-03-29T09:18:17.002Z</time></trkpt><trkpt lat="44.45228636088863" lon="9.00441825215617"><ele>141.0</ele><time>2026-03-29T09:18:20.002Z</time></trkpt><trkpt lat="44.45220916261385" lon="9.004372679309437"><ele>141.5</ele><time>2026-03-29T09:18:23.003Z</time></trkpt><trkpt lat="44.452125496964555" lon="9.004374179746243"><ele>142.0</ele><time>2026-03-29T09:18:28.003Z</time></trkpt><trkpt lat="44.45208159127651" lon="9.004267955260092"><ele>140.42857142857142</ele><time>2026-03-29T09:23:15Z</time></trkpt><trkpt lat="44.45204485454557" lon="9.004189723956936"><ele>138.85714285714283</ele><time>2026-03-29T09:23:21Z</time></trkpt><trkpt lat="44.45202502870787" lon="9.004096665856562"><ele>137.28571428571428</ele><time>2026-03-29T09:23:25Z</time></trkpt><trkpt lat="44.452005819671236" lon="9.003992529066522"><ele>135.71428571428572</ele><time>2026-03-29T09:23:29Z</time></trkpt><trkpt lat="44.451997752673996" lon="9.00390468179108"><ele>134.14285714285717</ele><time>2026-03-29T09:23:32Z</time></trkpt><trkpt lat="44.452004340228015" lon="9.003808846899462"><ele>132.57142857142858</ele><time>2026-03-29T09:23:35Z</time></trkpt><trkpt lat="44.452035542142504" lon="9.00372759781098"><ele>131.0</ele><time>2026-03-29T09:23:38.001Z</time></trkpt><trkpt lat="44.452084786574844" lon="9.003663541015843"><ele>133.0</ele><time>2026-03-29T09:23:41.001Z</time></trkpt><trkpt lat="44.45216232285501" lon="9.003623807348058"><ele>135.0</ele><time>2026-03-29T09:23:45.001Z</time></trkpt><trkpt lat="44.45222544561746" lon="9.00363037647068"><ele>137.0</ele><time>2026-03-29T09:23:48.001Z</time></trkpt><trkpt lat="44.45230316325986" lon="9.003675797622183"><ele>139.0</ele><time>2026-03-29T09:23:52.001Z</time></trkpt><trkpt lat="44.452349297597024" lon="9.003746440235659"><ele>141.0</ele><time>2026-03-29T09:23:55.001Z</time></trkpt><trkpt lat="44.45238024100833" lon="9.003831523589197"><ele>143.0</ele><time>2026-03-29T09:23:58.001Z</time></trkpt><trkpt lat="44.452399622076356" lon="9.003920460050935"><ele>145.0</ele><time>2026-03-29T09:24:01.001Z</time></trkpt><trkpt lat="44.45242824051758" lon="9.004018846372912"><ele>145.0</ele><time>2026-03-29T09:24:04.001Z</time></trkpt><trkpt lat="44.45244836489219" lon="9.004105628522906"><ele>145.0</ele><time>2026-03-29T09:24:07.002Z</time></trkpt><trkpt lat="44.45247217814269" lon="9.004203738251345"><ele>145.0</ele><time>2026-03-29T09:24:10.002Z</time></trkpt><trkpt lat="44.45249801732321" lon="9.004305650319269"><ele>145.0</ele><time>2026-03-29T09:24:13.002Z</time></trkpt><trkpt lat="44.4525201539889" lon="9.004417239179405"><ele>145.0</ele><time>2026-03-29T09:24:16.002Z</time></trkpt><trkpt lat="44.452545690594576" lon="9.004527335392925"><ele>145.0</ele><time>2026-03-29T09:24:19.002Z</time></trkpt><trkpt lat="44.45257166988509" lon="9.00464099620316"><ele>144.5</ele><time>2026-03-29T09:24:22.002Z</time></trkpt><trkpt lat="44.452599570320665" lon="9.004747894527506"><ele>144.0</ele><time>2026-03-29T09:24:25.002Z</time></trkpt><trkpt lat="44.452632504742326" lon="9.004858521567963"><ele>143.5</ele><time>2026-03-29T09:24:28.002Z</time></trkpt><trkpt lat="44.45266961932288" lon="9.00496296925695"><ele>143.0</ele><time>2026-03-29T09:24:31.002Z</time></trkpt><trkpt lat="44.45271918298526" lon="9.00507404177695"><ele>142.5</ele><time>2026-03-29T09:24:34.002Z</time></trkpt><trkpt lat="44.45278080967011" lon="9.005174927073499"><ele>142.0</ele><time>2026-03-29T09:24:37.002Z</time></trkpt><trkpt lat="44.45282192565531" lon="9.00524354795802"><ele>141.5</ele><time>2026-03-29T09:24:39.003Z</time></trkpt><trkpt lat="44.45288518037009" lon="9.005336915524076"><ele>141.0</ele><time>2026-03-29T09:24:42.003Z</time></trkpt><trkpt lat="44.45294602546026" lon="9.005433463543948"><ele>140.5</ele><time>2026-03-29T09:24:45.003Z</time></trkpt><trkpt lat="44.45300142809182" lon="9.005529178861519"><ele>140.0</ele><time>2026-03-29T09:24:48.003Z</time></trkpt><trkpt lat="44.45304787643445" lon="9.005603133359909"><ele>139.5</ele><time>2026-03-29T09:24:51.003Z</time></trkpt><trkpt lat="44.45309606569298" lon="9.005675116923545"><ele>139.0</ele><time>2026-03-29T09:24:54.003Z</time></trkpt><trkpt lat="44.45314087600776" lon="9.005752968998069"><ele>140.57142857142856</ele><time>2026-03-29T09:24:57.003Z</time></trkpt><trkpt lat="44.45318970235965" lon="9.005817670603644"><ele>142.14285714285714</ele><time>2026-03-29T09:25:00.003Z</time></trkpt><trkpt lat="44.453230126255335" lon="9.005898108283203"><ele>143.71428571428572</ele><time>2026-03-29T09:25:03.003Z</time></trkpt><trkpt lat="44.45327614106191" lon="9.005962996707519"><ele>145.28571428571428</ele><time>2026-03-29T09:25:06.003Z</time></trkpt><trkpt lat="44.45332234979304" lon="9.006031107851998"><ele>146.85714285714286</ele><time>2026-03-29T09:25:08.999Z</time></trkpt><trkpt lat="44.45336344109883" lon="9.006104675828729"><ele>148.42857142857142</ele><time>2026-03-29T09:25:11.999Z</time></trkpt><trkpt lat="44.453406788031" lon="9.006175509207935"><ele>150.0</ele><time>2026-03-29T09:25:14.999Z</time></trkpt><trkpt lat="44.45344673069093" lon="9.006246043297562"><ele>149.99999999999997</ele><time>2026-03-29T09:25:17.999Z</time></trkpt><trkpt lat="44.4534942635778" lon="9.006304840524372"><ele>150.0</ele><time>2026-03-29T09:25:20.999Z</time></trkpt><trkpt lat="44.453562260071905" lon="9.006370424031864"><ele>150.0</ele><time>2026-03-29T09:25:24.999Z</time></trkpt><trkpt lat="44.4536224702372" lon="9.006400955471008"><ele>150.0</ele><time>2026-03-29T09:25:28Z</time></trkpt><trkpt lat="44.45369080655163" lon="9.00641329672912"><ele>150.0</ele><time>2026-03-29T09:25:31Z</time></trkpt><trkpt lat="44.453760843369075" lon="9.006397377467977"><ele>149.99999999999997</ele><time>2026-03-29T09:25:34Z</time></trkpt><trkpt lat="44.45382553004559" lon="9.006360146326337"><ele>150.0</ele><time>2026-03-29T09:25:37Z</time></trkpt><trkpt lat="44.453885867498784" lon="9.006314348189113"><ele>151.0</ele><time>2026-03-29T09:25:40Z</time></trkpt><trkpt lat="44.45394350663256" lon="9.006270660868312"><ele>152.0</ele><time>2026-03-29T09:25:43Z</time></trkpt><trkpt lat="44.45400735065419" lon="9.006198991479193"><ele>153.0</ele><time>2026-03-29T09:25:47.001Z</time></trkpt><trkpt lat="44.45405464980529" lon="9.006136120803117"><ele>154.0</ele><time>2026-03-29T09:25:50.001Z</time></trkpt><trkpt lat="44.45411438446668" lon="9.006055430663709"><ele>155.0</ele><time>2026-03-29T09:25:54.001Z</time></trkpt><trkpt lat="44.45417495253378" lon="9.005978458215601"><ele>156.0</ele><time>2026-03-29T09:25:58.001Z</time></trkpt><trkpt lat="44.45423161261559" lon="9.005909280404254"><ele>156.85714285714286</ele><time>2026-03-29T09:26:02.001Z</time></trkpt><trkpt lat="44.45426521372131" lon="9.005813433785674"><ele>157.7142857142857</ele><time>2026-03-29T09:26:06.001Z</time></trkpt><trkpt lat="44.454286102950014" lon="9.005713492248306"><ele>158.57142857142856</ele><time>2026-03-29T09:26:10.001Z</time></trkpt><trkpt lat="44.45425879386287" lon="9.005628766375882"><ele>159.42857142857144</ele><time>2026-03-29T09:26:13.001Z</time></trkpt><trkpt lat="44.45423751153222" lon="9.005537134766342"><ele>160.28571428571428</ele><time>2026-03-29T09:26:17.002Z</time></trkpt><trkpt lat="44.45421272602228" lon="9.005443564142347"><ele>161.14285714285714</ele><time>2026-03-29T09:26:21.002Z</time></trkpt><trkpt lat="44.45416643311659" lon="9.00537136372278"><ele>162.0</ele><time>2026-03-29T09:26:25.002Z</time></trkpt><trkpt lat="44.45412416806766" lon="9.005298601493879"><ele>162.0</ele><time>2026-03-29T09:26:29.002Z</time></trkpt><trkpt lat="44.45407283135646" lon="9.005230828711397"><ele>162.0</ele><time>2026-03-29T09:26:33.002Z</time></trkpt><trkpt lat="44.454033371353745" lon="9.005150255995233"><ele>162.0</ele><time>2026-03-29T09:26:37.002Z</time></trkpt><trkpt lat="44.453994231751636" lon="9.005068176565864"><ele>162.0</ele><time>2026-03-29T09:26:41.002Z</time></trkpt><trkpt lat="44.45395279469288" lon="9.004972910267794"><ele>162.0</ele><time>2026-03-29T09:26:45.002Z</time></trkpt><trkpt lat="44.45390573340746" lon="9.004912289915781"><ele>162.0</ele><time>2026-03-29T09:26:48.002Z</time></trkpt><trkpt lat="44.45387339923977" lon="9.00483219417192"><ele>162.0</ele><time>2026-03-29T09:26:51.003Z</time></trkpt><trkpt lat="44.45384955239646" lon="9.004744650830885"><ele>161.66666666666666</ele><time>2026-03-29T09:26:54.003Z</time></trkpt><trkpt lat="44.453826753153" lon="9.004642048859486"><ele>161.33333333333334</ele><time>2026-03-29T09:26:58.003Z</time></trkpt><trkpt lat="44.453795380871405" lon="9.004535944787488"><ele>161.0</ele><time>2026-03-29T09:27:02.003Z</time></trkpt><trkpt lat="44.453771343225405" lon="9.004435316853764"><ele>160.66666666666669</ele><time>2026-03-29T09:27:05.003Z</time></trkpt><trkpt lat="44.453742804866636" lon="9.004322849002126"><ele>160.33333333333334</ele><time>2026-03-29T09:27:09.003Z</time></trkpt><trkpt lat="44.45370949687357" lon="9.004217257286987"><ele>160.0</ele><time>2026-03-29T09:27:13.003Z</time></trkpt><trkpt lat="44.45368722658694" lon="9.004108427018602"><ele>161.0</ele><time>2026-03-29T09:27:16.998Z</time></trkpt><trkpt lat="44.45370794717592" lon="9.004004600589415"><ele>162.0</ele><time>2026-03-29T09:27:20.999Z</time></trkpt><trkpt lat="44.45376223491902" lon="9.003930214423963"><ele>163.0</ele><time>2026-03-29T09:27:24.999Z</time></trkpt><trkpt lat="44.453806057358506" lon="9.0038609953344"><ele>164.0</ele><time>2026-03-29T09:27:28.999Z</time></trkpt><trkpt lat="44.453784303849815" lon="9.003754334928741"><ele>165.0</ele><time>2026-03-29T09:27:34Z</time></trkpt><trkpt lat="44.45377329082305" lon="9.00365438820892"><ele>166.0</ele><time>2026-03-29T09:27:38Z</time></trkpt><trkpt lat="44.45375522836645" lon="9.003559592969989"><ele>167.0</ele><time>2026-03-29T09:27:42Z</time></trkpt><trkpt lat="44.45374144026142" lon="9.003472636247567"><ele>167.0</ele><time>2026-03-29T09:27:46Z</time></trkpt><trkpt lat="44.45372208499122" lon="9.003387071673194"><ele>167.0</ele><time>2026-03-29T09:27:50Z</time></trkpt><trkpt lat="44.45370216106356" lon="9.003296884937736"><ele>167.0</ele><time>2026-03-29T09:27:54.001Z</time></trkpt><trkpt lat="44.453683255202144" lon="9.003183889372876"><ele>167.0</ele><time>2026-03-29T09:27:58.001Z</time></trkpt><trkpt lat="44.453639020930915" lon="9.003080149270547"><ele>167.0</ele><time>2026-03-29T09:28:02.001Z</time></trkpt><trkpt lat="44.45359663370257" lon="9.003003551207328"><ele>167.0</ele><time>2026-03-29T09:28:05.001Z</time></trkpt><trkpt lat="44.45353945270239" lon="9.002917661804377"><ele>168.14285714285714</ele><time>2026-03-29T09:28:08.001Z</time></trkpt><trkpt lat="44.45349865496492" lon="9.002840478101863"><ele>169.28571428571428</ele><time>2026-03-29T09:28:11.001Z</time></trkpt><trkpt lat="44.4534666012065" lon="9.002730079069947"><ele>170.42857142857144</ele><time>2026-03-29T09:28:14.001Z</time></trkpt><trkpt lat="44.4534437209847" lon="9.002627368671439"><ele>171.57142857142856</ele><time>2026-03-29T09:28:17.001Z</time></trkpt><trkpt lat="44.45342515742389" lon="9.002528685036467"><ele>172.71428571428572</ele><time>2026-03-29T09:28:20.002Z</time></trkpt><trkpt lat="44.453399517608496" lon="9.002441196577674"><ele>173.85714285714286</ele><time>2026-03-29T09:28:23.002Z</time></trkpt><trkpt lat="44.453376859578334" lon="9.002358040784628"><ele>175.0</ele><time>2026-03-29T09:28:26.002Z</time></trkpt><trkpt lat="44.453345322787634" lon="9.002251816123573"><ele>176.42857142857142</ele><time>2026-03-29T09:28:30.002Z</time></trkpt><trkpt lat="44.45331824457794" lon="9.002158419798443"><ele>177.85714285714286</ele><time>2026-03-29T09:28:34.002Z</time></trkpt><trkpt lat="44.45329490310048" lon="9.002067283482152"><ele>179.28571428571428</ele><time>2026-03-29T09:28:38.002Z</time></trkpt><trkpt lat="44.45328596572206" lon="9.001975686318493"><ele>180.71428571428572</ele><time>2026-03-29T09:28:42.002Z</time></trkpt><trkpt lat="44.45327712470152" lon="9.001879565245288"><ele>182.14285714285714</ele><time>2026-03-29T09:28:46.002Z</time></trkpt><trkpt lat="44.4532574507185" lon="9.00178341713254"><ele>183.57142857142856</ele><time>2026-03-29T09:28:50.002Z</time></trkpt><trkpt lat="44.45323017615459" lon="9.001673396600635"><ele>185.0</ele><time>2026-03-29T09:29:06.003Z</time></trkpt><trkpt lat="44.4532012380691" lon="9.001556832979615"><ele>185.0</ele><time>2026-03-29T09:29:09.003Z</time></trkpt><trkpt lat="44.453167882441996" lon="9.00145096774504"><ele>185.0</ele><time>2026-03-29T09:29:11.003Z</time></trkpt><trkpt lat="44.45314617879078" lon="9.00131400653607"><ele>185.0</ele><time>2026-03-29T09:29:13.003Z</time></trkpt><trkpt lat="44.45315662981461" lon="9.00114466931107"><ele>185.0</ele><time>2026-03-29T09:29:15.003Z</time></trkpt><trkpt lat="44.453176538936795" lon="9.001057700781816"><ele>185.0</ele><time>2026-03-29T09:29:16.003Z</time></trkpt><trkpt lat="44.45320321595254" lon="9.000972531658775"><ele>185.0</ele><time>2026-03-29T09:29:17.003Z</time></trkpt><trkpt lat="44.453219150511714" lon="9.000873780403492"><ele>183.83333333333331</ele><time>2026-03-29T09:29:18.003Z</time></trkpt><trkpt lat="44.45323304028266" lon="9.000768158340096"><ele>182.66666666666666</ele><time>2026-03-29T09:29:19.003Z</time></trkpt><trkpt lat="44.453239885891065" lon="9.000669970849367"><ele>181.5</ele><time>2026-03-29T09:29:20.003Z</time></trkpt><trkpt lat="44.45324675624784" lon="9.000565790399117"><ele>180.33333333333334</ele><time>2026-03-29T09:29:20.998Z</time></trkpt><trkpt lat="44.453251640830324" lon="9.000470664690823"><ele>179.16666666666669</ele><time>2026-03-29T09:29:21.998Z</time></trkpt><trkpt lat="44.45326381798249" lon="9.000290783223015"><ele>178.0</ele><time>2026-03-29T09:29:23.998Z</time></trkpt><trkpt lat="44.453285502676664" lon="9.000136262940272"><ele>178.0</ele><time>2026-03-29T09:29:25.999Z</time></trkpt><trkpt lat="44.453289714990156" lon="9.000021472287967"><ele>178.0</ele><time>2026-03-29T09:29:27.999Z</time></trkpt><trkpt lat="44.45328013916769" lon="8.999901293455993"><ele>178.0</ele><time>2026-03-29T09:29:29.999Z</time></trkpt><trkpt lat="44.4532080841266" lon="8.999814831994813"><ele>178.0</ele><time>2026-03-29T09:29:31.999Z</time></trkpt><trkpt lat="44.45312726918505" lon="8.999839283403757"><ele>178.0</ele><time>2026-03-29T09:29:34.999Z</time></trkpt><trkpt lat="44.4530412201004" lon="8.999809268285217"><ele>178.0</ele><time>2026-03-29T09:29:37.999Z</time></trkpt><trkpt lat="44.45299160930719" lon="8.999753796987797"><ele>175.33333333333334</ele><time>2026-03-29T09:29:39.999Z</time></trkpt><trkpt lat="44.45294570736079" lon="8.999685428462357"><ele>172.66666666666669</ele><time>2026-03-29T09:29:42Z</time></trkpt><trkpt lat="44.452908283282746" lon="8.999608077866831"><ele>170.0</ele><time>2026-03-29T09:29:44Z</time></trkpt><trkpt lat="44.45288625498764" lon="8.999483328877975"><ele>167.33333333333334</ele><time>2026-03-29T09:29:47Z</time></trkpt><trkpt lat="44.45286687003629" lon="8.999358490385578"><ele>164.66666666666666</ele><time>2026-03-29T09:29:50Z</time></trkpt><trkpt lat="44.45285595398443" lon="8.99922255478372"><ele>162.0</ele><time>2026-03-29T09:29:53Z</time></trkpt><trkpt lat="44.45284931574754" lon="8.999088106146624"><ele>162.0</ele><time>2026-03-29T09:29:56Z</time></trkpt><trkpt lat="44.4528584024802" lon="8.998996165448288"><ele>162.0</ele><time>2026-03-29T09:29:58Z</time></trkpt><trkpt lat="44.452879121313" lon="8.99890209350771"><ele>162.0</ele><time>2026-03-29T09:30:00Z</time></trkpt><trkpt lat="44.452899846760246" lon="8.998810395414148"><ele>162.0</ele><time>2026-03-29T09:30:02.001Z</time></trkpt><trkpt lat="44.45291611397675" lon="8.998712522066961"><ele>162.0</ele><time>2026-03-29T09:30:04.001Z</time></trkpt><trkpt lat="44.45291686024948" lon="8.998609411400762"><ele>162.0</ele><time>2026-03-29T09:30:06.001Z</time></trkpt><trkpt lat="44.452920389394" lon="8.998511352614909"><ele>162.0</ele><time>2026-03-29T09:30:08.001Z</time></trkpt><trkpt lat="44.45292283259649" lon="8.998417746614042"><ele>161.33333333333334</ele><time>2026-03-29T09:30:10.001Z</time></trkpt><trkpt lat="44.452899570210974" lon="8.998320018514425"><ele>160.66666666666666</ele><time>2026-03-29T09:30:13.001Z</time></trkpt><trkpt lat="44.452927251742274" lon="8.998238722682192"><ele>160.0</ele><time>2026-03-29T09:30:16.001Z</time></trkpt><trkpt lat="44.452908307134166" lon="8.99811269494441"><ele>159.33333333333331</ele><time>2026-03-29T09:32:12.001Z</time></trkpt><trkpt lat="44.45295671094727" lon="8.997992102141861"><ele>158.66666666666666</ele><time>2026-03-29T09:32:17.001Z</time></trkpt><trkpt lat="44.45301812833571" lon="8.997911074739989"><ele>158.0</ele><time>2026-03-29T09:32:19.001Z</time></trkpt><trkpt lat="44.45306469200809" lon="8.99782370184617"><ele>159.5</ele><time>2026-03-29T09:32:21.001Z</time></trkpt><trkpt lat="44.45310233656613" lon="8.997745537064866"><ele>161.0</ele><time>2026-03-29T09:32:23.001Z</time></trkpt><trkpt lat="44.4531368624201" lon="8.99765379861237"><ele>162.5</ele><time>2026-03-29T09:32:25.001Z</time></trkpt><trkpt lat="44.45319020260817" lon="8.997564539208588"><ele>164.0</ele><time>2026-03-29T09:32:27.001Z</time></trkpt><trkpt lat="44.45325085745353" lon="8.997491214595005"><ele>165.5</ele><time>2026-03-29T09:32:29.001Z</time></trkpt><trkpt lat="44.4532809669695" lon="8.997394514045858"><ele>167.0</ele><time>2026-03-29T09:32:31.001Z</time></trkpt><trkpt lat="44.453302256480164" lon="8.997274874280887"><ele>167.0</ele><time>2026-03-29T09:32:34.002Z</time></trkpt><trkpt lat="44.45332724243489" lon="8.99715909582748"><ele>167.0</ele><time>2026-03-29T09:32:37.002Z</time></trkpt><trkpt lat="44.45338204262756" lon="8.9970852837558"><ele>167.0</ele><time>2026-03-29T09:32:39.002Z</time></trkpt><trkpt lat="44.45342380028075" lon="8.996976354654684"><ele>167.0</ele><time>2026-03-29T09:32:43.002Z</time></trkpt><trkpt lat="44.45351579830368" lon="8.996942116652939"><ele>167.0</ele><time>2026-03-29T09:32:46.002Z</time></trkpt><trkpt lat="44.45353951974922" lon="8.996850367545287"><ele>167.0</ele><time>2026-03-29T09:32:48.002Z</time></trkpt><trkpt lat="44.453516644445976" lon="8.99675070230109"><ele>165.42857142857142</ele><time>2026-03-29T09:32:51.002Z</time></trkpt><trkpt lat="44.45349335513666" lon="8.996650706279139"><ele>163.85714285714286</ele><time>2026-03-29T09:32:54.002Z</time></trkpt><trkpt lat="44.45348381156305" lon="8.996542605589575"><ele>162.28571428571428</ele><time>2026-03-29T09:32:57.002Z</time></trkpt><trkpt lat="44.4534791721384" lon="8.996413459541124"><ele>160.71428571428572</ele><time>2026-03-29T09:33:02.002Z</time></trkpt><trkpt lat="44.453478106689765" lon="8.996322452315999"><ele>159.14285714285714</ele><time>2026-03-29T09:33:04.002Z</time></trkpt><trkpt lat="44.4534862171001" lon="8.996233291127258"><ele>157.57142857142858</ele><time>2026-03-29T09:33:06.003Z</time></trkpt><trkpt lat="44.45349624662125" lon="8.996139232876633"><ele>156.0</ele><time>2026-03-29T09:33:08.003Z</time></trkpt><trkpt lat="44.453522831592736" lon="8.996021475696889"><ele>156.0</ele><time>2026-03-29T09:33:11.003Z</time></trkpt><trkpt lat="44.45354827280559" lon="8.995903298877016"><ele>156.0</ele><time>2026-03-29T09:33:14.003Z</time></trkpt><trkpt lat="44.45358325240277" lon="8.995782181724746"><ele>156.0</ele><time>2026-03-29T09:33:17.003Z</time></trkpt><trkpt lat="44.45361571063461" lon="8.995670365683534"><ele>156.0</ele><time>2026-03-29T09:33:20.003Z</time></trkpt><trkpt lat="44.453629634850856" lon="8.995555562885624"><ele>156.0</ele><time>2026-03-29T09:33:23.003Z</time></trkpt><trkpt lat="44.45363339490385" lon="8.995427193202802"><ele>156.0</ele><time>2026-03-29T09:33:26.003Z</time></trkpt><trkpt lat="44.45363504925046" lon="8.995303119396409"><ele>156.0</ele><time>2026-03-29T09:33:29.003Z</time></trkpt><trkpt lat="44.45364349147214" lon="8.99521122877011"><ele>156.0</ele><time>2026-03-29T09:33:31.003Z</time></trkpt><trkpt lat="44.45367426446412" lon="8.995131067265785"><ele>156.0</ele><time>2026-03-29T09:33:32.999Z</time></trkpt><trkpt lat="44.453625709553286" lon="8.995059798514603"><ele>156.0</ele><time>2026-03-29T09:33:37.999Z</time></trkpt><trkpt lat="44.45355783456819" lon="8.995057991023748"><ele>156.0</ele><time>2026-03-29T09:33:39.999Z</time></trkpt><trkpt lat="44.45348331086004" lon="8.99506552184039"><ele>156.0</ele><time>2026-03-29T09:33:41.999Z</time></trkpt><trkpt lat="44.4533853364107" lon="8.995055780263709"><ele>156.0</ele><time>2026-03-29T09:33:43.999Z</time></trkpt><trkpt lat="44.45329823329943" lon="8.995048009117747"><ele>156.0</ele><time>2026-03-29T09:33:45.999Z</time></trkpt><trkpt lat="44.453218158318165" lon="8.995037141480418"><ele>156.0</ele><time>2026-03-29T09:33:47.999Z</time></trkpt><trkpt lat="44.453134124693534" lon="8.995052611021329"><ele>156.0</ele><time>2026-03-29T09:33:51Z</time></trkpt><trkpt lat="44.45306383390463" lon="8.995078205250017"><ele>156.0</ele><time>2026-03-29T09:33:53Z</time></trkpt><trkpt lat="44.4529737873231" lon="8.99507654136268"><ele>156.0</ele><time>2026-03-29T09:33:55Z</time></trkpt><trkpt lat="44.45289137130536" lon="8.995093064397247"><ele>156.0</ele><time>2026-03-29T09:33:57Z</time></trkpt><trkpt lat="44.45281501485347" lon="8.995086950099656"><ele>153.85714285714286</ele><time>2026-03-29T09:33:59Z</time></trkpt><trkpt lat="44.45273692452562" lon="8.995068892205799"><ele>151.7142857142857</ele><time>2026-03-29T09:34:01Z</time></trkpt><trkpt lat="44.4526730251978" lon="8.995086875565628"><ele>149.57142857142856</ele><time>2026-03-29T09:34:03Z</time></trkpt><trkpt lat="44.452612273885386" lon="8.995060172348603"><ele>147.42857142857144</ele><time>2026-03-29T09:34:05Z</time></trkpt><trkpt lat="44.45254364463444" lon="8.995029265727698"><ele>145.28571428571428</ele><time>2026-03-29T09:34:07Z</time></trkpt><trkpt lat="44.452464334911994" lon="8.99499559317059"><ele>143.14285714285714</ele><time>2026-03-29T09:34:10.001Z</time></trkpt><trkpt lat="44.45239505307126" lon="8.99500393354568"><ele>141.0</ele><time>2026-03-29T09:34:13.001Z</time></trkpt><trkpt lat="44.452324756431" lon="8.994989953666881"><ele>141.0</ele><time>2026-03-29T09:34:15.001Z</time></trkpt><trkpt lat="44.452258585291055" lon="8.994996558419485"><ele>141.0</ele><time>2026-03-29T09:34:18.001Z</time></trkpt><trkpt lat="44.452207951138135" lon="8.994908633595658"><ele>141.0</ele><time>2026-03-29T09:34:21.001Z</time></trkpt><trkpt lat="44.452128349732014" lon="8.994844633300206"><ele>141.0</ele><time>2026-03-29T09:34:24.001Z</time></trkpt><trkpt lat="44.45207360422822" lon="8.994779958319631"><ele>141.0</ele><time>2026-03-29T09:34:26.001Z</time></trkpt><trkpt lat="44.45204503690111" lon="8.994698849203925"><ele>141.0</ele><time>2026-03-29T09:34:28.001Z</time></trkpt><trkpt lat="44.452006248169795" lon="8.994587487569694"><ele>141.0</ele><time>2026-03-29T09:34:31.001Z</time></trkpt><trkpt lat="44.451991156487814" lon="8.994499108993972"><ele>141.0</ele><time>2026-03-29T09:34:33.001Z</time></trkpt><trkpt lat="44.45199903235739" lon="8.994410831977"><ele>141.0</ele><time>2026-03-29T09:34:35.001Z</time></trkpt><trkpt lat="44.45205309738411" lon="8.994345228030552"><ele>141.0</ele><time>2026-03-29T09:34:37.001Z</time></trkpt><trkpt lat="44.45212517235972" lon="8.994333375978913"><ele>141.0</ele><time>2026-03-29T09:34:39.002Z</time></trkpt><trkpt lat="44.452222366642246" lon="8.99433541039438"><ele>141.0</ele><time>2026-03-29T09:34:42.002Z</time></trkpt><trkpt lat="44.452306590362" lon="8.99433235771166"><ele>141.0</ele><time>2026-03-29T09:34:45.002Z</time></trkpt><trkpt lat="44.452402146992874" lon="8.994337588995954"><ele>141.0</ele><time>2026-03-29T09:34:48.002Z</time></trkpt><trkpt lat="44.452466069065665" lon="8.994350327038166"><ele>141.0</ele><time>2026-03-29T09:34:50.002Z</time></trkpt><trkpt lat="44.452557377326926" lon="8.994340687859895"><ele>141.0</ele><time>2026-03-29T09:34:53.002Z</time></trkpt><trkpt lat="44.45262742388526" lon="8.994322407368339"><ele>141.0</ele><time>2026-03-29T09:34:55.002Z</time></trkpt><trkpt lat="44.45270018973956" lon="8.994317341839466"><ele>141.0</ele><time>2026-03-29T09:34:57.002Z</time></trkpt><trkpt lat="44.452775588863375" lon="8.994301394978056"><ele>141.0</ele><time>2026-03-29T09:35:00.002Z</time></trkpt><trkpt lat="44.45285948326217" lon="8.994280754890966"><ele>141.0</ele><time>2026-03-29T09:35:03.002Z</time></trkpt><trkpt lat="44.45293418758939" lon="8.99423413889794"><ele>141.0</ele><time>2026-03-29T09:35:06.002Z</time></trkpt><trkpt lat="44.45301284652267" lon="8.994187466280563"><ele>141.0</ele><time>2026-03-29T09:35:12.003Z</time></trkpt><trkpt lat="44.45309959773797" lon="8.994161750056413"><ele>141.0</ele><time>2026-03-29T09:35:15.003Z</time></trkpt><trkpt lat="44.453178103406266" lon="8.994126306741652"><ele>141.0</ele><time>2026-03-29T09:35:17.003Z</time></trkpt><trkpt lat="44.4532527831096" lon="8.994092732930378"><ele>140.83333333333334</ele><time>2026-03-29T09:35:19.003Z</time></trkpt><trkpt lat="44.453325152332866" lon="8.994047921909962"><ele>140.66666666666666</ele><time>2026-03-29T09:35:21.003Z</time></trkpt><trkpt lat="44.45338963590934" lon="8.993986755440572"><ele>140.5</ele><time>2026-03-29T09:35:23.003Z</time></trkpt><trkpt lat="44.453453568381335" lon="8.993917063518447"><ele>140.33333333333331</ele><time>2026-03-29T09:35:25.003Z</time></trkpt><trkpt lat="44.45351389455191" lon="8.993864940436723"><ele>140.16666666666666</ele><time>2026-03-29T09:35:27.003Z</time></trkpt><trkpt lat="44.4535725465242" lon="8.99382724979638"><ele>140.0</ele><time>2026-03-29T09:35:29.003Z</time></trkpt><trkpt lat="44.45364833618683" lon="8.993768336840988"><ele>140.0</ele><time>2026-03-29T09:35:32.003Z</time></trkpt><trkpt lat="44.45373054656019" lon="8.993762545000916"><ele>140.0</ele><time>2026-03-29T09:35:35.003Z</time></trkpt><trkpt lat="44.45381851532066" lon="8.993780499677557"><ele>140.0</ele><time>2026-03-29T09:35:38.003Z</time></trkpt><trkpt lat="44.45389517832182" lon="8.993751969791514"><ele>140.0</ele><time>2026-03-29T09:35:41.998Z</time></trkpt><trkpt lat="44.45389950337965" lon="8.993639897900312"><ele>140.0</ele><time>2026-03-29T09:35:44.998Z</time></trkpt><trkpt lat="44.453863450773895" lon="8.99354380547892"><ele>140.0</ele><time>2026-03-29T09:35:47.999Z</time></trkpt><trkpt lat="44.45382749375607" lon="8.993460430940328"><ele>142.42857142857142</ele><time>2026-03-29T09:35:50.999Z</time></trkpt><trkpt lat="44.453809511230375" lon="8.993374956369816"><ele>144.85714285714286</ele><time>2026-03-29T09:36:06Z</time></trkpt><trkpt lat="44.45377199099173" lon="8.993303264152527"><ele>147.28571428571428</ele><time>2026-03-29T09:36:15Z</time></trkpt><trkpt lat="44.45371619211139" lon="8.993247354025542"><ele>149.71428571428572</ele><time>2026-03-29T09:36:24.001Z</time></trkpt><trkpt lat="44.45367773868672" lon="8.993173334303773"><ele>152.14285714285714</ele><time>2026-03-29T09:36:33.001Z</time></trkpt><trkpt lat="44.453673267561115" lon="8.993081479567545"><ele>154.57142857142856</ele><time>2026-03-29T09:36:41.001Z</time></trkpt><trkpt lat="44.45372812735926" lon="8.99301496238031"><ele>157.0</ele><time>2026-03-29T09:36:49.002Z</time></trkpt><trkpt lat="44.45378899442602" lon="8.992978658451682"><ele>157.0</ele><time>2026-03-29T09:36:56.002Z</time></trkpt><trkpt lat="44.45386363714007" lon="8.992970863180002"><ele>157.0</ele><time>2026-03-29T09:37:11.002Z</time></trkpt><trkpt lat="44.45393369498706" lon="8.992906289611062"><ele>157.0</ele><time>2026-03-29T09:37:33.003Z</time></trkpt><trkpt lat="44.45397046778991" lon="8.992817111858988"><ele>157.0</ele><time>2026-03-29T09:37:37.003Z</time></trkpt><trkpt lat="44.45400207877521" lon="8.992714930416465"><ele>157.0</ele><time>2026-03-29T09:37:42.003Z</time></trkpt><trkpt lat="44.454038493692494" lon="8.992616107642979"><ele>157.0</ele><time>2026-03-29T09:37:44.997Z</time></trkpt><trkpt lat="44.45407065486596" lon="8.992529309949841"><ele>154.7142857142857</ele><time>2026-03-29T09:37:46.998Z</time></trkpt><trkpt lat="44.45408530233441" lon="8.992433611276612"><ele>152.42857142857142</ele><time>2026-03-29T09:37:48.998Z</time></trkpt><trkpt lat="44.45409711299468" lon="8.99234334914804"><ele>150.14285714285714</ele><time>2026-03-29T09:37:50.998Z</time></trkpt><trkpt lat="44.454104776863616" lon="8.992231779329915"><ele>147.85714285714283</ele><time>2026-03-29T09:37:53.998Z</time></trkpt><trkpt lat="44.454107555932616" lon="8.992139864563422"><ele>145.57142857142856</ele><time>2026-03-29T09:37:56.999Z</time></trkpt><trkpt lat="44.45412751189284" lon="8.992019845810532"><ele>143.28571428571428</ele><time>2026-03-29T09:37:59.999Z</time></trkpt><trkpt lat="44.45414260353991" lon="8.991912686138525"><ele>141.0</ele><time>2026-03-29T09:38:02.999Z</time></trkpt><trkpt lat="44.454166511575124" lon="8.991825880772373"><ele>141.0</ele><time>2026-03-29T09:38:06.999Z</time></trkpt><trkpt lat="44.45419918035241" lon="8.991746963286381"><ele>141.0</ele><time>2026-03-29T09:38:12Z</time></trkpt><trkpt lat="44.45426518411966" lon="8.991675508696222"><ele>141.0</ele><time>2026-03-29T09:38:17Z</time></trkpt><trkpt lat="44.454350389258565" lon="8.991662897287783"><ele>141.0</ele><time>2026-03-29T09:38:20Z</time></trkpt><trkpt lat="44.454415531876926" lon="8.991705414142606"><ele>141.0</ele><time>2026-03-29T09:38:22Z</time></trkpt><trkpt lat="44.45447655524301" lon="8.991738768146101"><ele>141.0</ele><time>2026-03-29T09:38:24Z</time></trkpt><trkpt lat="44.45454550232399" lon="8.99175647731256"><ele>141.0</ele><time>2026-03-29T09:38:26.001Z</time></trkpt><trkpt lat="44.454614257102264" lon="8.991749716699953"><ele>142.57142857142858</ele><time>2026-03-29T09:38:28.001Z</time></trkpt><trkpt lat="44.45467967280159" lon="8.991730758155187"><ele>144.14285714285714</ele><time>2026-03-29T09:38:30.001Z</time></trkpt><trkpt lat="44.454744358834155" lon="8.991714776097544"><ele>145.71428571428572</ele><time>2026-03-29T09:38:32.001Z</time></trkpt><trkpt lat="44.454807829786894" lon="8.991715685149972"><ele>147.28571428571428</ele><time>2026-03-29T09:38:34.001Z</time></trkpt><trkpt lat="44.45490143048533" lon="8.9917135901775"><ele>148.85714285714286</ele><time>2026-03-29T09:38:37.001Z</time></trkpt><trkpt lat="44.45496658203643" lon="8.991703091884228"><ele>150.42857142857142</ele><time>2026-03-29T09:38:39.001Z</time></trkpt><trkpt lat="44.45502623196432" lon="8.991670255120965"><ele>152.0</ele><time>2026-03-29T09:38:41.001Z</time></trkpt><trkpt lat="44.45510839904016" lon="8.991625303814246"><ele>152.0</ele><time>2026-03-29T09:38:44.001Z</time></trkpt><trkpt lat="44.45517221551088" lon="8.991593071297517"><ele>152.0</ele><time>2026-03-29T09:38:47.001Z</time></trkpt><trkpt lat="44.4551992979768" lon="8.991496706711274"><ele>152.0</ele><time>2026-03-29T09:38:50.001Z</time></trkpt><trkpt lat="44.455136023549436" lon="8.99142331963106"><ele>152.0</ele><time>2026-03-29T09:38:54.002Z</time></trkpt><trkpt lat="44.455083213822505" lon="8.99132290202193"><ele>152.0</ele><time>2026-03-29T09:38:57.002Z</time></trkpt><trkpt lat="44.45504522241619" lon="8.991225345924173"><ele>152.0</ele><time>2026-03-29T09:38:59.002Z</time></trkpt><trkpt lat="44.455014077087675" lon="8.99113348083923"><ele>152.0</ele><time>2026-03-29T09:39:01.002Z</time></trkpt><trkpt lat="44.45498404222079" lon="8.99104017310201"><ele>152.0</ele><time>2026-03-29T09:39:03.002Z</time></trkpt><trkpt lat="44.45494249403298" lon="8.990964542257847"><ele>152.0</ele><time>2026-03-29T09:39:05.002Z</time></trkpt><trkpt lat="44.45491106861558" lon="8.990881058805396"><ele>152.0</ele><time>2026-03-29T09:39:07.002Z</time></trkpt><trkpt lat="44.45488698430534" lon="8.99079856263402"><ele>152.0</ele><time>2026-03-29T09:39:09.002Z</time></trkpt><trkpt lat="44.45487742395732" lon="8.99070111363796"><ele>152.0</ele><time>2026-03-29T09:39:11.002Z</time></trkpt><trkpt lat="44.454873856438866" lon="8.990593732734848"><ele>152.0</ele><time>2026-03-29T09:39:13.002Z</time></trkpt><trkpt lat="44.454851726550764" lon="8.990493787239892"><ele>150.5</ele><time>2026-03-29T09:39:15.002Z</time></trkpt><trkpt lat="44.45484424258852" lon="8.990388945463131"><ele>149.0</ele><time>2026-03-29T09:39:17.002Z</time></trkpt><trkpt lat="44.45487946132796" lon="8.990279240673646"><ele>147.5</ele><time>2026-03-29T09:39:19.002Z</time></trkpt><trkpt lat="44.454903004351344" lon="8.990180591790864"><ele>146.0</ele><time>2026-03-29T09:39:21.002Z</time></trkpt><trkpt lat="44.454937768208985" lon="8.99007992598095"><ele>144.5</ele><time>2026-03-29T09:39:23.002Z</time></trkpt><trkpt lat="44.454988090429964" lon="8.98999285587502"><ele>143.0</ele><time>2026-03-29T09:39:25.003Z</time></trkpt><trkpt lat="44.45505074529868" lon="8.98992135922341"><ele>141.0</ele><time>2026-03-29T09:39:27.003Z</time></trkpt><trkpt lat="44.45511131093334" lon="8.98986103586345"><ele>139.0</ele><time>2026-03-29T09:39:29.003Z</time></trkpt><trkpt lat="44.455186991296635" lon="8.989780099276604"><ele>137.0</ele><time>2026-03-29T09:39:32.003Z</time></trkpt><trkpt lat="44.455232545598605" lon="8.989700151112526"><ele>135.0</ele><time>2026-03-29T09:39:34.003Z</time></trkpt><trkpt lat="44.455265230409736" lon="8.989610560027415"><ele>133.0</ele><time>2026-03-29T09:39:36.003Z</time></trkpt><trkpt lat="44.45528971645799" lon="8.989514379643063"><ele>131.0</ele><time>2026-03-29T09:39:38.003Z</time></trkpt><trkpt lat="44.455320313771374" lon="8.989415311679515"><ele>131.0</ele><time>2026-03-29T09:39:40.003Z</time></trkpt><trkpt lat="44.45535441606996" lon="8.98931989995129"><ele>131.0</ele><time>2026-03-29T09:39:42.003Z</time></trkpt><trkpt lat="44.45538992087851" lon="8.98921715608791"><ele>131.0</ele><time>2026-03-29T09:39:44.003Z</time></trkpt><trkpt lat="44.4554277661519" lon="8.989120304892245"><ele>131.0</ele><time>2026-03-29T09:39:46.003Z</time></trkpt><trkpt lat="44.455454773628496" lon="8.989012063913778"><ele>131.0</ele><time>2026-03-29T09:39:48.003Z</time></trkpt><trkpt lat="44.45547602508496" lon="8.988902061565812"><ele>131.0</ele><time>2026-03-29T09:39:50.003Z</time></trkpt><trkpt lat="44.45549014286678" lon="8.988786526547685"><ele>131.85714285714286</ele><time>2026-03-29T09:39:51.997Z</time></trkpt><trkpt lat="44.45550626501587" lon="8.98868000897705"><ele>132.71428571428572</ele><time>2026-03-29T09:39:53.998Z</time></trkpt><trkpt lat="44.45551212042471" lon="8.988570110994361"><ele>133.57142857142858</ele><time>2026-03-29T09:39:55.998Z</time></trkpt><trkpt lat="44.45551975320499" lon="8.988461444610019"><ele>134.42857142857144</ele><time>2026-03-29T09:39:57.998Z</time></trkpt><trkpt lat="44.45552162127101" lon="8.98836981369912"><ele>135.28571428571428</ele><time>2026-03-29T09:39:59.998Z</time></trkpt><trkpt lat="44.45552520372622" lon="8.988268409339339"><ele>136.14285714285717</ele><time>2026-03-29T09:40:01.998Z</time></trkpt><trkpt lat="44.45552304099378" lon="8.988172005581708"><ele>137.0</ele><time>2026-03-29T09:40:03.999Z</time></trkpt><trkpt lat="44.45550677540566" lon="8.988078259697163"><ele>137.0</ele><time>2026-03-29T09:40:05.999Z</time></trkpt><trkpt lat="44.45549502463663" lon="8.987986142092854"><ele>137.0</ele><time>2026-03-29T09:40:07.999Z</time></trkpt><trkpt lat="44.45554617682301" lon="8.987879680241573"><ele>137.0</ele><time>2026-03-29T09:40:10.999Z</time></trkpt><trkpt lat="44.45559432456296" lon="8.9878172799579"><ele>137.0</ele><time>2026-03-29T09:40:12.999Z</time></trkpt><trkpt lat="44.45566640034726" lon="8.987736382482252"><ele>137.0</ele><time>2026-03-29T09:40:16Z</time></trkpt><trkpt lat="44.45573348969142" lon="8.98766271610598"><ele>137.0</ele><time>2026-03-29T09:40:19Z</time></trkpt><trkpt lat="44.45580693840072" lon="8.987601326992287"><ele>137.00000000000003</ele><time>2026-03-29T09:40:23Z</time></trkpt><trkpt lat="44.455867401223976" lon="8.987573976263214"><ele>137.0</ele><time>2026-03-29T09:40:26Z</time></trkpt><trkpt lat="44.45594697912504" lon="8.987515969484644"><ele>137.0</ele><time>2026-03-29T09:40:29Z</time></trkpt><trkpt lat="44.45600060789624" lon="8.987466866243306"><ele>137.0</ele><time>2026-03-29T09:40:31.001Z</time></trkpt><trkpt lat="44.456064529110186" lon="8.987418971639343"><ele>137.0</ele><time>2026-03-29T09:40:33.001Z</time></trkpt><trkpt lat="44.45611784290108" lon="8.987357701358675"><ele>137.00000000000003</ele><time>2026-03-29T09:40:35.001Z</time></trkpt><trkpt lat="44.45616614584319" lon="8.98727795671794"><ele>137.0</ele><time>2026-03-29T09:40:37.001Z</time></trkpt><trkpt lat="44.456220946714865" lon="8.98719931082334"><ele>137.42857142857144</ele><time>2026-03-29T09:40:39.001Z</time></trkpt><trkpt lat="44.45626461947977" lon="8.987128879609452"><ele>137.85714285714286</ele><time>2026-03-29T09:40:41.001Z</time></trkpt><trkpt lat="44.45632205676822" lon="8.987075842125194"><ele>138.28571428571428</ele><time>2026-03-29T09:40:43.001Z</time></trkpt><trkpt lat="44.456397057229935" lon="8.987040076889736"><ele>138.71428571428572</ele><time>2026-03-29T09:40:45.001Z</time></trkpt><trkpt lat="44.45647295299942" lon="8.987016211692323"><ele>139.14285714285714</ele><time>2026-03-29T09:40:47.001Z</time></trkpt><trkpt lat="44.45654148712766" lon="8.986987240938276"><ele>139.57142857142858</ele><time>2026-03-29T09:40:49.001Z</time></trkpt><trkpt lat="44.45661033104508" lon="8.986944758918145"><ele>140.0</ele><time>2026-03-29T09:40:51.001Z</time></trkpt><trkpt lat="44.456679361864204" lon="8.986897718887612"><ele>140.0</ele><time>2026-03-29T09:40:53.001Z</time></trkpt><trkpt lat="44.45674222770706" lon="8.986862089503973"><ele>140.0</ele><time>2026-03-29T09:40:55.001Z</time></trkpt><trkpt lat="44.456806463749224" lon="8.986836875617875"><ele>140.0</ele><time>2026-03-29T09:40:57.001Z</time></trkpt><trkpt lat="44.456875834307276" lon="8.98675869878126"><ele>140.0</ele><time>2026-03-29T09:41:00.002Z</time></trkpt><trkpt lat="44.45692426088755" lon="8.986687894430862"><ele>140.0</ele><time>2026-03-29T09:41:03.002Z</time></trkpt><trkpt lat="44.45697060019187" lon="8.986615347764342"><ele>140.0</ele><time>2026-03-29T09:41:06.002Z</time></trkpt><trkpt lat="44.457032797067605" lon="8.986519012424715"><ele>139.71428571428572</ele><time>2026-03-29T09:41:09.002Z</time></trkpt><trkpt lat="44.45707578576932" lon="8.9864398331071"><ele>139.42857142857144</ele><time>2026-03-29T09:41:11.002Z</time></trkpt><trkpt lat="44.45712569073317" lon="8.98636709319683"><ele>139.14285714285714</ele><time>2026-03-29T09:41:13.002Z</time></trkpt><trkpt lat="44.45717147533133" lon="8.9862964229175"><ele>138.85714285714286</ele><time>2026-03-29T09:41:15.002Z</time></trkpt><trkpt lat="44.45722318980622" lon="8.986234061676253"><ele>138.57142857142858</ele><time>2026-03-29T09:41:17.002Z</time></trkpt><trkpt lat="44.45729125982275" lon="8.986165905238499"><ele>138.28571428571428</ele><time>2026-03-29T09:41:20.002Z</time></trkpt><trkpt lat="44.457364131780714" lon="8.9861557229943"><ele>138.0</ele><time>2026-03-29T09:41:23.002Z</time></trkpt><trkpt lat="44.457448081008415" lon="8.98614946701537"><ele>138.0</ele><time>2026-03-29T09:41:26.002Z</time></trkpt><trkpt lat="44.45752928238856" lon="8.986190069378285"><ele>138.0</ele><time>2026-03-29T09:41:29.002Z</time></trkpt><trkpt lat="44.457599982558996" lon="8.986223841256397"><ele>138.0</ele><time>2026-03-29T09:41:32.003Z</time></trkpt><trkpt lat="44.45766818838354" lon="8.98628245446565"><ele>138.0</ele><time>2026-03-29T09:41:35.003Z</time></trkpt><trkpt lat="44.45768974606956" lon="8.986372885476136"><ele>138.0</ele><time>2026-03-29T09:41:40.003Z</time></trkpt><trkpt lat="44.45762559048611" lon="8.986440374394679"><ele>138.0</ele><time>2026-03-29T09:41:44.003Z</time></trkpt><trkpt lat="44.45757441988327" lon="8.986501105295767"><ele>138.0</ele><time>2026-03-29T09:41:47.003Z</time></trkpt><trkpt lat="44.45751511117387" lon="8.986540494675024"><ele>138.0</ele><time>2026-03-29T09:41:49.003Z</time></trkpt><trkpt lat="44.45745445004364" lon="8.986635231768226"><ele>138.0</ele><time>2026-03-29T09:41:52.003Z</time></trkpt><trkpt lat="44.45741955071447" lon="8.986741185068839"><ele>138.0</ele><time>2026-03-29T09:41:56.003Z</time></trkpt><trkpt lat="44.45738276613819" lon="8.986834389228946"><ele>138.0</ele><time>2026-03-29T09:41:58.998Z</time></trkpt><trkpt lat="44.4573355001575" lon="8.986907310845854"><ele>138.0</ele><time>2026-03-29T09:42:00.998Z</time></trkpt><trkpt lat="44.45731496542248" lon="8.986997058047589"><ele>138.28571428571428</ele><time>2026-03-29T09:42:04.998Z</time></trkpt><trkpt lat="44.45727224723554" lon="8.987068449479134"><ele>138.57142857142858</ele><time>2026-03-29T09:42:09.999Z</time></trkpt><trkpt lat="44.45723002539661" lon="8.98715206032747"><ele>138.85714285714286</ele><time>2026-03-29T09:42:13.999Z</time></trkpt><trkpt lat="44.457187975814676" lon="8.987226433611177"><ele>139.14285714285714</ele><time>2026-03-29T09:42:16.999Z</time></trkpt><trkpt lat="44.45714600852945" lon="8.987307272493847"><ele>139.42857142857144</ele><time>2026-03-29T09:42:19.999Z</time></trkpt><trkpt lat="44.45709568700251" lon="8.98738545335851"><ele>139.71428571428572</ele><time>2026-03-29T09:42:23Z</time></trkpt><trkpt lat="44.45705110982214" lon="8.987474834381072"><ele>140.0</ele><time>2026-03-29T09:42:26Z</time></trkpt><trkpt lat="44.45700170689625" lon="8.987560464877744"><ele>141.0</ele><time>2026-03-29T09:42:29Z</time></trkpt><trkpt lat="44.456949106596916" lon="8.987642396442798"><ele>142.0</ele><time>2026-03-29T09:42:32Z</time></trkpt><trkpt lat="44.4568893837792" lon="8.987705968107937"><ele>143.0</ele><time>2026-03-29T09:42:35Z</time></trkpt><trkpt lat="44.45684674335822" lon="8.98778620032309"><ele>144.0</ele><time>2026-03-29T09:42:38.001Z</time></trkpt><trkpt lat="44.45680479333064" lon="8.987858288739123"><ele>145.0</ele><time>2026-03-29T09:42:41.001Z</time></trkpt><trkpt lat="44.456750704743015" lon="8.987930412140265"><ele>146.0</ele><time>2026-03-29T09:42:45.001Z</time></trkpt><trkpt lat="44.4567022852725" lon="8.987989420392749"><ele>147.0</ele><time>2026-03-29T09:42:49.001Z</time></trkpt><trkpt lat="44.45665039432339" lon="8.988061026161738"><ele>147.0</ele><time>2026-03-29T09:42:53.001Z</time></trkpt><trkpt lat="44.45661609543417" lon="8.988148715178781"><ele>147.0</ele><time>2026-03-29T09:42:57.001Z</time></trkpt><trkpt lat="44.456573550407064" lon="8.988214714477234"><ele>147.0</ele><time>2026-03-29T09:43:00.001Z</time></trkpt><trkpt lat="44.45653937148872" lon="8.988297585950104"><ele>147.0</ele><time>2026-03-29T09:43:04.001Z</time></trkpt><trkpt lat="44.45649192734151" lon="8.988379086295469"><ele>147.0</ele><time>2026-03-29T09:43:08.002Z</time></trkpt><trkpt lat="44.45648061956976" lon="8.988468452402593"><ele>147.0</ele><time>2026-03-29T09:43:12.002Z</time></trkpt><trkpt lat="44.45642997007474" lon="8.988539005492612"><ele>147.0</ele><time>2026-03-29T09:43:16.002Z</time></trkpt><trkpt lat="44.45637710240194" lon="8.988604508424737"><ele>146.85714285714286</ele><time>2026-03-29T09:43:21.002Z</time></trkpt><trkpt lat="44.45632004587369" lon="8.988658229178187"><ele>146.71428571428572</ele><time>2026-03-29T09:43:26.002Z</time></trkpt><trkpt lat="44.45627498467857" lon="8.988731937456727"><ele>146.57142857142856</ele><time>2026-03-29T09:43:31.002Z</time></trkpt><trkpt lat="44.456335933405356" lon="8.988693115540432"><ele>146.42857142857144</ele><time>2026-03-29T09:49:55.002Z</time></trkpt><trkpt lat="44.45638066280768" lon="8.988624972705965"><ele>146.28571428571428</ele><time>2026-03-29T09:50:01.003Z</time></trkpt><trkpt lat="44.45641965145257" lon="8.988554877426688"><ele>146.14285714285714</ele><time>2026-03-29T09:50:05.003Z</time></trkpt><trkpt lat="44.45648122786893" lon="8.988460205159594"><ele>146.0</ele><time>2026-03-29T09:50:09.003Z</time></trkpt><trkpt lat="44.456527034876224" lon="8.988386939575943"><ele>146.16666666666666</ele><time>2026-03-29T09:50:11.003Z</time></trkpt><trkpt lat="44.456591167883516" lon="8.988299442954085"><ele>146.33333333333331</ele><time>2026-03-29T09:50:13.003Z</time></trkpt><trkpt lat="44.456618434960475" lon="8.98820981541937"><ele>146.5</ele><time>2026-03-29T09:50:15.003Z</time></trkpt><trkpt lat="44.45666426789876" lon="8.988143803624123"><ele>146.66666666666666</ele><time>2026-03-29T09:50:18.003Z</time></trkpt><trkpt lat="44.456714023285095" lon="8.988052604809443"><ele>146.83333333333334</ele><time>2026-03-29T09:50:21.998Z</time></trkpt><trkpt lat="44.45678530084551" lon="8.987989549618153"><ele>147.0</ele><time>2026-03-29T09:50:23.999Z</time></trkpt><trkpt lat="44.45684053376439" lon="8.987891801414643"><ele>147.0</ele><time>2026-03-29T09:50:26.999Z</time></trkpt><trkpt lat="44.45689763812491" lon="8.98778877909446"><ele>147.0</ele><time>2026-03-29T09:50:28.999Z</time></trkpt><trkpt lat="44.45696464891484" lon="8.987670451145588"><ele>147.0</ele><time>2026-03-29T09:50:30.999Z</time></trkpt><trkpt lat="44.457034057372404" lon="8.98754620303804"><ele>147.0</ele><time>2026-03-29T09:50:32.999Z</time></trkpt><trkpt lat="44.457106884574564" lon="8.987436614960435"><ele>147.0</ele><time>2026-03-29T09:50:34.999Z</time></trkpt><trkpt lat="44.45716485474395" lon="8.987329547211091"><ele>147.66666666666666</ele><time>2026-03-29T09:50:36.999Z</time></trkpt><trkpt lat="44.45723076003306" lon="8.98723383325399"><ele>148.33333333333334</ele><time>2026-03-29T09:50:38.999Z</time></trkpt><trkpt lat="44.457289645346926" lon="8.987138742780514"><ele>149.0</ele><time>2026-03-29T09:50:41Z</time></trkpt><trkpt lat="44.457343982469865" lon="8.98706644911282"><ele>149.66666666666669</ele><time>2026-03-29T09:50:43Z</time></trkpt><trkpt lat="44.45740409448062" lon="8.987018549639755"><ele>150.33333333333334</ele><time>2026-03-29T09:50:45Z</time></trkpt><trkpt lat="44.457476711911504" lon="8.986926487545263"><ele>151.0</ele><time>2026-03-29T09:50:48Z</time></trkpt><trkpt lat="44.45753715755091" lon="8.986874084827841"><ele>151.00000000000003</ele><time>2026-03-29T09:50:50Z</time></trkpt><trkpt lat="44.45759430933767" lon="8.98681920430225"><ele>151.0</ele><time>2026-03-29T09:50:52Z</time></trkpt><trkpt lat="44.45764845005869" lon="8.986767279346452"><ele>151.0</ele><time>2026-03-29T09:50:54Z</time></trkpt><trkpt lat="44.4577076676434" lon="8.98671595560982"><ele>151.0</ele><time>2026-03-29T09:50:56Z</time></trkpt><trkpt lat="44.457773059020035" lon="8.986666574704763"><ele>151.0</ele><time>2026-03-29T09:50:58Z</time></trkpt><trkpt lat="44.45783453588603" lon="8.986622063640418"><ele>151.00000000000003</ele><time>2026-03-29T09:51:00.001Z</time></trkpt><trkpt lat="44.45789114233933" lon="8.986580731692126"><ele>151.0</ele><time>2026-03-29T09:51:02.001Z</time></trkpt><trkpt lat="44.45795239113927" lon="8.98653945463337"><ele>151.16666666666669</ele><time>2026-03-29T09:51:04.001Z</time></trkpt><trkpt lat="44.45802670794683" lon="8.986488738608413"><ele>151.33333333333334</ele><time>2026-03-29T09:51:07.001Z</time></trkpt><trkpt lat="44.458080899345966" lon="8.98640826043452"><ele>151.5</ele><time>2026-03-29T09:51:10.001Z</time></trkpt><trkpt lat="44.45811132805541" lon="8.986315341745694"><ele>151.66666666666666</ele><time>2026-03-29T09:51:13.001Z</time></trkpt><trkpt lat="44.45812854568427" lon="8.986214679068658"><ele>151.83333333333331</ele><time>2026-03-29T09:51:16.001Z</time></trkpt><trkpt lat="44.458149386469564" lon="8.986108499227507"><ele>152.0</ele><time>2026-03-29T09:51:19.001Z</time></trkpt><trkpt lat="44.45817873364782" lon="8.986006454214818"><ele>152.0</ele><time>2026-03-29T09:51:22.001Z</time></trkpt><trkpt lat="44.45821872394979" lon="8.985905737065991"><ele>152.0</ele><time>2026-03-29T09:51:25.001Z</time></trkpt><trkpt lat="44.45826435700307" lon="8.985809701209837"><ele>152.0</ele><time>2026-03-29T09:51:28.002Z</time></trkpt><trkpt lat="44.458317063546325" lon="8.9857239961622"><ele>152.0</ele><time>2026-03-29T09:51:31.002Z</time></trkpt><trkpt lat="44.45837501954277" lon="8.985640528295836"><ele>152.0</ele><time>2026-03-29T09:51:34.002Z</time></trkpt><trkpt lat="44.45842485219081" lon="8.9855448657462"><ele>152.0</ele><time>2026-03-29T09:51:37.002Z</time></trkpt><trkpt lat="44.45845898056403" lon="8.98546506918789"><ele>151.0</ele><time>2026-03-29T09:51:39.002Z</time></trkpt><trkpt lat="44.45850901585413" lon="8.985381088186124"><ele>150.0</ele><time>2026-03-29T09:51:42.002Z</time></trkpt><trkpt lat="44.45857218135692" lon="8.985438090747792"><ele>149.0</ele><time>2026-03-29T09:51:45.002Z</time></trkpt><trkpt lat="44.45863979538552" lon="8.985456207085202"><ele>148.0</ele><time>2026-03-29T09:51:48.002Z</time></trkpt><trkpt lat="44.458713581693125" lon="8.98541329929356"><ele>147.0</ele><time>2026-03-29T09:51:51.002Z</time></trkpt><trkpt lat="44.458763862385084" lon="8.985312135622038"><ele>146.0</ele><time>2026-03-29T09:51:54.002Z</time></trkpt><trkpt lat="44.45881130735285" lon="8.985215115352446"><ele>146.83333333333331</ele><time>2026-03-29T09:51:57.002Z</time></trkpt><trkpt lat="44.458854231860364" lon="8.985122046313387"><ele>147.66666666666666</ele><time>2026-03-29T09:52:00.003Z</time></trkpt><trkpt lat="44.458904592621685" lon="8.985035186170236"><ele>148.5</ele><time>2026-03-29T09:52:03.003Z</time></trkpt><trkpt lat="44.458965174338495" lon="8.984969573112231"><ele>149.33333333333334</ele><time>2026-03-29T09:52:06.003Z</time></trkpt><trkpt lat="44.45903086971753" lon="8.984914126090903"><ele>150.16666666666669</ele><time>2026-03-29T09:52:09.003Z</time></trkpt><trkpt lat="44.45910110163863" lon="8.98486474747135"><ele>151.0</ele><time>2026-03-29T09:52:12.003Z</time></trkpt><trkpt lat="44.459168724664806" lon="8.984833500327865"><ele>151.00000000000003</ele><time>2026-03-29T09:52:15.003Z</time></trkpt><trkpt lat="44.45923031211724" lon="8.984788891235628"><ele>151.0</ele><time>2026-03-29T09:52:18.003Z</time></trkpt><trkpt lat="44.45929296653599" lon="8.98474568941037"><ele>151.0</ele><time>2026-03-29T09:52:21.003Z</time></trkpt><trkpt lat="44.45935084616019" lon="8.984707926645955"><ele>151.0</ele><time>2026-03-29T09:52:24.003Z</time></trkpt><trkpt lat="44.4594307645058" lon="8.984683803407222"><ele>151.0</ele><time>2026-03-29T09:52:27.998Z</time></trkpt><trkpt lat="44.45949440374455" lon="8.984688441690569"><ele>151.00000000000003</ele><time>2026-03-29T09:52:30.998Z</time></trkpt><trkpt lat="44.459559133947074" lon="8.984694193931114"><ele>151.0</ele><time>2026-03-29T09:52:33.999Z</time></trkpt><trkpt lat="44.45963822331565" lon="8.98470074312716"><ele>153.16666666666669</ele><time>2026-03-29T09:52:37.999Z</time></trkpt><trkpt lat="44.459716608548554" lon="8.984703624092544"><ele>155.33333333333334</ele><time>2026-03-29T09:52:41.999Z</time></trkpt><trkpt lat="44.4597937926761" lon="8.984698553447261"><ele>157.5</ele><time>2026-03-29T09:52:45.999Z</time></trkpt><trkpt lat="44.45987162130684" lon="8.984676775226811"><ele>159.66666666666666</ele><time>2026-03-29T09:52:50Z</time></trkpt><trkpt lat="44.45993723323988" lon="8.984628643415167"><ele>161.83333333333331</ele><time>2026-03-29T09:52:54Z</time></trkpt><trkpt lat="44.45999798889643" lon="8.984574140030858"><ele>164.0</ele><time>2026-03-29T09:52:58Z</time></trkpt><trkpt lat="44.460057974222984" lon="8.984516264951827"><ele>163.99999999999997</ele><time>2026-03-29T09:53:02Z</time></trkpt><trkpt lat="44.460123252793394" lon="8.98446745322911"><ele>164.0</ele><time>2026-03-29T09:53:06.001Z</time></trkpt><trkpt lat="44.460177286790795" lon="8.984416832695432"><ele>164.0</ele><time>2026-03-29T09:53:10.001Z</time></trkpt><trkpt lat="44.46023300002377" lon="8.984353971793022"><ele>164.0</ele><time>2026-03-29T09:53:14.001Z</time></trkpt><trkpt lat="44.46029982101563" lon="8.98431766304331"><ele>164.0</ele><time>2026-03-29T09:53:18.001Z</time></trkpt><trkpt lat="44.460377829518414" lon="8.98433475432865"><ele>163.99999999999997</ele><time>2026-03-29T09:53:22.001Z</time></trkpt><trkpt lat="44.460437094216196" lon="8.984388456601476"><ele>164.0</ele><time>2026-03-29T09:53:26.001Z</time></trkpt><trkpt lat="44.460467638434764" lon="8.984477987725448"><ele>163.99999999999997</ele><time>2026-03-29T09:53:30.001Z</time></trkpt><trkpt lat="44.460468483075715" lon="8.98459110103058"><ele>164.0</ele><time>2026-03-29T09:53:34.002Z</time></trkpt><trkpt lat="44.46043627391268" lon="8.984678596998416"><ele>164.0</ele><time>2026-03-29T09:53:38.002Z</time></trkpt><trkpt lat="44.46039020974062" lon="8.984740040186706"><ele>164.0</ele><time>2026-03-29T09:53:42.002Z</time></trkpt><trkpt lat="44.46034855531684" lon="8.984806421390251"><ele>164.0</ele><time>2026-03-29T09:53:46.002Z</time></trkpt><trkpt lat="44.460294641234455" lon="8.984860057965758"><ele>163.99999999999997</ele><time>2026-03-29T09:53:50.002Z</time></trkpt><trkpt lat="44.46023902343767" lon="8.984918773755874"><ele>164.0</ele><time>2026-03-29T09:53:54.002Z</time></trkpt><trkpt lat="44.46017932743543" lon="8.984987357777221"><ele>165.83333333333331</ele><time>2026-03-29T09:53:58.002Z</time></trkpt><trkpt lat="44.4601233713783" lon="8.985052363578221"><ele>167.66666666666666</ele><time>2026-03-29T09:54:02.002Z</time></trkpt><trkpt lat="44.46006738281257" lon="8.985120523640253"><ele>169.5</ele><time>2026-03-29T09:54:06.003Z</time></trkpt><trkpt lat="44.460010531704825" lon="8.985198778962404"><ele>171.33333333333334</ele><time>2026-03-29T09:54:10.003Z</time></trkpt><trkpt lat="44.45993795387707" lon="8.985249889964082"><ele>173.16666666666669</ele><time>2026-03-29T09:54:14.003Z</time></trkpt><trkpt lat="44.45987890466741" lon="8.985316705513375"><ele>175.0</ele><time>2026-03-29T09:54:18.003Z</time></trkpt><trkpt lat="44.45980033803282" lon="8.98534382994308"><ele>175.0</ele><time>2026-03-29T09:54:22.003Z</time></trkpt><trkpt lat="44.45972729068589" lon="8.985387667703634"><ele>175.0</ele><time>2026-03-29T09:54:26.003Z</time></trkpt><trkpt lat="44.45968884061071" lon="8.985481893253775"><ele>175.0</ele><time>2026-03-29T09:54:30.003Z</time></trkpt><trkpt lat="44.45971868940115" lon="8.985587245958028"><ele>175.0</ele><time>2026-03-29T09:54:33.998Z</time></trkpt><trkpt lat="44.45979617665347" lon="8.98561322688846"><ele>175.0</ele><time>2026-03-29T09:54:37.998Z</time></trkpt><trkpt lat="44.459870293893246" lon="8.985609025889834"><ele>175.0</ele><time>2026-03-29T09:54:41.999Z</time></trkpt><trkpt lat="44.45994885961522" lon="8.98558288968202"><ele>175.0</ele><time>2026-03-29T09:54:45.999Z</time></trkpt><trkpt lat="44.46002419612171" lon="8.985553354062409"><ele>175.0</ele><time>2026-03-29T09:54:49.999Z</time></trkpt><trkpt lat="44.46009815054874" lon="8.985510944424544"><ele>175.0</ele><time>2026-03-29T09:54:54Z</time></trkpt><trkpt lat="44.460158916709005" lon="8.98548027867172"><ele>175.0</ele><time>2026-03-29T09:54:57Z</time></trkpt><trkpt lat="44.46022329744165" lon="8.985478417899454"><ele>175.0</ele><time>2026-03-29T09:55:00Z</time></trkpt><trkpt lat="44.460288855149614" lon="8.985488462183724"><ele>175.0</ele><time>2026-03-29T09:55:03Z</time></trkpt><trkpt lat="44.46034987294166" lon="8.985522371009903"><ele>175.0</ele><time>2026-03-29T09:55:06Z</time></trkpt><trkpt lat="44.46042746962637" lon="8.98556793743349"><ele>175.0</ele><time>2026-03-29T09:55:10Z</time></trkpt><trkpt lat="44.460498538798504" lon="8.985628087813089"><ele>175.0</ele><time>2026-03-29T09:55:14.001Z</time></trkpt><trkpt lat="44.46055348571188" lon="8.985673293869121"><ele>175.0</ele><time>2026-03-29T09:55:17.001Z</time></trkpt><trkpt lat="44.46061138794324" lon="8.98571703367537"><ele>175.0</ele><time>2026-03-29T09:55:20.001Z</time></trkpt><trkpt lat="44.46066727350832" lon="8.985768568358495"><ele>175.0</ele><time>2026-03-29T09:55:23.001Z</time></trkpt><trkpt lat="44.46072006443683" lon="8.985826741892408"><ele>175.0</ele><time>2026-03-29T09:55:26.001Z</time></trkpt><trkpt lat="44.46077744673769" lon="8.985884729254433"><ele>175.0</ele><time>2026-03-29T09:55:29.001Z</time></trkpt><trkpt lat="44.46083259432103" lon="8.985940586578995"><ele>177.0</ele><time>2026-03-29T09:55:32.001Z</time></trkpt><trkpt lat="44.4608865391832" lon="8.986000256651273"><ele>179.0</ele><time>2026-03-29T09:55:35.001Z</time></trkpt><trkpt lat="44.46094411933081" lon="8.986054904650695"><ele>181.0</ele><time>2026-03-29T09:55:38.002Z</time></trkpt><trkpt lat="44.460991927355344" lon="8.986120996092943"><ele>183.0</ele><time>2026-03-29T09:55:41.002Z</time></trkpt><trkpt lat="44.46105675703418" lon="8.98619615636982"><ele>185.0</ele><time>2026-03-29T09:55:45.002Z</time></trkpt><trkpt lat="44.461122854748716" lon="8.986264468661014"><ele>187.0</ele><time>2026-03-29T09:55:49.002Z</time></trkpt><trkpt lat="44.461190682604844" lon="8.986331396307387"><ele>187.0</ele><time>2026-03-29T09:55:53.002Z</time></trkpt><trkpt lat="44.46125845141095" lon="8.986394293790603"><ele>187.0</ele><time>2026-03-29T09:55:57.002Z</time></trkpt><trkpt lat="44.46130680890163" lon="8.986478606849003"><ele>187.0</ele><time>2026-03-29T09:56:01.002Z</time></trkpt><trkpt lat="44.461355042015285" lon="8.986560005628078"><ele>187.0</ele><time>2026-03-29T09:56:05.002Z</time></trkpt><trkpt lat="44.46139680044322" lon="8.986638490316578"><ele>187.0</ele><time>2026-03-29T09:56:09.002Z</time></trkpt><trkpt lat="44.461441025988215" lon="8.986720093568694"><ele>187.0</ele><time>2026-03-29T09:56:13.003Z</time></trkpt><trkpt lat="44.46148255170119" lon="8.986809651434301"><ele>187.28571428571428</ele><time>2026-03-29T09:56:17.003Z</time></trkpt><trkpt lat="44.461522452557645" lon="8.986891774415497"><ele>187.57142857142858</ele><time>2026-03-29T09:56:21.003Z</time></trkpt><trkpt lat="44.46154285242753" lon="8.986982353969632"><ele>187.85714285714286</ele><time>2026-03-29T09:56:25.003Z</time></trkpt><trkpt lat="44.46155307275144" lon="8.987088674889005"><ele>188.14285714285714</ele><time>2026-03-29T09:56:30.003Z</time></trkpt><trkpt lat="44.46155872858633" lon="8.987179410045897"><ele>188.42857142857144</ele><time>2026-03-29T09:56:34.003Z</time></trkpt><trkpt lat="44.46154740831722" lon="8.987290599355688"><ele>188.71428571428572</ele><time>2026-03-29T09:56:38.998Z</time></trkpt><trkpt lat="44.46153361267676" lon="8.987389069575807"><ele>189.0</ele><time>2026-03-29T09:56:42.998Z</time></trkpt><trkpt lat="44.46150610983347" lon="8.987486996710523"><ele>189.66666666666666</ele><time>2026-03-29T09:56:46.998Z</time></trkpt><trkpt lat="44.461483440140356" lon="8.987592138523915"><ele>190.33333333333331</ele><time>2026-03-29T09:56:50.999Z</time></trkpt><trkpt lat="44.46145649202229" lon="8.987690315311573"><ele>191.0</ele><time>2026-03-29T09:56:54.999Z</time></trkpt><trkpt lat="44.46143359162544" lon="8.987780166255883"><ele>191.66666666666666</ele><time>2026-03-29T09:56:58.999Z</time></trkpt><trkpt lat="44.461405723641036" lon="8.987882367558942"><ele>192.33333333333331</ele><time>2026-03-29T09:57:03Z</time></trkpt><trkpt lat="44.46137020599026" lon="8.987985263580017"><ele>193.0</ele><time>2026-03-29T09:57:07Z</time></trkpt><trkpt lat="44.46134641476943" lon="8.988101459898385"><ele>193.00000000000003</ele><time>2026-03-29T09:57:11Z</time></trkpt><trkpt lat="44.46133577366493" lon="8.988196407137485"><ele>193.0</ele><time>2026-03-29T09:57:14Z</time></trkpt><trkpt lat="44.46131509840349" lon="8.988292692568878"><ele>193.0</ele><time>2026-03-29T09:57:17Z</time></trkpt><trkpt lat="44.461294909992176" lon="8.988383983387193"><ele>193.0</ele><time>2026-03-29T09:57:20.001Z</time></trkpt><trkpt lat="44.46127580648727" lon="8.98848371386562"><ele>193.0</ele><time>2026-03-29T09:57:23.001Z</time></trkpt><trkpt lat="44.46125177301756" lon="8.988573638616908"><ele>193.00000000000003</ele><time>2026-03-29T09:57:26.001Z</time></trkpt><trkpt lat="44.4612290853391" lon="8.988671417159722"><ele>193.0</ele><time>2026-03-29T09:57:29.001Z</time></trkpt><trkpt lat="44.4612037542708" lon="8.988766772087056"><ele>194.57142857142858</ele><time>2026-03-29T09:57:32.001Z</time></trkpt><trkpt lat="44.46117397161175" lon="8.988860414051965"><ele>196.14285714285714</ele><time>2026-03-29T09:57:35.001Z</time></trkpt><trkpt lat="44.46115461271393" lon="8.988962238947405"><ele>197.71428571428572</ele><time>2026-03-29T09:57:38.001Z</time></trkpt><trkpt lat="44.4611236844008" lon="8.98905325299211"><ele>199.28571428571428</ele><time>2026-03-29T09:57:41.001Z</time></trkpt><trkpt lat="44.46111101858702" lon="8.989154206470953"><ele>200.85714285714286</ele><time>2026-03-29T09:57:44.001Z</time></trkpt><trkpt lat="44.46108726765615" lon="8.989251927581389"><ele>202.42857142857144</ele><time>2026-03-29T09:57:47.002Z</time></trkpt><trkpt lat="44.461069379526855" lon="8.989353112596305"><ele>204.0</ele><time>2026-03-29T09:57:50.002Z</time></trkpt><trkpt lat="44.461067363931384" lon="8.989456130450126"><ele>204.5</ele><time>2026-03-29T09:57:53.002Z</time></trkpt><trkpt lat="44.461069382682794" lon="8.989552912825596"><ele>205.0</ele><time>2026-03-29T09:57:56.002Z</time></trkpt><trkpt lat="44.46108421797791" lon="8.989665814598906"><ele>205.5</ele><time>2026-03-29T09:57:59.002Z</time></trkpt><trkpt lat="44.461115218953935" lon="8.989769394733525"><ele>206.0</ele><time>2026-03-29T09:58:02.002Z</time></trkpt><trkpt lat="44.46114487195495" lon="8.989874438203186"><ele>206.5</ele><time>2026-03-29T09:58:05.002Z</time></trkpt><trkpt lat="44.46117527012357" lon="8.989990195862331"><ele>207.0</ele><time>2026-03-29T09:58:08.002Z</time></trkpt><trkpt lat="44.461207947127306" lon="8.990113771359004"><ele>207.71428571428572</ele><time>2026-03-29T09:58:11.002Z</time></trkpt><trkpt lat="44.461231961720614" lon="8.990209047970795"><ele>208.42857142857144</ele><time>2026-03-29T09:58:13.002Z</time></trkpt><trkpt lat="44.46125581170252" lon="8.9903034043344"><ele>209.14285714285717</ele><time>2026-03-29T09:58:15.002Z</time></trkpt><trkpt lat="44.46127800581989" lon="8.990392718476997"><ele>209.85714285714286</ele><time>2026-03-29T09:58:17.003Z</time></trkpt><trkpt lat="44.4612960159047" lon="8.990501058671944"><ele>210.57142857142856</ele><time>2026-03-29T09:58:20.003Z</time></trkpt><trkpt lat="44.461287472476364" lon="8.990610269408931"><ele>211.2857142857143</ele><time>2026-03-29T09:58:23.003Z</time></trkpt><trkpt lat="44.46129321021662" lon="8.99070592252353"><ele>212.0</ele><time>2026-03-29T09:58:26.003Z</time></trkpt><trkpt lat="44.461314380087586" lon="8.990833688490442"><ele>209.33333333333334</ele><time>2026-03-29T09:58:29.003Z</time></trkpt><trkpt lat="44.46131980984058" lon="8.99092424413155"><ele>206.66666666666669</ele><time>2026-03-29T09:58:31.003Z</time></trkpt><trkpt lat="44.46133432468364" lon="8.991049666829253"><ele>204.0</ele><time>2026-03-29T09:58:34.003Z</time></trkpt><trkpt lat="44.461344296529475" lon="8.991175258658947"><ele>201.33333333333331</ele><time>2026-03-29T09:58:37.003Z</time></trkpt><trkpt lat="44.46135120193604" lon="8.991294096949272"><ele>198.66666666666666</ele><time>2026-03-29T09:58:40.003Z</time></trkpt><trkpt lat="44.46135903429929" lon="8.99142190653247"><ele>196.0</ele><time>2026-03-29T09:58:43.003Z</time></trkpt><trkpt lat="44.461364495368024" lon="8.99153580948672"><ele>196.0</ele><time>2026-03-29T09:58:45.998Z</time></trkpt><trkpt lat="44.46136399096132" lon="8.991637103785546"><ele>196.0</ele><time>2026-03-29T09:58:48.999Z</time></trkpt><trkpt lat="44.46136724632517" lon="8.991744548250278"><ele>196.0</ele><time>2026-03-29T09:58:51.999Z</time></trkpt><trkpt lat="44.46137538973852" lon="8.991848850375627"><ele>196.0</ele><time>2026-03-29T09:58:54.999Z</time></trkpt><trkpt lat="44.461378709026036" lon="8.991947513944066"><ele>196.0</ele><time>2026-03-29T09:58:57.999Z</time></trkpt><trkpt lat="44.46137053401527" lon="8.992050463563285"><ele>196.0</ele><time>2026-03-29T09:59:00.999Z</time></trkpt><trkpt lat="44.461358980752074" lon="8.992140228939105"><ele>196.0</ele><time>2026-03-29T09:59:04Z</time></trkpt><trkpt lat="44.461342857465965" lon="8.99226235490267"><ele>197.16666666666666</ele><time>2026-03-29T09:59:08Z</time></trkpt><trkpt lat="44.46131839057183" lon="8.992356238154505"><ele>198.33333333333331</ele><time>2026-03-29T09:59:11Z</time></trkpt><trkpt lat="44.461295851360255" lon="8.992482119017922"><ele>199.5</ele><time>2026-03-29T09:59:14Z</time></trkpt><trkpt lat="44.46128771330789" lon="8.992573446640172"><ele>200.66666666666669</ele><time>2026-03-29T09:59:16Z</time></trkpt><trkpt lat="44.461303945420475" lon="8.992663524593338"><ele>201.83333333333334</ele><time>2026-03-29T09:59:18Z</time></trkpt><trkpt lat="44.46135273465924" lon="8.99277094379138"><ele>203.0</ele><time>2026-03-29T09:59:21.001Z</time></trkpt><trkpt lat="44.46141193223099" lon="8.992864146786237"><ele>204.50000000000003</ele><time>2026-03-29T09:59:24.001Z</time></trkpt><trkpt lat="44.46145399921014" lon="8.992935087222527"><ele>206.0</ele><time>2026-03-29T09:59:26.001Z</time></trkpt><trkpt lat="44.46151588510046" lon="8.993034730209624"><ele>207.5</ele><time>2026-03-29T09:59:29.001Z</time></trkpt><trkpt lat="44.46156708355883" lon="8.993087259394262"><ele>209.0</ele><time>2026-03-29T09:59:31.001Z</time></trkpt><trkpt lat="44.461611753643034" lon="8.993150738058658"><ele>210.50000000000003</ele><time>2026-03-29T09:59:33.001Z</time></trkpt><trkpt lat="44.461669054452884" lon="8.993245729215717"><ele>212.0</ele><time>2026-03-29T09:59:36.001Z</time></trkpt><trkpt lat="44.46171880441324" lon="8.993340093205896"><ele>216.00000000000003</ele><time>2026-03-29T09:59:39.001Z</time></trkpt><trkpt lat="44.46176460622997" lon="8.993441041892693"><ele>220.0</ele><time>2026-03-29T09:59:42.001Z</time></trkpt><trkpt lat="44.46179434629767" lon="8.993552962496777"><ele>224.0</ele><time>2026-03-29T09:59:45.001Z</time></trkpt><trkpt lat="44.461825544253195" lon="8.993661347321295"><ele>228.0</ele><time>2026-03-29T09:59:48.002Z</time></trkpt><trkpt lat="44.46184047180183" lon="8.993775239909624"><ele>232.00000000000003</ele><time>2026-03-29T09:59:51.002Z</time></trkpt><trkpt lat="44.46185772374272" lon="8.993883865079395"><ele>236.0</ele><time>2026-03-29T09:59:54.002Z</time></trkpt><trkpt lat="44.461917635426374" lon="8.993976146550338"><ele>236.00000000000003</ele><time>2026-03-29T09:59:57.002Z</time></trkpt><trkpt lat="44.462003809695055" lon="8.994004295448036"><ele>236.0</ele><time>2026-03-29T10:00:00.002Z</time></trkpt><trkpt lat="44.46208946898764" lon="8.993995567289653"><ele>236.0</ele><time>2026-03-29T10:00:03.002Z</time></trkpt><trkpt lat="44.46216121647718" lon="8.993923684395646"><ele>236.0</ele><time>2026-03-29T10:00:06.002Z</time></trkpt><trkpt lat="44.46222742026222" lon="8.99383779562063"><ele>236.00000000000003</ele><time>2026-03-29T10:00:09.002Z</time></trkpt><trkpt lat="44.46228413536298" lon="8.993767188425586"><ele>236.0</ele><time>2026-03-29T10:00:12.002Z</time></trkpt><trkpt lat="44.46235110234074" lon="8.993708894998452"><ele>236.16666666666669</ele><time>2026-03-29T10:00:15.002Z</time></trkpt><trkpt lat="44.46242262974131" lon="8.993696974777198"><ele>236.33333333333334</ele><time>2026-03-29T10:00:18.002Z</time></trkpt><trkpt lat="44.46249278098119" lon="8.993695142133951"><ele>236.5</ele><time>2026-03-29T10:00:21.003Z</time></trkpt><trkpt lat="44.46256893655974" lon="8.99368152883438"><ele>236.66666666666669</ele><time>2026-03-29T10:00:24.003Z</time></trkpt><trkpt lat="44.46264429959626" lon="8.993650242291645"><ele>236.83333333333334</ele><time>2026-03-29T10:00:27.003Z</time></trkpt><trkpt lat="44.46272535952709" lon="8.993609376907466"><ele>237.0</ele><time>2026-03-29T10:00:30.003Z</time></trkpt><trkpt lat="44.46279889938272" lon="8.993553783775026"><ele>237.0</ele><time>2026-03-29T10:00:33.003Z</time></trkpt><trkpt lat="44.462872826353276" lon="8.993497402182303"><ele>237.0</ele><time>2026-03-29T10:00:36.003Z</time></trkpt><trkpt lat="44.462953207538746" lon="8.993454624201394"><ele>237.0</ele><time>2026-03-29T10:00:39.003Z</time></trkpt><trkpt lat="44.46304630536611" lon="8.993422702485944"><ele>237.0</ele><time>2026-03-29T10:00:42.003Z</time></trkpt><trkpt lat="44.46310587831998" lon="8.993387473098872"><ele>237.0</ele><time>2026-03-29T10:00:44.003Z</time></trkpt><trkpt lat="44.46317032655061" lon="8.993351428575346"><ele>237.0</ele><time>2026-03-29T10:00:46.003Z</time></trkpt><trkpt lat="44.46323814347312" lon="8.99332961616669"><ele>233.66666666666666</ele><time>2026-03-29T10:00:48.003Z</time></trkpt><trkpt lat="44.46330352454331" lon="8.993297154358727"><ele>230.33333333333331</ele><time>2026-03-29T10:00:50.003Z</time></trkpt><trkpt lat="44.463372549810636" lon="8.993270971377761"><ele>227.0</ele><time>2026-03-29T10:00:51.999Z</time></trkpt><trkpt lat="44.463449157367435" lon="8.993256179553367"><ele>223.66666666666666</ele><time>2026-03-29T10:00:53.999Z</time></trkpt><trkpt lat="44.4635188471445" lon="8.993215163121702"><ele>220.33333333333331</ele><time>2026-03-29T10:00:55.999Z</time></trkpt><trkpt lat="44.46360115501417" lon="8.993209671638024"><ele>217.0</ele><time>2026-03-29T10:00:57.999Z</time></trkpt><trkpt lat="44.46367892386666" lon="8.993178762929315"><ele>217.0</ele><time>2026-03-29T10:00:59.999Z</time></trkpt><trkpt lat="44.46375463415322" lon="8.993163934141403"><ele>217.0</ele><time>2026-03-29T10:01:01.999Z</time></trkpt><trkpt lat="44.46382100559754" lon="8.993116903832853"><ele>217.0</ele><time>2026-03-29T10:01:04Z</time></trkpt><trkpt lat="44.46387734322782" lon="8.99304904092453"><ele>217.0</ele><time>2026-03-29T10:01:06Z</time></trkpt><trkpt lat="44.4639442704868" lon="8.992997106150515"><ele>217.0</ele><time>2026-03-29T10:01:08Z</time></trkpt><trkpt lat="44.46400889913796" lon="8.992954882358115"><ele>217.0</ele><time>2026-03-29T10:01:10Z</time></trkpt><trkpt lat="44.46407784013434" lon="8.992927811719447"><ele>217.0</ele><time>2026-03-29T10:01:12Z</time></trkpt><trkpt lat="44.464146307490914" lon="8.992907293254712"><ele>218.71428571428572</ele><time>2026-03-29T10:01:14Z</time></trkpt><trkpt lat="44.464208675863" lon="8.992881175701466"><ele>220.42857142857144</ele><time>2026-03-29T10:01:16Z</time></trkpt><trkpt lat="44.464296541815955" lon="8.992850633950642"><ele>222.14285714285714</ele><time>2026-03-29T10:01:19Z</time></trkpt><trkpt lat="44.464375333991505" lon="8.9928418304563"><ele>223.85714285714286</ele><time>2026-03-29T10:01:22Z</time></trkpt><trkpt lat="44.464462794180236" lon="8.992854285534467"><ele>225.57142857142858</ele><time>2026-03-29T10:01:25.001Z</time></trkpt><trkpt lat="44.46452300674824" lon="8.992880454982055"><ele>227.28571428571428</ele><time>2026-03-29T10:01:27.001Z</time></trkpt><trkpt lat="44.46458645955505" lon="8.99288746862118"><ele>229.0</ele><time>2026-03-29T10:01:29.001Z</time></trkpt><trkpt lat="44.46466830896565" lon="8.992897134151532"><ele>230.57142857142856</ele><time>2026-03-29T10:01:32.001Z</time></trkpt><trkpt lat="44.46474249147907" lon="8.992892253913892"><ele>232.14285714285717</ele><time>2026-03-29T10:01:35.001Z</time></trkpt><trkpt lat="44.46480834861108" lon="8.992851947879988"><ele>233.71428571428572</ele><time>2026-03-29T10:01:38.001Z</time></trkpt><trkpt lat="44.464872534260394" lon="8.992798675516775"><ele>235.28571428571428</ele><time>2026-03-29T10:01:41.001Z</time></trkpt><trkpt lat="44.46492774210151" lon="8.992742407439609"><ele>236.85714285714283</ele><time>2026-03-29T10:01:44.001Z</time></trkpt><trkpt lat="44.464996951858" lon="8.992689637477648"><ele>238.42857142857144</ele><time>2026-03-29T10:01:48.001Z</time></trkpt><trkpt lat="44.46506993302865" lon="8.992642594371013"><ele>240.0</ele><time>2026-03-29T10:01:52.001Z</time></trkpt><trkpt lat="44.46513017310986" lon="8.992597108314328"><ele>240.0</ele><time>2026-03-29T10:01:56.002Z</time></trkpt><trkpt lat="44.46519004952595" lon="8.992551399358572"><ele>240.0</ele><time>2026-03-29T10:01:59.002Z</time></trkpt><trkpt lat="44.4652452053199" lon="8.992506505158167"><ele>240.0</ele><time>2026-03-29T10:02:03.002Z</time></trkpt><trkpt lat="44.465304285229124" lon="8.9924657805853"><ele>240.0</ele><time>2026-03-29T10:02:06.002Z</time></trkpt><trkpt lat="44.46536327428424" lon="8.992415570577531"><ele>240.0</ele><time>2026-03-29T10:02:10.002Z</time></trkpt><trkpt lat="44.46542712617821" lon="8.992362396693665"><ele>240.0</ele><time>2026-03-29T10:02:14.002Z</time></trkpt><trkpt lat="44.465482837888985" lon="8.99231495026396"><ele>240.0</ele><time>2026-03-29T10:02:18.002Z</time></trkpt><trkpt lat="44.46554285739498" lon="8.992249635014316"><ele>238.57142857142858</ele><time>2026-03-29T10:02:23.002Z</time></trkpt><trkpt lat="44.46561895556665" lon="8.99222901442942"><ele>237.1428571428571</ele><time>2026-03-29T10:02:28.003Z</time></trkpt><trkpt lat="44.465684154275024" lon="8.992188203378056"><ele>235.7142857142857</ele><time>2026-03-29T10:02:33.003Z</time></trkpt><trkpt lat="44.46566258758417" lon="8.992089971636121"><ele>234.28571428571428</ele><time>2026-03-29T10:02:40.003Z</time></trkpt><trkpt lat="44.465626372130416" lon="8.992163702204286"><ele>232.85714285714283</ele><time>2026-03-29T10:05:37.001Z</time></trkpt><trkpt lat="44.465576074329974" lon="8.992230318307858"><ele>231.4285714285714</ele><time>2026-03-29T10:05:41.001Z</time></trkpt><trkpt lat="44.46550213762436" lon="8.992291205042498"><ele>229.99999999999997</ele><time>2026-03-29T10:05:45.001Z</time></trkpt><trkpt lat="44.465433345848226" lon="8.992332355248903"><ele>231.66666666666669</ele><time>2026-03-29T10:05:48.001Z</time></trkpt><trkpt lat="44.465344401427686" lon="8.992384824042954"><ele>233.33333333333334</ele><time>2026-03-29T10:05:51.001Z</time></trkpt><trkpt lat="44.46528126156786" lon="8.99244235551873"><ele>235.0</ele><time>2026-03-29T10:05:53.001Z</time></trkpt><trkpt lat="44.46521069683448" lon="8.992505191707899"><ele>236.66666666666669</ele><time>2026-03-29T10:05:55.001Z</time></trkpt><trkpt lat="44.46513481306405" lon="8.992568017701418"><ele>238.33333333333334</ele><time>2026-03-29T10:05:57.001Z</time></trkpt><trkpt lat="44.46504450808085" lon="8.992630878816243"><ele>240.0</ele><time>2026-03-29T10:05:59.001Z</time></trkpt><trkpt lat="44.46494559160191" lon="8.992707436804455"><ele>240.0</ele><time>2026-03-29T10:06:01.001Z</time></trkpt><trkpt lat="44.464839736056966" lon="8.99278345662352"><ele>240.0</ele><time>2026-03-29T10:06:03.001Z</time></trkpt><trkpt lat="44.46478308218558" lon="8.992824137259696"><ele>240.0</ele><time>2026-03-29T10:06:04.001Z</time></trkpt><trkpt lat="44.46472121637504" lon="8.992862281990483"><ele>240.0</ele><time>2026-03-29T10:06:05.001Z</time></trkpt><trkpt lat="44.46459702437525" lon="8.992864985872412"><ele>240.0</ele><time>2026-03-29T10:06:07.001Z</time></trkpt><trkpt lat="44.46448045339385" lon="8.992815152587417"><ele>237.8</ele><time>2026-03-29T10:06:09.001Z</time></trkpt><trkpt lat="44.464360309166" lon="8.992800519397711"><ele>235.6</ele><time>2026-03-29T10:06:11.001Z</time></trkpt><trkpt lat="44.464261296858794" lon="8.9928359014091"><ele>233.39999999999998</ele><time>2026-03-29T10:06:13.001Z</time></trkpt><trkpt lat="44.4641529845056" lon="8.992866326993932"><ele>231.2</ele><time>2026-03-29T10:06:15.001Z</time></trkpt><trkpt lat="44.46408927647569" lon="8.992878464681901"><ele>229.0</ele><time>2026-03-29T10:06:16.001Z</time></trkpt><trkpt lat="44.46402477060838" lon="8.99290225903347"><ele>229.0</ele><time>2026-03-29T10:06:17.001Z</time></trkpt><trkpt lat="44.463962739169595" lon="8.992935161193316"><ele>229.0</ele><time>2026-03-29T10:06:18.001Z</time></trkpt><trkpt lat="44.463907264885236" lon="8.992984200914956"><ele>229.0</ele><time>2026-03-29T10:06:19.001Z</time></trkpt><trkpt lat="44.46385213595704" lon="8.993041371093124"><ele>229.0</ele><time>2026-03-29T10:06:20.001Z</time></trkpt><trkpt lat="44.4637984698998" lon="8.993098613157766"><ele>229.0</ele><time>2026-03-29T10:06:21.001Z</time></trkpt><trkpt lat="44.46374101576751" lon="8.993144534795762"><ele>229.0</ele><time>2026-03-29T10:06:22.001Z</time></trkpt><trkpt lat="44.463674948113" lon="8.993163244080497"><ele>229.0</ele><time>2026-03-29T10:06:23.002Z</time></trkpt><trkpt lat="44.46360849870914" lon="8.993166337193358"><ele>226.6</ele><time>2026-03-29T10:06:24.002Z</time></trkpt><trkpt lat="44.4635433605325" lon="8.993173927379125"><ele>224.2</ele><time>2026-03-29T10:06:25.002Z</time></trkpt><trkpt lat="44.46347977966106" lon="8.993184133591164"><ele>221.79999999999998</ele><time>2026-03-29T10:06:26.002Z</time></trkpt><trkpt lat="44.463366047002815" lon="8.993243453954532"><ele>219.39999999999998</ele><time>2026-03-29T10:06:28.002Z</time></trkpt><trkpt lat="44.463266778808105" lon="8.99329264216933"><ele>217.0</ele><time>2026-03-29T10:06:30.002Z</time></trkpt><trkpt lat="44.46317372952477" lon="8.99333363147012"><ele>220.33333333333331</ele><time>2026-03-29T10:06:32.002Z</time></trkpt><trkpt lat="44.46308834880566" lon="8.993376434235874"><ele>223.66666666666666</ele><time>2026-03-29T10:06:34.002Z</time></trkpt><trkpt lat="44.46301136875313" lon="8.993424455306243"><ele>227.0</ele><time>2026-03-29T10:06:36.002Z</time></trkpt><trkpt lat="44.46293219099974" lon="8.993468788610025"><ele>230.33333333333331</ele><time>2026-03-29T10:06:38.002Z</time></trkpt><trkpt lat="44.462848016645516" lon="8.993518102982714"><ele>233.66666666666666</ele><time>2026-03-29T10:06:40.002Z</time></trkpt><trkpt lat="44.462763276548515" lon="8.993575934630941"><ele>237.0</ele><time>2026-03-29T10:06:42.002Z</time></trkpt><trkpt lat="44.46267285609305" lon="8.993623001979552"><ele>237.0</ele><time>2026-03-29T10:06:44.002Z</time></trkpt><trkpt lat="44.46257810768093" lon="8.993664398210027"><ele>237.0</ele><time>2026-03-29T10:06:46.002Z</time></trkpt><trkpt lat="44.46247939213122" lon="8.993677417189236"><ele>237.0</ele><time>2026-03-29T10:06:48.002Z</time></trkpt><trkpt lat="44.462381420706556" lon="8.993682386901634"><ele>237.0</ele><time>2026-03-29T10:06:50.002Z</time></trkpt><trkpt lat="44.462281195007094" lon="8.993752667570817"><ele>237.0</ele><time>2026-03-29T10:06:52.002Z</time></trkpt><trkpt lat="44.462191612687924" lon="8.993874388997565"><ele>236.99999999999997</ele><time>2026-03-29T10:06:54.002Z</time></trkpt><trkpt lat="44.46214422134862" lon="8.993938217319961"><ele>237.0</ele><time>2026-03-29T10:06:55.002Z</time></trkpt><trkpt lat="44.46208566161225" lon="8.993985495036064"><ele>236.99999999999997</ele><time>2026-03-29T10:06:56.002Z</time></trkpt><trkpt lat="44.462022393411765" lon="8.993993620803773"><ele>236.99999999999997</ele><time>2026-03-29T10:06:57.002Z</time></trkpt><trkpt lat="44.46195613602186" lon="8.993974226639168"><ele>237.0</ele><time>2026-03-29T10:06:58.002Z</time></trkpt><trkpt lat="44.461896689255646" lon="8.993921005607962"><ele>236.99999999999997</ele><time>2026-03-29T10:06:59.002Z</time></trkpt><trkpt lat="44.46185477670428" lon="8.993850596876735"><ele>236.99999999999997</ele><time>2026-03-29T10:07:00.002Z</time></trkpt><trkpt lat="44.46183834032728" lon="8.993763597380582"><ele>236.8</ele><time>2026-03-29T10:07:01.002Z</time></trkpt><trkpt lat="44.46184863259237" lon="8.993672237543395"><ele>236.6</ele><time>2026-03-29T10:07:02.002Z</time></trkpt><trkpt lat="44.46180764191199" lon="8.993515719814061"><ele>236.40000000000003</ele><time>2026-03-29T10:07:04.002Z</time></trkpt><trkpt lat="44.461775298636994" lon="8.993368216142999"><ele>236.20000000000002</ele><time>2026-03-29T10:07:06.002Z</time></trkpt><trkpt lat="44.46170956392902" lon="8.993249418120882"><ele>236.0</ele><time>2026-03-29T10:07:08.002Z</time></trkpt><trkpt lat="44.461644077877956" lon="8.99311661626076"><ele>231.20000000000002</ele><time>2026-03-29T10:07:10.001Z</time></trkpt><trkpt lat="44.46155290978343" lon="8.993017725311569"><ele>226.40000000000003</ele><time>2026-03-29T10:07:12.001Z</time></trkpt><trkpt lat="44.46145969206113" lon="8.992933085944902"><ele>221.6</ele><time>2026-03-29T10:07:14.001Z</time></trkpt><trkpt lat="44.46139510069133" lon="8.99281851395249"><ele>216.8</ele><time>2026-03-29T10:07:16.001Z</time></trkpt><trkpt lat="44.46132888181156" lon="8.992696239973093"><ele>212.0</ele><time>2026-03-29T10:07:18.001Z</time></trkpt><trkpt lat="44.46131165073226" lon="8.992539156340408"><ele>210.2</ele><time>2026-03-29T10:07:20.001Z</time></trkpt><trkpt lat="44.46133319541588" lon="8.992399110751"><ele>208.39999999999998</ele><time>2026-03-29T10:07:22Z</time></trkpt><trkpt lat="44.46137741916385" lon="8.992284591407028"><ele>206.60000000000002</ele><time>2026-03-29T10:07:24Z</time></trkpt><trkpt lat="44.461397936878896" lon="8.99215829505099"><ele>204.8</ele><time>2026-03-29T10:07:26Z</time></trkpt><trkpt lat="44.46140953701861" lon="8.992005501593322"><ele>203.0</ele><time>2026-03-29T10:07:28.001Z</time></trkpt><trkpt lat="44.46140951535605" lon="8.991910706959256"><ele>203.00000000000003</ele><time>2026-03-29T10:07:29.001Z</time></trkpt><trkpt lat="44.46140457279672" lon="8.991817565612736"><ele>203.0</ele><time>2026-03-29T10:07:30.001Z</time></trkpt><trkpt lat="44.46141358879313" lon="8.991717033685353"><ele>203.0</ele><time>2026-03-29T10:07:31.001Z</time></trkpt><trkpt lat="44.461399456914286" lon="8.99161533975515"><ele>203.0</ele><time>2026-03-29T10:07:32.001Z</time></trkpt><trkpt lat="44.46139290215458" lon="8.991509008872772"><ele>203.00000000000003</ele><time>2026-03-29T10:07:33.001Z</time></trkpt><trkpt lat="44.461381888774525" lon="8.991394386717666"><ele>203.0</ele><time>2026-03-29T10:07:34.001Z</time></trkpt><trkpt lat="44.461375207057785" lon="8.991280081293967"><ele>201.83333333333334</ele><time>2026-03-29T10:07:35.001Z</time></trkpt><trkpt lat="44.461361972585" lon="8.99117022794409"><ele>200.66666666666669</ele><time>2026-03-29T10:07:36.001Z</time></trkpt><trkpt lat="44.46135701720513" lon="8.991060525103691"><ele>199.5</ele><time>2026-03-29T10:07:37.001Z</time></trkpt><trkpt lat="44.461352917554926" lon="8.990945533905313"><ele>198.33333333333331</ele><time>2026-03-29T10:07:38.001Z</time></trkpt><trkpt lat="44.46134639695212" lon="8.990835313788411"><ele>197.16666666666666</ele><time>2026-03-29T10:07:39.001Z</time></trkpt><trkpt lat="44.46134028836062" lon="8.990730583353422"><ele>196.0</ele><time>2026-03-29T10:07:40.001Z</time></trkpt><trkpt lat="44.46133456306301" lon="8.990621399365537"><ele>195.28571428571428</ele><time>2026-03-29T10:07:41.001Z</time></trkpt><trkpt lat="44.46132925366271" lon="8.99052706516179"><ele>194.57142857142856</ele><time>2026-03-29T10:07:42.001Z</time></trkpt><trkpt lat="44.4613240323779" lon="8.99042328131263"><ele>193.85714285714286</ele><time>2026-03-29T10:07:43.001Z</time></trkpt><trkpt lat="44.461308931756164" lon="8.990324892279544"><ele>193.14285714285714</ele><time>2026-03-29T10:07:44.001Z</time></trkpt><trkpt lat="44.46128639223868" lon="8.990222122272556"><ele>192.42857142857142</ele><time>2026-03-29T10:07:45.001Z</time></trkpt><trkpt lat="44.46125825305917" lon="8.99012522699349"><ele>191.71428571428572</ele><time>2026-03-29T10:07:46.001Z</time></trkpt><trkpt lat="44.461229385200035" lon="8.990035208055351"><ele>191.0</ele><time>2026-03-29T10:07:47.001Z</time></trkpt><trkpt lat="44.46120481699682" lon="8.989948531869318"><ele>195.0</ele><time>2026-03-29T10:07:48.001Z</time></trkpt><trkpt lat="44.46115628242106" lon="8.989791271151155"><ele>199.0</ele><time>2026-03-29T10:07:50.001Z</time></trkpt><trkpt lat="44.46113801292506" lon="8.98963765862436"><ele>203.0</ele><time>2026-03-29T10:07:52.001Z</time></trkpt><trkpt lat="44.461117945974586" lon="8.989487708946424"><ele>207.0</ele><time>2026-03-29T10:07:54.001Z</time></trkpt><trkpt lat="44.46112813278748" lon="8.989336252062477"><ele>207.0</ele><time>2026-03-29T10:07:56.001Z</time></trkpt><trkpt lat="44.46116532852291" lon="8.989180501160007"><ele>207.0</ele><time>2026-03-29T10:07:58.001Z</time></trkpt><trkpt lat="44.46121164029924" lon="8.989033361882205"><ele>207.0</ele><time>2026-03-29T10:08:00.001Z</time></trkpt><trkpt lat="44.46123569051129" lon="8.988874509807056"><ele>207.0</ele><time>2026-03-29T10:08:02.001Z</time></trkpt><trkpt lat="44.46126716234461" lon="8.988718171791914"><ele>204.2</ele><time>2026-03-29T10:08:04.001Z</time></trkpt><trkpt lat="44.46129857186039" lon="8.988560178119666"><ele>201.39999999999998</ele><time>2026-03-29T10:08:06.001Z</time></trkpt><trkpt lat="44.46134091282766" lon="8.988409270994962"><ele>198.60000000000002</ele><time>2026-03-29T10:08:08.001Z</time></trkpt><trkpt lat="44.46135584271801" lon="8.988254328987335"><ele>195.8</ele><time>2026-03-29T10:08:10.001Z</time></trkpt><trkpt lat="44.46139412547303" lon="8.98811966277359"><ele>193.0</ele><time>2026-03-29T10:08:12.001Z</time></trkpt><trkpt lat="44.46143848361679" lon="8.987986612735257"><ele>193.0</ele><time>2026-03-29T10:08:14.001Z</time></trkpt><trkpt lat="44.461474755706625" lon="8.987843297685549"><ele>193.0</ele><time>2026-03-29T10:08:16.001Z</time></trkpt><trkpt lat="44.461505690703234" lon="8.987688374106662"><ele>193.0</ele><time>2026-03-29T10:08:18.001Z</time></trkpt><trkpt lat="44.46154089587874" lon="8.987519382745592"><ele>193.0</ele><time>2026-03-29T10:08:20.001Z</time></trkpt><trkpt lat="44.46157989553609" lon="8.987345697129816"><ele>192.42857142857144</ele><time>2026-03-29T10:08:22.001Z</time></trkpt><trkpt lat="44.46159087185287" lon="8.987252142985168"><ele>191.85714285714286</ele><time>2026-03-29T10:08:23.001Z</time></trkpt><trkpt lat="44.4615910966674" lon="8.987151637358117"><ele>191.28571428571428</ele><time>2026-03-29T10:08:24.001Z</time></trkpt><trkpt lat="44.46158845419127" lon="8.987055294401271"><ele>190.71428571428572</ele><time>2026-03-29T10:08:25.001Z</time></trkpt><trkpt lat="44.46158214610867" lon="8.986958308134538"><ele>190.14285714285714</ele><time>2026-03-29T10:08:26.001Z</time></trkpt><trkpt lat="44.46155888936862" lon="8.98686243415656"><ele>189.57142857142858</ele><time>2026-03-29T10:08:27.001Z</time></trkpt><trkpt lat="44.46150695673697" lon="8.986771209313567"><ele>189.0</ele><time>2026-03-29T10:08:28.001Z</time></trkpt><trkpt lat="44.461462754647144" lon="8.986668700091254"><ele>188.6</ele><time>2026-03-29T10:08:29.002Z</time></trkpt><trkpt lat="44.461395283384036" lon="8.986582718052162"><ele>188.2</ele><time>2026-03-29T10:08:30.002Z</time></trkpt><trkpt lat="44.461346386680944" lon="8.986475280329481"><ele>187.79999999999998</ele><time>2026-03-29T10:08:31.002Z</time></trkpt><trkpt lat="44.461283034264376" lon="8.98637197793288"><ele>187.39999999999998</ele><time>2026-03-29T10:08:32.002Z</time></trkpt><trkpt lat="44.46120276558306" lon="8.986288556653113"><ele>187.0</ele><time>2026-03-29T10:08:33.002Z</time></trkpt><trkpt lat="44.46112640448532" lon="8.98619877750498"><ele>187.0</ele><time>2026-03-29T10:08:34.002Z</time></trkpt><trkpt lat="44.46105253303093" lon="8.98612220590794"><ele>187.0</ele><time>2026-03-29T10:08:35.002Z</time></trkpt><trkpt lat="44.46098525445364" lon="8.986051622034354"><ele>187.0</ele><time>2026-03-29T10:08:36.002Z</time></trkpt><trkpt lat="44.460924508620664" lon="8.985985543606375"><ele>187.0</ele><time>2026-03-29T10:08:37.002Z</time></trkpt><trkpt lat="44.46086093812167" lon="8.985942782495657"><ele>187.0</ele><time>2026-03-29T10:08:38.002Z</time></trkpt><trkpt lat="44.4608081131121" lon="8.985881647454823"><ele>187.0</ele><time>2026-03-29T10:08:39.002Z</time></trkpt><trkpt lat="44.46075833065506" lon="8.985820842144854"><ele>184.6</ele><time>2026-03-29T10:08:40.002Z</time></trkpt><trkpt lat="44.46070584279206" lon="8.985764111836149"><ele>182.2</ele><time>2026-03-29T10:08:41.002Z</time></trkpt><trkpt lat="44.46060949183819" lon="8.98566643000958"><ele>179.8</ele><time>2026-03-29T10:08:43.002Z</time></trkpt><trkpt lat="44.46051829937403" lon="8.98560512580522"><ele>177.4</ele><time>2026-03-29T10:08:45.002Z</time></trkpt><trkpt lat="44.46042959029178" lon="8.985536569114396"><ele>175.0</ele><time>2026-03-29T10:08:47.002Z</time></trkpt><trkpt lat="44.46032773105708" lon="8.985465798805338"><ele>175.0</ele><time>2026-03-29T10:08:49.002Z</time></trkpt><trkpt lat="44.46020460597197" lon="8.985445867134747"><ele>175.0</ele><time>2026-03-29T10:08:51.002Z</time></trkpt><trkpt lat="44.46013719918115" lon="8.98546691264113"><ele>175.0</ele><time>2026-03-29T10:08:52.002Z</time></trkpt><trkpt lat="44.460071182675826" lon="8.985493007578699"><ele>175.0</ele><time>2026-03-29T10:08:53.002Z</time></trkpt><trkpt lat="44.4600028960452" lon="8.985520843706123"><ele>175.0</ele><time>2026-03-29T10:08:54.002Z</time></trkpt><trkpt lat="44.45993030202385" lon="8.985540585974992"><ele>175.0</ele><time>2026-03-29T10:08:55.002Z</time></trkpt><trkpt lat="44.45986752874356" lon="8.985562409087658"><ele>175.0</ele><time>2026-03-29T10:08:56.002Z</time></trkpt><trkpt lat="44.459776040096585" lon="8.98559917421582"><ele>175.0</ele><time>2026-03-29T10:08:58.002Z</time></trkpt><trkpt lat="44.459715840969494" lon="8.985495370054183"><ele>175.0</ele><time>2026-03-29T10:09:00.002Z</time></trkpt><trkpt lat="44.459764041005705" lon="8.985394083879624"><ele>175.0</ele><time>2026-03-29T10:09:02.002Z</time></trkpt><trkpt lat="44.45986330852203" lon="8.985367977525778"><ele>175.0</ele><time>2026-03-29T10:09:04.002Z</time></trkpt><trkpt lat="44.45994680116488" lon="8.985316222772767"><ele>175.0</ele><time>2026-03-29T10:09:06.002Z</time></trkpt><trkpt lat="44.46001708928922" lon="8.985247287865095"><ele>175.0</ele><time>2026-03-29T10:09:08.002Z</time></trkpt><trkpt lat="44.4600917201134" lon="8.985155077553873"><ele>175.0</ele><time>2026-03-29T10:09:10.002Z</time></trkpt><trkpt lat="44.46017153649946" lon="8.985065473499109"><ele>175.0</ele><time>2026-03-29T10:09:12.002Z</time></trkpt><trkpt lat="44.46025778742678" lon="8.984954910373125"><ele>175.0</ele><time>2026-03-29T10:09:14.002Z</time></trkpt><trkpt lat="44.46035707923126" lon="8.98484575883856"><ele>172.8</ele><time>2026-03-29T10:09:16.001Z</time></trkpt><trkpt lat="44.460410203489964" lon="8.984789136726793"><ele>170.6</ele><time>2026-03-29T10:09:17.001Z</time></trkpt><trkpt lat="44.46046335566641" lon="8.984732991535312"><ele>168.39999999999998</ele><time>2026-03-29T10:09:18.001Z</time></trkpt><trkpt lat="44.460534297022924" lon="8.984607265270146"><ele>166.2</ele><time>2026-03-29T10:09:20.001Z</time></trkpt><trkpt lat="44.460535910302994" lon="8.984450178104707"><ele>164.0</ele><time>2026-03-29T10:09:22.001Z</time></trkpt><trkpt lat="44.46048340285075" lon="8.984334699444549"><ele>164.0</ele><time>2026-03-29T10:09:24.001Z</time></trkpt><trkpt lat="44.46037933811547" lon="8.984273245915269"><ele>164.0</ele><time>2026-03-29T10:09:26.001Z</time></trkpt><trkpt lat="44.4602685343456" lon="8.98429241586845"><ele>164.0</ele><time>2026-03-29T10:09:28Z</time></trkpt><trkpt lat="44.46021143157176" lon="8.984341116217623"><ele>164.0</ele><time>2026-03-29T10:09:29Z</time></trkpt><trkpt lat="44.46015944489876" lon="8.984398354003577"><ele>164.0</ele><time>2026-03-29T10:09:30Z</time></trkpt><trkpt lat="44.4601004669975" lon="8.98443112502543"><ele>164.0</ele><time>2026-03-29T10:09:31Z</time></trkpt><trkpt lat="44.460047122052586" lon="8.984502170934553"><ele>164.0</ele><time>2026-03-29T10:09:32Z</time></trkpt><trkpt lat="44.459989387126335" lon="8.984549961178772"><ele>164.0</ele><time>2026-03-29T10:09:33Z</time></trkpt><trkpt lat="44.45988128965975" lon="8.984629864828888"><ele>164.0</ele><time>2026-03-29T10:09:35.001Z</time></trkpt><trkpt lat="44.45981931278326" lon="8.984660233842844"><ele>164.0</ele><time>2026-03-29T10:09:36.001Z</time></trkpt><trkpt lat="44.45975135743801" lon="8.984670291406761"><ele>164.0</ele><time>2026-03-29T10:09:37.001Z</time></trkpt><trkpt lat="44.45968186732029" lon="8.984662447616241"><ele>164.0</ele><time>2026-03-29T10:09:38.001Z</time></trkpt><trkpt lat="44.45961090930445" lon="8.984648582234266"><ele>162.14285714285714</ele><time>2026-03-29T10:09:39.001Z</time></trkpt><trkpt lat="44.45953661476074" lon="8.984627635101079"><ele>160.28571428571428</ele><time>2026-03-29T10:09:40.001Z</time></trkpt><trkpt lat="44.45946639508792" lon="8.984629641321982"><ele>158.42857142857144</ele><time>2026-03-29T10:09:41.001Z</time></trkpt><trkpt lat="44.45939616392584" lon="8.984651907736588"><ele>156.57142857142856</ele><time>2026-03-29T10:09:42.001Z</time></trkpt><trkpt lat="44.4593294032034" lon="8.984686596818888"><ele>154.71428571428572</ele><time>2026-03-29T10:09:43.001Z</time></trkpt><trkpt lat="44.45926308477919" lon="8.984728715324326"><ele>152.85714285714286</ele><time>2026-03-29T10:09:44.001Z</time></trkpt><trkpt lat="44.45919877899684" lon="8.984785104027544"><ele>151.0</ele><time>2026-03-29T10:09:45.001Z</time></trkpt><trkpt lat="44.459126826110605" lon="8.984836306056508"><ele>151.0</ele><time>2026-03-29T10:09:46.001Z</time></trkpt><trkpt lat="44.459053182564716" lon="8.984888934824768"><ele>151.0</ele><time>2026-03-29T10:09:47.001Z</time></trkpt><trkpt lat="44.45898194681156" lon="8.98494703708496"><ele>151.0</ele><time>2026-03-29T10:09:48.001Z</time></trkpt><trkpt lat="44.45892301663717" lon="8.985012899556084"><ele>151.0</ele><time>2026-03-29T10:09:49.001Z</time></trkpt><trkpt lat="44.45887136426807" lon="8.985089055157417"><ele>151.0</ele><time>2026-03-29T10:09:50.001Z</time></trkpt><trkpt lat="44.45882921395555" lon="8.985169291804173"><ele>151.0</ele><time>2026-03-29T10:09:51.001Z</time></trkpt><trkpt lat="44.45878309515222" lon="8.985243967126262"><ele>150.0</ele><time>2026-03-29T10:09:52.001Z</time></trkpt><trkpt lat="44.45874485046503" lon="8.985320755311601"><ele>149.0</ele><time>2026-03-29T10:09:53.001Z</time></trkpt><trkpt lat="44.4586682017603" lon="8.985411052644531"><ele>148.0</ele><time>2026-03-29T10:09:55.001Z</time></trkpt><trkpt lat="44.458560750110124" lon="8.985346116395759"><ele>147.0</ele><time>2026-03-29T10:09:57.001Z</time></trkpt><trkpt lat="44.45854906692917" lon="8.985185792622955"><ele>146.0</ele><time>2026-03-29T10:09:59.001Z</time></trkpt><trkpt lat="44.45861810746904" lon="8.985134252022775"><ele>146.0</ele><time>2026-03-29T10:10:00.001Z</time></trkpt><trkpt lat="44.45866515819812" lon="8.985057487715341"><ele>146.0</ele><time>2026-03-29T10:10:01.001Z</time></trkpt><trkpt lat="44.458688853081725" lon="8.984972040322774"><ele>146.0</ele><time>2026-03-29T10:10:02.001Z</time></trkpt><trkpt lat="44.45873725912518" lon="8.984899509603759"><ele>146.0</ele><time>2026-03-29T10:10:03.001Z</time></trkpt><trkpt lat="44.458766459070766" lon="8.984808202255524"><ele>146.0</ele><time>2026-03-29T10:10:04.001Z</time></trkpt><trkpt lat="44.45879714248199" lon="8.984719986664864"><ele>146.0</ele><time>2026-03-29T10:10:05.001Z</time></trkpt><trkpt lat="44.45882901859461" lon="8.984623780312413"><ele>146.0</ele><time>2026-03-29T10:10:06.001Z</time></trkpt><trkpt lat="44.45886325197981" lon="8.98452799935226"><ele>146.83333333333331</ele><time>2026-03-29T10:10:07.001Z</time></trkpt><trkpt lat="44.45889836495366" lon="8.984430935013593"><ele>147.66666666666666</ele><time>2026-03-29T10:10:08.001Z</time></trkpt><trkpt lat="44.458935149793966" lon="8.984329960932739"><ele>148.5</ele><time>2026-03-29T10:10:09.001Z</time></trkpt><trkpt lat="44.45897371491928" lon="8.984224099950858"><ele>149.33333333333334</ele><time>2026-03-29T10:10:10.001Z</time></trkpt><trkpt lat="44.459013172501244" lon="8.98411578921732"><ele>150.16666666666669</ele><time>2026-03-29T10:10:11.001Z</time></trkpt><trkpt lat="44.45904443024975" lon="8.983996865415726"><ele>151.0</ele><time>2026-03-29T10:10:12.001Z</time></trkpt><trkpt lat="44.45908718704844" lon="8.983890092398871"><ele>149.16666666666669</ele><time>2026-03-29T10:10:13.001Z</time></trkpt><trkpt lat="44.459122996249576" lon="8.983796637832748"><ele>147.33333333333334</ele><time>2026-03-29T10:10:14.001Z</time></trkpt><trkpt lat="44.45915601242949" lon="8.983706697029426"><ele>145.5</ele><time>2026-03-29T10:10:15.001Z</time></trkpt><trkpt lat="44.45918799696055" lon="8.983607256906037"><ele>143.66666666666666</ele><time>2026-03-29T10:10:16.001Z</time></trkpt><trkpt lat="44.459214892202155" lon="8.983504347794277"><ele>141.83333333333331</ele><time>2026-03-29T10:10:17.001Z</time></trkpt><trkpt lat="44.45922434168316" lon="8.983400306953072"><ele>140.0</ele><time>2026-03-29T10:10:18.001Z</time></trkpt><trkpt lat="44.45921726149096" lon="8.98328567083458"><ele>138.5</ele><time>2026-03-29T10:10:19.001Z</time></trkpt><trkpt lat="44.459177054997944" lon="8.983180534663548"><ele>137.0</ele><time>2026-03-29T10:10:20.001Z</time></trkpt><trkpt lat="44.459124600217436" lon="8.983079308763148"><ele>135.5</ele><time>2026-03-29T10:10:21.001Z</time></trkpt><trkpt lat="44.459061526671526" lon="8.982987855889913"><ele>134.0</ele><time>2026-03-29T10:10:22.001Z</time></trkpt><trkpt lat="44.45898915328299" lon="8.982909103716485"><ele>132.5</ele><time>2026-03-29T10:10:23.001Z</time></trkpt><trkpt lat="44.45891459544201" lon="8.982833096282913"><ele>131.0</ele><time>2026-03-29T10:10:24.001Z</time></trkpt><trkpt lat="44.458839464805784" lon="8.982760592365663"><ele>131.0</ele><time>2026-03-29T10:10:25.001Z</time></trkpt><trkpt lat="44.458765929010596" lon="8.98268186776182"><ele>131.0</ele><time>2026-03-29T10:10:26.001Z</time></trkpt><trkpt lat="44.45869401086375" lon="8.98259687971669"><ele>131.0</ele><time>2026-03-29T10:10:27.001Z</time></trkpt><trkpt lat="44.45861991620999" lon="8.982513672698023"><ele>131.0</ele><time>2026-03-29T10:10:28.001Z</time></trkpt><trkpt lat="44.4585439341136" lon="8.982442529891648"><ele>131.0</ele><time>2026-03-29T10:10:29.001Z</time></trkpt><trkpt lat="44.45847281842436" lon="8.982365428760112"><ele>129.8</ele><time>2026-03-29T10:10:30.001Z</time></trkpt><trkpt lat="44.45840145360733" lon="8.982293000337588"><ele>128.6</ele><time>2026-03-29T10:10:31.001Z</time></trkpt><trkpt lat="44.45832051562939" lon="8.982239515093"><ele>127.4</ele><time>2026-03-29T10:10:32.001Z</time></trkpt><trkpt lat="44.45823404134568" lon="8.982207140724707"><ele>126.2</ele><time>2026-03-29T10:10:33.001Z</time></trkpt><trkpt lat="44.458143330380516" lon="8.982193577256577"><ele>125.0</ele><time>2026-03-29T10:10:34.001Z</time></trkpt><trkpt lat="44.458052291919934" lon="8.982173831963962"><ele>124.99999999999999</ele><time>2026-03-29T10:10:35.001Z</time></trkpt><trkpt lat="44.45796535635668" lon="8.982145957694852"><ele>125.0</ele><time>2026-03-29T10:10:36.001Z</time></trkpt><trkpt lat="44.457883402348614" lon="8.982117444702077"><ele>125.0</ele><time>2026-03-29T10:10:37.001Z</time></trkpt><trkpt lat="44.45780304453745" lon="8.982093216967224"><ele>125.0</ele><time>2026-03-29T10:10:38.002Z</time></trkpt><trkpt lat="44.457727819222555" lon="8.98207541795795"><ele>124.99999999999999</ele><time>2026-03-29T10:10:39.002Z</time></trkpt><trkpt lat="44.45765149189048" lon="8.982073846568221"><ele>125.0</ele><time>2026-03-29T10:10:40.002Z</time></trkpt><trkpt lat="44.457573597591036" lon="8.982097169604135"><ele>123.33333333333333</ele><time>2026-03-29T10:10:41.002Z</time></trkpt><trkpt lat="44.457504616647206" lon="8.982153397756711"><ele>121.66666666666666</ele><time>2026-03-29T10:10:42.002Z</time></trkpt><trkpt lat="44.45743623885565" lon="8.982219410559075"><ele>120.0</ele><time>2026-03-29T10:10:43.002Z</time></trkpt><trkpt lat="44.45736696766665" lon="8.982292093060076"><ele>118.33333333333334</ele><time>2026-03-29T10:10:44.002Z</time></trkpt><trkpt lat="44.457295696756766" lon="8.982366094297335"><ele>116.66666666666667</ele><time>2026-03-29T10:10:45.002Z</time></trkpt><trkpt lat="44.45722049436412" lon="8.982442401946297"><ele>115.0</ele><time>2026-03-29T10:10:46.002Z</time></trkpt><trkpt lat="44.45714998610959" lon="8.982507012285502"><ele>114.33333333333334</ele><time>2026-03-29T10:10:47.002Z</time></trkpt><trkpt lat="44.457079901113225" lon="8.982576343678042"><ele>113.66666666666667</ele><time>2026-03-29T10:10:48.002Z</time></trkpt><trkpt lat="44.45701246906125" lon="8.982637341648076"><ele>113.0</ele><time>2026-03-29T10:10:49.002Z</time></trkpt><trkpt lat="44.45694394243144" lon="8.982700433667555"><ele>112.33333333333334</ele><time>2026-03-29T10:10:50.002Z</time></trkpt><trkpt lat="44.456877117145304" lon="8.98276264451453"><ele>111.66666666666667</ele><time>2026-03-29T10:10:51.002Z</time></trkpt><trkpt lat="44.45681871082049" lon="8.982825065586942"><ele>111.0</ele><time>2026-03-29T10:10:52.002Z</time></trkpt><trkpt lat="44.45676991153328" lon="8.982897621856303"><ele>111.0</ele><time>2026-03-29T10:10:53.002Z</time></trkpt><trkpt lat="44.45673505826978" lon="8.982993553612594"><ele>111.0</ele><time>2026-03-29T10:10:54.002Z</time></trkpt><trkpt lat="44.45671319616412" lon="8.983092957413266"><ele>111.0</ele><time>2026-03-29T10:10:55.002Z</time></trkpt><trkpt lat="44.45669795173921" lon="8.983200662489567"><ele>111.0</ele><time>2026-03-29T10:10:56.002Z</time></trkpt><trkpt lat="44.456681126518305" lon="8.983315929001193"><ele>111.0</ele><time>2026-03-29T10:10:57.002Z</time></trkpt><trkpt lat="44.456658005702536" lon="8.983425129418652"><ele>111.0</ele><time>2026-03-29T10:10:58.002Z</time></trkpt><trkpt lat="44.45663082673542" lon="8.983519927426606"><ele>109.8</ele><time>2026-03-29T10:10:59.002Z</time></trkpt><trkpt lat="44.45660517918442" lon="8.983606676390009"><ele>108.6</ele><time>2026-03-29T10:11:00.002Z</time></trkpt><trkpt lat="44.45657869177832" lon="8.983686855115174"><ele>107.4</ele><time>2026-03-29T10:11:01.002Z</time></trkpt><trkpt lat="44.456505301734886" lon="8.983795171847857"><ele>106.2</ele><time>2026-03-29T10:11:03.002Z</time></trkpt><trkpt lat="44.45639742921651" lon="8.983787122200416"><ele>105.0</ele><time>2026-03-29T10:11:05.002Z</time></trkpt><trkpt lat="44.45632781651578" lon="8.983661773034695"><ele>105.0</ele><time>2026-03-29T10:11:07.002Z</time></trkpt><trkpt lat="44.45632466295751" lon="8.983572482275212"><ele>105.0</ele><time>2026-03-29T10:11:08.002Z</time></trkpt><trkpt lat="44.456337645159515" lon="8.983477550822471"><ele>105.0</ele><time>2026-03-29T10:11:09.002Z</time></trkpt><trkpt lat="44.456364201523776" lon="8.983385266473135"><ele>105.0</ele><time>2026-03-29T10:11:10.002Z</time></trkpt><trkpt lat="44.45638621372118" lon="8.983286859561565"><ele>105.0</ele><time>2026-03-29T10:11:11.002Z</time></trkpt><trkpt lat="44.456403734923505" lon="8.983184356017063"><ele>105.0</ele><time>2026-03-29T10:11:12.002Z</time></trkpt><trkpt lat="44.456416738217506" lon="8.983079459257869"><ele>105.0</ele><time>2026-03-29T10:11:13.002Z</time></trkpt><trkpt lat="44.45641446497596" lon="8.982972025017373"><ele>105.57142857142857</ele><time>2026-03-29T10:11:14.002Z</time></trkpt><trkpt lat="44.4564034051308" lon="8.982867317422452"><ele>106.14285714285714</ele><time>2026-03-29T10:11:15.002Z</time></trkpt><trkpt lat="44.45639685954378" lon="8.982765660570902"><ele>106.71428571428572</ele><time>2026-03-29T10:11:16.002Z</time></trkpt><trkpt lat="44.45638065224879" lon="8.982665885233002"><ele>107.28571428571428</ele><time>2026-03-29T10:11:17.002Z</time></trkpt><trkpt lat="44.45637269451517" lon="8.982573452119555"><ele>107.85714285714286</ele><time>2026-03-29T10:11:18.002Z</time></trkpt><trkpt lat="44.45636923198937" lon="8.982477220456767"><ele>108.42857142857143</ele><time>2026-03-29T10:11:19.002Z</time></trkpt><trkpt lat="44.456368520160495" lon="8.982383783596283"><ele>109.0</ele><time>2026-03-29T10:11:20.002Z</time></trkpt><trkpt lat="44.456372075521166" lon="8.982292581167087"><ele>109.0</ele><time>2026-03-29T10:11:21Z</time></trkpt><trkpt lat="44.45638019321537" lon="8.982199799616268"><ele>109.0</ele><time>2026-03-29T10:11:22Z</time></trkpt><trkpt lat="44.456384688843" lon="8.982108249029531"><ele>109.0</ele><time>2026-03-29T10:11:23Z</time></trkpt><trkpt lat="44.45639266270335" lon="8.98201713735552"><ele>109.0</ele><time>2026-03-29T10:11:24Z</time></trkpt><trkpt lat="44.456400901949365" lon="8.981928636828714"><ele>109.0</ele><time>2026-03-29T10:11:25Z</time></trkpt><trkpt lat="44.456404713841835" lon="8.981837249719963"><ele>109.0</ele><time>2026-03-29T10:11:26Z</time></trkpt><trkpt lat="44.45640386587987" lon="8.981743443165449"><ele>109.0</ele><time>2026-03-29T10:11:27Z</time></trkpt><trkpt lat="44.456400933479635" lon="8.981645017231768"><ele>107.71428571428572</ele><time>2026-03-29T10:11:28Z</time></trkpt><trkpt lat="44.45640524467256" lon="8.981544663117774"><ele>106.42857142857143</ele><time>2026-03-29T10:11:29Z</time></trkpt><trkpt lat="44.45641602437965" lon="8.981443763505235"><ele>105.14285714285714</ele><time>2026-03-29T10:11:30Z</time></trkpt><trkpt lat="44.45643660342422" lon="8.981345209059269"><ele>103.85714285714286</ele><time>2026-03-29T10:11:31Z</time></trkpt><trkpt lat="44.45646649410038" lon="8.98125642447802"><ele>102.57142857142857</ele><time>2026-03-29T10:11:32Z</time></trkpt><trkpt lat="44.45651217404453" lon="8.981180114243458"><ele>101.28571428571429</ele><time>2026-03-29T10:11:33Z</time></trkpt><trkpt lat="44.45657622246461" lon="8.981126237052086"><ele>100.0</ele><time>2026-03-29T10:11:34Z</time></trkpt><trkpt lat="44.45664522773313" lon="8.981086782125995"><ele>100.00000000000001</ele><time>2026-03-29T10:11:35Z</time></trkpt><trkpt lat="44.45671219344427" lon="8.981043535172729"><ele>100.0</ele><time>2026-03-29T10:11:36Z</time></trkpt><trkpt lat="44.456783656683236" lon="8.98101469878778"><ele>100.0</ele><time>2026-03-29T10:11:37Z</time></trkpt><trkpt lat="44.456853742089336" lon="8.980983096183316"><ele>100.0</ele><time>2026-03-29T10:11:38Z</time></trkpt><trkpt lat="44.45692545808082" lon="8.980945275256765"><ele>100.00000000000001</ele><time>2026-03-29T10:11:39Z</time></trkpt><trkpt lat="44.45700488441899" lon="8.980934066710919"><ele>100.0</ele><time>2026-03-29T10:11:40Z</time></trkpt><trkpt lat="44.457082133183334" lon="8.98090678438901"><ele>99.16666666666667</ele><time>2026-03-29T10:11:41Z</time></trkpt><trkpt lat="44.45716203984423" lon="8.98088517309184"><ele>98.33333333333334</ele><time>2026-03-29T10:11:42Z</time></trkpt><trkpt lat="44.4572419913064" lon="8.98086801087333"><ele>97.5</ele><time>2026-03-29T10:11:43Z</time></trkpt><trkpt lat="44.457322177031585" lon="8.980841799534105"><ele>96.66666666666667</ele><time>2026-03-29T10:11:44Z</time></trkpt><trkpt lat="44.45740302576174" lon="8.980831300098258"><ele>95.83333333333334</ele><time>2026-03-29T10:11:45Z</time></trkpt><trkpt lat="44.45747405729307" lon="8.98080999112768"><ele>95.0</ele><time>2026-03-29T10:11:46Z</time></trkpt><trkpt lat="44.457544978823776" lon="8.98080038213293"><ele>95.0</ele><time>2026-03-29T10:11:47Z</time></trkpt><trkpt lat="44.457612634481016" lon="8.980797810366798"><ele>95.0</ele><time>2026-03-29T10:11:48Z</time></trkpt><trkpt lat="44.45772450005128" lon="8.980779106423777"><ele>95.0</ele><time>2026-03-29T10:11:50Z</time></trkpt><trkpt lat="44.45778372567941" lon="8.980654178012989"><ele>95.0</ele><time>2026-03-29T10:11:52Z</time></trkpt><trkpt lat="44.45773388300073" lon="8.980526197462288"><ele>95.0</ele><time>2026-03-29T10:11:54Z</time></trkpt><trkpt lat="44.457615393713745" lon="8.980494530405034"><ele>95.0</ele><time>2026-03-29T10:11:56Z</time></trkpt><trkpt lat="44.457488173819954" lon="8.98049422369334"><ele>95.0</ele><time>2026-03-29T10:11:58Z</time></trkpt><trkpt lat="44.4573596115986" lon="8.980496404032676"><ele>95.0</ele><time>2026-03-29T10:12:00Z</time></trkpt><trkpt lat="44.45729139875647" lon="8.980493610925137"><ele>95.0</ele><time>2026-03-29T10:12:01Z</time></trkpt><trkpt lat="44.4572233255781" lon="8.980495406393235"><ele>95.0</ele><time>2026-03-29T10:12:02.001Z</time></trkpt><trkpt lat="44.45715452124526" lon="8.980496239751453"><ele>94.14285714285714</ele><time>2026-03-29T10:12:03.001Z</time></trkpt><trkpt lat="44.457083795542026" lon="8.980498047316837"><ele>93.28571428571429</ele><time>2026-03-29T10:12:04.001Z</time></trkpt><trkpt lat="44.45701271658862" lon="8.98049982305706"><ele>92.42857142857142</ele><time>2026-03-29T10:12:05.001Z</time></trkpt><trkpt lat="44.456937571377104" lon="8.9804938989712"><ele>91.57142857142857</ele><time>2026-03-29T10:12:06.001Z</time></trkpt><trkpt lat="44.456871199943976" lon="8.98050880631519"><ele>90.71428571428571</ele><time>2026-03-29T10:12:07.001Z</time></trkpt><trkpt lat="44.456808368197514" lon="8.980522387909728"><ele>89.85714285714285</ele><time>2026-03-29T10:12:08.001Z</time></trkpt><trkpt lat="44.45672446129163" lon="8.980509096725447"><ele>89.0</ele><time>2026-03-29T10:12:09.001Z</time></trkpt><trkpt lat="44.45664619121086" lon="8.980499711439048"><ele>89.0</ele><time>2026-03-29T10:12:10.001Z</time></trkpt><trkpt lat="44.456568585485954" lon="8.980483826963356"><ele>89.0</ele><time>2026-03-29T10:12:11.001Z</time></trkpt><trkpt lat="44.45648982869358" lon="8.980475260938276"><ele>89.0</ele><time>2026-03-29T10:12:12.001Z</time></trkpt><trkpt lat="44.456415267355325" lon="8.980487996074602"><ele>89.0</ele><time>2026-03-29T10:12:13.001Z</time></trkpt><trkpt lat="44.45632946619012" lon="8.980474877689929"><ele>89.0</ele><time>2026-03-29T10:12:14.001Z</time></trkpt><trkpt lat="44.456247004346295" lon="8.980483366044423"><ele>89.0</ele><time>2026-03-29T10:12:15.001Z</time></trkpt><trkpt lat="44.45617011364359" lon="8.980495885154742"><ele>87.85714285714285</ele><time>2026-03-29T10:12:16.001Z</time></trkpt><trkpt lat="44.45609787403637" lon="8.980505859961445"><ele>86.71428571428571</ele><time>2026-03-29T10:12:17.001Z</time></trkpt><trkpt lat="44.45602179917674" lon="8.980521761193744"><ele>85.57142857142857</ele><time>2026-03-29T10:12:18.001Z</time></trkpt><trkpt lat="44.45594502334224" lon="8.980534068922351"><ele>84.42857142857142</ele><time>2026-03-29T10:12:19.001Z</time></trkpt><trkpt lat="44.45587550153365" lon="8.980552899002461"><ele>83.28571428571428</ele><time>2026-03-29T10:12:20.001Z</time></trkpt><trkpt lat="44.455808464569586" lon="8.980572750449907"><ele>82.14285714285714</ele><time>2026-03-29T10:12:21.001Z</time></trkpt><trkpt lat="44.45574761658168" lon="8.980602060013506"><ele>81.0</ele><time>2026-03-29T10:12:22.001Z</time></trkpt><trkpt lat="44.45568374826863" lon="8.980626616275567"><ele>81.0</ele><time>2026-03-29T10:12:23.001Z</time></trkpt><trkpt lat="44.45561714356841" lon="8.980652008283972"><ele>81.0</ele><time>2026-03-29T10:12:24.001Z</time></trkpt><trkpt lat="44.45555006628993" lon="8.980662993453201"><ele>81.0</ele><time>2026-03-29T10:12:25.001Z</time></trkpt><trkpt lat="44.45547883698889" lon="8.980681293708374"><ele>81.0</ele><time>2026-03-29T10:12:26.001Z</time></trkpt><trkpt lat="44.45541382497966" lon="8.980711029703745"><ele>81.0</ele><time>2026-03-29T10:12:27.001Z</time></trkpt><trkpt lat="44.455340858999065" lon="8.980744446252231"><ele>81.0</ele><time>2026-03-29T10:12:28.001Z</time></trkpt><trkpt lat="44.45527444369783" lon="8.980788990411385"><ele>81.0</ele><time>2026-03-29T10:12:29.001Z</time></trkpt><trkpt lat="44.45520611942473" lon="8.980825066888007"><ele>79.0</ele><time>2026-03-29T10:12:30.001Z</time></trkpt><trkpt lat="44.45514236709504" lon="8.980889296910803"><ele>77.0</ele><time>2026-03-29T10:12:31.001Z</time></trkpt><trkpt lat="44.45508592608338" lon="8.980951676519458"><ele>75.0</ele><time>2026-03-29T10:12:32.001Z</time></trkpt><trkpt lat="44.45502376516994" lon="8.9809998042008"><ele>73.0</ele><time>2026-03-29T10:12:33.001Z</time></trkpt><trkpt lat="44.454965648671674" lon="8.981048880097045"><ele>71.0</ele><time>2026-03-29T10:12:34.001Z</time></trkpt><trkpt lat="44.45490665620778" lon="8.981083387060625"><ele>69.0</ele><time>2026-03-29T10:12:35.001Z</time></trkpt><trkpt lat="44.45479855271525" lon="8.981133767909132"><ele>69.0</ele><time>2026-03-29T10:12:37.001Z</time></trkpt><trkpt lat="44.454688681430625" lon="8.9811508039547"><ele>69.0</ele><time>2026-03-29T10:12:39.001Z</time></trkpt><trkpt lat="44.45458899506259" lon="8.981165673171036"><ele>69.0</ele><time>2026-03-29T10:12:41.001Z</time></trkpt><trkpt lat="44.45450737758815" lon="8.98118463486922"><ele>69.0</ele><time>2026-03-29T10:12:43.001Z</time></trkpt><trkpt lat="44.45444169551998" lon="8.98117027040952"><ele>69.0</ele><time>2026-03-29T10:12:48.001Z</time></trkpt><trkpt lat="44.454378713277535" lon="8.981172106731727"><ele>69.0</ele><time>2026-03-29T10:13:26.002Z</time></trkpt><trkpt lat="44.45437222183909" lon="8.981041452261222"><ele>67.5</ele><time>2026-03-29T10:13:30Z</time></trkpt><trkpt lat="44.45436517129942" lon="8.980924580962002"><ele>66.0</ele><time>2026-03-29T10:13:34Z</time></trkpt><trkpt lat="44.45435204518078" lon="8.980806695825462"><ele>64.5</ele><time>2026-03-29T10:13:37Z</time></trkpt><trkpt lat="44.454335814999475" lon="8.980690571002796"><ele>63.0</ele><time>2026-03-29T10:13:40Z</time></trkpt><trkpt lat="44.45430843317669" lon="8.980574650220154"><ele>61.5</ele><time>2026-03-29T10:13:43Z</time></trkpt><trkpt lat="44.4542819993192" lon="8.980490573651844"><ele>60.0</ele><time>2026-03-29T10:13:45Z</time></trkpt><trkpt lat="44.454260251851366" lon="8.980373527890096"><ele>60.0</ele><time>2026-03-29T10:13:48Z</time></trkpt><trkpt lat="44.45423667569499" lon="8.980291585322274"><ele>60.0</ele><time>2026-03-29T10:13:50Z</time></trkpt><trkpt lat="44.45420568032749" lon="8.980173034814355"><ele>60.0</ele><time>2026-03-29T10:13:54Z</time></trkpt><trkpt lat="44.4542158050034" lon="8.980059210292536"><ele>60.0</ele><time>2026-03-29T10:13:57.001Z</time></trkpt><trkpt lat="44.45422019256207" lon="8.979941323279974"><ele>60.0</ele><time>2026-03-29T10:13:59.001Z</time></trkpt><trkpt lat="44.45419206145901" lon="8.97984886374951"><ele>60.0</ele><time>2026-03-29T10:14:01.001Z</time></trkpt><trkpt lat="44.454155935280404" lon="8.979768486703668"><ele>59.833333333333336</ele><time>2026-03-29T10:14:03.001Z</time></trkpt><trkpt lat="44.45411195475428" lon="8.979698864593567"><ele>59.66666666666667</ele><time>2026-03-29T10:14:05.001Z</time></trkpt><trkpt lat="44.45407281995945" lon="8.979606103999437"><ele>59.5</ele><time>2026-03-29T10:14:07.001Z</time></trkpt><trkpt lat="44.454047685790094" lon="8.97949588513317"><ele>59.333333333333336</ele><time>2026-03-29T10:14:09.001Z</time></trkpt><trkpt lat="44.454024432936016" lon="8.979384059936956"><ele>59.16666666666667</ele><time>2026-03-29T10:14:11.001Z</time></trkpt><trkpt lat="44.45399641786409" lon="8.979271010814681"><ele>59.0</ele><time>2026-03-29T10:14:13.001Z</time></trkpt><trkpt lat="44.45395722252898" lon="8.979142998364027"><ele>59.0</ele><time>2026-03-29T10:14:15.001Z</time></trkpt><trkpt lat="44.453916282180586" lon="8.979011507956717"><ele>59.00000000000001</ele><time>2026-03-29T10:14:17.001Z</time></trkpt><trkpt lat="44.45386385450325" lon="8.978877894687802"><ele>59.00000000000001</ele><time>2026-03-29T10:14:19.001Z</time></trkpt><trkpt lat="44.45380684936947" lon="8.978743554523618"><ele>59.0</ele><time>2026-03-29T10:14:21.001Z</time></trkpt><trkpt lat="44.45374162955989" lon="8.978614108619025"><ele>59.0</ele><time>2026-03-29T10:14:23.001Z</time></trkpt><trkpt lat="44.45368672935582" lon="8.978489756159393"><ele>59.2</ele><time>2026-03-29T10:14:25.001Z</time></trkpt><trkpt lat="44.45363184607415" lon="8.978374139939541"><ele>59.400000000000006</ele><time>2026-03-29T10:14:27.001Z</time></trkpt><trkpt lat="44.45356435748475" lon="8.978253200453196"><ele>59.6</ele><time>2026-03-29T10:14:29.001Z</time></trkpt><trkpt lat="44.453497029026686" lon="8.978122915209287"><ele>59.8</ele><time>2026-03-29T10:14:31.001Z</time></trkpt><trkpt lat="44.45342588600351" lon="8.977988337781571"><ele>60.0</ele><time>2026-03-29T10:14:33.001Z</time></trkpt><trkpt lat="44.45338792932191" lon="8.977916269385016"><ele>60.0</ele><time>2026-03-29T10:14:34.001Z</time></trkpt><trkpt lat="44.45335418740874" lon="8.977837622927558"><ele>60.0</ele><time>2026-03-29T10:14:35.001Z</time></trkpt><trkpt lat="44.45332609090176" lon="8.977754686672522"><ele>60.0</ele><time>2026-03-29T10:14:36.001Z</time></trkpt><trkpt lat="44.453287566175504" lon="8.977684664491326"><ele>60.0</ele><time>2026-03-29T10:14:37.001Z</time></trkpt><trkpt lat="44.45321391193742" lon="8.977557473717884"><ele>60.0</ele><time>2026-03-29T10:14:39.001Z</time></trkpt><trkpt lat="44.453146590527545" lon="8.977425708285766"><ele>60.0</ele><time>2026-03-29T10:14:41.001Z</time></trkpt><trkpt lat="44.45308041500545" lon="8.97730448472567"><ele>59.4</ele><time>2026-03-29T10:14:43.001Z</time></trkpt><trkpt lat="44.45302075527491" lon="8.977182857176448"><ele>58.8</ele><time>2026-03-29T10:14:45.001Z</time></trkpt><trkpt lat="44.45296066795824" lon="8.977064818920098"><ele>58.2</ele><time>2026-03-29T10:14:47.001Z</time></trkpt><trkpt lat="44.452899559646326" lon="8.976959709182697"><ele>57.6</ele><time>2026-03-29T10:14:49.001Z</time></trkpt><trkpt lat="44.4528478322986" lon="8.976839216984505"><ele>57.0</ele><time>2026-03-29T10:14:51.001Z</time></trkpt><trkpt lat="44.45278524192536" lon="8.976736075334786"><ele>56.6</ele><time>2026-03-29T10:14:53.001Z</time></trkpt><trkpt lat="44.452730789891156" lon="8.976615932000316"><ele>56.2</ele><time>2026-03-29T10:14:55.001Z</time></trkpt><trkpt lat="44.452671507420284" lon="8.976496260413535"><ele>55.8</ele><time>2026-03-29T10:14:57.002Z</time></trkpt><trkpt lat="44.45260648295721" lon="8.97637689205909"><ele>55.4</ele><time>2026-03-29T10:14:59.002Z</time></trkpt><trkpt lat="44.452545458250334" lon="8.976248106908702"><ele>55.0</ele><time>2026-03-29T10:15:01.002Z</time></trkpt><trkpt lat="44.452481679262334" lon="8.976125793630393"><ele>55.0</ele><time>2026-03-29T10:15:03.002Z</time></trkpt><trkpt lat="44.452420759043584" lon="8.975999622466302"><ele>55.0</ele><time>2026-03-29T10:15:05.002Z</time></trkpt><trkpt lat="44.45235523882939" lon="8.97586744960717"><ele>55.0</ele><time>2026-03-29T10:15:07.002Z</time></trkpt><trkpt lat="44.45229460110693" lon="8.975749476104028"><ele>55.0</ele><time>2026-03-29T10:15:09.002Z</time></trkpt><trkpt lat="44.452237448641384" lon="8.97562895032298"><ele>55.0</ele><time>2026-03-29T10:15:11.002Z</time></trkpt><trkpt lat="44.452174955287624" lon="8.97553191843012"><ele>55.2</ele><time>2026-03-29T10:15:13.002Z</time></trkpt><trkpt lat="44.45211889019394" lon="8.975432848069119"><ele>55.4</ele><time>2026-03-29T10:15:15.002Z</time></trkpt><trkpt lat="44.45206036588853" lon="8.975328502159623"><ele>55.599999999999994</ele><time>2026-03-29T10:15:17.002Z</time></trkpt><trkpt lat="44.451999786770195" lon="8.975207473467172"><ele>55.8</ele><time>2026-03-29T10:15:19.002Z</time></trkpt><trkpt lat="44.4519170473876" lon="8.975102237859376"><ele>56.0</ele><time>2026-03-29T10:15:21.002Z</time></trkpt><trkpt lat="44.45187586598423" lon="8.974956074936836"><ele>56.0</ele><time>2026-03-29T10:15:23.002Z</time></trkpt><trkpt lat="44.45181912798068" lon="8.974813887855131"><ele>56.0</ele><time>2026-03-29T10:15:25.002Z</time></trkpt><trkpt lat="44.45174772033008" lon="8.974683721899497"><ele>56.0</ele><time>2026-03-29T10:15:27.002Z</time></trkpt><trkpt lat="44.45168569617569" lon="8.974539625137853"><ele>56.0</ele><time>2026-03-29T10:15:29.002Z</time></trkpt><trkpt lat="44.45160813792442" lon="8.974412576495135"><ele>56.0</ele><time>2026-03-29T10:15:31.002Z</time></trkpt><trkpt lat="44.45153887446206" lon="8.974273939131097"><ele>56.0</ele><time>2026-03-29T10:15:33.001Z</time></trkpt><trkpt lat="44.451471484539" lon="8.97414102450692"><ele>56.0</ele><time>2026-03-29T10:15:35.001Z</time></trkpt><trkpt lat="44.45141018649396" lon="8.974010795816632"><ele>56.0</ele><time>2026-03-29T10:15:37.001Z</time></trkpt><trkpt lat="44.45134390772745" lon="8.973894029019924"><ele>54.5</ele><time>2026-03-29T10:15:39.001Z</time></trkpt><trkpt lat="44.4512792678154" lon="8.973766974105084"><ele>53.0</ele><time>2026-03-29T10:15:41.001Z</time></trkpt><trkpt lat="44.45122037032077" lon="8.973626040520168"><ele>51.5</ele><time>2026-03-29T10:15:43.001Z</time></trkpt><trkpt lat="44.4511517515598" lon="8.973502530253404"><ele>50.0</ele><time>2026-03-29T10:15:45Z</time></trkpt><trkpt lat="44.45108618475301" lon="8.973371012425108"><ele>50.8</ele><time>2026-03-29T10:15:47Z</time></trkpt><trkpt lat="44.45101503231869" lon="8.973251125603138"><ele>51.6</ele><time>2026-03-29T10:15:49Z</time></trkpt><trkpt lat="44.45094646922329" lon="8.97312811127035"><ele>52.400000000000006</ele><time>2026-03-29T10:15:51Z</time></trkpt><trkpt lat="44.45088349181362" lon="8.973003704945306"><ele>53.2</ele><time>2026-03-29T10:15:53Z</time></trkpt><trkpt lat="44.45081494966974" lon="8.972881810947934"><ele>54.0</ele><time>2026-03-29T10:15:55Z</time></trkpt><trkpt lat="44.45075699572581" lon="8.972767687362962"><ele>54.0</ele><time>2026-03-29T10:15:57.001Z</time></trkpt><trkpt lat="44.45069518535069" lon="8.972661351688254"><ele>54.00000000000001</ele><time>2026-03-29T10:15:59.001Z</time></trkpt><trkpt lat="44.45064031059573" lon="8.972552689090783"><ele>54.00000000000001</ele><time>2026-03-29T10:16:01.001Z</time></trkpt><trkpt lat="44.450579205875236" lon="8.972447435416107"><ele>54.0</ele><time>2026-03-29T10:16:03.001Z</time></trkpt><trkpt lat="44.450500683581225" lon="8.972361785691662"><ele>54.0</ele><time>2026-03-29T10:16:05.001Z</time></trkpt><trkpt lat="44.450401607969425" lon="8.972300659939664"><ele>53.6</ele><time>2026-03-29T10:16:07.001Z</time></trkpt><trkpt lat="44.45029848528749" lon="8.972240903849896"><ele>53.2</ele><time>2026-03-29T10:16:09.001Z</time></trkpt><trkpt lat="44.45018918234782" lon="8.972187140015311"><ele>52.800000000000004</ele><time>2026-03-29T10:16:11.001Z</time></trkpt><trkpt lat="44.45011815142498" lon="8.972160485232887"><ele>52.400000000000006</ele><time>2026-03-29T10:16:12.001Z</time></trkpt><trkpt lat="44.45001241029501" lon="8.972109786282939"><ele>52.0</ele><time>2026-03-29T10:16:14.001Z</time></trkpt><trkpt lat="44.44990297946276" lon="8.972067344116548"><ele>52.0</ele><time>2026-03-29T10:16:16.001Z</time></trkpt><trkpt lat="44.44980104539616" lon="8.972018172540325"><ele>52.0</ele><time>2026-03-29T10:16:18.001Z</time></trkpt><trkpt lat="44.449706779327265" lon="8.971977603190282"><ele>52.0</ele><time>2026-03-29T10:16:20.001Z</time></trkpt><trkpt lat="44.44961874969973" lon="8.971924366263078"><ele>52.0</ele><time>2026-03-29T10:16:22.001Z</time></trkpt><trkpt lat="44.4495290453349" lon="8.971858047414507"><ele>52.0</ele><time>2026-03-29T10:16:24.001Z</time></trkpt><trkpt lat="44.44945122362892" lon="8.971759976994155"><ele>51.2</ele><time>2026-03-29T10:16:26.001Z</time></trkpt><trkpt lat="44.44936379940834" lon="8.971668021013533"><ele>50.400000000000006</ele><time>2026-03-29T10:16:28.001Z</time></trkpt><trkpt lat="44.449305303771" lon="8.97153105016479"><ele>49.599999999999994</ele><time>2026-03-29T10:16:30.001Z</time></trkpt><trkpt lat="44.44924032140318" lon="8.971411573256145"><ele>48.8</ele><time>2026-03-29T10:16:32.001Z</time></trkpt><trkpt lat="44.44918394756128" lon="8.971287194421661"><ele>48.0</ele><time>2026-03-29T10:16:34.001Z</time></trkpt><trkpt lat="44.44912184944231" lon="8.971175945282935"><ele>48.0</ele><time>2026-03-29T10:16:36.001Z</time></trkpt><trkpt lat="44.44907037079044" lon="8.971065997569665"><ele>48.0</ele><time>2026-03-29T10:16:38.001Z</time></trkpt><trkpt lat="44.44902193668008" lon="8.970954749462447"><ele>48.0</ele><time>2026-03-29T10:16:40.001Z</time></trkpt><trkpt lat="44.448961496528916" lon="8.970846986029443"><ele>48.0</ele><time>2026-03-29T10:16:42.001Z</time></trkpt><trkpt lat="44.44889502569096" lon="8.97072792599829"><ele>48.0</ele><time>2026-03-29T10:16:44.001Z</time></trkpt><trkpt lat="44.44883092565093" lon="8.970596354581847"><ele>48.0</ele><time>2026-03-29T10:16:46.001Z</time></trkpt><trkpt lat="44.44877475892071" lon="8.970462188462855"><ele>48.0</ele><time>2026-03-29T10:16:48.001Z</time></trkpt><trkpt lat="44.448699421828906" lon="8.970348952454556"><ele>48.0</ele><time>2026-03-29T10:16:50.001Z</time></trkpt><trkpt lat="44.44863206838864" lon="8.97024493755326"><ele>48.0</ele><time>2026-03-29T10:16:52.001Z</time></trkpt><trkpt lat="44.44855891980928" lon="8.970151986930059"><ele>48.0</ele><time>2026-03-29T10:16:54.001Z</time></trkpt><trkpt lat="44.4484893046254" lon="8.970044939201303"><ele>49.2</ele><time>2026-03-29T10:16:56.001Z</time></trkpt><trkpt lat="44.44841119302264" lon="8.969944003279167"><ele>50.4</ele><time>2026-03-29T10:16:58.001Z</time></trkpt><trkpt lat="44.44834304896835" lon="8.969831678301523"><ele>51.60000000000001</ele><time>2026-03-29T10:17:00.001Z</time></trkpt><trkpt lat="44.44827047467195" lon="8.96971524350516"><ele>52.800000000000004</ele><time>2026-03-29T10:17:02.001Z</time></trkpt><trkpt lat="44.448197846975205" lon="8.969603400661398"><ele>54.0</ele><time>2026-03-29T10:17:04.001Z</time></trkpt><trkpt lat="44.44812500142586" lon="8.969482040743603"><ele>54.0</ele><time>2026-03-29T10:17:06.001Z</time></trkpt><trkpt lat="44.44804708570439" lon="8.969372601409207"><ele>54.00000000000001</ele><time>2026-03-29T10:17:08.001Z</time></trkpt><trkpt lat="44.44796938679197" lon="8.969262636732688"><ele>54.00000000000001</ele><time>2026-03-29T10:17:10.002Z</time></trkpt><trkpt lat="44.44790339733736" lon="8.969171501453788"><ele>54.0</ele><time>2026-03-29T10:17:12.002Z</time></trkpt><trkpt lat="44.447838641791705" lon="8.969067585404156"><ele>54.0</ele><time>2026-03-29T10:17:14.002Z</time></trkpt><trkpt lat="44.44777719941367" lon="8.96898019910649"><ele>52.833333333333336</ele><time>2026-03-29T10:17:16.002Z</time></trkpt><trkpt lat="44.44771487565129" lon="8.968882032909336"><ele>51.666666666666664</ele><time>2026-03-29T10:17:18.002Z</time></trkpt><trkpt lat="44.447646047010245" lon="8.968782448243564"><ele>50.5</ele><time>2026-03-29T10:17:21.002Z</time></trkpt><trkpt lat="44.447588390400796" lon="8.968710611357968"><ele>49.33333333333333</ele><time>2026-03-29T10:17:23.002Z</time></trkpt><trkpt lat="44.447534993278296" lon="8.968624205568641"><ele>48.166666666666664</ele><time>2026-03-29T10:17:25.002Z</time></trkpt><trkpt lat="44.44747237530187" lon="8.96854051208889"><ele>47.0</ele><time>2026-03-29T10:17:27.002Z</time></trkpt><trkpt lat="44.44742869159613" lon="8.968467180225188"><ele>47.0</ele><time>2026-03-29T10:17:29.002Z</time></trkpt><trkpt lat="44.44738742126669" lon="8.968399104317974"><ele>47.0</ele><time>2026-03-29T10:17:31.002Z</time></trkpt><trkpt lat="44.4473452456025" lon="8.968317716364153"><ele>47.0</ele><time>2026-03-29T10:17:34.002Z</time></trkpt><trkpt lat="44.44730601360484" lon="8.968217216729421"><ele>47.0</ele><time>2026-03-29T10:17:38.002Z</time></trkpt><trkpt lat="44.44725836103715" lon="8.968155604808269"><ele>47.0</ele><time>2026-03-29T10:17:45Z</time></trkpt><trkpt lat="44.44723571548673" lon="8.968066565293832"><ele>47.0</ele><time>2026-03-29T10:17:48Z</time></trkpt><trkpt lat="44.44719841980778" lon="8.967941127099454"><ele>47.0</ele><time>2026-03-29T10:17:51Z</time></trkpt><trkpt lat="44.44715355374781" lon="8.96784738196401"><ele>47.0</ele><time>2026-03-29T10:17:53Z</time></trkpt><trkpt lat="44.44710449159619" lon="8.967750570989836"><ele>47.0</ele><time>2026-03-29T10:17:55Z</time></trkpt><trkpt lat="44.447059796678154" lon="8.967638183997817"><ele>47.0</ele><time>2026-03-29T10:17:57Z</time></trkpt><trkpt lat="44.44698364385757" lon="8.967509130513758"><ele>47.0</ele><time>2026-03-29T10:17:59Z</time></trkpt><trkpt lat="44.44690046913548" lon="8.967382840941106"><ele>47.0</ele><time>2026-03-29T10:18:01Z</time></trkpt><trkpt lat="44.44684884664304" lon="8.967332131954176"><ele>47.0</ele><time>2026-03-29T10:18:02Z</time></trkpt><trkpt lat="44.446748902933656" lon="8.967232330577566"><ele>47.0</ele><time>2026-03-29T10:18:04Z</time></trkpt><trkpt lat="44.44664889364567" lon="8.967136436722006"><ele>47.0</ele><time>2026-03-29T10:18:06Z</time></trkpt><trkpt lat="44.446560073571504" lon="8.967046176916982"><ele>47.0</ele><time>2026-03-29T10:18:08Z</time></trkpt><trkpt lat="44.44647610853016" lon="8.966958195654877"><ele>47.0</ele><time>2026-03-29T10:18:10Z</time></trkpt><trkpt lat="44.446393523607746" lon="8.966879531467013"><ele>47.0</ele><time>2026-03-29T10:18:12Z</time></trkpt><trkpt lat="44.44631561729989" lon="8.966800264822318"><ele>47.0</ele><time>2026-03-29T10:18:14Z</time></trkpt><trkpt lat="44.446242833261216" lon="8.966722668886804"><ele>47.0</ele><time>2026-03-29T10:18:16.001Z</time></trkpt><trkpt lat="44.44617007837781" lon="8.966651496710238"><ele>47.0</ele><time>2026-03-29T10:18:18.001Z</time></trkpt><trkpt lat="44.4460861172475" lon="8.96657591859259"><ele>47.33333333333333</ele><time>2026-03-29T10:18:20.001Z</time></trkpt><trkpt lat="44.44600023615203" lon="8.966496577269272"><ele>47.666666666666664</ele><time>2026-03-29T10:18:22.001Z</time></trkpt><trkpt lat="44.44591263496755" lon="8.966424514160826"><ele>48.0</ele><time>2026-03-29T10:18:24.001Z</time></trkpt><trkpt lat="44.44584946015233" lon="8.966357748425954"><ele>48.33333333333333</ele><time>2026-03-29T10:18:26.001Z</time></trkpt><trkpt lat="44.445778227429024" lon="8.966355305704646"><ele>48.666666666666664</ele><time>2026-03-29T10:19:22.001Z</time></trkpt><trkpt lat="44.4457021119571" lon="8.96632335372443"><ele>49.0</ele><time>2026-03-29T10:19:24.001Z</time></trkpt><trkpt lat="44.44564021178932" lon="8.966285044339351"><ele>48.99999999999999</ele><time>2026-03-29T10:19:26.001Z</time></trkpt><trkpt lat="44.44557429527108" lon="8.966227651446387"><ele>49.0</ele><time>2026-03-29T10:19:28.002Z</time></trkpt><trkpt lat="44.445508350723976" lon="8.966156048067088"><ele>49.0</ele><time>2026-03-29T10:19:30.002Z</time></trkpt><trkpt lat="44.44545584069083" lon="8.966078112752124"><ele>49.0</ele><time>2026-03-29T10:19:32.002Z</time></trkpt><trkpt lat="44.44538573658234" lon="8.966010278226975"><ele>48.99999999999999</ele><time>2026-03-29T10:19:34.002Z</time></trkpt><trkpt lat="44.44532055498933" lon="8.965952278847869"><ele>49.0</ele><time>2026-03-29T10:19:36.002Z</time></trkpt><trkpt lat="44.44524388016181" lon="8.965889058797792"><ele>49.2</ele><time>2026-03-29T10:19:38.002Z</time></trkpt><trkpt lat="44.445185028955656" lon="8.965790062383954"><ele>49.400000000000006</ele><time>2026-03-29T10:19:40.002Z</time></trkpt><trkpt lat="44.44509724688477" lon="8.965724121690275"><ele>49.6</ele><time>2026-03-29T10:19:42.002Z</time></trkpt><trkpt lat="44.44504594526554" lon="8.965669326671033"><ele>49.8</ele><time>2026-03-29T10:19:43.002Z</time></trkpt><trkpt lat="44.444959583970444" lon="8.965597798208742"><ele>50.0</ele><time>2026-03-29T10:19:44.999Z</time></trkpt><trkpt lat="44.44487738006857" lon="8.965528445658556"><ele>50.0</ele><time>2026-03-29T10:19:46.999Z</time></trkpt><trkpt lat="44.44479084115631" lon="8.965449176259245"><ele>50.0</ele><time>2026-03-29T10:19:48.999Z</time></trkpt><trkpt lat="44.44470217597732" lon="8.96538389290933"><ele>50.0</ele><time>2026-03-29T10:19:50.999Z</time></trkpt><trkpt lat="44.44461110602128" lon="8.965311259967027"><ele>50.0</ele><time>2026-03-29T10:19:52.999Z</time></trkpt><trkpt lat="44.444528470126414" lon="8.965232432511892"><ele>50.0</ele><time>2026-03-29T10:19:54.999Z</time></trkpt><trkpt lat="44.4444702898877" lon="8.965195688564945"><ele>49.6</ele><time>2026-03-29T10:19:55.999Z</time></trkpt><trkpt lat="44.44441858349505" lon="8.96513794716703"><ele>49.2</ele><time>2026-03-29T10:19:56.999Z</time></trkpt><trkpt lat="44.44436671201247" lon="8.965083346496815"><ele>48.8</ele><time>2026-03-29T10:19:57.999Z</time></trkpt><trkpt lat="44.44426980145822" lon="8.965006333275513"><ele>48.4</ele><time>2026-03-29T10:19:59.999Z</time></trkpt><trkpt lat="44.44419092412248" lon="8.96487232976913"><ele>48.0</ele><time>2026-03-29T10:20:01.999Z</time></trkpt><trkpt lat="44.44410225379896" lon="8.964783093638244"><ele>48.0</ele><time>2026-03-29T10:20:03.999Z</time></trkpt><trkpt lat="44.44401195021349" lon="8.964675319920275"><ele>48.0</ele><time>2026-03-29T10:20:06Z</time></trkpt><trkpt lat="44.44391988774531" lon="8.964583730785034"><ele>48.0</ele><time>2026-03-29T10:20:08Z</time></trkpt><trkpt lat="44.44383877727159" lon="8.964496447397721"><ele>48.0</ele><time>2026-03-29T10:20:10Z</time></trkpt><trkpt lat="44.44377351930718" lon="8.964375707983516"><ele>48.0</ele><time>2026-03-29T10:20:12Z</time></trkpt><trkpt lat="44.44370322115193" lon="8.964341913892437"><ele>47.8</ele><time>2026-03-29T10:20:13Z</time></trkpt><trkpt lat="44.443620592783624" lon="8.964221369606971"><ele>47.599999999999994</ele><time>2026-03-29T10:20:15Z</time></trkpt><trkpt lat="44.443544520081076" lon="8.96411697954482"><ele>47.400000000000006</ele><time>2026-03-29T10:20:17Z</time></trkpt><trkpt lat="44.443486141076626" lon="8.964065965230201"><ele>47.2</ele><time>2026-03-29T10:20:18Z</time></trkpt><trkpt lat="44.443435479266974" lon="8.964008726390304"><ele>47.0</ele><time>2026-03-29T10:20:19Z</time></trkpt><trkpt lat="44.44333613764698" lon="8.963919928758372"><ele>47.0</ele><time>2026-03-29T10:20:21Z</time></trkpt><trkpt lat="44.44322471335667" lon="8.963850781394122"><ele>47.0</ele><time>2026-03-29T10:20:23Z</time></trkpt><trkpt lat="44.44315495697667" lon="8.9638208558372"><ele>47.0</ele><time>2026-03-29T10:20:24Z</time></trkpt><trkpt lat="44.44304128512165" lon="8.963822239832417"><ele>47.0</ele><time>2026-03-29T10:20:26Z</time></trkpt><trkpt lat="44.44295012656918" lon="8.963746443254125"><ele>47.0</ele><time>2026-03-29T10:20:28Z</time></trkpt><trkpt lat="44.44287812177537" lon="8.963764447301715"><ele>45.8</ele><time>2026-03-29T10:20:29Z</time></trkpt><trkpt lat="44.442808608032756" lon="8.963748682701718"><ele>44.6</ele><time>2026-03-29T10:20:30Z</time></trkpt><trkpt lat="44.44270548418385" lon="8.963704032408053"><ele>43.4</ele><time>2026-03-29T10:20:32Z</time></trkpt><trkpt lat="44.44260756209824" lon="8.96371407986685"><ele>42.199999999999996</ele><time>2026-03-29T10:20:33Z</time></trkpt><trkpt lat="44.4425372266898" lon="8.96370969864973"><ele>41.0</ele><time>2026-03-29T10:20:34Z</time></trkpt><trkpt lat="44.44240004918532" lon="8.963698988022257"><ele>40.99999999999999</ele><time>2026-03-29T10:20:36Z</time></trkpt><trkpt lat="44.44233598891999" lon="8.963690833070586"><ele>41.0</ele><time>2026-03-29T10:20:37Z</time></trkpt><trkpt lat="44.44226303117616" lon="8.963679213718828"><ele>41.0</ele><time>2026-03-29T10:20:38Z</time></trkpt><trkpt lat="44.442180365323615" lon="8.963672237338956"><ele>41.0</ele><time>2026-03-29T10:20:39Z</time></trkpt><trkpt lat="44.44211196221595" lon="8.963640023679329"><ele>41.0</ele><time>2026-03-29T10:20:40Z</time></trkpt><trkpt lat="44.442046299711265" lon="8.963615516713658"><ele>40.99999999999999</ele><time>2026-03-29T10:20:41Z</time></trkpt><trkpt lat="44.4419768660628" lon="8.963598797843035"><ele>41.0</ele><time>2026-03-29T10:20:42Z</time></trkpt><trkpt lat="44.44191043219032" lon="8.963596421640169"><ele>40.57142857142857</ele><time>2026-03-29T10:20:43Z</time></trkpt><trkpt lat="44.44183482251589" lon="8.963588276864835"><ele>40.14285714285714</ele><time>2026-03-29T10:20:44Z</time></trkpt><trkpt lat="44.44176811718971" lon="8.963572794304525"><ele>39.71428571428571</ele><time>2026-03-29T10:20:45Z</time></trkpt><trkpt lat="44.441704677272625" lon="8.96356934562419"><ele>39.285714285714285</ele><time>2026-03-29T10:20:46Z</time></trkpt><trkpt lat="44.44163273968687" lon="8.963560636558102"><ele>38.85714285714286</ele><time>2026-03-29T10:20:47Z</time></trkpt><trkpt lat="44.44156493188428" lon="8.963541386049213"><ele>38.42857142857142</ele><time>2026-03-29T10:20:48Z</time></trkpt><trkpt lat="44.44150060403856" lon="8.96352964162324"><ele>38.0</ele><time>2026-03-29T10:20:49Z</time></trkpt><trkpt lat="44.441431172118804" lon="8.963498423252197"><ele>38.0</ele><time>2026-03-29T10:20:50Z</time></trkpt><trkpt lat="44.44136710366033" lon="8.963465269351431"><ele>38.0</ele><time>2026-03-29T10:20:51.001Z</time></trkpt><trkpt lat="44.44130477156412" lon="8.963432015453211"><ele>38.0</ele><time>2026-03-29T10:20:52.001Z</time></trkpt><trkpt lat="44.441241530121424" lon="8.963404848828729"><ele>38.0</ele><time>2026-03-29T10:20:53.001Z</time></trkpt><trkpt lat="44.44117456361758" lon="8.963374600954497"><ele>38.0</ele><time>2026-03-29T10:20:54.001Z</time></trkpt><trkpt lat="44.44111015879004" lon="8.963347487677588"><ele>38.0</ele><time>2026-03-29T10:20:55.001Z</time></trkpt><trkpt lat="44.441044739551565" lon="8.96332017930009"><ele>38.0</ele><time>2026-03-29T10:20:56.001Z</time></trkpt><trkpt lat="44.440978801554614" lon="8.96328640122874"><ele>38.857142857142854</ele><time>2026-03-29T10:20:57.001Z</time></trkpt><trkpt lat="44.440909211889064" lon="8.963251966600861"><ele>39.714285714285715</ele><time>2026-03-29T10:20:58.001Z</time></trkpt><trkpt lat="44.44084552991574" lon="8.963225226313316"><ele>40.57142857142857</ele><time>2026-03-29T10:20:59.001Z</time></trkpt><trkpt lat="44.440777235195625" lon="8.963195294195181"><ele>41.42857142857143</ele><time>2026-03-29T10:21:00.001Z</time></trkpt><trkpt lat="44.44071287590086" lon="8.963168329583937"><ele>42.285714285714285</ele><time>2026-03-29T10:21:01.001Z</time></trkpt><trkpt lat="44.44064799122898" lon="8.963139076581678"><ele>43.142857142857146</ele><time>2026-03-29T10:21:02.001Z</time></trkpt><trkpt lat="44.44058140570393" lon="8.963100243396486"><ele>44.0</ele><time>2026-03-29T10:21:03.001Z</time></trkpt><trkpt lat="44.44051307062729" lon="8.963060627754023"><ele>43.285714285714285</ele><time>2026-03-29T10:21:04.001Z</time></trkpt><trkpt lat="44.44045137626797" lon="8.963025739197752"><ele>42.57142857142857</ele><time>2026-03-29T10:21:05.001Z</time></trkpt><trkpt lat="44.44038320230561" lon="8.963000884365472"><ele>41.85714285714286</ele><time>2026-03-29T10:21:06.001Z</time></trkpt><trkpt lat="44.44031980227792" lon="8.962970424424835"><ele>41.14285714285714</ele><time>2026-03-29T10:21:07.001Z</time></trkpt><trkpt lat="44.440251764223035" lon="8.962927680060146"><ele>40.42857142857142</ele><time>2026-03-29T10:21:08.001Z</time></trkpt><trkpt lat="44.44018758503634" lon="8.962907801561434"><ele>39.714285714285715</ele><time>2026-03-29T10:21:09.001Z</time></trkpt><trkpt lat="44.44012027489389" lon="8.962880115817555"><ele>39.0</ele><time>2026-03-29T10:21:10.001Z</time></trkpt><trkpt lat="44.44005455909945" lon="8.962857948592156"><ele>39.0</ele><time>2026-03-29T10:21:11.001Z</time></trkpt><trkpt lat="44.43998703361434" lon="8.962826873184488"><ele>39.0</ele><time>2026-03-29T10:21:12.001Z</time></trkpt><trkpt lat="44.439917461653486" lon="8.962807164361045"><ele>39.0</ele><time>2026-03-29T10:21:13.001Z</time></trkpt><trkpt lat="44.43984729913043" lon="8.962783858054236"><ele>39.0</ele><time>2026-03-29T10:21:14.001Z</time></trkpt><trkpt lat="44.439780680799345" lon="8.96276457892332"><ele>39.0</ele><time>2026-03-29T10:21:15.001Z</time></trkpt><trkpt lat="44.43971289662422" lon="8.962737115341703"><ele>39.0</ele><time>2026-03-29T10:21:16.001Z</time></trkpt><trkpt lat="44.43964300980856" lon="8.962713979651161"><ele>39.0</ele><time>2026-03-29T10:21:17.001Z</time></trkpt><trkpt lat="44.43957334796311" lon="8.96269049575918"><ele>38.85714285714286</ele><time>2026-03-29T10:21:18.001Z</time></trkpt><trkpt lat="44.43950742110647" lon="8.962670215474311"><ele>38.71428571428571</ele><time>2026-03-29T10:21:19.001Z</time></trkpt><trkpt lat="44.43943930823629" lon="8.962654191764601"><ele>38.57142857142857</ele><time>2026-03-29T10:21:20.001Z</time></trkpt><trkpt lat="44.439370081281545" lon="8.962633737955498"><ele>38.42857142857143</ele><time>2026-03-29T10:21:21.001Z</time></trkpt><trkpt lat="44.43930653585377" lon="8.962612988048068"><ele>38.28571428571429</ele><time>2026-03-29T10:21:22.001Z</time></trkpt><trkpt lat="44.43924355215597" lon="8.962589663669643"><ele>38.14285714285714</ele><time>2026-03-29T10:21:23.001Z</time></trkpt><trkpt lat="44.43917414453223" lon="8.962572304104935"><ele>38.0</ele><time>2026-03-29T10:21:24.001Z</time></trkpt><trkpt lat="44.43911137975833" lon="8.96255914929982"><ele>38.166666666666664</ele><time>2026-03-29T10:21:25.001Z</time></trkpt><trkpt lat="44.439042624088955" lon="8.962529097740722"><ele>38.33333333333333</ele><time>2026-03-29T10:21:26.001Z</time></trkpt><trkpt lat="44.43897554730379" lon="8.96250630930763"><ele>38.5</ele><time>2026-03-29T10:21:27.001Z</time></trkpt><trkpt lat="44.438848671113966" lon="8.962473416328146"><ele>38.666666666666664</ele><time>2026-03-29T10:21:29.001Z</time></trkpt><trkpt lat="44.438782986292274" lon="8.962452007373455"><ele>38.833333333333336</ele><time>2026-03-29T10:21:30.001Z</time></trkpt><trkpt lat="44.43872011682381" lon="8.962439399727266"><ele>39.0</ele><time>2026-03-29T10:21:31.001Z</time></trkpt><trkpt lat="44.43865576582706" lon="8.962412110772204"><ele>39.0</ele><time>2026-03-29T10:21:32.001Z</time></trkpt><trkpt lat="44.43853087943991" lon="8.962370982810619"><ele>39.0</ele><time>2026-03-29T10:21:34.001Z</time></trkpt><trkpt lat="44.43840652090554" lon="8.962334193837812"><ele>39.0</ele><time>2026-03-29T10:21:36.001Z</time></trkpt><trkpt lat="44.43833764888874" lon="8.962323919160497"><ele>39.0</ele><time>2026-03-29T10:21:37.001Z</time></trkpt><trkpt lat="44.438221674618454" lon="8.962277493180057"><ele>39.0</ele><time>2026-03-29T10:21:39.001Z</time></trkpt><trkpt lat="44.438108244129445" lon="8.9622336823753"><ele>39.0</ele><time>2026-03-29T10:21:41.001Z</time></trkpt><trkpt lat="44.437991846986975" lon="8.962185970141997"><ele>39.0</ele><time>2026-03-29T10:21:43.001Z</time></trkpt><trkpt lat="44.437883380374515" lon="8.962149341658563"><ele>39.0</ele><time>2026-03-29T10:21:45.001Z</time></trkpt><trkpt lat="44.43777181115548" lon="8.962114616900099"><ele>39.0</ele><time>2026-03-29T10:21:47.001Z</time></trkpt><trkpt lat="44.43765959075242" lon="8.962078542168406"><ele>37.8</ele><time>2026-03-29T10:21:49.001Z</time></trkpt><trkpt lat="44.43754874176888" lon="8.962066374646392"><ele>36.599999999999994</ele><time>2026-03-29T10:21:51Z</time></trkpt><trkpt lat="44.43743896603626" lon="8.962052486509245"><ele>35.4</ele><time>2026-03-29T10:21:53Z</time></trkpt><trkpt lat="44.437325679989044" lon="8.962050713012834"><ele>34.199999999999996</ele><time>2026-03-29T10:21:55Z</time></trkpt><trkpt lat="44.43721420257036" lon="8.962031616522667"><ele>33.0</ele><time>2026-03-29T10:21:57Z</time></trkpt><trkpt lat="44.43710710706782" lon="8.962035844794704"><ele>32.75</ele><time>2026-03-29T10:21:59Z</time></trkpt><trkpt lat="44.4369913050993" lon="8.96203341935706"><ele>32.5</ele><time>2026-03-29T10:22:01Z</time></trkpt><trkpt lat="44.43687279975848" lon="8.96202910832725"><ele>32.25</ele><time>2026-03-29T10:22:03Z</time></trkpt><trkpt lat="44.436757788918925" lon="8.962000467767092"><ele>32.0</ele><time>2026-03-29T10:22:05Z</time></trkpt><trkpt lat="44.43663965382445" lon="8.961996596847971"><ele>32.0</ele><time>2026-03-29T10:22:07Z</time></trkpt><trkpt lat="44.436522086104375" lon="8.961999661325851"><ele>32.0</ele><time>2026-03-29T10:22:09Z</time></trkpt><trkpt lat="44.43640739224966" lon="8.961975131510233"><ele>32.0</ele><time>2026-03-29T10:22:11Z</time></trkpt><trkpt lat="44.436291229111966" lon="8.96195170569748"><ele>32.0</ele><time>2026-03-29T10:22:13Z</time></trkpt><trkpt lat="44.43617658726256" lon="8.961962811473581"><ele>31.6</ele><time>2026-03-29T10:22:15Z</time></trkpt><trkpt lat="44.436064395394055" lon="8.96195423659306"><ele>31.200000000000003</ele><time>2026-03-29T10:22:17Z</time></trkpt><trkpt lat="44.43596595942636" lon="8.961953064282627"><ele>30.8</ele><time>2026-03-29T10:22:19Z</time></trkpt><trkpt lat="44.435855499602496" lon="8.961919711908429"><ele>30.4</ele><time>2026-03-29T10:22:21Z</time></trkpt><trkpt lat="44.43573716783598" lon="8.961900417852616"><ele>30.0</ele><time>2026-03-29T10:22:23Z</time></trkpt><trkpt lat="44.43562057395705" lon="8.96185932615408"><ele>30.0</ele><time>2026-03-29T10:22:25Z</time></trkpt><trkpt lat="44.4355052297417" lon="8.961821043496268"><ele>30.0</ele><time>2026-03-29T10:22:27Z</time></trkpt><trkpt lat="44.43544577289989" lon="8.961790300783669"><ele>30.0</ele><time>2026-03-29T10:22:28Z</time></trkpt><trkpt lat="44.435334590850594" lon="8.961731873865304"><ele>30.0</ele><time>2026-03-29T10:22:30Z</time></trkpt><trkpt lat="44.435276059289116" lon="8.961699108060573"><ele>30.0</ele><time>2026-03-29T10:22:31Z</time></trkpt><trkpt lat="44.43516765814791" lon="8.961638839271917"><ele>30.25</ele><time>2026-03-29T10:22:33Z</time></trkpt><trkpt lat="44.43505894623755" lon="8.96158785771451"><ele>30.5</ele><time>2026-03-29T10:22:35Z</time></trkpt><trkpt lat="44.43494712364484" lon="8.961525530496155"><ele>30.75</ele><time>2026-03-29T10:22:37.001Z</time></trkpt><trkpt lat="44.43484013235931" lon="8.961453671328208"><ele>31.0</ele><time>2026-03-29T10:22:39.001Z</time></trkpt><trkpt lat="44.434733121458315" lon="8.961374309149097"><ele>30.25</ele><time>2026-03-29T10:22:41.001Z</time></trkpt><trkpt lat="44.43462720319571" lon="8.961285977791817"><ele>29.5</ele><time>2026-03-29T10:22:43.001Z</time></trkpt><trkpt lat="44.43452137666994" lon="8.961196901485108"><ele>28.75</ele><time>2026-03-29T10:22:45.001Z</time></trkpt><trkpt lat="44.43441992473172" lon="8.961102135193041"><ele>28.0</ele><time>2026-03-29T10:22:47.001Z</time></trkpt><trkpt lat="44.43432208132168" lon="8.961010282725603"><ele>28.0</ele><time>2026-03-29T10:22:49.001Z</time></trkpt><trkpt lat="44.434227734507544" lon="8.960902731991839"><ele>28.0</ele><time>2026-03-29T10:22:51.001Z</time></trkpt><trkpt lat="44.434140619981704" lon="8.96080798060154"><ele>28.0</ele><time>2026-03-29T10:22:53.001Z</time></trkpt><trkpt lat="44.43404810215519" lon="8.960697157796945"><ele>28.0</ele><time>2026-03-29T10:22:55.001Z</time></trkpt><trkpt lat="44.43395191138112" lon="8.960613095201808"><ele>28.25</ele><time>2026-03-29T10:22:57.001Z</time></trkpt><trkpt lat="44.43385932287419" lon="8.960510189661266"><ele>28.5</ele><time>2026-03-29T10:22:59.001Z</time></trkpt><trkpt lat="44.43376544330311" lon="8.96042181260837"><ele>28.75</ele><time>2026-03-29T10:23:01.001Z</time></trkpt><trkpt lat="44.43366904667844" lon="8.960324130081464"><ele>29.0</ele><time>2026-03-29T10:23:03.001Z</time></trkpt><trkpt lat="44.43357242801218" lon="8.960217827678354"><ele>29.0</ele><time>2026-03-29T10:23:05.001Z</time></trkpt><trkpt lat="44.43347700676681" lon="8.960120430227938"><ele>29.0</ele><time>2026-03-29T10:23:07.001Z</time></trkpt><trkpt lat="44.43338530249156" lon="8.960013661400295"><ele>29.0</ele><time>2026-03-29T10:23:09.001Z</time></trkpt><trkpt lat="44.433293772180626" lon="8.959910995093328"><ele>29.0</ele><time>2026-03-29T10:23:11.001Z</time></trkpt><trkpt lat="44.433206514613474" lon="8.9598162525233"><ele>29.999999999999996</ele><time>2026-03-29T10:23:13.001Z</time></trkpt><trkpt lat="44.433118695521955" lon="8.95973372137449"><ele>31.0</ele><time>2026-03-29T10:23:15.001Z</time></trkpt><trkpt lat="44.43305260619798" lon="8.959634808140638"><ele>32.0</ele><time>2026-03-29T10:23:17.001Z</time></trkpt><trkpt lat="44.43309043056287" lon="8.95950939148704"><ele>33.0</ele><time>2026-03-29T10:23:19.001Z</time></trkpt><trkpt lat="44.433136765958416" lon="8.95944775468368"><ele>34.0</ele><time>2026-03-29T10:23:20.001Z</time></trkpt><trkpt lat="44.43317831169503" lon="8.959351471246823"><ele>35.0</ele><time>2026-03-29T10:23:24.001Z</time></trkpt><trkpt lat="44.433112983998505" lon="8.959282902790653"><ele>35.0</ele><time>2026-03-29T10:23:29.001Z</time></trkpt><trkpt lat="44.433069318424295" lon="8.95920759412646"><ele>35.0</ele><time>2026-03-29T10:23:32.001Z</time></trkpt><trkpt lat="44.433003509108154" lon="8.95918281496063"><ele>35.0</ele><time>2026-03-29T10:23:34.002Z</time></trkpt><trkpt lat="44.43294180607763" lon="8.959137455871904"><ele>35.0</ele><time>2026-03-29T10:23:37.002Z</time></trkpt><trkpt lat="44.432906579946255" lon="8.959040691482102"><ele>35.0</ele><time>2026-03-29T10:23:40.002Z</time></trkpt><trkpt lat="44.43286365475607" lon="8.958971136882528"><ele>35.0</ele><time>2026-03-29T10:23:42.002Z</time></trkpt><trkpt lat="44.43283011704363" lon="8.958893384061756"><ele>35.0</ele><time>2026-03-29T10:23:45.002Z</time></trkpt><trkpt lat="44.43278248383504" lon="8.958788776307095"><ele>34.83333333333333</ele><time>2026-03-29T10:23:48.002Z</time></trkpt><trkpt lat="44.432741101166606" lon="8.958710784863435"><ele>34.666666666666664</ele><time>2026-03-29T10:23:50.002Z</time></trkpt><trkpt lat="44.43270754168335" lon="8.958613907424224"><ele>34.5</ele><time>2026-03-29T10:23:52.002Z</time></trkpt><trkpt lat="44.43265596200572" lon="8.958536533591413"><ele>34.333333333333336</ele><time>2026-03-29T10:23:54.002Z</time></trkpt><trkpt lat="44.43263459323294" lon="8.958437465192443"><ele>34.16666666666667</ele><time>2026-03-29T10:23:56.002Z</time></trkpt><trkpt lat="44.43258866131105" lon="8.958361840598696"><ele>34.0</ele><time>2026-03-29T10:23:58Z</time></trkpt><trkpt lat="44.43252954719092" lon="8.958258323164822"><ele>34.333333333333336</ele><time>2026-03-29T10:24:01Z</time></trkpt><trkpt lat="44.432474928770986" lon="8.958187052582096"><ele>34.66666666666667</ele><time>2026-03-29T10:24:03Z</time></trkpt><trkpt lat="44.432420741729544" lon="8.958114589681024"><ele>35.0</ele><time>2026-03-29T10:24:05Z</time></trkpt><trkpt lat="44.43239474636907" lon="8.957992505185926"><ele>35.333333333333336</ele><time>2026-03-29T10:24:08Z</time></trkpt><trkpt lat="44.432336839318566" lon="8.957898723122797"><ele>35.666666666666664</ele><time>2026-03-29T10:24:10Z</time></trkpt><trkpt lat="44.43223083102316" lon="8.95788180069544"><ele>36.0</ele><time>2026-03-29T10:24:12Z</time></trkpt><trkpt lat="44.432155694291936" lon="8.957850860457343"><ele>34.666666666666664</ele><time>2026-03-29T10:24:14Z</time></trkpt><trkpt lat="44.4320814536438" lon="8.95781834571404"><ele>33.333333333333336</ele><time>2026-03-29T10:24:16Z</time></trkpt><trkpt lat="44.43199343560159" lon="8.957757830978856"><ele>32.0</ele><time>2026-03-29T10:24:18Z</time></trkpt><trkpt lat="44.43196897633351" lon="8.957675521791492"><ele>30.666666666666668</ele><time>2026-03-29T10:24:20Z</time></trkpt><trkpt lat="44.43190960596685" lon="8.957741213698664"><ele>29.333333333333336</ele><time>2026-03-29T10:24:21Z</time></trkpt><trkpt lat="44.43183495841291" lon="8.95774055414422"><ele>28.0</ele><time>2026-03-29T10:24:23Z</time></trkpt><trkpt lat="44.43174787554592" lon="8.95770632258013"><ele>28.000000000000004</ele><time>2026-03-29T10:24:26Z</time></trkpt><trkpt lat="44.43168321418564" lon="8.95768346948321"><ele>28.0</ele><time>2026-03-29T10:24:28Z</time></trkpt><trkpt lat="44.43160793018814" lon="8.95767116422568"><ele>28.0</ele><time>2026-03-29T10:24:30Z</time></trkpt><trkpt lat="44.431519086528404" lon="8.957649678918793"><ele>28.0</ele><time>2026-03-29T10:24:33.001Z</time></trkpt><trkpt lat="44.43147935918712" lon="8.957565024604422"><ele>28.000000000000004</ele><time>2026-03-29T10:24:37.001Z</time></trkpt><trkpt lat="44.4313924691985" lon="8.957548041362644"><ele>28.0</ele><time>2026-03-29T10:24:40.001Z</time></trkpt><trkpt lat="44.43129986117245" lon="8.957453829491952"><ele>28.599999999999998</ele><time>2026-03-29T10:24:44.001Z</time></trkpt><trkpt lat="44.43119046062304" lon="8.95742933912749"><ele>29.199999999999996</ele><time>2026-03-29T10:24:46.001Z</time></trkpt><trkpt lat="44.431086333377884" lon="8.957373611230476"><ele>29.8</ele><time>2026-03-29T10:24:48.001Z</time></trkpt><trkpt lat="44.43098605570238" lon="8.957309589549686"><ele>30.4</ele><time>2026-03-29T10:24:50.001Z</time></trkpt><trkpt lat="44.43090383621447" lon="8.957238283070293"><ele>31.0</ele><time>2026-03-29T10:24:52.001Z</time></trkpt><trkpt lat="44.43084304957702" lon="8.957182643746886"><ele>31.000000000000004</ele><time>2026-03-29T10:24:54.001Z</time></trkpt><trkpt lat="44.430788622230686" lon="8.957123905085751"><ele>31.0</ele><time>2026-03-29T10:24:56.001Z</time></trkpt><trkpt lat="44.430733944548415" lon="8.957027296161142"><ele>31.0</ele><time>2026-03-29T10:24:59.001Z</time></trkpt><trkpt lat="44.43073814198548" lon="8.956932813936056"><ele>31.0</ele><time>2026-03-29T10:25:01.001Z</time></trkpt><trkpt lat="44.430683690443374" lon="8.956870967604262"><ele>31.000000000000004</ele><time>2026-03-29T10:25:03.001Z</time></trkpt><trkpt lat="44.43063181379607" lon="8.956800382964085"><ele>31.0</ele><time>2026-03-29T10:25:05.001Z</time></trkpt><trkpt lat="44.43057795509738" lon="8.95670145492907"><ele>30.000000000000004</ele><time>2026-03-29T10:25:07.001Z</time></trkpt><trkpt lat="44.430569717318" lon="8.956590888763499"><ele>29.0</ele><time>2026-03-29T10:25:09.001Z</time></trkpt><trkpt lat="44.430550581955664" lon="8.956471996342623"><ele>28.0</ele><time>2026-03-29T10:25:12.001Z</time></trkpt><trkpt lat="44.43048287142358" lon="8.956412109063434"><ele>27.0</ele><time>2026-03-29T10:25:16.001Z</time></trkpt><trkpt lat="44.43041737716806" lon="8.95635793987826"><ele>26.000000000000004</ele><time>2026-03-29T10:25:19.001Z</time></trkpt><trkpt lat="44.43035982223896" lon="8.956322128571909"><ele>25.0</ele><time>2026-03-29T10:25:21.001Z</time></trkpt><trkpt lat="44.430301391434675" lon="8.956285360078626"><ele>25.0</ele><time>2026-03-29T10:25:23.001Z</time></trkpt><trkpt lat="44.430245189997535" lon="8.956239175773732"><ele>25.0</ele><time>2026-03-29T10:25:25.001Z</time></trkpt><trkpt lat="44.43019507990655" lon="8.956159251655384"><ele>25.0</ele><time>2026-03-29T10:25:27.001Z</time></trkpt><trkpt lat="44.43012747330523" lon="8.956042412957009"><ele>25.0</ele><time>2026-03-29T10:25:30.001Z</time></trkpt><trkpt lat="44.43006473171292" lon="8.955959293373924"><ele>25.0</ele><time>2026-03-29T10:25:33.002Z</time></trkpt><trkpt lat="44.43001465852558" lon="8.95580520343895"><ele>26.666666666666668</ele><time>2026-03-29T10:25:35.002Z</time></trkpt><trkpt lat="44.42996359395626" lon="8.95570308147359"><ele>28.333333333333336</ele><time>2026-03-29T10:25:37.002Z</time></trkpt><trkpt lat="44.42991286589113" lon="8.955602315296618"><ele>30.0</ele><time>2026-03-29T10:25:39.002Z</time></trkpt><trkpt lat="44.429874234629935" lon="8.955487862611253"><ele>31.666666666666664</ele><time>2026-03-29T10:25:42.002Z</time></trkpt><trkpt lat="44.42985511757798" lon="8.955397612004756"><ele>33.33333333333333</ele><time>2026-03-29T10:25:44.002Z</time></trkpt><trkpt lat="44.42982087616572" lon="8.95531887817464"><ele>35.0</ele><time>2026-03-29T10:25:46.002Z</time></trkpt><trkpt lat="44.42980434156665" lon="8.955206173413787"><ele>35.0</ele><time>2026-03-29T10:25:48.002Z</time></trkpt><trkpt lat="44.42977725375686" lon="8.955092953161113"><ele>35.0</ele><time>2026-03-29T10:25:50.002Z</time></trkpt><trkpt lat="44.429765564945555" lon="8.954968401337307"><ele>35.0</ele><time>2026-03-29T10:25:52.002Z</time></trkpt><trkpt lat="44.429746784992716" lon="8.954848853696497"><ele>35.0</ele><time>2026-03-29T10:25:54.002Z</time></trkpt><trkpt lat="44.42973230575215" lon="8.954733690633"><ele>35.0</ele><time>2026-03-29T10:25:56.002Z</time></trkpt><trkpt lat="44.42970706579224" lon="8.954613986626816"><ele>35.0</ele><time>2026-03-29T10:25:58.002Z</time></trkpt><trkpt lat="44.42966054989462" lon="8.954500198276286"><ele>33.33333333333333</ele><time>2026-03-29T10:26:00.002Z</time></trkpt><trkpt lat="44.429593511571206" lon="8.954432736893876"><ele>31.666666666666664</ele><time>2026-03-29T10:26:02.002Z</time></trkpt><trkpt lat="44.42950737471534" lon="8.954348756815428"><ele>30.0</ele><time>2026-03-29T10:26:05Z</time></trkpt><trkpt lat="44.429425773152566" lon="8.954389336415996"><ele>28.333333333333336</ele><time>2026-03-29T10:26:07Z</time></trkpt><trkpt lat="44.4293527770353" lon="8.95442220249891"><ele>26.666666666666668</ele><time>2026-03-29T10:26:09Z</time></trkpt><trkpt lat="44.42928187110393" lon="8.954363443371841"><ele>25.0</ele><time>2026-03-29T10:26:50.001Z</time></trkpt><trkpt lat="44.42922471102516" lon="8.954444752477741"><ele>25.000000000000004</ele><time>2026-03-29T10:26:56.001Z</time></trkpt><trkpt lat="44.42914727280674" lon="8.954507339823397"><ele>25.0</ele><time>2026-03-29T10:27:00.001Z</time></trkpt><trkpt lat="44.42908153112025" lon="8.954512115831882"><ele>25.0</ele><time>2026-03-29T10:27:02.001Z</time></trkpt><trkpt lat="44.42902357702988" lon="8.954431282285578"><ele>25.0</ele><time>2026-03-29T10:27:05.001Z</time></trkpt><trkpt lat="44.4289742693099" lon="8.954351471503593"><ele>25.000000000000004</ele><time>2026-03-29T10:27:08.001Z</time></trkpt><trkpt lat="44.42892881874185" lon="8.954257263154677"><ele>25.0</ele><time>2026-03-29T10:27:11.001Z</time></trkpt><trkpt lat="44.42887804987538" lon="8.954171433179509"><ele>26.000000000000004</ele><time>2026-03-29T10:27:14.001Z</time></trkpt><trkpt lat="44.42884031728018" lon="8.954068481153827"><ele>27.0</ele><time>2026-03-29T10:27:17.001Z</time></trkpt><trkpt lat="44.42883517034559" lon="8.953948310106728"><ele>28.0</ele><time>2026-03-29T10:27:19.001Z</time></trkpt><trkpt lat="44.42884876455243" lon="8.9538295253047"><ele>29.0</ele><time>2026-03-29T10:27:21.001Z</time></trkpt><trkpt lat="44.428854259640325" lon="8.953717175626418"><ele>30.000000000000004</ele><time>2026-03-29T10:27:23.001Z</time></trkpt><trkpt lat="44.42884069391166" lon="8.95360444482322"><ele>31.0</ele><time>2026-03-29T10:27:25.001Z</time></trkpt><trkpt lat="44.428815158454086" lon="8.953493146197966"><ele>29.833333333333336</ele><time>2026-03-29T10:27:27.001Z</time></trkpt><trkpt lat="44.42878975436306" lon="8.953384937255903"><ele>28.666666666666668</ele><time>2026-03-29T10:27:29.001Z</time></trkpt><trkpt lat="44.42875408913112" lon="8.953277062235774"><ele>27.5</ele><time>2026-03-29T10:27:31.001Z</time></trkpt><trkpt lat="44.42870567171541" lon="8.953191194390532"><ele>26.333333333333336</ele><time>2026-03-29T10:27:33.001Z</time></trkpt><trkpt lat="44.42864019539826" lon="8.953133451298427"><ele>25.166666666666668</ele><time>2026-03-29T10:27:35.001Z</time></trkpt><trkpt lat="44.4286100443989" lon="8.953029416426295"><ele>24.0</ele><time>2026-03-29T10:27:37.001Z</time></trkpt><trkpt lat="44.42857850008261" lon="8.952932445617279"><ele>23.666666666666668</ele><time>2026-03-29T10:27:39.001Z</time></trkpt><trkpt lat="44.42856759479305" lon="8.952824114031273"><ele>23.333333333333332</ele><time>2026-03-29T10:27:41.001Z</time></trkpt><trkpt lat="44.42856377793069" lon="8.952709323821914"><ele>23.0</ele><time>2026-03-29T10:27:43.001Z</time></trkpt><trkpt lat="44.42854350196609" lon="8.952588997569308"><ele>22.666666666666664</ele><time>2026-03-29T10:27:45.001Z</time></trkpt><trkpt lat="44.4285244663483" lon="8.952463901312061"><ele>22.333333333333332</ele><time>2026-03-29T10:27:47.002Z</time></trkpt><trkpt lat="44.42850100510612" lon="8.952347959822307"><ele>22.0</ele><time>2026-03-29T10:27:49.002Z</time></trkpt><trkpt lat="44.42847134870475" lon="8.952223887038299"><ele>22.0</ele><time>2026-03-29T10:27:51.002Z</time></trkpt><trkpt lat="44.428442054080506" lon="8.952105076054183"><ele>22.0</ele><time>2026-03-29T10:27:53.002Z</time></trkpt><trkpt lat="44.42841323618135" lon="8.951988629329467"><ele>22.0</ele><time>2026-03-29T10:27:55.002Z</time></trkpt><trkpt lat="44.42837871712482" lon="8.951878418900542"><ele>22.0</ele><time>2026-03-29T10:27:57.002Z</time></trkpt><trkpt lat="44.4283706625853" lon="8.951750720767155"><ele>22.0</ele><time>2026-03-29T10:27:59.002Z</time></trkpt><trkpt lat="44.428332100250216" lon="8.951631258023275"><ele>22.0</ele><time>2026-03-29T10:28:01.002Z</time></trkpt><trkpt lat="44.42826946974963" lon="8.951537273926794"><ele>22.666666666666664</ele><time>2026-03-29T10:28:03.002Z</time></trkpt><trkpt lat="44.42822800736442" lon="8.951447828887735"><ele>23.333333333333332</ele><time>2026-03-29T10:28:05.002Z</time></trkpt><trkpt lat="44.42820724450137" lon="8.951322251892005"><ele>24.0</ele><time>2026-03-29T10:28:07.002Z</time></trkpt><trkpt lat="44.42817999563083" lon="8.951206072241215"><ele>24.666666666666664</ele><time>2026-03-29T10:28:09Z</time></trkpt><trkpt lat="44.428155249177834" lon="8.951077996618814"><ele>25.333333333333332</ele><time>2026-03-29T10:28:11Z</time></trkpt><trkpt lat="44.42814721972613" lon="8.95094478573348"><ele>26.0</ele><time>2026-03-29T10:28:13Z</time></trkpt><trkpt lat="44.4281526143289" lon="8.950810002870892"><ele>26.200000000000003</ele><time>2026-03-29T10:28:15Z</time></trkpt><trkpt lat="44.42811785588519" lon="8.950695603386004"><ele>26.400000000000002</ele><time>2026-03-29T10:28:17Z</time></trkpt><trkpt lat="44.42809355712586" lon="8.950541278567341"><ele>26.6</ele><time>2026-03-29T10:28:19Z</time></trkpt><trkpt lat="44.42806743184701" lon="8.950415780849724"><ele>26.8</ele><time>2026-03-29T10:28:21Z</time></trkpt><trkpt lat="44.428047217617326" lon="8.950295113013375"><ele>27.0</ele><time>2026-03-29T10:28:23Z</time></trkpt><trkpt lat="44.42801191581696" lon="8.950205854874682"><ele>27.0</ele><time>2026-03-29T10:28:25Z</time></trkpt><trkpt lat="44.42798999755912" lon="8.95011729012102"><ele>27.0</ele><time>2026-03-29T10:28:28Z</time></trkpt><trkpt lat="44.42799974088201" lon="8.95000442637026"><ele>27.0</ele><time>2026-03-29T10:28:31Z</time></trkpt><trkpt lat="44.42800821533736" lon="8.949907544231499"><ele>27.0</ele><time>2026-03-29T10:28:36Z</time></trkpt><trkpt lat="44.42792922506793" lon="8.9498660969713"><ele>27.0</ele><time>2026-03-29T10:28:40Z</time></trkpt><trkpt lat="44.42793374836912" lon="8.94977053902911"><ele>27.0</ele><time>2026-03-29T10:28:42Z</time></trkpt><trkpt lat="44.42789740882954" lon="8.949683631672627"><ele>27.0</ele><time>2026-03-29T10:28:46Z</time></trkpt><trkpt lat="44.42786090766812" lon="8.949592798279179"><ele>27.166666666666668</ele><time>2026-03-29T10:28:50.001Z</time></trkpt><trkpt lat="44.42792432745811" lon="8.949511392193129"><ele>27.333333333333336</ele><time>2026-03-29T10:28:52.001Z</time></trkpt><trkpt lat="44.42800111305461" lon="8.949471552858668"><ele>27.5</ele><time>2026-03-29T10:28:54.001Z</time></trkpt><trkpt lat="44.42806072894499" lon="8.949407445002326"><ele>27.666666666666668</ele><time>2026-03-29T10:28:56.001Z</time></trkpt><trkpt lat="44.428102348206636" lon="8.94933192062331"><ele>27.833333333333336</ele><time>2026-03-29T10:28:58.001Z</time></trkpt><trkpt lat="44.42809442703119" lon="8.94921877644124"><ele>28.0</ele><time>2026-03-29T10:29:01.001Z</time></trkpt><trkpt lat="44.428077288380805" lon="8.949118149171996"><ele>27.714285714285715</ele><time>2026-03-29T10:29:04.001Z</time></trkpt><trkpt lat="44.42804450735544" lon="8.949017698147859"><ele>27.42857142857143</ele><time>2026-03-29T10:29:07.001Z</time></trkpt><trkpt lat="44.42802767266908" lon="8.948931598023426"><ele>27.142857142857142</ele><time>2026-03-29T10:29:09.001Z</time></trkpt><trkpt lat="44.428011797481865" lon="8.948836446390711"><ele>26.857142857142858</ele><time>2026-03-29T10:29:11.001Z</time></trkpt><trkpt lat="44.42798704917395" lon="8.948720444739733"><ele>26.571428571428573</ele><time>2026-03-29T10:29:16.001Z</time></trkpt><trkpt lat="44.42793106252421" lon="8.948654305788692"><ele>26.285714285714285</ele><time>2026-03-29T10:29:20.001Z</time></trkpt><trkpt lat="44.42791194310123" lon="8.948567736841747"><ele>26.0</ele><time>2026-03-29T10:29:22.001Z</time></trkpt><trkpt lat="44.42788545443128" lon="8.948455230259173"><ele>25.666666666666664</ele><time>2026-03-29T10:29:25.001Z</time></trkpt><trkpt lat="44.42785170167036" lon="8.948343483389928"><ele>25.333333333333332</ele><time>2026-03-29T10:29:28.001Z</time></trkpt><trkpt lat="44.42780316008002" lon="8.948231234536463"><ele>25.0</ele><time>2026-03-29T10:29:31.001Z</time></trkpt><trkpt lat="44.42774811078966" lon="8.948137878640624"><ele>24.666666666666664</ele><time>2026-03-29T10:29:33.001Z</time></trkpt><trkpt lat="44.42771634428299" lon="8.94804938255055"><ele>24.333333333333332</ele><time>2026-03-29T10:29:35.001Z</time></trkpt><trkpt lat="44.42767214143094" lon="8.947976507632758"><ele>24.0</ele><time>2026-03-29T10:29:37.001Z</time></trkpt><trkpt lat="44.42762768714731" lon="8.947883126134272"><ele>24.0</ele><time>2026-03-29T10:29:40.001Z</time></trkpt><trkpt lat="44.427554058980505" lon="8.947860470005132"><ele>24.0</ele><time>2026-03-29T10:29:43.001Z</time></trkpt><trkpt lat="44.42748988700568" lon="8.947779273638144"><ele>24.0</ele><time>2026-03-29T10:29:45.001Z</time></trkpt><trkpt lat="44.4274095253849" lon="8.947795415546999"><ele>24.0</ele><time>2026-03-29T10:29:47.001Z</time></trkpt><trkpt lat="44.427334715855736" lon="8.947709879203082"><ele>24.0</ele><time>2026-03-29T10:29:49.001Z</time></trkpt><trkpt lat="44.4272612171314" lon="8.947647816450509"><ele>24.0</ele><time>2026-03-29T10:29:51.002Z</time></trkpt><trkpt lat="44.42716285663265" lon="8.947611743376124"><ele>23.6</ele><time>2026-03-29T10:29:53.002Z</time></trkpt><trkpt lat="44.427066601138584" lon="8.947596914652523"><ele>23.2</ele><time>2026-03-29T10:29:55.002Z</time></trkpt><trkpt lat="44.42696759646146" lon="8.947586294294974"><ele>22.8</ele><time>2026-03-29T10:29:57.002Z</time></trkpt><trkpt lat="44.4268604851151" lon="8.947563420965933"><ele>22.400000000000002</ele><time>2026-03-29T10:29:59.002Z</time></trkpt><trkpt lat="44.42675658333131" lon="8.947550755180227"><ele>22.0</ele><time>2026-03-29T10:30:01.002Z</time></trkpt><trkpt lat="44.426657965626475" lon="8.947548258548135"><ele>22.8</ele><time>2026-03-29T10:30:03.002Z</time></trkpt><trkpt lat="44.42655412772661" lon="8.947519876359713"><ele>23.6</ele><time>2026-03-29T10:30:05.002Z</time></trkpt><trkpt lat="44.42649070534438" lon="8.947500405546542"><ele>24.400000000000002</ele><time>2026-03-29T10:30:06.002Z</time></trkpt><trkpt lat="44.42637074634339" lon="8.947507708202052"><ele>25.200000000000003</ele><time>2026-03-29T10:30:08.002Z</time></trkpt><trkpt lat="44.4262352532438" lon="8.947507085384018"><ele>26.0</ele><time>2026-03-29T10:30:10.002Z</time></trkpt><trkpt lat="44.42617306615203" lon="8.94748858917169"><ele>25.999999999999996</ele><time>2026-03-29T10:30:11.002Z</time></trkpt><trkpt lat="44.42610620891739" lon="8.947479319443918"><ele>26.0</ele><time>2026-03-29T10:30:12.002Z</time></trkpt><trkpt lat="44.42603657498261" lon="8.947471974506325"><ele>26.0</ele><time>2026-03-29T10:30:13.002Z</time></trkpt><trkpt lat="44.425921066726815" lon="8.947462176643691"><ele>26.0</ele><time>2026-03-29T10:30:15Z</time></trkpt><trkpt lat="44.42580106076078" lon="8.947440035039731"><ele>25.999999999999996</ele><time>2026-03-29T10:30:17Z</time></trkpt><trkpt lat="44.42573869128716" lon="8.947423721541663"><ele>26.0</ele><time>2026-03-29T10:30:18Z</time></trkpt><trkpt lat="44.42562446557107" lon="8.947385802607425"><ele>26.0</ele><time>2026-03-29T10:30:20Z</time></trkpt><trkpt lat="44.42551676263985" lon="8.947357833253324"><ele>26.0</ele><time>2026-03-29T10:30:22Z</time></trkpt><trkpt lat="44.42540744310432" lon="8.947338267939182"><ele>26.0</ele><time>2026-03-29T10:30:24Z</time></trkpt><trkpt lat="44.42529238620388" lon="8.947318860874223"><ele>26.0</ele><time>2026-03-29T10:30:26Z</time></trkpt><trkpt lat="44.425171471536395" lon="8.947284725882357"><ele>25.833333333333332</ele><time>2026-03-29T10:30:28Z</time></trkpt><trkpt lat="44.42504533661933" lon="8.947261387436189"><ele>25.666666666666664</ele><time>2026-03-29T10:30:30Z</time></trkpt><trkpt lat="44.424982348791616" lon="8.947251582630466"><ele>25.5</ele><time>2026-03-29T10:30:31Z</time></trkpt><trkpt lat="44.424917075879364" lon="8.94726776808918"><ele>25.333333333333336</ele><time>2026-03-29T10:30:32Z</time></trkpt><trkpt lat="44.42484990833939" lon="8.947255905719146"><ele>25.166666666666668</ele><time>2026-03-29T10:30:33Z</time></trkpt><trkpt lat="44.42478467188304" lon="8.947238355298548"><ele>25.0</ele><time>2026-03-29T10:30:34Z</time></trkpt><trkpt lat="44.42472098636172" lon="8.947238165742496"><ele>25.000000000000004</ele><time>2026-03-29T10:30:35Z</time></trkpt><trkpt lat="44.424652934979" lon="8.94722493170857"><ele>25.0</ele><time>2026-03-29T10:30:36Z</time></trkpt><trkpt lat="44.42458694827632" lon="8.947215721132151"><ele>25.0</ele><time>2026-03-29T10:30:37Z</time></trkpt><trkpt lat="44.424521720660856" lon="8.94719940048015"><ele>25.0</ele><time>2026-03-29T10:30:38Z</time></trkpt><trkpt lat="44.424452729504594" lon="8.947193522517246"><ele>25.0</ele><time>2026-03-29T10:30:39Z</time></trkpt><trkpt lat="44.42438437768733" lon="8.947189054635542"><ele>25.000000000000004</ele><time>2026-03-29T10:30:40Z</time></trkpt><trkpt lat="44.42431867799874" lon="8.947174189284905"><ele>25.0</ele><time>2026-03-29T10:30:41Z</time></trkpt><trkpt lat="44.424252501189585" lon="8.947158675725229"><ele>24.42857142857143</ele><time>2026-03-29T10:30:42Z</time></trkpt><trkpt lat="44.42418125835926" lon="8.947148806889066"><ele>23.857142857142858</ele><time>2026-03-29T10:30:43Z</time></trkpt><trkpt lat="44.42411487801754" lon="8.947138426715682"><ele>23.285714285714285</ele><time>2026-03-29T10:30:44Z</time></trkpt><trkpt lat="44.42404465372095" lon="8.947137970434452"><ele>22.714285714285715</ele><time>2026-03-29T10:30:45Z</time></trkpt><trkpt lat="44.42397891767172" lon="8.947134413021086"><ele>22.142857142857142</ele><time>2026-03-29T10:30:46Z</time></trkpt><trkpt lat="44.42391423703753" lon="8.947130306288766"><ele>21.571428571428573</ele><time>2026-03-29T10:30:47Z</time></trkpt><trkpt lat="44.42384157309646" lon="8.94712673641122"><ele>21.0</ele><time>2026-03-29T10:30:48Z</time></trkpt><trkpt lat="44.42377186101792" lon="8.94711514350615"><ele>20.333333333333332</ele><time>2026-03-29T10:30:49Z</time></trkpt><trkpt lat="44.423708928861835" lon="8.94710158093037"><ele>19.666666666666668</ele><time>2026-03-29T10:30:50Z</time></trkpt><trkpt lat="44.42358578417332" lon="8.947083416408928"><ele>19.0</ele><time>2026-03-29T10:30:52Z</time></trkpt><trkpt lat="44.42351073891105" lon="8.947059659590815"><ele>18.333333333333336</ele><time>2026-03-29T10:30:54Z</time></trkpt><trkpt lat="44.423446143922696" lon="8.947029871068095"><ele>17.666666666666668</ele><time>2026-03-29T10:30:57Z</time></trkpt><trkpt lat="44.423373130936824" lon="8.947029023532918"><ele>17.0</ele><time>2026-03-29T10:30:59.001Z</time></trkpt><trkpt lat="44.42328938223739" lon="8.947019308342346"><ele>16.999999999999996</ele><time>2026-03-29T10:31:02.001Z</time></trkpt><trkpt lat="44.42322628716506" lon="8.947011300595522"><ele>17.0</ele><time>2026-03-29T10:31:04.001Z</time></trkpt><trkpt lat="44.42315238706031" lon="8.946999776352433"><ele>17.0</ele><time>2026-03-29T10:31:07.001Z</time></trkpt><trkpt lat="44.42308423721201" lon="8.947003058083801"><ele>17.0</ele><time>2026-03-29T10:31:10.001Z</time></trkpt><trkpt lat="44.42305772492598" lon="8.946896714122008"><ele>17.0</ele><time>2026-03-29T10:31:50.001Z</time></trkpt><trkpt lat="44.42299220186494" lon="8.946910912443757"><ele>16.999999999999996</ele><time>2026-03-29T10:31:52.001Z</time></trkpt><trkpt lat="44.42292503271297" lon="8.946919575079637"><ele>17.0</ele><time>2026-03-29T10:31:54.001Z</time></trkpt><trkpt lat="44.422843656895694" lon="8.946960895634902"><ele>16.6</ele><time>2026-03-29T10:31:57.002Z</time></trkpt><trkpt lat="44.42275955341231" lon="8.946958796028348"><ele>16.2</ele><time>2026-03-29T10:31:59.002Z</time></trkpt><trkpt lat="44.422672959972616" lon="8.946961429283483"><ele>15.8</ele><time>2026-03-29T10:32:01.002Z</time></trkpt><trkpt lat="44.42257330494847" lon="8.946927945371522"><ele>15.4</ele><time>2026-03-29T10:32:03.002Z</time></trkpt><trkpt lat="44.42247783198983" lon="8.946896700212054"><ele>15.0</ele><time>2026-03-29T10:32:05.002Z</time></trkpt><trkpt lat="44.42236056038081" lon="8.94689999732645"><ele>15.0</ele><time>2026-03-29T10:32:07.002Z</time></trkpt><trkpt lat="44.42224542114468" lon="8.946908311878092"><ele>15.0</ele><time>2026-03-29T10:32:09.002Z</time></trkpt><trkpt lat="44.42219094990849" lon="8.946853704810689"><ele>15.0</ele><time>2026-03-29T10:32:10.002Z</time></trkpt><trkpt lat="44.42207629553238" lon="8.946837787411553"><ele>15.0</ele><time>2026-03-29T10:32:12.002Z</time></trkpt><trkpt lat="44.42201609991776" lon="8.946877972083996"><ele>15.0</ele><time>2026-03-29T10:32:13.002Z</time></trkpt><trkpt lat="44.42189693267471" lon="8.946856530019835"><ele>14.75</ele><time>2026-03-29T10:32:15.002Z</time></trkpt><trkpt lat="44.42177716648023" lon="8.946849784067979"><ele>14.5</ele><time>2026-03-29T10:32:17.002Z</time></trkpt><trkpt lat="44.42165836320847" lon="8.946834324209076"><ele>14.25</ele><time>2026-03-29T10:32:19.002Z</time></trkpt><trkpt lat="44.4215480161532" lon="8.946808804338586"><ele>14.0</ele><time>2026-03-29T10:32:21Z</time></trkpt><trkpt lat="44.42144713883125" lon="8.946811949408009"><ele>14.0</ele><time>2026-03-29T10:32:23Z</time></trkpt><trkpt lat="44.42137272659932" lon="8.946806675332146"><ele>13.999999999999998</ele><time>2026-03-29T10:32:25Z</time></trkpt><trkpt lat="44.42128514898231" lon="8.946800910253712"><ele>13.999999999999998</ele><time>2026-03-29T10:32:27Z</time></trkpt><trkpt lat="44.42118630946997" lon="8.94680128090447"><ele>14.0</ele><time>2026-03-29T10:32:29Z</time></trkpt><trkpt lat="44.421092898395166" lon="8.946815042082871"><ele>14.0</ele><time>2026-03-29T10:32:31Z</time></trkpt><trkpt lat="44.420998722224944" lon="8.946835642312926"><ele>14.0</ele><time>2026-03-29T10:32:33Z</time></trkpt><trkpt lat="44.42090352138632" lon="8.946853560185406"><ele>13.999999999999998</ele><time>2026-03-29T10:32:35Z</time></trkpt><trkpt lat="44.4208116518638" lon="8.946884199214663"><ele>13.999999999999998</ele><time>2026-03-29T10:32:37Z</time></trkpt><trkpt lat="44.420710429649326" lon="8.946881877975425"><ele>14.0</ele><time>2026-03-29T10:32:39Z</time></trkpt><trkpt lat="44.42062084079205" lon="8.946881920240681"><ele>14.0</ele><time>2026-03-29T10:32:41Z</time></trkpt><trkpt lat="44.42063036782198" lon="8.946712378865296"><ele>15.399999999999999</ele><time>2026-03-29T10:37:18.003Z</time></trkpt><trkpt lat="44.4205923328888" lon="8.946571620332705"><ele>16.799999999999997</ele><time>2026-03-29T10:37:20.003Z</time></trkpt><trkpt lat="44.42066169929139" lon="8.946603064298138"><ele>18.200000000000003</ele><time>2026-03-29T10:37:30Z</time></trkpt><trkpt lat="44.42072451056548" lon="8.94661570623469"><ele>19.6</ele><time>2026-03-29T10:37:34Z</time></trkpt><trkpt lat="44.42081828605874" lon="8.94660558687109"><ele>21.0</ele><time>2026-03-29T10:38:18.001Z</time></trkpt><trkpt lat="44.420696964234615" lon="8.946607436086438"><ele>21.0</ele><time>2026-03-29T10:38:28.001Z</time></trkpt><trkpt lat="44.42076506045139" lon="8.946694865747196"><ele>21.0</ele><time>2026-03-29T10:38:46.001Z</time></trkpt><trkpt lat="44.4207419898959" lon="8.946778171799325"><ele>14.0</ele><time>2026-03-29T10:38:59.001Z</time></trkpt><trkpt lat="44.420674067273445" lon="8.946766120554319"><ele>14.0</ele><time>2026-03-29T10:39:00.001Z</time></trkpt><trkpt lat="44.420609467687775" lon="8.946775909405396"><ele>14.0</ele><time>2026-03-29T10:39:02.001Z</time></trkpt><trkpt lat="44.4205500486462" lon="8.94682218012845"><ele>14.0</ele><time>2026-03-29T10:39:07.001Z</time></trkpt></trkseg></trk></gpx>